<?xml version="1.0" encoding="UTF-8" standalone="no" ?>
<gpx xmlns="http://www.topografix.com/GPX/1/1" xmlns:xsi="http://www.w3.org/2001/XMLSchema-instance" xsi:schemaLocation="http://www.topografix.com/GPX/1/1 http://www.topografix.com/GPX/1/1/gpx.xsd" version="1.1" creator="VisuGPX - https://www.visugpx.com">
  <metadata>
    <name>Fontargente-Joclar-Crête des Isards</name>
    <desc><![CDATA[Fontargente-Joclar-Crête des Isards]]></desc>
  </metadata>
  <trk>
    <name><![CDATA[Randocourse]]></name>
    <cmt><![CDATA[Fontargente-Joclar-Crête des isards]]></cmt>
    <trkseg>
      <trkpt lat="42.67273" lon="1.70897">
        <ele>1562.7602539062</ele>
        <time>2011-06-19T05:26:16Z</time>
      </trkpt>
      <trkpt lat="42.67273" lon="1.70889">
        <ele>1562.7602539062</ele>
        <time>2011-06-19T05:26:16Z</time>
      </trkpt>
      <trkpt lat="42.67293" lon="1.7087">
        <ele>1562.2795410156</ele>
        <time>2011-06-19T05:26:19Z</time>
      </trkpt>
      <trkpt lat="42.67283" lon="1.7087">
        <ele>1560.3569335938</ele>
        <time>2011-06-19T05:26:24Z</time>
      </trkpt>
      <trkpt lat="42.67273" lon="1.70871">
        <ele>1557.9538574219</ele>
        <time>2011-06-19T05:26:28Z</time>
      </trkpt>
      <trkpt lat="42.67271" lon="1.7087">
        <ele>1557.4731445312</ele>
        <time>2011-06-19T05:26:29Z</time>
      </trkpt>
      <trkpt lat="42.67257" lon="1.70868">
        <ele>1559.3957519531</ele>
        <time>2011-06-19T05:26:35Z</time>
      </trkpt>
      <trkpt lat="42.67251" lon="1.70868">
        <ele>1560.8376464844</ele>
        <time>2011-06-19T05:26:41Z</time>
      </trkpt>
      <trkpt lat="42.6725" lon="1.70866">
        <ele>1560.3569335938</ele>
        <time>2011-06-19T05:26:48Z</time>
      </trkpt>
      <trkpt lat="42.67249" lon="1.70864">
        <ele>1558.4343261719</ele>
        <time>2011-06-19T05:26:53Z</time>
      </trkpt>
      <trkpt lat="42.67244" lon="1.70861">
        <ele>1558.4343261719</ele>
        <time>2011-06-19T05:26:56Z</time>
      </trkpt>
      <trkpt lat="42.67234" lon="1.70853">
        <ele>1561.318359375</ele>
        <time>2011-06-19T05:27:01Z</time>
      </trkpt>
      <trkpt lat="42.67229" lon="1.7085">
        <ele>1562.2795410156</ele>
        <time>2011-06-19T05:27:04Z</time>
      </trkpt>
      <trkpt lat="42.67216" lon="1.70851">
        <ele>1562.7602539062</ele>
        <time>2011-06-19T05:27:09Z</time>
      </trkpt>
      <trkpt lat="42.67205" lon="1.70857">
        <ele>1563.2409667969</ele>
        <time>2011-06-19T05:27:14Z</time>
      </trkpt>
      <trkpt lat="42.67193" lon="1.70862">
        <ele>1562.2795410156</ele>
        <time>2011-06-19T05:27:20Z</time>
      </trkpt>
      <trkpt lat="42.67184" lon="1.70866">
        <ele>1563.2409667969</ele>
        <time>2011-06-19T05:27:24Z</time>
      </trkpt>
      <trkpt lat="42.67175" lon="1.70869">
        <ele>1564.2023925781</ele>
        <time>2011-06-19T05:27:28Z</time>
      </trkpt>
      <trkpt lat="42.67164" lon="1.70874">
        <ele>1566.6057128906</ele>
        <time>2011-06-19T05:27:33Z</time>
      </trkpt>
      <trkpt lat="42.67156" lon="1.70877">
        <ele>1567.5668945312</ele>
        <time>2011-06-19T05:27:37Z</time>
      </trkpt>
      <trkpt lat="42.67145" lon="1.70882">
        <ele>1567.0864257812</ele>
        <time>2011-06-19T05:27:42Z</time>
      </trkpt>
      <trkpt lat="42.67137" lon="1.70886">
        <ele>1568.0476074219</ele>
        <time>2011-06-19T05:27:46Z</time>
      </trkpt>
      <trkpt lat="42.67127" lon="1.7089">
        <ele>1570.4509277344</ele>
        <time>2011-06-19T05:27:51Z</time>
      </trkpt>
      <trkpt lat="42.67119" lon="1.70892">
        <ele>1571.412109375</ele>
        <time>2011-06-19T05:27:55Z</time>
      </trkpt>
      <trkpt lat="42.67111" lon="1.70895">
        <ele>1571.8928222656</ele>
        <time>2011-06-19T05:27:59Z</time>
      </trkpt>
      <trkpt lat="42.67099" lon="1.70902">
        <ele>1574.7768554688</ele>
        <time>2011-06-19T05:28:04Z</time>
      </trkpt>
      <trkpt lat="42.67089" lon="1.70904">
        <ele>1576.21875</ele>
        <time>2011-06-19T05:28:08Z</time>
      </trkpt>
      <trkpt lat="42.67088" lon="1.70904">
        <ele>1576.21875</ele>
        <time>2011-06-19T05:28:09Z</time>
      </trkpt>
      <trkpt lat="42.67081" lon="1.70907">
        <ele>1578.6220703125</ele>
        <time>2011-06-19T05:28:12Z</time>
      </trkpt>
      <trkpt lat="42.67075" lon="1.70915">
        <ele>1579.5832519531</ele>
        <time>2011-06-19T05:28:16Z</time>
      </trkpt>
      <trkpt lat="42.67073" lon="1.70916">
        <ele>1580.0642089844</ele>
        <time>2011-06-19T05:28:17Z</time>
      </trkpt>
      <trkpt lat="42.67063" lon="1.70922">
        <ele>1579.1025390625</ele>
        <time>2011-06-19T05:28:22Z</time>
      </trkpt>
      <trkpt lat="42.67051" lon="1.7093">
        <ele>1581.9868164062</ele>
        <time>2011-06-19T05:28:27Z</time>
      </trkpt>
      <trkpt lat="42.67038" lon="1.70936">
        <ele>1583.4287109375</ele>
        <time>2011-06-19T05:28:32Z</time>
      </trkpt>
      <trkpt lat="42.67027" lon="1.70939">
        <ele>1582.4675292969</ele>
        <time>2011-06-19T05:28:37Z</time>
      </trkpt>
      <trkpt lat="42.67012" lon="1.70934">
        <ele>1578.6220703125</ele>
        <time>2011-06-19T05:28:42Z</time>
      </trkpt>
      <trkpt lat="42.67003" lon="1.70932">
        <ele>1575.7380371094</ele>
        <time>2011-06-19T05:28:48Z</time>
      </trkpt>
      <trkpt lat="42.66996" lon="1.70931">
        <ele>1574.7768554688</ele>
        <time>2011-06-19T05:28:54Z</time>
      </trkpt>
      <trkpt lat="42.66987" lon="1.70929">
        <ele>1576.6994628906</ele>
        <time>2011-06-19T05:29:02Z</time>
      </trkpt>
      <trkpt lat="42.66978" lon="1.70928">
        <ele>1576.21875</ele>
        <time>2011-06-19T05:29:09Z</time>
      </trkpt>
      <trkpt lat="42.66971" lon="1.70926">
        <ele>1576.21875</ele>
        <time>2011-06-19T05:29:15Z</time>
      </trkpt>
      <trkpt lat="42.66958" lon="1.70923">
        <ele>1578.6220703125</ele>
        <time>2011-06-19T05:29:21Z</time>
      </trkpt>
      <trkpt lat="42.66946" lon="1.70923">
        <ele>1578.1413574219</ele>
        <time>2011-06-19T05:29:27Z</time>
      </trkpt>
      <trkpt lat="42.66934" lon="1.70922">
        <ele>1580.544921875</ele>
        <time>2011-06-19T05:29:33Z</time>
      </trkpt>
      <trkpt lat="42.66922" lon="1.70922">
        <ele>1582.9479980469</ele>
        <time>2011-06-19T05:29:38Z</time>
      </trkpt>
      <trkpt lat="42.66904" lon="1.70928">
        <ele>1587.2739257812</ele>
        <time>2011-06-19T05:29:44Z</time>
      </trkpt>
      <trkpt lat="42.66893" lon="1.70928">
        <ele>1586.7932128906</ele>
        <time>2011-06-19T05:29:50Z</time>
      </trkpt>
      <trkpt lat="42.66882" lon="1.70924">
        <ele>1590.1579589844</ele>
        <time>2011-06-19T05:29:55Z</time>
      </trkpt>
      <trkpt lat="42.66869" lon="1.70921">
        <ele>1593.5224609375</ele>
        <time>2011-06-19T05:30:00Z</time>
      </trkpt>
      <trkpt lat="42.66856" lon="1.70917">
        <ele>1593.5224609375</ele>
        <time>2011-06-19T05:30:05Z</time>
      </trkpt>
      <trkpt lat="42.66844" lon="1.70914">
        <ele>1592.5612792969</ele>
        <time>2011-06-19T05:30:11Z</time>
      </trkpt>
      <trkpt lat="42.66836" lon="1.70913">
        <ele>1587.7546386719</ele>
        <time>2011-06-19T05:30:15Z</time>
      </trkpt>
      <trkpt lat="42.66827" lon="1.7091">
        <ele>1579.5832519531</ele>
        <time>2011-06-19T05:30:25Z</time>
      </trkpt>
      <trkpt lat="42.66813" lon="1.70913">
        <ele>1561.7990722656</ele>
        <time>2011-06-19T05:30:34Z</time>
      </trkpt>
      <trkpt lat="42.66809" lon="1.70915">
        <ele>1556.9924316406</ele>
        <time>2011-06-19T05:30:46Z</time>
      </trkpt>
      <trkpt lat="42.66801" lon="1.70917">
        <ele>1556.51171875</ele>
        <time>2011-06-19T05:30:53Z</time>
      </trkpt>
      <trkpt lat="42.66793" lon="1.70918">
        <ele>1555.5505371094</ele>
        <time>2011-06-19T05:30:59Z</time>
      </trkpt>
      <trkpt lat="42.66786" lon="1.70915">
        <ele>1555.5505371094</ele>
        <time>2011-06-19T05:31:03Z</time>
      </trkpt>
      <trkpt lat="42.66782" lon="1.70914">
        <ele>1556.51171875</ele>
        <time>2011-06-19T05:31:06Z</time>
      </trkpt>
      <trkpt lat="42.66778" lon="1.70913">
        <ele>1557.4731445312</ele>
        <time>2011-06-19T05:31:10Z</time>
      </trkpt>
      <trkpt lat="42.66768" lon="1.70909">
        <ele>1560.3569335938</ele>
        <time>2011-06-19T05:31:18Z</time>
      </trkpt>
      <trkpt lat="42.66758" lon="1.70909">
        <ele>1563.2409667969</ele>
        <time>2011-06-19T05:31:25Z</time>
      </trkpt>
      <trkpt lat="42.66752" lon="1.70909">
        <ele>1564.6831054688</ele>
        <time>2011-06-19T05:31:29Z</time>
      </trkpt>
      <trkpt lat="42.66745" lon="1.70913">
        <ele>1563.7214355469</ele>
        <time>2011-06-19T05:31:35Z</time>
      </trkpt>
      <trkpt lat="42.66739" lon="1.70917">
        <ele>1565.1638183594</ele>
        <time>2011-06-19T05:31:41Z</time>
      </trkpt>
      <trkpt lat="42.66732" lon="1.70925">
        <ele>1566.125</ele>
        <time>2011-06-19T05:31:47Z</time>
      </trkpt>
      <trkpt lat="42.66726" lon="1.7093">
        <ele>1569.0090332031</ele>
        <time>2011-06-19T05:31:52Z</time>
      </trkpt>
      <trkpt lat="42.66718" lon="1.70935">
        <ele>1569.4897460938</ele>
        <time>2011-06-19T05:31:59Z</time>
      </trkpt>
      <trkpt lat="42.66713" lon="1.70935">
        <ele>1569.0090332031</ele>
        <time>2011-06-19T05:32:03Z</time>
      </trkpt>
      <trkpt lat="42.66711" lon="1.70936">
        <ele>1569.0090332031</ele>
        <time>2011-06-19T05:32:05Z</time>
      </trkpt>
      <trkpt lat="42.66705" lon="1.70935">
        <ele>1570.4509277344</ele>
        <time>2011-06-19T05:32:10Z</time>
      </trkpt>
      <trkpt lat="42.667" lon="1.70931">
        <ele>1572.3735351562</ele>
        <time>2011-06-19T05:32:16Z</time>
      </trkpt>
      <trkpt lat="42.6669" lon="1.70927">
        <ele>1574.7768554688</ele>
        <time>2011-06-19T05:32:23Z</time>
      </trkpt>
      <trkpt lat="42.66682" lon="1.70923">
        <ele>1577.1801757812</ele>
        <time>2011-06-19T05:32:29Z</time>
      </trkpt>
      <trkpt lat="42.66676" lon="1.70917">
        <ele>1583.4287109375</ele>
        <time>2011-06-19T05:32:35Z</time>
      </trkpt>
      <trkpt lat="42.66669" lon="1.70915">
        <ele>1582.9479980469</ele>
        <time>2011-06-19T05:32:41Z</time>
      </trkpt>
      <trkpt lat="42.66658" lon="1.70911">
        <ele>1579.5832519531</ele>
        <time>2011-06-19T05:32:48Z</time>
      </trkpt>
      <trkpt lat="42.66653" lon="1.70908">
        <ele>1579.5832519531</ele>
        <time>2011-06-19T05:32:52Z</time>
      </trkpt>
      <trkpt lat="42.66643" lon="1.70905">
        <ele>1580.544921875</ele>
        <time>2011-06-19T05:32:59Z</time>
      </trkpt>
      <trkpt lat="42.66635" lon="1.70901">
        <ele>1581.5061035156</ele>
        <time>2011-06-19T05:33:06Z</time>
      </trkpt>
      <trkpt lat="42.66634" lon="1.709">
        <ele>1581.9868164062</ele>
        <time>2011-06-19T05:33:08Z</time>
      </trkpt>
      <trkpt lat="42.66631" lon="1.70893">
        <ele>1589.6772460938</ele>
        <time>2011-06-19T05:33:16Z</time>
      </trkpt>
      <trkpt lat="42.66629" lon="1.70888">
        <ele>1597.3679199219</ele>
        <time>2011-06-19T05:33:21Z</time>
      </trkpt>
      <trkpt lat="42.66626" lon="1.70884">
        <ele>1598.3291015625</ele>
        <time>2011-06-19T05:33:25Z</time>
      </trkpt>
      <trkpt lat="42.66624" lon="1.7088">
        <ele>1600.251953125</ele>
        <time>2011-06-19T05:33:29Z</time>
      </trkpt>
      <trkpt lat="42.66623" lon="1.70879">
        <ele>1599.7712402344</ele>
        <time>2011-06-19T05:33:30Z</time>
      </trkpt>
      <trkpt lat="42.66617" lon="1.7087">
        <ele>1600.732421875</ele>
        <time>2011-06-19T05:33:37Z</time>
      </trkpt>
      <trkpt lat="42.66611" lon="1.70863">
        <ele>1602.1743164062</ele>
        <time>2011-06-19T05:33:42Z</time>
      </trkpt>
      <trkpt lat="42.66603" lon="1.70856">
        <ele>1603.6164550781</ele>
        <time>2011-06-19T05:33:49Z</time>
      </trkpt>
      <trkpt lat="42.66584" lon="1.70851">
        <ele>1589.6772460938</ele>
        <time>2011-06-19T05:33:57Z</time>
      </trkpt>
      <trkpt lat="42.66572" lon="1.70845">
        <ele>1588.2353515625</ele>
        <time>2011-06-19T05:34:05Z</time>
      </trkpt>
      <trkpt lat="42.6656" lon="1.70838">
        <ele>1587.2739257812</ele>
        <time>2011-06-19T05:34:14Z</time>
      </trkpt>
      <trkpt lat="42.66555" lon="1.70836">
        <ele>1588.2353515625</ele>
        <time>2011-06-19T05:34:18Z</time>
      </trkpt>
      <trkpt lat="42.66549" lon="1.70834">
        <ele>1590.1579589844</ele>
        <time>2011-06-19T05:34:23Z</time>
      </trkpt>
      <trkpt lat="42.66535" lon="1.70829">
        <ele>1592.0805664062</ele>
        <time>2011-06-19T05:34:35Z</time>
      </trkpt>
      <trkpt lat="42.66526" lon="1.70827">
        <ele>1594.4836425781</ele>
        <time>2011-06-19T05:34:42Z</time>
      </trkpt>
      <trkpt lat="42.66518" lon="1.70821">
        <ele>1594.9643554688</ele>
        <time>2011-06-19T05:34:50Z</time>
      </trkpt>
      <trkpt lat="42.66507" lon="1.70813">
        <ele>1598.8098144531</ele>
        <time>2011-06-19T05:35:01Z</time>
      </trkpt>
      <trkpt lat="42.66497" lon="1.70807">
        <ele>1601.6938476562</ele>
        <time>2011-06-19T05:35:10Z</time>
      </trkpt>
      <trkpt lat="42.66486" lon="1.70804">
        <ele>1601.6938476562</ele>
        <time>2011-06-19T05:35:19Z</time>
      </trkpt>
      <trkpt lat="42.66473" lon="1.70803">
        <ele>1602.1743164062</ele>
        <time>2011-06-19T05:35:30Z</time>
      </trkpt>
      <trkpt lat="42.66468" lon="1.70803">
        <ele>1603.6164550781</ele>
        <time>2011-06-19T05:35:37Z</time>
      </trkpt>
      <trkpt lat="42.66462" lon="1.70803">
        <ele>1604.0971679688</ele>
        <time>2011-06-19T05:35:43Z</time>
      </trkpt>
      <trkpt lat="42.6646" lon="1.70803">
        <ele>1604.0971679688</ele>
        <time>2011-06-19T05:35:45Z</time>
      </trkpt>
      <trkpt lat="42.66452" lon="1.70805">
        <ele>1603.6164550781</ele>
        <time>2011-06-19T05:35:51Z</time>
      </trkpt>
      <trkpt lat="42.66438" lon="1.70812">
        <ele>1602.1743164062</ele>
        <time>2011-06-19T05:35:57Z</time>
      </trkpt>
      <trkpt lat="42.66423" lon="1.70821">
        <ele>1600.732421875</ele>
        <time>2011-06-19T05:36:03Z</time>
      </trkpt>
      <trkpt lat="42.66409" lon="1.70825">
        <ele>1601.2131347656</ele>
        <time>2011-06-19T05:36:09Z</time>
      </trkpt>
      <trkpt lat="42.66392" lon="1.70824">
        <ele>1600.732421875</ele>
        <time>2011-06-19T05:36:16Z</time>
      </trkpt>
      <trkpt lat="42.6638" lon="1.70822">
        <ele>1600.732421875</ele>
        <time>2011-06-19T05:36:21Z</time>
      </trkpt>
      <trkpt lat="42.66365" lon="1.70815">
        <ele>1600.732421875</ele>
        <time>2011-06-19T05:36:27Z</time>
      </trkpt>
      <trkpt lat="42.66354" lon="1.70807">
        <ele>1601.2131347656</ele>
        <time>2011-06-19T05:36:32Z</time>
      </trkpt>
      <trkpt lat="42.66343" lon="1.708">
        <ele>1601.6938476562</ele>
        <time>2011-06-19T05:36:37Z</time>
      </trkpt>
      <trkpt lat="42.66331" lon="1.70795">
        <ele>1602.1743164062</ele>
        <time>2011-06-19T05:36:42Z</time>
      </trkpt>
      <trkpt lat="42.66314" lon="1.70792">
        <ele>1603.1357421875</ele>
        <time>2011-06-19T05:36:49Z</time>
      </trkpt>
      <trkpt lat="42.66299" lon="1.7079">
        <ele>1601.6938476562</ele>
        <time>2011-06-19T05:36:55Z</time>
      </trkpt>
      <trkpt lat="42.66287" lon="1.70791">
        <ele>1600.732421875</ele>
        <time>2011-06-19T05:37:00Z</time>
      </trkpt>
      <trkpt lat="42.66273" lon="1.70789">
        <ele>1600.732421875</ele>
        <time>2011-06-19T05:37:06Z</time>
      </trkpt>
      <trkpt lat="42.66261" lon="1.70787">
        <ele>1599.7712402344</ele>
        <time>2011-06-19T05:37:11Z</time>
      </trkpt>
      <trkpt lat="42.66247" lon="1.70781">
        <ele>1598.3291015625</ele>
        <time>2011-06-19T05:37:17Z</time>
      </trkpt>
      <trkpt lat="42.66231" lon="1.70771">
        <ele>1598.8098144531</ele>
        <time>2011-06-19T05:37:23Z</time>
      </trkpt>
      <trkpt lat="42.66216" lon="1.70763">
        <ele>1599.7712402344</ele>
        <time>2011-06-19T05:37:29Z</time>
      </trkpt>
      <trkpt lat="42.66204" lon="1.70756">
        <ele>1600.251953125</ele>
        <time>2011-06-19T05:37:34Z</time>
      </trkpt>
      <trkpt lat="42.66191" lon="1.70744">
        <ele>1599.7712402344</ele>
        <time>2011-06-19T05:37:40Z</time>
      </trkpt>
      <trkpt lat="42.66181" lon="1.70737">
        <ele>1602.6550292969</ele>
        <time>2011-06-19T05:37:44Z</time>
      </trkpt>
      <trkpt lat="42.66172" lon="1.70733">
        <ele>1602.1743164062</ele>
        <time>2011-06-19T05:37:48Z</time>
      </trkpt>
      <trkpt lat="42.66161" lon="1.70728">
        <ele>1607.4616699219</ele>
        <time>2011-06-19T05:37:53Z</time>
      </trkpt>
      <trkpt lat="42.66156" lon="1.70719">
        <ele>1615.15234375</ele>
        <time>2011-06-19T05:37:59Z</time>
      </trkpt>
      <trkpt lat="42.6615" lon="1.70712">
        <ele>1618.0361328125</ele>
        <time>2011-06-19T05:38:05Z</time>
      </trkpt>
      <trkpt lat="42.66137" lon="1.70711">
        <ele>1612.2683105469</ele>
        <time>2011-06-19T05:38:11Z</time>
      </trkpt>
      <trkpt lat="42.66123" lon="1.70709">
        <ele>1606.01953125</ele>
        <time>2011-06-19T05:38:19Z</time>
      </trkpt>
      <trkpt lat="42.66112" lon="1.70705">
        <ele>1606.5002441406</ele>
        <time>2011-06-19T05:38:27Z</time>
      </trkpt>
      <trkpt lat="42.66103" lon="1.70699">
        <ele>1607.4616699219</ele>
        <time>2011-06-19T05:38:34Z</time>
      </trkpt>
      <trkpt lat="42.6609" lon="1.70696">
        <ele>1609.3842773438</ele>
        <time>2011-06-19T05:38:42Z</time>
      </trkpt>
      <trkpt lat="42.66079" lon="1.70694">
        <ele>1608.4228515625</ele>
        <time>2011-06-19T05:38:50Z</time>
      </trkpt>
      <trkpt lat="42.66067" lon="1.70693">
        <ele>1609.3842773438</ele>
        <time>2011-06-19T05:38:58Z</time>
      </trkpt>
      <trkpt lat="42.66057" lon="1.70691">
        <ele>1610.826171875</ele>
        <time>2011-06-19T05:39:06Z</time>
      </trkpt>
      <trkpt lat="42.66055" lon="1.7069">
        <ele>1610.826171875</ele>
        <time>2011-06-19T05:39:07Z</time>
      </trkpt>
      <trkpt lat="42.66044" lon="1.70689">
        <ele>1612.2683105469</ele>
        <time>2011-06-19T05:39:14Z</time>
      </trkpt>
      <trkpt lat="42.66034" lon="1.70686">
        <ele>1611.3068847656</ele>
        <time>2011-06-19T05:39:21Z</time>
      </trkpt>
      <trkpt lat="42.66028" lon="1.70685">
        <ele>1609.8647460938</ele>
        <time>2011-06-19T05:39:26Z</time>
      </trkpt>
      <trkpt lat="42.66019" lon="1.70685">
        <ele>1608.4228515625</ele>
        <time>2011-06-19T05:39:32Z</time>
      </trkpt>
      <trkpt lat="42.66011" lon="1.70687">
        <ele>1609.3842773438</ele>
        <time>2011-06-19T05:39:37Z</time>
      </trkpt>
      <trkpt lat="42.66004" lon="1.70689">
        <ele>1608.9035644531</ele>
        <time>2011-06-19T05:39:42Z</time>
      </trkpt>
      <trkpt lat="42.65997" lon="1.70689">
        <ele>1607.9423828125</ele>
        <time>2011-06-19T05:39:47Z</time>
      </trkpt>
      <trkpt lat="42.65983" lon="1.70689">
        <ele>1610.3454589844</ele>
        <time>2011-06-19T05:39:57Z</time>
      </trkpt>
      <trkpt lat="42.65971" lon="1.70689">
        <ele>1614.6716308594</ele>
        <time>2011-06-19T05:40:05Z</time>
      </trkpt>
      <trkpt lat="42.65961" lon="1.70689">
        <ele>1617.0749511719</ele>
        <time>2011-06-19T05:40:12Z</time>
      </trkpt>
      <trkpt lat="42.65952" lon="1.70687">
        <ele>1616.1135253906</ele>
        <time>2011-06-19T05:40:19Z</time>
      </trkpt>
      <trkpt lat="42.65937" lon="1.70689">
        <ele>1619.9587402344</ele>
        <time>2011-06-19T05:40:28Z</time>
      </trkpt>
      <trkpt lat="42.65928" lon="1.7069">
        <ele>1619.9587402344</ele>
        <time>2011-06-19T05:40:35Z</time>
      </trkpt>
      <trkpt lat="42.65919" lon="1.70691">
        <ele>1620.9201660156</ele>
        <time>2011-06-19T05:40:41Z</time>
      </trkpt>
      <trkpt lat="42.65908" lon="1.7069">
        <ele>1622.3620605469</ele>
        <time>2011-06-19T05:40:49Z</time>
      </trkpt>
      <trkpt lat="42.65897" lon="1.70688">
        <ele>1621.4006347656</ele>
        <time>2011-06-19T05:40:57Z</time>
      </trkpt>
      <trkpt lat="42.65895" lon="1.70687">
        <ele>1620.9201660156</ele>
        <time>2011-06-19T05:40:58Z</time>
      </trkpt>
      <trkpt lat="42.65884" lon="1.70688">
        <ele>1621.8813476562</ele>
        <time>2011-06-19T05:41:06Z</time>
      </trkpt>
      <trkpt lat="42.65875" lon="1.70688">
        <ele>1623.3234863281</ele>
        <time>2011-06-19T05:41:13Z</time>
      </trkpt>
      <trkpt lat="42.65865" lon="1.70688">
        <ele>1624.2846679688</ele>
        <time>2011-06-19T05:41:20Z</time>
      </trkpt>
      <trkpt lat="42.65854" lon="1.70686">
        <ele>1625.7265625</ele>
        <time>2011-06-19T05:41:28Z</time>
      </trkpt>
      <trkpt lat="42.65843" lon="1.70684">
        <ele>1629.5720214844</ele>
        <time>2011-06-19T05:41:35Z</time>
      </trkpt>
      <trkpt lat="42.65834" lon="1.70682">
        <ele>1626.6879882812</ele>
        <time>2011-06-19T05:41:43Z</time>
      </trkpt>
      <trkpt lat="42.65822" lon="1.70683">
        <ele>1631.0141601562</ele>
        <time>2011-06-19T05:41:51Z</time>
      </trkpt>
      <trkpt lat="42.65811" lon="1.70682">
        <ele>1631.0141601562</ele>
        <time>2011-06-19T05:41:59Z</time>
      </trkpt>
      <trkpt lat="42.65799" lon="1.70681">
        <ele>1629.5720214844</ele>
        <time>2011-06-19T05:42:08Z</time>
      </trkpt>
      <trkpt lat="42.65791" lon="1.70683">
        <ele>1629.5720214844</ele>
        <time>2011-06-19T05:42:14Z</time>
      </trkpt>
      <trkpt lat="42.65782" lon="1.70683">
        <ele>1629.0913085938</ele>
        <time>2011-06-19T05:42:20Z</time>
      </trkpt>
      <trkpt lat="42.65776" lon="1.70684">
        <ele>1629.0913085938</ele>
        <time>2011-06-19T05:42:24Z</time>
      </trkpt>
      <trkpt lat="42.65767" lon="1.70683">
        <ele>1629.5720214844</ele>
        <time>2011-06-19T05:42:30Z</time>
      </trkpt>
      <trkpt lat="42.65756" lon="1.70682">
        <ele>1631.0141601562</ele>
        <time>2011-06-19T05:42:37Z</time>
      </trkpt>
      <trkpt lat="42.65749" lon="1.70681">
        <ele>1631.0141601562</ele>
        <time>2011-06-19T05:42:43Z</time>
      </trkpt>
      <trkpt lat="42.65742" lon="1.70682">
        <ele>1634.3786621094</ele>
        <time>2011-06-19T05:42:49Z</time>
      </trkpt>
      <trkpt lat="42.65734" lon="1.70684">
        <ele>1634.859375</ele>
        <time>2011-06-19T05:42:55Z</time>
      </trkpt>
      <trkpt lat="42.65725" lon="1.70683">
        <ele>1635.33984375</ele>
        <time>2011-06-19T05:43:02Z</time>
      </trkpt>
      <trkpt lat="42.65713" lon="1.70679">
        <ele>1639.1850585938</ele>
        <time>2011-06-19T05:43:11Z</time>
      </trkpt>
      <trkpt lat="42.65704" lon="1.70674">
        <ele>1641.5883789062</ele>
        <time>2011-06-19T05:43:18Z</time>
      </trkpt>
      <trkpt lat="42.65697" lon="1.70673">
        <ele>1642.0690917969</ele>
        <time>2011-06-19T05:43:23Z</time>
      </trkpt>
      <trkpt lat="42.65688" lon="1.70673">
        <ele>1642.5498046875</ele>
        <time>2011-06-19T05:43:30Z</time>
      </trkpt>
      <trkpt lat="42.65679" lon="1.7067">
        <ele>1642.0690917969</ele>
        <time>2011-06-19T05:43:37Z</time>
      </trkpt>
      <trkpt lat="42.65668" lon="1.70668">
        <ele>1646.8757324219</ele>
        <time>2011-06-19T05:43:45Z</time>
      </trkpt>
      <trkpt lat="42.65657" lon="1.70667">
        <ele>1647.3564453125</ele>
        <time>2011-06-19T05:43:53Z</time>
      </trkpt>
      <trkpt lat="42.65648" lon="1.7067">
        <ele>1647.3564453125</ele>
        <time>2011-06-19T05:44:00Z</time>
      </trkpt>
      <trkpt lat="42.65637" lon="1.70673">
        <ele>1645.4338378906</ele>
        <time>2011-06-19T05:44:08Z</time>
      </trkpt>
      <trkpt lat="42.65626" lon="1.70672">
        <ele>1647.8371582031</ele>
        <time>2011-06-19T05:44:16Z</time>
      </trkpt>
      <trkpt lat="42.65617" lon="1.70669">
        <ele>1648.7983398438</ele>
        <time>2011-06-19T05:44:22Z</time>
      </trkpt>
      <trkpt lat="42.65604" lon="1.7066">
        <ele>1653.6049804688</ele>
        <time>2011-06-19T05:44:33Z</time>
      </trkpt>
      <trkpt lat="42.65592" lon="1.70654">
        <ele>1656.4887695312</ele>
        <time>2011-06-19T05:44:42Z</time>
      </trkpt>
      <trkpt lat="42.6558" lon="1.70652">
        <ele>1657.4501953125</ele>
        <time>2011-06-19T05:44:52Z</time>
      </trkpt>
      <trkpt lat="42.65571" lon="1.70651">
        <ele>1656.4887695312</ele>
        <time>2011-06-19T05:44:59Z</time>
      </trkpt>
      <trkpt lat="42.65563" lon="1.70649">
        <ele>1657.9309082031</ele>
        <time>2011-06-19T05:45:06Z</time>
      </trkpt>
      <trkpt lat="42.65552" lon="1.70644">
        <ele>1659.3728027344</ele>
        <time>2011-06-19T05:45:15Z</time>
      </trkpt>
      <trkpt lat="42.65548" lon="1.70642">
        <ele>1659.8532714844</ele>
        <time>2011-06-19T05:45:18Z</time>
      </trkpt>
      <trkpt lat="42.65541" lon="1.70641">
        <ele>1662.2568359375</ele>
        <time>2011-06-19T05:45:24Z</time>
      </trkpt>
      <trkpt lat="42.65532" lon="1.7064">
        <ele>1665.6215820312</ele>
        <time>2011-06-19T05:45:31Z</time>
      </trkpt>
      <trkpt lat="42.6552" lon="1.70639">
        <ele>1666.1020507812</ele>
        <time>2011-06-19T05:45:40Z</time>
      </trkpt>
      <trkpt lat="42.65511" lon="1.70638">
        <ele>1665.6215820312</ele>
        <time>2011-06-19T05:45:47Z</time>
      </trkpt>
      <trkpt lat="42.65499" lon="1.7064">
        <ele>1665.6215820312</ele>
        <time>2011-06-19T05:45:56Z</time>
      </trkpt>
      <trkpt lat="42.65491" lon="1.70642">
        <ele>1666.5827636719</ele>
        <time>2011-06-19T05:46:02Z</time>
      </trkpt>
      <trkpt lat="42.6548" lon="1.70644">
        <ele>1666.5827636719</ele>
        <time>2011-06-19T05:46:07Z</time>
      </trkpt>
      <trkpt lat="42.65478" lon="1.70644">
        <ele>1666.5827636719</ele>
        <time>2011-06-19T05:46:08Z</time>
      </trkpt>
      <trkpt lat="42.65462" lon="1.70636">
        <ele>1661.7763671875</ele>
        <time>2011-06-19T05:46:14Z</time>
      </trkpt>
      <trkpt lat="42.65453" lon="1.70629">
        <ele>1659.3728027344</ele>
        <time>2011-06-19T05:46:20Z</time>
      </trkpt>
      <trkpt lat="42.65446" lon="1.70623">
        <ele>1656.0080566406</ele>
        <time>2011-06-19T05:46:25Z</time>
      </trkpt>
      <trkpt lat="42.65438" lon="1.70615">
        <ele>1657.9309082031</ele>
        <time>2011-06-19T05:46:32Z</time>
      </trkpt>
      <trkpt lat="42.65429" lon="1.70605">
        <ele>1660.8149414062</ele>
        <time>2011-06-19T05:46:41Z</time>
      </trkpt>
      <trkpt lat="42.65422" lon="1.70598">
        <ele>1664.66015625</ele>
        <time>2011-06-19T05:46:47Z</time>
      </trkpt>
      <trkpt lat="42.65417" lon="1.7059">
        <ele>1668.5053710938</ele>
        <time>2011-06-19T05:46:53Z</time>
      </trkpt>
      <trkpt lat="42.6541" lon="1.70582">
        <ele>1672.8312988281</ele>
        <time>2011-06-19T05:46:59Z</time>
      </trkpt>
      <trkpt lat="42.65403" lon="1.70573">
        <ele>1675.7150878906</ele>
        <time>2011-06-19T05:47:06Z</time>
      </trkpt>
      <trkpt lat="42.65395" lon="1.70563">
        <ele>1678.5993652344</ele>
        <time>2011-06-19T05:47:14Z</time>
      </trkpt>
      <trkpt lat="42.65387" lon="1.70556">
        <ele>1680.0412597656</ele>
        <time>2011-06-19T05:47:21Z</time>
      </trkpt>
      <trkpt lat="42.65382" lon="1.70549">
        <ele>1680.0412597656</ele>
        <time>2011-06-19T05:47:27Z</time>
      </trkpt>
      <trkpt lat="42.65374" lon="1.70544">
        <ele>1680.0412597656</ele>
        <time>2011-06-19T05:47:35Z</time>
      </trkpt>
      <trkpt lat="42.65369" lon="1.70542">
        <ele>1681.4831542969</ele>
        <time>2011-06-19T05:47:39Z</time>
      </trkpt>
      <trkpt lat="42.65361" lon="1.70539">
        <ele>1681.9638671875</ele>
        <time>2011-06-19T05:47:47Z</time>
      </trkpt>
      <trkpt lat="42.65352" lon="1.70535">
        <ele>1682.4445800781</ele>
        <time>2011-06-19T05:47:56Z</time>
      </trkpt>
      <trkpt lat="42.65342" lon="1.70532">
        <ele>1683.4057617188</ele>
        <time>2011-06-19T05:48:05Z</time>
      </trkpt>
      <trkpt lat="42.65331" lon="1.70527">
        <ele>1686.2897949219</ele>
        <time>2011-06-19T05:48:14Z</time>
      </trkpt>
      <trkpt lat="42.65323" lon="1.70519">
        <ele>1689.654296875</ele>
        <time>2011-06-19T05:48:22Z</time>
      </trkpt>
      <trkpt lat="42.65314" lon="1.7051">
        <ele>1691.5769042969</ele>
        <time>2011-06-19T05:48:30Z</time>
      </trkpt>
      <trkpt lat="42.65308" lon="1.70503">
        <ele>1694.4609375</ele>
        <time>2011-06-19T05:48:37Z</time>
      </trkpt>
      <trkpt lat="42.653" lon="1.70496">
        <ele>1696.8642578125</ele>
        <time>2011-06-19T05:48:45Z</time>
      </trkpt>
      <trkpt lat="42.65293" lon="1.70489">
        <ele>1696.3837890625</ele>
        <time>2011-06-19T05:48:53Z</time>
      </trkpt>
      <trkpt lat="42.65287" lon="1.70485">
        <ele>1695.4223632812</ele>
        <time>2011-06-19T05:48:59Z</time>
      </trkpt>
      <trkpt lat="42.65275" lon="1.70475">
        <ele>1699.7482910156</ele>
        <time>2011-06-19T05:49:09Z</time>
      </trkpt>
      <trkpt lat="42.65266" lon="1.70465">
        <ele>1702.6320800781</ele>
        <time>2011-06-19T05:49:17Z</time>
      </trkpt>
      <trkpt lat="42.65261" lon="1.70456">
        <ele>1702.6320800781</ele>
        <time>2011-06-19T05:49:24Z</time>
      </trkpt>
      <trkpt lat="42.65255" lon="1.70444">
        <ele>1702.1513671875</ele>
        <time>2011-06-19T05:49:33Z</time>
      </trkpt>
      <trkpt lat="42.65244" lon="1.70429">
        <ele>1705.0354003906</ele>
        <time>2011-06-19T05:49:44Z</time>
      </trkpt>
      <trkpt lat="42.65237" lon="1.7042">
        <ele>1706.9580078125</ele>
        <time>2011-06-19T05:49:52Z</time>
      </trkpt>
      <trkpt lat="42.65227" lon="1.70413">
        <ele>1708.880859375</ele>
        <time>2011-06-19T05:50:01Z</time>
      </trkpt>
      <trkpt lat="42.65215" lon="1.70407">
        <ele>1708.4001464844</ele>
        <time>2011-06-19T05:50:11Z</time>
      </trkpt>
      <trkpt lat="42.65205" lon="1.70399">
        <ele>1707.9194335938</ele>
        <time>2011-06-19T05:50:20Z</time>
      </trkpt>
      <trkpt lat="42.65198" lon="1.70395">
        <ele>1710.3227539062</ele>
        <time>2011-06-19T05:50:26Z</time>
      </trkpt>
      <trkpt lat="42.65189" lon="1.7039">
        <ele>1711.2841796875</ele>
        <time>2011-06-19T05:50:33Z</time>
      </trkpt>
      <trkpt lat="42.65179" lon="1.70382">
        <ele>1711.7648925781</ele>
        <time>2011-06-19T05:50:42Z</time>
      </trkpt>
      <trkpt lat="42.65166" lon="1.70375">
        <ele>1712.2453613281</ele>
        <time>2011-06-19T05:50:52Z</time>
      </trkpt>
      <trkpt lat="42.65156" lon="1.70366">
        <ele>1711.7648925781</ele>
        <time>2011-06-19T05:51:01Z</time>
      </trkpt>
      <trkpt lat="42.65144" lon="1.70358">
        <ele>1713.6872558594</ele>
        <time>2011-06-19T05:51:10Z</time>
      </trkpt>
      <trkpt lat="42.65134" lon="1.70354">
        <ele>1712.7260742188</ele>
        <time>2011-06-19T05:51:18Z</time>
      </trkpt>
      <trkpt lat="42.65121" lon="1.70352">
        <ele>1710.3227539062</ele>
        <time>2011-06-19T05:51:27Z</time>
      </trkpt>
      <trkpt lat="42.65114" lon="1.70352">
        <ele>1709.3615722656</ele>
        <time>2011-06-19T05:51:32Z</time>
      </trkpt>
      <trkpt lat="42.65103" lon="1.70353">
        <ele>1708.880859375</ele>
        <time>2011-06-19T05:51:40Z</time>
      </trkpt>
      <trkpt lat="42.65094" lon="1.70355">
        <ele>1709.8420410156</ele>
        <time>2011-06-19T05:51:47Z</time>
      </trkpt>
      <trkpt lat="42.65083" lon="1.70356">
        <ele>1712.7260742188</ele>
        <time>2011-06-19T05:51:54Z</time>
      </trkpt>
      <trkpt lat="42.65071" lon="1.70354">
        <ele>1712.2453613281</ele>
        <time>2011-06-19T05:52:02Z</time>
      </trkpt>
      <trkpt lat="42.6506" lon="1.70355">
        <ele>1711.7648925781</ele>
        <time>2011-06-19T05:52:10Z</time>
      </trkpt>
      <trkpt lat="42.6505" lon="1.70357">
        <ele>1710.3227539062</ele>
        <time>2011-06-19T05:52:17Z</time>
      </trkpt>
      <trkpt lat="42.65041" lon="1.70355">
        <ele>1710.3227539062</ele>
        <time>2011-06-19T05:52:23Z</time>
      </trkpt>
      <trkpt lat="42.65027" lon="1.70355">
        <ele>1711.2841796875</ele>
        <time>2011-06-19T05:52:32Z</time>
      </trkpt>
      <trkpt lat="42.65017" lon="1.70355">
        <ele>1711.7648925781</ele>
        <time>2011-06-19T05:52:39Z</time>
      </trkpt>
      <trkpt lat="42.65007" lon="1.70357">
        <ele>1712.2453613281</ele>
        <time>2011-06-19T05:52:45Z</time>
      </trkpt>
      <trkpt lat="42.64998" lon="1.70357">
        <ele>1710.8034667969</ele>
        <time>2011-06-19T05:52:51Z</time>
      </trkpt>
      <trkpt lat="42.64988" lon="1.7036">
        <ele>1713.2067871094</ele>
        <time>2011-06-19T05:52:58Z</time>
      </trkpt>
      <trkpt lat="42.64975" lon="1.70358">
        <ele>1712.7260742188</ele>
        <time>2011-06-19T05:53:07Z</time>
      </trkpt>
      <trkpt lat="42.64964" lon="1.70358">
        <ele>1712.7260742188</ele>
        <time>2011-06-19T05:53:15Z</time>
      </trkpt>
      <trkpt lat="42.6495" lon="1.70357">
        <ele>1713.6872558594</ele>
        <time>2011-06-19T05:53:25Z</time>
      </trkpt>
      <trkpt lat="42.64942" lon="1.70357">
        <ele>1714.16796875</ele>
        <time>2011-06-19T05:53:31Z</time>
      </trkpt>
      <trkpt lat="42.64933" lon="1.70357">
        <ele>1714.16796875</ele>
        <time>2011-06-19T05:53:38Z</time>
      </trkpt>
      <trkpt lat="42.64932" lon="1.70356">
        <ele>1713.6872558594</ele>
        <time>2011-06-19T05:53:44Z</time>
      </trkpt>
      <trkpt lat="42.64931" lon="1.70356">
        <ele>1715.6101074219</ele>
        <time>2011-06-19T05:54:05Z</time>
      </trkpt>
      <trkpt lat="42.6493" lon="1.70358">
        <ele>1719.4553222656</ele>
        <time>2011-06-19T05:54:23Z</time>
      </trkpt>
      <trkpt lat="42.64925" lon="1.70362">
        <ele>1720.4165039062</ele>
        <time>2011-06-19T05:54:54Z</time>
      </trkpt>
      <trkpt lat="42.64921" lon="1.70363">
        <ele>1719.9357910156</ele>
        <time>2011-06-19T05:54:59Z</time>
      </trkpt>
      <trkpt lat="42.64915" lon="1.70364">
        <ele>1717.5324707031</ele>
        <time>2011-06-19T05:55:06Z</time>
      </trkpt>
      <trkpt lat="42.64907" lon="1.70363">
        <ele>1717.0520019531</ele>
        <time>2011-06-19T05:55:13Z</time>
      </trkpt>
      <trkpt lat="42.649" lon="1.7036">
        <ele>1714.6486816406</ele>
        <time>2011-06-19T05:55:20Z</time>
      </trkpt>
      <trkpt lat="42.64896" lon="1.70358">
        <ele>1713.6872558594</ele>
        <time>2011-06-19T05:55:25Z</time>
      </trkpt>
      <trkpt lat="42.6489" lon="1.7036">
        <ele>1713.2067871094</ele>
        <time>2011-06-19T05:55:30Z</time>
      </trkpt>
      <trkpt lat="42.64885" lon="1.70362">
        <ele>1712.2453613281</ele>
        <time>2011-06-19T05:55:37Z</time>
      </trkpt>
      <trkpt lat="42.64879" lon="1.7036">
        <ele>1711.7648925781</ele>
        <time>2011-06-19T05:55:44Z</time>
      </trkpt>
      <trkpt lat="42.64874" lon="1.7036">
        <ele>1711.7648925781</ele>
        <time>2011-06-19T05:55:51Z</time>
      </trkpt>
      <trkpt lat="42.6487" lon="1.70358">
        <ele>1712.7260742188</ele>
        <time>2011-06-19T05:55:56Z</time>
      </trkpt>
      <trkpt lat="42.64869" lon="1.70359">
        <ele>1712.2453613281</ele>
        <time>2011-06-19T05:55:57Z</time>
      </trkpt>
      <trkpt lat="42.64863" lon="1.70358">
        <ele>1712.2453613281</ele>
        <time>2011-06-19T05:56:01Z</time>
      </trkpt>
      <trkpt lat="42.64854" lon="1.70362">
        <ele>1710.8034667969</ele>
        <time>2011-06-19T05:56:07Z</time>
      </trkpt>
      <trkpt lat="42.64848" lon="1.70359">
        <ele>1709.8420410156</ele>
        <time>2011-06-19T05:56:13Z</time>
      </trkpt>
      <trkpt lat="42.64846" lon="1.70359">
        <ele>1709.3615722656</ele>
        <time>2011-06-19T05:56:15Z</time>
      </trkpt>
      <trkpt lat="42.6484" lon="1.70363">
        <ele>1709.8420410156</ele>
        <time>2011-06-19T05:56:20Z</time>
      </trkpt>
      <trkpt lat="42.64833" lon="1.70363">
        <ele>1710.3227539062</ele>
        <time>2011-06-19T05:56:27Z</time>
      </trkpt>
      <trkpt lat="42.64828" lon="1.70362">
        <ele>1711.2841796875</ele>
        <time>2011-06-19T05:56:33Z</time>
      </trkpt>
      <trkpt lat="42.64823" lon="1.70361">
        <ele>1712.2453613281</ele>
        <time>2011-06-19T05:56:39Z</time>
      </trkpt>
      <trkpt lat="42.64819" lon="1.70363">
        <ele>1712.2453613281</ele>
        <time>2011-06-19T05:56:44Z</time>
      </trkpt>
      <trkpt lat="42.64812" lon="1.70364">
        <ele>1711.7648925781</ele>
        <time>2011-06-19T05:56:51Z</time>
      </trkpt>
      <trkpt lat="42.64809" lon="1.70366">
        <ele>1712.2453613281</ele>
        <time>2011-06-19T05:56:56Z</time>
      </trkpt>
      <trkpt lat="42.64806" lon="1.70363">
        <ele>1712.7260742188</ele>
        <time>2011-06-19T05:57:01Z</time>
      </trkpt>
      <trkpt lat="42.64806" lon="1.70363">
        <ele>1713.6872558594</ele>
        <time>2011-06-19T05:57:06Z</time>
      </trkpt>
      <trkpt lat="42.64804" lon="1.70364">
        <ele>1713.6872558594</ele>
        <time>2011-06-19T05:57:11Z</time>
      </trkpt>
      <trkpt lat="42.64803" lon="1.7036">
        <ele>1713.6872558594</ele>
        <time>2011-06-19T05:57:17Z</time>
      </trkpt>
      <trkpt lat="42.64799" lon="1.70359">
        <ele>1713.2067871094</ele>
        <time>2011-06-19T05:57:22Z</time>
      </trkpt>
      <trkpt lat="42.64797" lon="1.70358">
        <ele>1713.6872558594</ele>
        <time>2011-06-19T05:57:27Z</time>
      </trkpt>
      <trkpt lat="42.64794" lon="1.70356">
        <ele>1713.6872558594</ele>
        <time>2011-06-19T05:57:30Z</time>
      </trkpt>
      <trkpt lat="42.64791" lon="1.70351">
        <ele>1714.16796875</ele>
        <time>2011-06-19T05:57:34Z</time>
      </trkpt>
      <trkpt lat="42.64784" lon="1.70348">
        <ele>1715.1293945312</ele>
        <time>2011-06-19T05:57:41Z</time>
      </trkpt>
      <trkpt lat="42.64779" lon="1.70348">
        <ele>1716.0905761719</ele>
        <time>2011-06-19T05:57:46Z</time>
      </trkpt>
      <trkpt lat="42.64775" lon="1.70346">
        <ele>1717.0520019531</ele>
        <time>2011-06-19T05:57:53Z</time>
      </trkpt>
      <trkpt lat="42.6477" lon="1.70345">
        <ele>1717.0520019531</ele>
        <time>2011-06-19T05:58:00Z</time>
      </trkpt>
      <trkpt lat="42.64765" lon="1.70342">
        <ele>1716.0905761719</ele>
        <time>2011-06-19T05:58:06Z</time>
      </trkpt>
      <trkpt lat="42.64761" lon="1.7034">
        <ele>1716.0905761719</ele>
        <time>2011-06-19T05:58:11Z</time>
      </trkpt>
      <trkpt lat="42.64758" lon="1.70336">
        <ele>1715.6101074219</ele>
        <time>2011-06-19T05:58:17Z</time>
      </trkpt>
      <trkpt lat="42.64753" lon="1.70334">
        <ele>1716.5712890625</ele>
        <time>2011-06-19T05:58:23Z</time>
      </trkpt>
      <trkpt lat="42.64746" lon="1.70335">
        <ele>1718.4938964844</ele>
        <time>2011-06-19T05:58:30Z</time>
      </trkpt>
      <trkpt lat="42.64742" lon="1.70336">
        <ele>1718.4938964844</ele>
        <time>2011-06-19T05:58:34Z</time>
      </trkpt>
      <trkpt lat="42.64735" lon="1.70335">
        <ele>1718.0131835938</ele>
        <time>2011-06-19T05:58:42Z</time>
      </trkpt>
      <trkpt lat="42.64729" lon="1.70334">
        <ele>1718.4938964844</ele>
        <time>2011-06-19T05:58:49Z</time>
      </trkpt>
      <trkpt lat="42.64724" lon="1.70331">
        <ele>1718.0131835938</ele>
        <time>2011-06-19T05:58:56Z</time>
      </trkpt>
      <trkpt lat="42.64715" lon="1.70329">
        <ele>1718.4938964844</ele>
        <time>2011-06-19T05:59:04Z</time>
      </trkpt>
      <trkpt lat="42.64711" lon="1.70328">
        <ele>1718.0131835938</ele>
        <time>2011-06-19T05:59:08Z</time>
      </trkpt>
      <trkpt lat="42.64705" lon="1.70326">
        <ele>1719.9357910156</ele>
        <time>2011-06-19T05:59:14Z</time>
      </trkpt>
      <trkpt lat="42.647" lon="1.70321">
        <ele>1722.8198242188</ele>
        <time>2011-06-19T05:59:22Z</time>
      </trkpt>
      <trkpt lat="42.64696" lon="1.70321">
        <ele>1724.7426757812</ele>
        <time>2011-06-19T05:59:28Z</time>
      </trkpt>
      <trkpt lat="42.64691" lon="1.70319">
        <ele>1724.2619628906</ele>
        <time>2011-06-19T05:59:34Z</time>
      </trkpt>
      <trkpt lat="42.64686" lon="1.70315">
        <ele>1724.2619628906</ele>
        <time>2011-06-19T05:59:40Z</time>
      </trkpt>
      <trkpt lat="42.64684" lon="1.70313">
        <ele>1724.2619628906</ele>
        <time>2011-06-19T05:59:45Z</time>
      </trkpt>
      <trkpt lat="42.64684" lon="1.70312">
        <ele>1723.7810058594</ele>
        <time>2011-06-19T05:59:50Z</time>
      </trkpt>
      <trkpt lat="42.64681" lon="1.70311">
        <ele>1724.7426757812</ele>
        <time>2011-06-19T05:59:55Z</time>
      </trkpt>
      <trkpt lat="42.64681" lon="1.70309">
        <ele>1724.2619628906</ele>
        <time>2011-06-19T05:59:59Z</time>
      </trkpt>
      <trkpt lat="42.64679" lon="1.70304">
        <ele>1724.7426757812</ele>
        <time>2011-06-19T06:00:04Z</time>
      </trkpt>
      <trkpt lat="42.64674" lon="1.703">
        <ele>1725.7038574219</ele>
        <time>2011-06-19T06:00:10Z</time>
      </trkpt>
      <trkpt lat="42.6467" lon="1.70296">
        <ele>1727.1459960938</ele>
        <time>2011-06-19T06:00:16Z</time>
      </trkpt>
      <trkpt lat="42.64666" lon="1.70294">
        <ele>1729.068359375</ele>
        <time>2011-06-19T06:00:22Z</time>
      </trkpt>
      <trkpt lat="42.6466" lon="1.70294">
        <ele>1729.5490722656</ele>
        <time>2011-06-19T06:00:28Z</time>
      </trkpt>
      <trkpt lat="42.64655" lon="1.70292">
        <ele>1730.0297851562</ele>
        <time>2011-06-19T06:00:35Z</time>
      </trkpt>
      <trkpt lat="42.64653" lon="1.70292">
        <ele>1730.9912109375</ele>
        <time>2011-06-19T06:00:42Z</time>
      </trkpt>
      <trkpt lat="42.64647" lon="1.70289">
        <ele>1731.9523925781</ele>
        <time>2011-06-19T06:00:47Z</time>
      </trkpt>
      <trkpt lat="42.64639" lon="1.70285">
        <ele>1731.9523925781</ele>
        <time>2011-06-19T06:00:54Z</time>
      </trkpt>
      <trkpt lat="42.6463" lon="1.7028">
        <ele>1732.4331054688</ele>
        <time>2011-06-19T06:01:02Z</time>
      </trkpt>
      <trkpt lat="42.64622" lon="1.70278">
        <ele>1732.4331054688</ele>
        <time>2011-06-19T06:01:07Z</time>
      </trkpt>
      <trkpt lat="42.64613" lon="1.70275">
        <ele>1732.9135742188</ele>
        <time>2011-06-19T06:01:12Z</time>
      </trkpt>
      <trkpt lat="42.64603" lon="1.70272">
        <ele>1732.9135742188</ele>
        <time>2011-06-19T06:01:17Z</time>
      </trkpt>
      <trkpt lat="42.64591" lon="1.70271">
        <ele>1732.9135742188</ele>
        <time>2011-06-19T06:01:23Z</time>
      </trkpt>
      <trkpt lat="42.64581" lon="1.70272">
        <ele>1734.8364257812</ele>
        <time>2011-06-19T06:01:28Z</time>
      </trkpt>
      <trkpt lat="42.64571" lon="1.70274">
        <ele>1735.3168945312</ele>
        <time>2011-06-19T06:01:33Z</time>
      </trkpt>
      <trkpt lat="42.64564" lon="1.7027">
        <ele>1733.875</ele>
        <time>2011-06-19T06:01:40Z</time>
      </trkpt>
      <trkpt lat="42.64559" lon="1.70271">
        <ele>1731.9523925781</ele>
        <time>2011-06-19T06:01:46Z</time>
      </trkpt>
      <trkpt lat="42.64557" lon="1.70271">
        <ele>1730.9912109375</ele>
        <time>2011-06-19T06:01:51Z</time>
      </trkpt>
      <trkpt lat="42.64551" lon="1.7027">
        <ele>1729.068359375</ele>
        <time>2011-06-19T06:01:58Z</time>
      </trkpt>
      <trkpt lat="42.64547" lon="1.70268">
        <ele>1728.587890625</ele>
        <time>2011-06-19T06:02:03Z</time>
      </trkpt>
      <trkpt lat="42.64542" lon="1.70269">
        <ele>1728.587890625</ele>
        <time>2011-06-19T06:02:10Z</time>
      </trkpt>
      <trkpt lat="42.64541" lon="1.70268">
        <ele>1728.1071777344</ele>
        <time>2011-06-19T06:02:14Z</time>
      </trkpt>
      <trkpt lat="42.64539" lon="1.70267">
        <ele>1727.6264648438</ele>
        <time>2011-06-19T06:02:20Z</time>
      </trkpt>
      <trkpt lat="42.64536" lon="1.70266">
        <ele>1727.1459960938</ele>
        <time>2011-06-19T06:02:26Z</time>
      </trkpt>
      <trkpt lat="42.64531" lon="1.70265">
        <ele>1727.1459960938</ele>
        <time>2011-06-19T06:02:31Z</time>
      </trkpt>
      <trkpt lat="42.64527" lon="1.70266">
        <ele>1727.1459960938</ele>
        <time>2011-06-19T06:02:37Z</time>
      </trkpt>
      <trkpt lat="42.64524" lon="1.70264">
        <ele>1726.6652832031</ele>
        <time>2011-06-19T06:02:42Z</time>
      </trkpt>
      <trkpt lat="42.64515" lon="1.70262">
        <ele>1726.6652832031</ele>
        <time>2011-06-19T06:02:49Z</time>
      </trkpt>
      <trkpt lat="42.6451" lon="1.70263">
        <ele>1726.1845703125</ele>
        <time>2011-06-19T06:02:55Z</time>
      </trkpt>
      <trkpt lat="42.64505" lon="1.70262">
        <ele>1726.1845703125</ele>
        <time>2011-06-19T06:03:00Z</time>
      </trkpt>
      <trkpt lat="42.64502" lon="1.70263">
        <ele>1725.7038574219</ele>
        <time>2011-06-19T06:03:05Z</time>
      </trkpt>
      <trkpt lat="42.64498" lon="1.70267">
        <ele>1725.7038574219</ele>
        <time>2011-06-19T06:03:12Z</time>
      </trkpt>
      <trkpt lat="42.64492" lon="1.70266">
        <ele>1725.7038574219</ele>
        <time>2011-06-19T06:03:18Z</time>
      </trkpt>
      <trkpt lat="42.64484" lon="1.70263">
        <ele>1726.1845703125</ele>
        <time>2011-06-19T06:03:24Z</time>
      </trkpt>
      <trkpt lat="42.64478" lon="1.70261">
        <ele>1727.6264648438</ele>
        <time>2011-06-19T06:03:29Z</time>
      </trkpt>
      <trkpt lat="42.64476" lon="1.70256">
        <ele>1728.587890625</ele>
        <time>2011-06-19T06:03:35Z</time>
      </trkpt>
      <trkpt lat="42.64474" lon="1.70259">
        <ele>1729.068359375</ele>
        <time>2011-06-19T06:03:40Z</time>
      </trkpt>
      <trkpt lat="42.64469" lon="1.70266">
        <ele>1730.0297851562</ele>
        <time>2011-06-19T06:03:46Z</time>
      </trkpt>
      <trkpt lat="42.64465" lon="1.70268">
        <ele>1730.0297851562</ele>
        <time>2011-06-19T06:03:49Z</time>
      </trkpt>
      <trkpt lat="42.64459" lon="1.70267">
        <ele>1730.0297851562</ele>
        <time>2011-06-19T06:03:54Z</time>
      </trkpt>
      <trkpt lat="42.64449" lon="1.70267">
        <ele>1730.0297851562</ele>
        <time>2011-06-19T06:04:03Z</time>
      </trkpt>
      <trkpt lat="42.64441" lon="1.7027">
        <ele>1729.5490722656</ele>
        <time>2011-06-19T06:04:10Z</time>
      </trkpt>
      <trkpt lat="42.64433" lon="1.70273">
        <ele>1730.0297851562</ele>
        <time>2011-06-19T06:04:17Z</time>
      </trkpt>
      <trkpt lat="42.64426" lon="1.70275">
        <ele>1729.5490722656</ele>
        <time>2011-06-19T06:04:23Z</time>
      </trkpt>
      <trkpt lat="42.64425" lon="1.70276">
        <ele>1729.5490722656</ele>
        <time>2011-06-19T06:04:24Z</time>
      </trkpt>
      <trkpt lat="42.64419" lon="1.70277">
        <ele>1729.068359375</ele>
        <time>2011-06-19T06:04:29Z</time>
      </trkpt>
      <trkpt lat="42.64417" lon="1.70278">
        <ele>1729.5490722656</ele>
        <time>2011-06-19T06:04:31Z</time>
      </trkpt>
      <trkpt lat="42.64413" lon="1.70278">
        <ele>1730.5104980469</ele>
        <time>2011-06-19T06:04:34Z</time>
      </trkpt>
      <trkpt lat="42.64405" lon="1.70275">
        <ele>1730.9912109375</ele>
        <time>2011-06-19T06:04:41Z</time>
      </trkpt>
      <trkpt lat="42.64402" lon="1.70273">
        <ele>1731.4716796875</ele>
        <time>2011-06-19T06:04:44Z</time>
      </trkpt>
      <trkpt lat="42.64393" lon="1.70272">
        <ele>1732.4331054688</ele>
        <time>2011-06-19T06:04:53Z</time>
      </trkpt>
      <trkpt lat="42.64386" lon="1.70274">
        <ele>1732.4331054688</ele>
        <time>2011-06-19T06:04:59Z</time>
      </trkpt>
      <trkpt lat="42.64376" lon="1.70279">
        <ele>1733.3942871094</ele>
        <time>2011-06-19T06:05:07Z</time>
      </trkpt>
      <trkpt lat="42.64367" lon="1.70281">
        <ele>1735.3168945312</ele>
        <time>2011-06-19T06:05:15Z</time>
      </trkpt>
      <trkpt lat="42.64358" lon="1.70283">
        <ele>1737.2395019531</ele>
        <time>2011-06-19T06:05:23Z</time>
      </trkpt>
      <trkpt lat="42.64349" lon="1.70287">
        <ele>1739.162109375</ele>
        <time>2011-06-19T06:05:31Z</time>
      </trkpt>
      <trkpt lat="42.64347" lon="1.70288">
        <ele>1739.6428222656</ele>
        <time>2011-06-19T06:05:34Z</time>
      </trkpt>
      <trkpt lat="42.64339" lon="1.7029">
        <ele>1740.6042480469</ele>
        <time>2011-06-19T06:05:41Z</time>
      </trkpt>
      <trkpt lat="42.64333" lon="1.70295">
        <ele>1741.0849609375</ele>
        <time>2011-06-19T06:05:48Z</time>
      </trkpt>
      <trkpt lat="42.64326" lon="1.703">
        <ele>1742.5270996094</ele>
        <time>2011-06-19T06:05:55Z</time>
      </trkpt>
      <trkpt lat="42.6432" lon="1.70306">
        <ele>1743.9689941406</ele>
        <time>2011-06-19T06:06:02Z</time>
      </trkpt>
      <trkpt lat="42.64315" lon="1.70312">
        <ele>1744.4494628906</ele>
        <time>2011-06-19T06:06:08Z</time>
      </trkpt>
      <trkpt lat="42.64309" lon="1.70319">
        <ele>1745.8916015625</ele>
        <time>2011-06-19T06:06:16Z</time>
      </trkpt>
      <trkpt lat="42.64305" lon="1.70318">
        <ele>1746.8527832031</ele>
        <time>2011-06-19T06:06:20Z</time>
      </trkpt>
      <trkpt lat="42.64295" lon="1.70316">
        <ele>1748.2946777344</ele>
        <time>2011-06-19T06:06:28Z</time>
      </trkpt>
      <trkpt lat="42.64293" lon="1.70315">
        <ele>1748.2946777344</ele>
        <time>2011-06-19T06:06:30Z</time>
      </trkpt>
      <trkpt lat="42.6429" lon="1.70318">
        <ele>1749.2561035156</ele>
        <time>2011-06-19T06:06:34Z</time>
      </trkpt>
      <trkpt lat="42.64285" lon="1.70318">
        <ele>1750.2175292969</ele>
        <time>2011-06-19T06:06:40Z</time>
      </trkpt>
      <trkpt lat="42.64279" lon="1.70319">
        <ele>1751.6594238281</ele>
        <time>2011-06-19T06:06:46Z</time>
      </trkpt>
      <trkpt lat="42.64273" lon="1.70323">
        <ele>1753.58203125</ele>
        <time>2011-06-19T06:06:53Z</time>
      </trkpt>
      <trkpt lat="42.64269" lon="1.70321">
        <ele>1755.5046386719</ele>
        <time>2011-06-19T06:06:59Z</time>
      </trkpt>
      <trkpt lat="42.6426" lon="1.70323">
        <ele>1756.9467773438</ele>
        <time>2011-06-19T06:07:06Z</time>
      </trkpt>
      <trkpt lat="42.64255" lon="1.70323">
        <ele>1757.908203125</ele>
        <time>2011-06-19T06:07:11Z</time>
      </trkpt>
      <trkpt lat="42.64248" lon="1.70329">
        <ele>1757.908203125</ele>
        <time>2011-06-19T06:07:20Z</time>
      </trkpt>
      <trkpt lat="42.64246" lon="1.70331">
        <ele>1758.388671875</ele>
        <time>2011-06-19T06:07:25Z</time>
      </trkpt>
      <trkpt lat="42.64243" lon="1.70335">
        <ele>1758.388671875</ele>
        <time>2011-06-19T06:07:35Z</time>
      </trkpt>
      <trkpt lat="42.64241" lon="1.70337">
        <ele>1758.8693847656</ele>
        <time>2011-06-19T06:07:37Z</time>
      </trkpt>
      <trkpt lat="42.64235" lon="1.70339">
        <ele>1759.3500976562</ele>
        <time>2011-06-19T06:07:42Z</time>
      </trkpt>
      <trkpt lat="42.64229" lon="1.70344">
        <ele>1759.8305664062</ele>
        <time>2011-06-19T06:07:50Z</time>
      </trkpt>
      <trkpt lat="42.64223" lon="1.7035">
        <ele>1761.7534179688</ele>
        <time>2011-06-19T06:07:57Z</time>
      </trkpt>
      <trkpt lat="42.64222" lon="1.7035">
        <ele>1760.7919921875</ele>
        <time>2011-06-19T06:08:03Z</time>
      </trkpt>
      <trkpt lat="42.64219" lon="1.70354">
        <ele>1761.2727050781</ele>
        <time>2011-06-19T06:08:11Z</time>
      </trkpt>
      <trkpt lat="42.64213" lon="1.70363">
        <ele>1762.2338867188</ele>
        <time>2011-06-19T06:08:19Z</time>
      </trkpt>
      <trkpt lat="42.64207" lon="1.70372">
        <ele>1764.1564941406</ele>
        <time>2011-06-19T06:08:28Z</time>
      </trkpt>
      <trkpt lat="42.64202" lon="1.7038">
        <ele>1765.5986328125</ele>
        <time>2011-06-19T06:08:36Z</time>
      </trkpt>
      <trkpt lat="42.642" lon="1.70384">
        <ele>1766.0791015625</ele>
        <time>2011-06-19T06:08:39Z</time>
      </trkpt>
      <trkpt lat="42.64195" lon="1.70389">
        <ele>1767.5209960938</ele>
        <time>2011-06-19T06:08:45Z</time>
      </trkpt>
      <trkpt lat="42.64192" lon="1.70399">
        <ele>1769.4438476562</ele>
        <time>2011-06-19T06:08:54Z</time>
      </trkpt>
      <trkpt lat="42.64186" lon="1.70407">
        <ele>1771.8469238281</ele>
        <time>2011-06-19T06:09:03Z</time>
      </trkpt>
      <trkpt lat="42.64185" lon="1.70408">
        <ele>1772.3278808594</ele>
        <time>2011-06-19T06:09:08Z</time>
      </trkpt>
      <trkpt lat="42.64186" lon="1.70407">
        <ele>1772.3278808594</ele>
        <time>2011-06-19T06:09:16Z</time>
      </trkpt>
      <trkpt lat="42.64189" lon="1.7041">
        <ele>1772.80859375</ele>
        <time>2011-06-19T06:09:22Z</time>
      </trkpt>
      <trkpt lat="42.64187" lon="1.70414">
        <ele>1773.7697753906</ele>
        <time>2011-06-19T06:09:28Z</time>
      </trkpt>
      <trkpt lat="42.64187" lon="1.70417">
        <ele>1775.2116699219</ele>
        <time>2011-06-19T06:09:34Z</time>
      </trkpt>
      <trkpt lat="42.64184" lon="1.70421">
        <ele>1778.095703125</ele>
        <time>2011-06-19T06:09:41Z</time>
      </trkpt>
      <trkpt lat="42.64183" lon="1.70422">
        <ele>1779.0568847656</ele>
        <time>2011-06-19T06:09:45Z</time>
      </trkpt>
      <trkpt lat="42.64181" lon="1.70425">
        <ele>1780.0183105469</ele>
        <time>2011-06-19T06:09:51Z</time>
      </trkpt>
      <trkpt lat="42.6418" lon="1.70429">
        <ele>1781.9409179688</ele>
        <time>2011-06-19T06:09:56Z</time>
      </trkpt>
      <trkpt lat="42.64178" lon="1.70434">
        <ele>1782.9020996094</ele>
        <time>2011-06-19T06:10:02Z</time>
      </trkpt>
      <trkpt lat="42.64175" lon="1.70438">
        <ele>1785.7861328125</ele>
        <time>2011-06-19T06:10:08Z</time>
      </trkpt>
      <trkpt lat="42.64174" lon="1.70444">
        <ele>1788.1896972656</ele>
        <time>2011-06-19T06:10:15Z</time>
      </trkpt>
      <trkpt lat="42.64174" lon="1.7045">
        <ele>1790.1123046875</ele>
        <time>2011-06-19T06:10:22Z</time>
      </trkpt>
      <trkpt lat="42.64172" lon="1.70453">
        <ele>1790.5927734375</ele>
        <time>2011-06-19T06:10:29Z</time>
      </trkpt>
      <trkpt lat="42.64169" lon="1.70458">
        <ele>1792.0349121094</ele>
        <time>2011-06-19T06:10:35Z</time>
      </trkpt>
      <trkpt lat="42.64169" lon="1.7046">
        <ele>1793.4768066406</ele>
        <time>2011-06-19T06:10:42Z</time>
      </trkpt>
      <trkpt lat="42.64173" lon="1.70462">
        <ele>1794.9187011719</ele>
        <time>2011-06-19T06:10:48Z</time>
      </trkpt>
      <trkpt lat="42.64175" lon="1.70465">
        <ele>1796.3608398438</ele>
        <time>2011-06-19T06:10:55Z</time>
      </trkpt>
      <trkpt lat="42.64175" lon="1.7047">
        <ele>1797.3220214844</ele>
        <time>2011-06-19T06:11:02Z</time>
      </trkpt>
      <trkpt lat="42.64172" lon="1.70471">
        <ele>1799.2446289062</ele>
        <time>2011-06-19T06:11:08Z</time>
      </trkpt>
      <trkpt lat="42.6417" lon="1.70474">
        <ele>1799.7253417969</ele>
        <time>2011-06-19T06:11:13Z</time>
      </trkpt>
      <trkpt lat="42.64166" lon="1.70483">
        <ele>1801.1672363281</ele>
        <time>2011-06-19T06:11:20Z</time>
      </trkpt>
      <trkpt lat="42.64161" lon="1.70495">
        <ele>1803.5705566406</ele>
        <time>2011-06-19T06:11:29Z</time>
      </trkpt>
      <trkpt lat="42.64156" lon="1.70502">
        <ele>1805.0126953125</ele>
        <time>2011-06-19T06:11:36Z</time>
      </trkpt>
      <trkpt lat="42.64152" lon="1.70506">
        <ele>1805.9738769531</ele>
        <time>2011-06-19T06:11:43Z</time>
      </trkpt>
      <trkpt lat="42.64151" lon="1.70509">
        <ele>1806.9353027344</ele>
        <time>2011-06-19T06:11:49Z</time>
      </trkpt>
      <trkpt lat="42.64148" lon="1.70512">
        <ele>1808.8579101562</ele>
        <time>2011-06-19T06:11:55Z</time>
      </trkpt>
      <trkpt lat="42.64145" lon="1.70514">
        <ele>1810.2998046875</ele>
        <time>2011-06-19T06:12:01Z</time>
      </trkpt>
      <trkpt lat="42.64141" lon="1.70517">
        <ele>1812.703125</ele>
        <time>2011-06-19T06:12:08Z</time>
      </trkpt>
      <trkpt lat="42.64138" lon="1.7052">
        <ele>1813.1838378906</ele>
        <time>2011-06-19T06:12:15Z</time>
      </trkpt>
      <trkpt lat="42.64137" lon="1.70524">
        <ele>1812.703125</ele>
        <time>2011-06-19T06:12:23Z</time>
      </trkpt>
      <trkpt lat="42.64135" lon="1.70528">
        <ele>1813.6643066406</ele>
        <time>2011-06-19T06:12:29Z</time>
      </trkpt>
      <trkpt lat="42.6413" lon="1.70533">
        <ele>1814.1450195312</ele>
        <time>2011-06-19T06:12:35Z</time>
      </trkpt>
      <trkpt lat="42.64127" lon="1.7054">
        <ele>1819.4323730469</ele>
        <time>2011-06-19T06:12:42Z</time>
      </trkpt>
      <trkpt lat="42.64124" lon="1.70549">
        <ele>1821.3549804688</ele>
        <time>2011-06-19T06:12:49Z</time>
      </trkpt>
      <trkpt lat="42.64121" lon="1.70556">
        <ele>1822.7971191406</ele>
        <time>2011-06-19T06:12:56Z</time>
      </trkpt>
      <trkpt lat="42.6412" lon="1.70561">
        <ele>1824.2390136719</ele>
        <time>2011-06-19T06:13:02Z</time>
      </trkpt>
      <trkpt lat="42.64118" lon="1.70569">
        <ele>1825.6809082031</ele>
        <time>2011-06-19T06:13:10Z</time>
      </trkpt>
      <trkpt lat="42.64116" lon="1.70578">
        <ele>1826.6423339844</ele>
        <time>2011-06-19T06:13:18Z</time>
      </trkpt>
      <trkpt lat="42.64116" lon="1.70583">
        <ele>1827.123046875</ele>
        <time>2011-06-19T06:13:24Z</time>
      </trkpt>
      <trkpt lat="42.64116" lon="1.70588">
        <ele>1828.5649414062</ele>
        <time>2011-06-19T06:13:31Z</time>
      </trkpt>
      <trkpt lat="42.64116" lon="1.70593">
        <ele>1829.5261230469</ele>
        <time>2011-06-19T06:13:37Z</time>
      </trkpt>
      <trkpt lat="42.64114" lon="1.706">
        <ele>1830.4875488281</ele>
        <time>2011-06-19T06:13:45Z</time>
      </trkpt>
      <trkpt lat="42.64114" lon="1.70605">
        <ele>1831.9294433594</ele>
        <time>2011-06-19T06:13:52Z</time>
      </trkpt>
      <trkpt lat="42.64114" lon="1.70609">
        <ele>1832.890625</ele>
        <time>2011-06-19T06:13:58Z</time>
      </trkpt>
      <trkpt lat="42.64111" lon="1.70612">
        <ele>1834.3327636719</ele>
        <time>2011-06-19T06:14:05Z</time>
      </trkpt>
      <trkpt lat="42.64108" lon="1.70614">
        <ele>1835.7746582031</ele>
        <time>2011-06-19T06:14:11Z</time>
      </trkpt>
      <trkpt lat="42.64105" lon="1.70618">
        <ele>1836.7360839844</ele>
        <time>2011-06-19T06:14:18Z</time>
      </trkpt>
      <trkpt lat="42.64104" lon="1.70622">
        <ele>1836.7360839844</ele>
        <time>2011-06-19T06:14:25Z</time>
      </trkpt>
      <trkpt lat="42.64104" lon="1.70625">
        <ele>1835.2939453125</ele>
        <time>2011-06-19T06:14:31Z</time>
      </trkpt>
      <trkpt lat="42.64101" lon="1.70627">
        <ele>1834.3327636719</ele>
        <time>2011-06-19T06:14:38Z</time>
      </trkpt>
      <trkpt lat="42.64097" lon="1.70631">
        <ele>1833.8520507812</ele>
        <time>2011-06-19T06:14:45Z</time>
      </trkpt>
      <trkpt lat="42.64095" lon="1.70638">
        <ele>1835.2939453125</ele>
        <time>2011-06-19T06:14:51Z</time>
      </trkpt>
      <trkpt lat="42.64095" lon="1.70639">
        <ele>1835.7746582031</ele>
        <time>2011-06-19T06:14:57Z</time>
      </trkpt>
      <trkpt lat="42.64095" lon="1.70641">
        <ele>1837.216796875</ele>
        <time>2011-06-19T06:15:13Z</time>
      </trkpt>
      <trkpt lat="42.64095" lon="1.70644">
        <ele>1837.216796875</ele>
        <time>2011-06-19T06:15:20Z</time>
      </trkpt>
      <trkpt lat="42.64095" lon="1.70646">
        <ele>1838.1782226562</ele>
        <time>2011-06-19T06:15:31Z</time>
      </trkpt>
      <trkpt lat="42.64095" lon="1.70652">
        <ele>1839.1394042969</ele>
        <time>2011-06-19T06:15:38Z</time>
      </trkpt>
      <trkpt lat="42.64095" lon="1.70657">
        <ele>1840.5812988281</ele>
        <time>2011-06-19T06:15:44Z</time>
      </trkpt>
      <trkpt lat="42.64092" lon="1.70663">
        <ele>1841.5427246094</ele>
        <time>2011-06-19T06:15:50Z</time>
      </trkpt>
      <trkpt lat="42.64088" lon="1.7067">
        <ele>1842.5041503906</ele>
        <time>2011-06-19T06:15:58Z</time>
      </trkpt>
      <trkpt lat="42.64088" lon="1.70676">
        <ele>1842.9846191406</ele>
        <time>2011-06-19T06:16:04Z</time>
      </trkpt>
      <trkpt lat="42.64088" lon="1.70683">
        <ele>1844.4265136719</ele>
        <time>2011-06-19T06:16:10Z</time>
      </trkpt>
      <trkpt lat="42.64086" lon="1.70692">
        <ele>1845.8686523438</ele>
        <time>2011-06-19T06:16:18Z</time>
      </trkpt>
      <trkpt lat="42.64084" lon="1.70697">
        <ele>1846.8298339844</ele>
        <time>2011-06-19T06:16:23Z</time>
      </trkpt>
      <trkpt lat="42.64082" lon="1.70707">
        <ele>1847.7912597656</ele>
        <time>2011-06-19T06:16:30Z</time>
      </trkpt>
      <trkpt lat="42.6408" lon="1.70712">
        <ele>1849.2331542969</ele>
        <time>2011-06-19T06:16:36Z</time>
      </trkpt>
      <trkpt lat="42.64079" lon="1.70719">
        <ele>1850.6750488281</ele>
        <time>2011-06-19T06:16:43Z</time>
      </trkpt>
      <trkpt lat="42.64075" lon="1.70723">
        <ele>1852.5979003906</ele>
        <time>2011-06-19T06:16:49Z</time>
      </trkpt>
      <trkpt lat="42.64074" lon="1.70727">
        <ele>1853.5593261719</ele>
        <time>2011-06-19T06:16:55Z</time>
      </trkpt>
      <trkpt lat="42.64071" lon="1.70734">
        <ele>1855.4819335938</ele>
        <time>2011-06-19T06:17:02Z</time>
      </trkpt>
      <trkpt lat="42.64067" lon="1.7074">
        <ele>1855.9624023438</ele>
        <time>2011-06-19T06:17:09Z</time>
      </trkpt>
      <trkpt lat="42.64066" lon="1.70745">
        <ele>1856.923828125</ele>
        <time>2011-06-19T06:17:15Z</time>
      </trkpt>
      <trkpt lat="42.64061" lon="1.70751">
        <ele>1856.923828125</ele>
        <time>2011-06-19T06:17:21Z</time>
      </trkpt>
      <trkpt lat="42.64056" lon="1.70759">
        <ele>1856.4431152344</ele>
        <time>2011-06-19T06:17:27Z</time>
      </trkpt>
      <trkpt lat="42.64051" lon="1.70769">
        <ele>1856.923828125</ele>
        <time>2011-06-19T06:17:34Z</time>
      </trkpt>
      <trkpt lat="42.64043" lon="1.70777">
        <ele>1857.4045410156</ele>
        <time>2011-06-19T06:17:42Z</time>
      </trkpt>
      <trkpt lat="42.64035" lon="1.70786">
        <ele>1857.8852539062</ele>
        <time>2011-06-19T06:17:51Z</time>
      </trkpt>
      <trkpt lat="42.64034" lon="1.70791">
        <ele>1858.8464355469</ele>
        <time>2011-06-19T06:17:55Z</time>
      </trkpt>
      <trkpt lat="42.6403" lon="1.708">
        <ele>1859.8076171875</ele>
        <time>2011-06-19T06:18:03Z</time>
      </trkpt>
      <trkpt lat="42.64028" lon="1.70806">
        <ele>1860.7690429688</ele>
        <time>2011-06-19T06:18:08Z</time>
      </trkpt>
      <trkpt lat="42.64026" lon="1.7081">
        <ele>1860.7690429688</ele>
        <time>2011-06-19T06:18:11Z</time>
      </trkpt>
      <trkpt lat="42.64022" lon="1.70807">
        <ele>1861.2497558594</ele>
        <time>2011-06-19T06:18:15Z</time>
      </trkpt>
      <trkpt lat="42.6402" lon="1.70809">
        <ele>1861.73046875</ele>
        <time>2011-06-19T06:18:17Z</time>
      </trkpt>
      <trkpt lat="42.64013" lon="1.70815">
        <ele>1863.1723632812</ele>
        <time>2011-06-19T06:18:24Z</time>
      </trkpt>
      <trkpt lat="42.6401" lon="1.70821">
        <ele>1864.6142578125</ele>
        <time>2011-06-19T06:18:30Z</time>
      </trkpt>
      <trkpt lat="42.64006" lon="1.70826">
        <ele>1866.0561523438</ele>
        <time>2011-06-19T06:18:36Z</time>
      </trkpt>
      <trkpt lat="42.64005" lon="1.70835">
        <ele>1867.498046875</ele>
        <time>2011-06-19T06:18:43Z</time>
      </trkpt>
      <trkpt lat="42.64002" lon="1.70842">
        <ele>1868.4597167969</ele>
        <time>2011-06-19T06:18:49Z</time>
      </trkpt>
      <trkpt lat="42.64001" lon="1.70849">
        <ele>1869.4211425781</ele>
        <time>2011-06-19T06:18:55Z</time>
      </trkpt>
      <trkpt lat="42.64" lon="1.70855">
        <ele>1870.3823242188</ele>
        <time>2011-06-19T06:19:00Z</time>
      </trkpt>
      <trkpt lat="42.63999" lon="1.70862">
        <ele>1870.8630371094</ele>
        <time>2011-06-19T06:19:06Z</time>
      </trkpt>
      <trkpt lat="42.63998" lon="1.70868">
        <ele>1871.3435058594</ele>
        <time>2011-06-19T06:19:11Z</time>
      </trkpt>
      <trkpt lat="42.63997" lon="1.70873">
        <ele>1871.3435058594</ele>
        <time>2011-06-19T06:19:16Z</time>
      </trkpt>
      <trkpt lat="42.63995" lon="1.70875">
        <ele>1871.3435058594</ele>
        <time>2011-06-19T06:19:18Z</time>
      </trkpt>
      <trkpt lat="42.6399" lon="1.70881">
        <ele>1871.82421875</ele>
        <time>2011-06-19T06:19:23Z</time>
      </trkpt>
      <trkpt lat="42.63988" lon="1.70891">
        <ele>1872.7856445312</ele>
        <time>2011-06-19T06:19:30Z</time>
      </trkpt>
      <trkpt lat="42.63988" lon="1.70894">
        <ele>1873.2663574219</ele>
        <time>2011-06-19T06:19:33Z</time>
      </trkpt>
      <trkpt lat="42.63988" lon="1.70904">
        <ele>1874.2275390625</ele>
        <time>2011-06-19T06:19:41Z</time>
      </trkpt>
      <trkpt lat="42.63985" lon="1.70911">
        <ele>1875.1887207031</ele>
        <time>2011-06-19T06:19:48Z</time>
      </trkpt>
      <trkpt lat="42.63985" lon="1.70917">
        <ele>1877.1115722656</ele>
        <time>2011-06-19T06:19:55Z</time>
      </trkpt>
      <trkpt lat="42.63987" lon="1.70925">
        <ele>1878.5534667969</ele>
        <time>2011-06-19T06:20:02Z</time>
      </trkpt>
      <trkpt lat="42.63986" lon="1.70935">
        <ele>1879.9953613281</ele>
        <time>2011-06-19T06:20:10Z</time>
      </trkpt>
      <trkpt lat="42.63986" lon="1.7094">
        <ele>1880.4760742188</ele>
        <time>2011-06-19T06:20:15Z</time>
      </trkpt>
      <trkpt lat="42.63986" lon="1.70947">
        <ele>1881.91796875</ele>
        <time>2011-06-19T06:20:21Z</time>
      </trkpt>
      <trkpt lat="42.63988" lon="1.70955">
        <ele>1881.91796875</ele>
        <time>2011-06-19T06:20:27Z</time>
      </trkpt>
      <trkpt lat="42.63989" lon="1.70967">
        <ele>1882.8791503906</ele>
        <time>2011-06-19T06:20:35Z</time>
      </trkpt>
      <trkpt lat="42.63988" lon="1.70976">
        <ele>1883.8405761719</ele>
        <time>2011-06-19T06:20:41Z</time>
      </trkpt>
      <trkpt lat="42.63988" lon="1.70985">
        <ele>1884.8022460938</ele>
        <time>2011-06-19T06:20:48Z</time>
      </trkpt>
      <trkpt lat="42.63988" lon="1.70986">
        <ele>1884.8022460938</ele>
        <time>2011-06-19T06:20:49Z</time>
      </trkpt>
      <trkpt lat="42.63989" lon="1.70992">
        <ele>1885.2827148438</ele>
        <time>2011-06-19T06:20:53Z</time>
      </trkpt>
      <trkpt lat="42.63991" lon="1.71">
        <ele>1886.724609375</ele>
        <time>2011-06-19T06:20:59Z</time>
      </trkpt>
      <trkpt lat="42.6399" lon="1.71007">
        <ele>1887.2053222656</ele>
        <time>2011-06-19T06:21:05Z</time>
      </trkpt>
      <trkpt lat="42.63989" lon="1.71016">
        <ele>1887.2053222656</ele>
        <time>2011-06-19T06:21:13Z</time>
      </trkpt>
      <trkpt lat="42.63987" lon="1.71022">
        <ele>1888.1667480469</ele>
        <time>2011-06-19T06:21:18Z</time>
      </trkpt>
      <trkpt lat="42.63987" lon="1.71033">
        <ele>1889.6086425781</ele>
        <time>2011-06-19T06:21:27Z</time>
      </trkpt>
      <trkpt lat="42.63985" lon="1.71041">
        <ele>1891.0505371094</ele>
        <time>2011-06-19T06:21:34Z</time>
      </trkpt>
      <trkpt lat="42.63985" lon="1.71047">
        <ele>1892.0119628906</ele>
        <time>2011-06-19T06:21:39Z</time>
      </trkpt>
      <trkpt lat="42.63982" lon="1.71058">
        <ele>1892.4926757812</ele>
        <time>2011-06-19T06:21:47Z</time>
      </trkpt>
      <trkpt lat="42.63981" lon="1.71067">
        <ele>1892.4926757812</ele>
        <time>2011-06-19T06:21:55Z</time>
      </trkpt>
      <trkpt lat="42.63981" lon="1.71067">
        <ele>1892.9731445312</ele>
        <time>2011-06-19T06:22:07Z</time>
      </trkpt>
      <trkpt lat="42.6398" lon="1.71075">
        <ele>1893.9345703125</ele>
        <time>2011-06-19T06:22:13Z</time>
      </trkpt>
      <trkpt lat="42.6398" lon="1.71076">
        <ele>1893.4538574219</ele>
        <time>2011-06-19T06:22:18Z</time>
      </trkpt>
      <trkpt lat="42.6398" lon="1.71079">
        <ele>1893.4538574219</ele>
        <time>2011-06-19T06:22:28Z</time>
      </trkpt>
      <trkpt lat="42.63979" lon="1.71083">
        <ele>1893.4538574219</ele>
        <time>2011-06-19T06:22:31Z</time>
      </trkpt>
      <trkpt lat="42.63979" lon="1.7109">
        <ele>1893.9345703125</ele>
        <time>2011-06-19T06:22:35Z</time>
      </trkpt>
      <trkpt lat="42.6398" lon="1.711">
        <ele>1894.8957519531</ele>
        <time>2011-06-19T06:22:42Z</time>
      </trkpt>
      <trkpt lat="42.63982" lon="1.71114">
        <ele>1896.818359375</ele>
        <time>2011-06-19T06:22:51Z</time>
      </trkpt>
      <trkpt lat="42.63985" lon="1.71122">
        <ele>1898.2602539062</ele>
        <time>2011-06-19T06:22:57Z</time>
      </trkpt>
      <trkpt lat="42.63985" lon="1.7113">
        <ele>1899.2216796875</ele>
        <time>2011-06-19T06:23:03Z</time>
      </trkpt>
      <trkpt lat="42.63987" lon="1.71138">
        <ele>1900.1833496094</ele>
        <time>2011-06-19T06:23:09Z</time>
      </trkpt>
      <trkpt lat="42.63987" lon="1.71148">
        <ele>1899.2216796875</ele>
        <time>2011-06-19T06:23:16Z</time>
      </trkpt>
      <trkpt lat="42.63988" lon="1.71161">
        <ele>1899.7023925781</ele>
        <time>2011-06-19T06:23:24Z</time>
      </trkpt>
      <trkpt lat="42.63987" lon="1.7117">
        <ele>1899.7023925781</ele>
        <time>2011-06-19T06:23:30Z</time>
      </trkpt>
      <trkpt lat="42.63985" lon="1.71178">
        <ele>1900.1833496094</ele>
        <time>2011-06-19T06:23:36Z</time>
      </trkpt>
      <trkpt lat="42.6398" lon="1.71181">
        <ele>1900.1833496094</ele>
        <time>2011-06-19T06:23:43Z</time>
      </trkpt>
      <trkpt lat="42.63972" lon="1.71178">
        <ele>1900.1833496094</ele>
        <time>2011-06-19T06:23:51Z</time>
      </trkpt>
      <trkpt lat="42.63971" lon="1.71177">
        <ele>1900.1833496094</ele>
        <time>2011-06-19T06:23:52Z</time>
      </trkpt>
      <trkpt lat="42.63969" lon="1.71167">
        <ele>1900.1833496094</ele>
        <time>2011-06-19T06:23:59Z</time>
      </trkpt>
      <trkpt lat="42.63966" lon="1.71159">
        <ele>1900.1833496094</ele>
        <time>2011-06-19T06:24:04Z</time>
      </trkpt>
      <trkpt lat="42.63965" lon="1.71157">
        <ele>1900.1833496094</ele>
        <time>2011-06-19T06:24:05Z</time>
      </trkpt>
      <trkpt lat="42.63963" lon="1.7115">
        <ele>1899.7023925781</ele>
        <time>2011-06-19T06:24:10Z</time>
      </trkpt>
      <trkpt lat="42.63958" lon="1.71147">
        <ele>1899.2216796875</ele>
        <time>2011-06-19T06:24:15Z</time>
      </trkpt>
      <trkpt lat="42.63957" lon="1.71147">
        <ele>1899.2216796875</ele>
        <time>2011-06-19T06:24:16Z</time>
      </trkpt>
      <trkpt lat="42.6395" lon="1.71142">
        <ele>1898.7409667969</ele>
        <time>2011-06-19T06:24:24Z</time>
      </trkpt>
      <trkpt lat="42.63947" lon="1.71138">
        <ele>1897.2990722656</ele>
        <time>2011-06-19T06:24:29Z</time>
      </trkpt>
      <trkpt lat="42.63942" lon="1.71136">
        <ele>1897.2990722656</ele>
        <time>2011-06-19T06:24:34Z</time>
      </trkpt>
      <trkpt lat="42.6394" lon="1.71137">
        <ele>1897.7797851562</ele>
        <time>2011-06-19T06:24:36Z</time>
      </trkpt>
      <trkpt lat="42.63933" lon="1.71135">
        <ele>1898.2602539062</ele>
        <time>2011-06-19T06:24:42Z</time>
      </trkpt>
      <trkpt lat="42.6393" lon="1.71134">
        <ele>1898.2602539062</ele>
        <time>2011-06-19T06:24:44Z</time>
      </trkpt>
      <trkpt lat="42.63923" lon="1.7113">
        <ele>1899.7023925781</ele>
        <time>2011-06-19T06:24:51Z</time>
      </trkpt>
      <trkpt lat="42.63918" lon="1.71121">
        <ele>1899.7023925781</ele>
        <time>2011-06-19T06:24:58Z</time>
      </trkpt>
      <trkpt lat="42.63916" lon="1.71119">
        <ele>1899.7023925781</ele>
        <time>2011-06-19T06:25:04Z</time>
      </trkpt>
      <trkpt lat="42.63919" lon="1.71118">
        <ele>1899.7023925781</ele>
        <time>2011-06-19T06:25:07Z</time>
      </trkpt>
      <trkpt lat="42.63918" lon="1.7111">
        <ele>1900.1833496094</ele>
        <time>2011-06-19T06:25:13Z</time>
      </trkpt>
      <trkpt lat="42.63912" lon="1.71105">
        <ele>1900.6638183594</ele>
        <time>2011-06-19T06:25:17Z</time>
      </trkpt>
      <trkpt lat="42.63905" lon="1.711">
        <ele>1901.14453125</ele>
        <time>2011-06-19T06:25:24Z</time>
      </trkpt>
      <trkpt lat="42.639" lon="1.71098">
        <ele>1901.14453125</ele>
        <time>2011-06-19T06:25:31Z</time>
      </trkpt>
      <trkpt lat="42.63895" lon="1.71098">
        <ele>1901.6252441406</ele>
        <time>2011-06-19T06:25:36Z</time>
      </trkpt>
      <trkpt lat="42.6389" lon="1.71094">
        <ele>1902.5864257812</ele>
        <time>2011-06-19T06:25:42Z</time>
      </trkpt>
      <trkpt lat="42.6389" lon="1.71091">
        <ele>1902.1057128906</ele>
        <time>2011-06-19T06:25:44Z</time>
      </trkpt>
      <trkpt lat="42.6389" lon="1.71087">
        <ele>1902.5864257812</ele>
        <time>2011-06-19T06:25:46Z</time>
      </trkpt>
      <trkpt lat="42.63887" lon="1.71088">
        <ele>1904.0285644531</ele>
        <time>2011-06-19T06:25:52Z</time>
      </trkpt>
      <trkpt lat="42.63882" lon="1.71086">
        <ele>1904.0285644531</ele>
        <time>2011-06-19T06:25:57Z</time>
      </trkpt>
      <trkpt lat="42.63877" lon="1.71086">
        <ele>1904.9897460938</ele>
        <time>2011-06-19T06:26:05Z</time>
      </trkpt>
      <trkpt lat="42.63876" lon="1.71084">
        <ele>1904.9897460938</ele>
        <time>2011-06-19T06:26:10Z</time>
      </trkpt>
      <trkpt lat="42.63873" lon="1.7108">
        <ele>1906.431640625</ele>
        <time>2011-06-19T06:26:16Z</time>
      </trkpt>
      <trkpt lat="42.6387" lon="1.71077">
        <ele>1906.9123535156</ele>
        <time>2011-06-19T06:26:21Z</time>
      </trkpt>
      <trkpt lat="42.63868" lon="1.71077">
        <ele>1908.3542480469</ele>
        <time>2011-06-19T06:26:27Z</time>
      </trkpt>
      <trkpt lat="42.63866" lon="1.71075">
        <ele>1908.8349609375</ele>
        <time>2011-06-19T06:26:32Z</time>
      </trkpt>
      <trkpt lat="42.63861" lon="1.71074">
        <ele>1910.2768554688</ele>
        <time>2011-06-19T06:26:38Z</time>
      </trkpt>
      <trkpt lat="42.63856" lon="1.71076">
        <ele>1910.7575683594</ele>
        <time>2011-06-19T06:26:44Z</time>
      </trkpt>
      <trkpt lat="42.63851" lon="1.71079">
        <ele>1909.3156738281</ele>
        <time>2011-06-19T06:26:50Z</time>
      </trkpt>
      <trkpt lat="42.63846" lon="1.7108">
        <ele>1908.8349609375</ele>
        <time>2011-06-19T06:26:57Z</time>
      </trkpt>
      <trkpt lat="42.63843" lon="1.71076">
        <ele>1910.2768554688</ele>
        <time>2011-06-19T06:27:04Z</time>
      </trkpt>
      <trkpt lat="42.63841" lon="1.71071">
        <ele>1911.23828125</ele>
        <time>2011-06-19T06:27:10Z</time>
      </trkpt>
      <trkpt lat="42.63837" lon="1.71069">
        <ele>1912.6801757812</ele>
        <time>2011-06-19T06:27:17Z</time>
      </trkpt>
      <trkpt lat="42.63837" lon="1.71068">
        <ele>1913.6413574219</ele>
        <time>2011-06-19T06:27:21Z</time>
      </trkpt>
      <trkpt lat="42.63835" lon="1.71064">
        <ele>1915.0834960938</ele>
        <time>2011-06-19T06:27:29Z</time>
      </trkpt>
      <trkpt lat="42.63831" lon="1.71059">
        <ele>1917.9675292969</ele>
        <time>2011-06-19T06:27:36Z</time>
      </trkpt>
      <trkpt lat="42.63827" lon="1.71053">
        <ele>1921.33203125</ele>
        <time>2011-06-19T06:27:43Z</time>
      </trkpt>
      <trkpt lat="42.63825" lon="1.71048">
        <ele>1921.33203125</ele>
        <time>2011-06-19T06:27:49Z</time>
      </trkpt>
      <trkpt lat="42.63823" lon="1.71042">
        <ele>1924.2160644531</ele>
        <time>2011-06-19T06:27:55Z</time>
      </trkpt>
      <trkpt lat="42.6382" lon="1.71038">
        <ele>1924.2160644531</ele>
        <time>2011-06-19T06:28:01Z</time>
      </trkpt>
      <trkpt lat="42.63817" lon="1.71033">
        <ele>1923.7353515625</ele>
        <time>2011-06-19T06:28:08Z</time>
      </trkpt>
      <trkpt lat="42.63815" lon="1.71032">
        <ele>1923.7353515625</ele>
        <time>2011-06-19T06:28:13Z</time>
      </trkpt>
      <trkpt lat="42.63811" lon="1.71035">
        <ele>1924.2160644531</ele>
        <time>2011-06-19T06:28:19Z</time>
      </trkpt>
      <trkpt lat="42.63807" lon="1.71038">
        <ele>1925.1772460938</ele>
        <time>2011-06-19T06:28:24Z</time>
      </trkpt>
      <trkpt lat="42.63806" lon="1.71044">
        <ele>1926.138671875</ele>
        <time>2011-06-19T06:28:30Z</time>
      </trkpt>
      <trkpt lat="42.63803" lon="1.71048">
        <ele>1928.0612792969</ele>
        <time>2011-06-19T06:28:36Z</time>
      </trkpt>
      <trkpt lat="42.63804" lon="1.71053">
        <ele>1929.5031738281</ele>
        <time>2011-06-19T06:28:42Z</time>
      </trkpt>
      <trkpt lat="42.63802" lon="1.71059">
        <ele>1930.4645996094</ele>
        <time>2011-06-19T06:28:48Z</time>
      </trkpt>
      <trkpt lat="42.638" lon="1.71063">
        <ele>1931.9064941406</ele>
        <time>2011-06-19T06:28:52Z</time>
      </trkpt>
      <trkpt lat="42.63797" lon="1.71069">
        <ele>1932.8679199219</ele>
        <time>2011-06-19T06:28:58Z</time>
      </trkpt>
      <trkpt lat="42.63794" lon="1.71073">
        <ele>1934.3100585938</ele>
        <time>2011-06-19T06:29:04Z</time>
      </trkpt>
      <trkpt lat="42.63792" lon="1.71076">
        <ele>1934.7907714844</ele>
        <time>2011-06-19T06:29:09Z</time>
      </trkpt>
      <trkpt lat="42.6379" lon="1.71082">
        <ele>1935.751953125</ele>
        <time>2011-06-19T06:29:17Z</time>
      </trkpt>
      <trkpt lat="42.63785" lon="1.71084">
        <ele>1937.1938476562</ele>
        <time>2011-06-19T06:29:24Z</time>
      </trkpt>
      <trkpt lat="42.63784" lon="1.71088">
        <ele>1938.6359863281</ele>
        <time>2011-06-19T06:29:30Z</time>
      </trkpt>
      <trkpt lat="42.63782" lon="1.71094">
        <ele>1940.0778808594</ele>
        <time>2011-06-19T06:29:38Z</time>
      </trkpt>
      <trkpt lat="42.63783" lon="1.71101">
        <ele>1942.0004882812</ele>
        <time>2011-06-19T06:29:46Z</time>
      </trkpt>
      <trkpt lat="42.63781" lon="1.7111">
        <ele>1943.4423828125</ele>
        <time>2011-06-19T06:29:54Z</time>
      </trkpt>
      <trkpt lat="42.63779" lon="1.71117">
        <ele>1943.9230957031</ele>
        <time>2011-06-19T06:30:01Z</time>
      </trkpt>
      <trkpt lat="42.63774" lon="1.71119">
        <ele>1944.8842773438</ele>
        <time>2011-06-19T06:30:06Z</time>
      </trkpt>
      <trkpt lat="42.6377" lon="1.71122">
        <ele>1945.845703125</ele>
        <time>2011-06-19T06:30:12Z</time>
      </trkpt>
      <trkpt lat="42.63768" lon="1.71122">
        <ele>1947.7683105469</ele>
        <time>2011-06-19T06:30:16Z</time>
      </trkpt>
      <trkpt lat="42.63764" lon="1.71129">
        <ele>1949.2104492188</ele>
        <time>2011-06-19T06:30:23Z</time>
      </trkpt>
      <trkpt lat="42.63761" lon="1.71134">
        <ele>1950.65234375</ele>
        <time>2011-06-19T06:30:30Z</time>
      </trkpt>
      <trkpt lat="42.6376" lon="1.71137">
        <ele>1951.1330566406</ele>
        <time>2011-06-19T06:30:37Z</time>
      </trkpt>
      <trkpt lat="42.63755" lon="1.71137">
        <ele>1952.0942382812</ele>
        <time>2011-06-19T06:30:44Z</time>
      </trkpt>
      <trkpt lat="42.63753" lon="1.7114">
        <ele>1953.5363769531</ele>
        <time>2011-06-19T06:30:50Z</time>
      </trkpt>
      <trkpt lat="42.63752" lon="1.71145">
        <ele>1954.4975585938</ele>
        <time>2011-06-19T06:30:56Z</time>
      </trkpt>
      <trkpt lat="42.6375" lon="1.71148">
        <ele>1955.458984375</ele>
        <time>2011-06-19T06:31:01Z</time>
      </trkpt>
      <trkpt lat="42.63748" lon="1.7115">
        <ele>1955.939453125</ele>
        <time>2011-06-19T06:31:06Z</time>
      </trkpt>
      <trkpt lat="42.63745" lon="1.71153">
        <ele>1957.3815917969</ele>
        <time>2011-06-19T06:31:12Z</time>
      </trkpt>
      <trkpt lat="42.63746" lon="1.7116">
        <ele>1959.7846679688</ele>
        <time>2011-06-19T06:31:20Z</time>
      </trkpt>
      <trkpt lat="42.63744" lon="1.71165">
        <ele>1960.74609375</ele>
        <time>2011-06-19T06:31:26Z</time>
      </trkpt>
      <trkpt lat="42.63742" lon="1.71168">
        <ele>1961.7075195312</ele>
        <time>2011-06-19T06:31:31Z</time>
      </trkpt>
      <trkpt lat="42.63741" lon="1.71171">
        <ele>1963.1494140625</ele>
        <time>2011-06-19T06:31:37Z</time>
      </trkpt>
      <trkpt lat="42.63738" lon="1.71179">
        <ele>1965.5529785156</ele>
        <time>2011-06-19T06:31:46Z</time>
      </trkpt>
      <trkpt lat="42.63736" lon="1.71181">
        <ele>1967.4753417969</ele>
        <time>2011-06-19T06:31:53Z</time>
      </trkpt>
      <trkpt lat="42.63732" lon="1.71183">
        <ele>1969.3981933594</ele>
        <time>2011-06-19T06:32:00Z</time>
      </trkpt>
      <trkpt lat="42.63728" lon="1.71183">
        <ele>1970.359375</ele>
        <time>2011-06-19T06:32:06Z</time>
      </trkpt>
      <trkpt lat="42.63725" lon="1.71189">
        <ele>1971.8012695312</ele>
        <time>2011-06-19T06:32:13Z</time>
      </trkpt>
      <trkpt lat="42.6372" lon="1.71191">
        <ele>1972.7626953125</ele>
        <time>2011-06-19T06:32:20Z</time>
      </trkpt>
      <trkpt lat="42.63716" lon="1.71195">
        <ele>1973.7238769531</ele>
        <time>2011-06-19T06:32:25Z</time>
      </trkpt>
      <trkpt lat="42.63711" lon="1.71199">
        <ele>1975.1657714844</ele>
        <time>2011-06-19T06:32:31Z</time>
      </trkpt>
      <trkpt lat="42.63708" lon="1.71202">
        <ele>1976.6079101562</ele>
        <time>2011-06-19T06:32:38Z</time>
      </trkpt>
      <trkpt lat="42.63704" lon="1.71203">
        <ele>1978.0498046875</ele>
        <time>2011-06-19T06:32:44Z</time>
      </trkpt>
      <trkpt lat="42.637" lon="1.71205">
        <ele>1978.5305175781</ele>
        <time>2011-06-19T06:32:50Z</time>
      </trkpt>
      <trkpt lat="42.63699" lon="1.71209">
        <ele>1979.4916992188</ele>
        <time>2011-06-19T06:32:55Z</time>
      </trkpt>
      <trkpt lat="42.63697" lon="1.71212">
        <ele>1980.4533691406</ele>
        <time>2011-06-19T06:33:01Z</time>
      </trkpt>
      <trkpt lat="42.63695" lon="1.71214">
        <ele>1981.8952636719</ele>
        <time>2011-06-19T06:33:06Z</time>
      </trkpt>
      <trkpt lat="42.6369" lon="1.71214">
        <ele>1982.8564453125</ele>
        <time>2011-06-19T06:33:12Z</time>
      </trkpt>
      <trkpt lat="42.63684" lon="1.71216">
        <ele>1984.779296875</ele>
        <time>2011-06-19T06:33:19Z</time>
      </trkpt>
      <trkpt lat="42.6368" lon="1.71218">
        <ele>1986.2211914062</ele>
        <time>2011-06-19T06:33:26Z</time>
      </trkpt>
      <trkpt lat="42.63679" lon="1.71218">
        <ele>1987.1823730469</ele>
        <time>2011-06-19T06:33:33Z</time>
      </trkpt>
      <trkpt lat="42.63676" lon="1.71219">
        <ele>1986.7016601562</ele>
        <time>2011-06-19T06:33:39Z</time>
      </trkpt>
      <trkpt lat="42.63675" lon="1.71221">
        <ele>1987.6630859375</ele>
        <time>2011-06-19T06:33:44Z</time>
      </trkpt>
      <trkpt lat="42.6367" lon="1.71222">
        <ele>1989.1049804688</ele>
        <time>2011-06-19T06:33:51Z</time>
      </trkpt>
      <trkpt lat="42.63667" lon="1.71223">
        <ele>1989.5856933594</ele>
        <time>2011-06-19T06:33:57Z</time>
      </trkpt>
      <trkpt lat="42.63665" lon="1.71226">
        <ele>1991.0275878906</ele>
        <time>2011-06-19T06:34:03Z</time>
      </trkpt>
      <trkpt lat="42.63663" lon="1.7123">
        <ele>1992.4697265625</ele>
        <time>2011-06-19T06:34:09Z</time>
      </trkpt>
      <trkpt lat="42.63659" lon="1.71233">
        <ele>1994.3920898438</ele>
        <time>2011-06-19T06:34:15Z</time>
      </trkpt>
      <trkpt lat="42.63654" lon="1.71237">
        <ele>1996.7956542969</ele>
        <time>2011-06-19T06:34:23Z</time>
      </trkpt>
      <trkpt lat="42.63649" lon="1.71238">
        <ele>1998.2375488281</ele>
        <time>2011-06-19T06:34:30Z</time>
      </trkpt>
      <trkpt lat="42.63647" lon="1.7124">
        <ele>1999.1989746094</ele>
        <time>2011-06-19T06:34:35Z</time>
      </trkpt>
      <trkpt lat="42.63646" lon="1.71243">
        <ele>2000.1604003906</ele>
        <time>2011-06-19T06:34:41Z</time>
      </trkpt>
      <trkpt lat="42.63644" lon="1.71245">
        <ele>2000.1604003906</ele>
        <time>2011-06-19T06:34:47Z</time>
      </trkpt>
      <trkpt lat="42.63641" lon="1.71249">
        <ele>2002.0827636719</ele>
        <time>2011-06-19T06:34:54Z</time>
      </trkpt>
      <trkpt lat="42.6364" lon="1.71254">
        <ele>2003.5249023438</ele>
        <time>2011-06-19T06:35:00Z</time>
      </trkpt>
      <trkpt lat="42.63639" lon="1.71259">
        <ele>2004.966796875</ele>
        <time>2011-06-19T06:35:07Z</time>
      </trkpt>
      <trkpt lat="42.63636" lon="1.71264">
        <ele>2006.4086914062</ele>
        <time>2011-06-19T06:35:15Z</time>
      </trkpt>
      <trkpt lat="42.63633" lon="1.71268">
        <ele>2007.8508300781</ele>
        <time>2011-06-19T06:35:22Z</time>
      </trkpt>
      <trkpt lat="42.6363" lon="1.71271">
        <ele>2008.8120117188</ele>
        <time>2011-06-19T06:35:29Z</time>
      </trkpt>
      <trkpt lat="42.63628" lon="1.71275">
        <ele>2010.7346191406</ele>
        <time>2011-06-19T06:35:35Z</time>
      </trkpt>
      <trkpt lat="42.63626" lon="1.7128">
        <ele>2011.6960449219</ele>
        <time>2011-06-19T06:35:41Z</time>
      </trkpt>
      <trkpt lat="42.63623" lon="1.71281">
        <ele>2013.1381835938</ele>
        <time>2011-06-19T06:35:46Z</time>
      </trkpt>
      <trkpt lat="42.6362" lon="1.71287">
        <ele>2014.580078125</ele>
        <time>2011-06-19T06:35:54Z</time>
      </trkpt>
      <trkpt lat="42.63619" lon="1.71293">
        <ele>2016.0219726562</ele>
        <time>2011-06-19T06:36:01Z</time>
      </trkpt>
      <trkpt lat="42.63617" lon="1.71299">
        <ele>2017.4638671875</ele>
        <time>2011-06-19T06:36:08Z</time>
      </trkpt>
      <trkpt lat="42.63616" lon="1.71303">
        <ele>2018.9060058594</ele>
        <time>2011-06-19T06:36:14Z</time>
      </trkpt>
      <trkpt lat="42.63614" lon="1.71306">
        <ele>2019.8671875</ele>
        <time>2011-06-19T06:36:19Z</time>
      </trkpt>
      <trkpt lat="42.63612" lon="1.7131">
        <ele>2020.8286132812</ele>
        <time>2011-06-19T06:36:26Z</time>
      </trkpt>
      <trkpt lat="42.63612" lon="1.71315">
        <ele>2022.2705078125</ele>
        <time>2011-06-19T06:36:32Z</time>
      </trkpt>
      <trkpt lat="42.63609" lon="1.71317">
        <ele>2023.7124023438</ele>
        <time>2011-06-19T06:36:37Z</time>
      </trkpt>
      <trkpt lat="42.63609" lon="1.7132">
        <ele>2024.673828125</ele>
        <time>2011-06-19T06:36:42Z</time>
      </trkpt>
      <trkpt lat="42.63609" lon="1.71328">
        <ele>2026.1157226562</ele>
        <time>2011-06-19T06:36:49Z</time>
      </trkpt>
      <trkpt lat="42.63607" lon="1.71333">
        <ele>2028.0385742188</ele>
        <time>2011-06-19T06:36:56Z</time>
      </trkpt>
      <trkpt lat="42.63605" lon="1.7134">
        <ele>2029.48046875</ele>
        <time>2011-06-19T06:37:04Z</time>
      </trkpt>
      <trkpt lat="42.63602" lon="1.71343">
        <ele>2030.4418945312</ele>
        <time>2011-06-19T06:37:10Z</time>
      </trkpt>
      <trkpt lat="42.63599" lon="1.71346">
        <ele>2032.3645019531</ele>
        <time>2011-06-19T06:37:16Z</time>
      </trkpt>
      <trkpt lat="42.63596" lon="1.71353">
        <ele>2033.3256835938</ele>
        <time>2011-06-19T06:37:23Z</time>
      </trkpt>
      <trkpt lat="42.63592" lon="1.71357">
        <ele>2035.7290039062</ele>
        <time>2011-06-19T06:37:30Z</time>
      </trkpt>
      <trkpt lat="42.63589" lon="1.71358">
        <ele>2035.7290039062</ele>
        <time>2011-06-19T06:37:36Z</time>
      </trkpt>
      <trkpt lat="42.63586" lon="1.71361">
        <ele>2036.2097167969</ele>
        <time>2011-06-19T06:37:41Z</time>
      </trkpt>
      <trkpt lat="42.63585" lon="1.71367">
        <ele>2038.1323242188</ele>
        <time>2011-06-19T06:37:48Z</time>
      </trkpt>
      <trkpt lat="42.63583" lon="1.71371">
        <ele>2039.57421875</ele>
        <time>2011-06-19T06:37:54Z</time>
      </trkpt>
      <trkpt lat="42.63582" lon="1.71374">
        <ele>2041.0161132812</ele>
        <time>2011-06-19T06:38:00Z</time>
      </trkpt>
      <trkpt lat="42.63581" lon="1.71378">
        <ele>2041.9775390625</ele>
        <time>2011-06-19T06:38:06Z</time>
      </trkpt>
      <trkpt lat="42.63577" lon="1.7138">
        <ele>2043.4194335938</ele>
        <time>2011-06-19T06:38:12Z</time>
      </trkpt>
      <trkpt lat="42.63573" lon="1.71383">
        <ele>2045.3422851562</ele>
        <time>2011-06-19T06:38:19Z</time>
      </trkpt>
      <trkpt lat="42.6357" lon="1.7139">
        <ele>2046.7841796875</ele>
        <time>2011-06-19T06:38:27Z</time>
      </trkpt>
      <trkpt lat="42.63567" lon="1.71394">
        <ele>2047.7456054688</ele>
        <time>2011-06-19T06:38:33Z</time>
      </trkpt>
      <trkpt lat="42.63564" lon="1.71398">
        <ele>2048.7067871094</ele>
        <time>2011-06-19T06:38:38Z</time>
      </trkpt>
      <trkpt lat="42.6356" lon="1.71402">
        <ele>2049.1875</ele>
        <time>2011-06-19T06:38:44Z</time>
      </trkpt>
      <trkpt lat="42.63554" lon="1.7141">
        <ele>2051.1101074219</ele>
        <time>2011-06-19T06:38:52Z</time>
      </trkpt>
      <trkpt lat="42.63551" lon="1.71416">
        <ele>2052.5520019531</ele>
        <time>2011-06-19T06:38:59Z</time>
      </trkpt>
      <trkpt lat="42.63547" lon="1.71422">
        <ele>2054.474609375</ele>
        <time>2011-06-19T06:39:06Z</time>
      </trkpt>
      <trkpt lat="42.63541" lon="1.71426">
        <ele>2056.8779296875</ele>
        <time>2011-06-19T06:39:14Z</time>
      </trkpt>
      <trkpt lat="42.63536" lon="1.71429">
        <ele>2058.8005371094</ele>
        <time>2011-06-19T06:39:21Z</time>
      </trkpt>
      <trkpt lat="42.63531" lon="1.71432">
        <ele>2060.2426757812</ele>
        <time>2011-06-19T06:39:28Z</time>
      </trkpt>
      <trkpt lat="42.63527" lon="1.7143">
        <ele>2061.6848144531</ele>
        <time>2011-06-19T06:39:35Z</time>
      </trkpt>
      <trkpt lat="42.63523" lon="1.71434">
        <ele>2064.087890625</ele>
        <time>2011-06-19T06:39:43Z</time>
      </trkpt>
      <trkpt lat="42.6352" lon="1.71436">
        <ele>2065.0493164062</ele>
        <time>2011-06-19T06:39:49Z</time>
      </trkpt>
      <trkpt lat="42.63519" lon="1.71439">
        <ele>2065.5300292969</ele>
        <time>2011-06-19T06:39:54Z</time>
      </trkpt>
      <trkpt lat="42.63517" lon="1.71441">
        <ele>2066.0104980469</ele>
        <time>2011-06-19T06:39:59Z</time>
      </trkpt>
      <trkpt lat="42.63514" lon="1.71441">
        <ele>2066.4912109375</ele>
        <time>2011-06-19T06:40:05Z</time>
      </trkpt>
      <trkpt lat="42.6351" lon="1.71442">
        <ele>2068.4138183594</ele>
        <time>2011-06-19T06:40:12Z</time>
      </trkpt>
      <trkpt lat="42.63507" lon="1.71444">
        <ele>2070.3364257812</ele>
        <time>2011-06-19T06:40:20Z</time>
      </trkpt>
      <trkpt lat="42.63505" lon="1.71445">
        <ele>2072.7397460938</ele>
        <time>2011-06-19T06:40:26Z</time>
      </trkpt>
      <trkpt lat="42.63503" lon="1.71444">
        <ele>2073.2204589844</ele>
        <time>2011-06-19T06:40:32Z</time>
      </trkpt>
      <trkpt lat="42.63501" lon="1.71446">
        <ele>2074.181640625</ele>
        <time>2011-06-19T06:40:41Z</time>
      </trkpt>
      <trkpt lat="42.635" lon="1.71449">
        <ele>2076.1044921875</ele>
        <time>2011-06-19T06:40:46Z</time>
      </trkpt>
      <trkpt lat="42.63496" lon="1.7145">
        <ele>2078.0270996094</ele>
        <time>2011-06-19T06:40:54Z</time>
      </trkpt>
      <trkpt lat="42.63493" lon="1.71453">
        <ele>2078.98828125</ele>
        <time>2011-06-19T06:41:00Z</time>
      </trkpt>
      <trkpt lat="42.63491" lon="1.71457">
        <ele>2080.9111328125</ele>
        <time>2011-06-19T06:41:05Z</time>
      </trkpt>
      <trkpt lat="42.63488" lon="1.71459">
        <ele>2081.8723144531</ele>
        <time>2011-06-19T06:41:11Z</time>
      </trkpt>
      <trkpt lat="42.63486" lon="1.71462">
        <ele>2081.8723144531</ele>
        <time>2011-06-19T06:41:16Z</time>
      </trkpt>
      <trkpt lat="42.63485" lon="1.71462">
        <ele>2081.3916015625</ele>
        <time>2011-06-19T06:41:21Z</time>
      </trkpt>
      <trkpt lat="42.63482" lon="1.71462">
        <ele>2081.3916015625</ele>
        <time>2011-06-19T06:41:25Z</time>
      </trkpt>
      <trkpt lat="42.63475" lon="1.7146">
        <ele>2082.3530273438</ele>
        <time>2011-06-19T06:41:33Z</time>
      </trkpt>
      <trkpt lat="42.63469" lon="1.7146">
        <ele>2083.3142089844</ele>
        <time>2011-06-19T06:41:39Z</time>
      </trkpt>
      <trkpt lat="42.63464" lon="1.71462">
        <ele>2084.7563476562</ele>
        <time>2011-06-19T06:41:44Z</time>
      </trkpt>
      <trkpt lat="42.63458" lon="1.71463">
        <ele>2087.1594238281</ele>
        <time>2011-06-19T06:41:50Z</time>
      </trkpt>
      <trkpt lat="42.63452" lon="1.71465">
        <ele>2087.6401367188</ele>
        <time>2011-06-19T06:41:56Z</time>
      </trkpt>
      <trkpt lat="42.63447" lon="1.71468">
        <ele>2089.08203125</ele>
        <time>2011-06-19T06:42:01Z</time>
      </trkpt>
      <trkpt lat="42.63439" lon="1.71472">
        <ele>2089.08203125</ele>
        <time>2011-06-19T06:42:08Z</time>
      </trkpt>
      <trkpt lat="42.63431" lon="1.71479">
        <ele>2089.08203125</ele>
        <time>2011-06-19T06:42:16Z</time>
      </trkpt>
      <trkpt lat="42.63421" lon="1.71484">
        <ele>2089.5627441406</ele>
        <time>2011-06-19T06:42:24Z</time>
      </trkpt>
      <trkpt lat="42.63416" lon="1.71488">
        <ele>2091.4853515625</ele>
        <time>2011-06-19T06:42:32Z</time>
      </trkpt>
      <trkpt lat="42.63411" lon="1.7149">
        <ele>2092.4470214844</ele>
        <time>2011-06-19T06:42:39Z</time>
      </trkpt>
      <trkpt lat="42.63409" lon="1.71492">
        <ele>2093.408203125</ele>
        <time>2011-06-19T06:42:47Z</time>
      </trkpt>
      <trkpt lat="42.63408" lon="1.71493">
        <ele>2093.408203125</ele>
        <time>2011-06-19T06:42:55Z</time>
      </trkpt>
      <trkpt lat="42.63407" lon="1.71493">
        <ele>2092.4470214844</ele>
        <time>2011-06-19T06:43:02Z</time>
      </trkpt>
      <trkpt lat="42.63407" lon="1.71493">
        <ele>2091.9660644531</ele>
        <time>2011-06-19T06:43:26Z</time>
      </trkpt>
      <trkpt lat="42.63407" lon="1.71494">
        <ele>2092.4470214844</ele>
        <time>2011-06-19T06:43:40Z</time>
      </trkpt>
      <trkpt lat="42.63407" lon="1.71494">
        <ele>2092.4470214844</ele>
        <time>2011-06-19T06:43:47Z</time>
      </trkpt>
      <trkpt lat="42.63406" lon="1.71494">
        <ele>2092.4470214844</ele>
        <time>2011-06-19T06:43:49Z</time>
      </trkpt>
      <trkpt lat="42.634" lon="1.71492">
        <ele>2092.4470214844</ele>
        <time>2011-06-19T06:43:54Z</time>
      </trkpt>
      <trkpt lat="42.63396" lon="1.7149">
        <ele>2092.9274902344</ele>
        <time>2011-06-19T06:43:58Z</time>
      </trkpt>
      <trkpt lat="42.63395" lon="1.71489">
        <ele>2093.408203125</ele>
        <time>2011-06-19T06:44:06Z</time>
      </trkpt>
      <trkpt lat="42.63395" lon="1.71489">
        <ele>2093.408203125</ele>
        <time>2011-06-19T06:44:15Z</time>
      </trkpt>
      <trkpt lat="42.63395" lon="1.71489">
        <ele>2093.408203125</ele>
        <time>2011-06-19T06:44:17Z</time>
      </trkpt>
      <trkpt lat="42.63389" lon="1.71483">
        <ele>2094.3693847656</ele>
        <time>2011-06-19T06:44:24Z</time>
      </trkpt>
      <trkpt lat="42.63382" lon="1.71477">
        <ele>2093.8889160156</ele>
        <time>2011-06-19T06:44:31Z</time>
      </trkpt>
      <trkpt lat="42.63372" lon="1.71476">
        <ele>2094.3693847656</ele>
        <time>2011-06-19T06:44:38Z</time>
      </trkpt>
      <trkpt lat="42.63363" lon="1.71477">
        <ele>2095.8115234375</ele>
        <time>2011-06-19T06:44:46Z</time>
      </trkpt>
      <trkpt lat="42.63356" lon="1.71479">
        <ele>2096.7727050781</ele>
        <time>2011-06-19T06:44:52Z</time>
      </trkpt>
      <trkpt lat="42.6335" lon="1.71482">
        <ele>2096.7727050781</ele>
        <time>2011-06-19T06:44:58Z</time>
      </trkpt>
      <trkpt lat="42.63343" lon="1.71486">
        <ele>2098.6953125</ele>
        <time>2011-06-19T06:45:06Z</time>
      </trkpt>
      <trkpt lat="42.63339" lon="1.71488">
        <ele>2100.1374511719</ele>
        <time>2011-06-19T06:45:12Z</time>
      </trkpt>
      <trkpt lat="42.63336" lon="1.71493">
        <ele>2102.0598144531</ele>
        <time>2011-06-19T06:45:19Z</time>
      </trkpt>
      <trkpt lat="42.63332" lon="1.71497">
        <ele>2103.501953125</ele>
        <time>2011-06-19T06:45:25Z</time>
      </trkpt>
      <trkpt lat="42.63328" lon="1.71496">
        <ele>2105.9050292969</ele>
        <time>2011-06-19T06:45:32Z</time>
      </trkpt>
      <trkpt lat="42.63326" lon="1.71495">
        <ele>2106.3857421875</ele>
        <time>2011-06-19T06:45:37Z</time>
      </trkpt>
      <trkpt lat="42.63326" lon="1.71491">
        <ele>2107.8278808594</ele>
        <time>2011-06-19T06:45:43Z</time>
      </trkpt>
      <trkpt lat="42.63326" lon="1.71486">
        <ele>2109.7504882812</ele>
        <time>2011-06-19T06:45:49Z</time>
      </trkpt>
      <trkpt lat="42.63326" lon="1.71483">
        <ele>2111.1926269531</ele>
        <time>2011-06-19T06:45:54Z</time>
      </trkpt>
      <trkpt lat="42.63324" lon="1.71484">
        <ele>2112.6345214844</ele>
        <time>2011-06-19T06:46:00Z</time>
      </trkpt>
      <trkpt lat="42.63319" lon="1.71488">
        <ele>2114.5571289062</ele>
        <time>2011-06-19T06:46:07Z</time>
      </trkpt>
      <trkpt lat="42.63314" lon="1.7149">
        <ele>2116.9604492188</ele>
        <time>2011-06-19T06:46:14Z</time>
      </trkpt>
      <trkpt lat="42.6331" lon="1.71493">
        <ele>2118.8830566406</ele>
        <time>2011-06-19T06:46:21Z</time>
      </trkpt>
      <trkpt lat="42.63306" lon="1.71495">
        <ele>2119.8442382812</ele>
        <time>2011-06-19T06:46:27Z</time>
      </trkpt>
      <trkpt lat="42.633" lon="1.71497">
        <ele>2121.2861328125</ele>
        <time>2011-06-19T06:46:34Z</time>
      </trkpt>
      <trkpt lat="42.63294" lon="1.71499">
        <ele>2121.2861328125</ele>
        <time>2011-06-19T06:46:41Z</time>
      </trkpt>
      <trkpt lat="42.63288" lon="1.715">
        <ele>2121.2861328125</ele>
        <time>2011-06-19T06:46:48Z</time>
      </trkpt>
      <trkpt lat="42.63285" lon="1.71502">
        <ele>2123.689453125</ele>
        <time>2011-06-19T06:46:55Z</time>
      </trkpt>
      <trkpt lat="42.6328" lon="1.71502">
        <ele>2124.6511230469</ele>
        <time>2011-06-19T06:47:02Z</time>
      </trkpt>
      <trkpt lat="42.63278" lon="1.71499">
        <ele>2126.0930175781</ele>
        <time>2011-06-19T06:47:08Z</time>
      </trkpt>
      <trkpt lat="42.63276" lon="1.71498">
        <ele>2128.015625</ele>
        <time>2011-06-19T06:47:14Z</time>
      </trkpt>
      <trkpt lat="42.63272" lon="1.71499">
        <ele>2128.9768066406</ele>
        <time>2011-06-19T06:47:20Z</time>
      </trkpt>
      <trkpt lat="42.63266" lon="1.715">
        <ele>2130.8996582031</ele>
        <time>2011-06-19T06:47:27Z</time>
      </trkpt>
      <trkpt lat="42.6326" lon="1.715">
        <ele>2131.3801269531</ele>
        <time>2011-06-19T06:47:34Z</time>
      </trkpt>
      <trkpt lat="42.63258" lon="1.715">
        <ele>2131.8608398438</ele>
        <time>2011-06-19T06:47:36Z</time>
      </trkpt>
      <trkpt lat="42.63253" lon="1.71497">
        <ele>2133.7834472656</ele>
        <time>2011-06-19T06:47:43Z</time>
      </trkpt>
      <trkpt lat="42.63245" lon="1.71496">
        <ele>2134.7448730469</ele>
        <time>2011-06-19T06:47:49Z</time>
      </trkpt>
      <trkpt lat="42.63235" lon="1.71491">
        <ele>2136.1867675781</ele>
        <time>2011-06-19T06:47:58Z</time>
      </trkpt>
      <trkpt lat="42.63227" lon="1.71487">
        <ele>2136.6672363281</ele>
        <time>2011-06-19T06:48:05Z</time>
      </trkpt>
      <trkpt lat="42.63222" lon="1.71484">
        <ele>2137.1479492188</ele>
        <time>2011-06-19T06:48:10Z</time>
      </trkpt>
      <trkpt lat="42.63218" lon="1.71482">
        <ele>2137.1479492188</ele>
        <time>2011-06-19T06:48:14Z</time>
      </trkpt>
      <trkpt lat="42.63209" lon="1.71476">
        <ele>2137.6286621094</ele>
        <time>2011-06-19T06:48:22Z</time>
      </trkpt>
      <trkpt lat="42.63203" lon="1.71471">
        <ele>2139.0705566406</ele>
        <time>2011-06-19T06:48:28Z</time>
      </trkpt>
      <trkpt lat="42.63197" lon="1.71464">
        <ele>2140.5126953125</ele>
        <time>2011-06-19T06:48:35Z</time>
      </trkpt>
      <trkpt lat="42.6319" lon="1.71455">
        <ele>2142.435546875</ele>
        <time>2011-06-19T06:48:43Z</time>
      </trkpt>
      <trkpt lat="42.63181" lon="1.71446">
        <ele>2144.3579101562</ele>
        <time>2011-06-19T06:48:52Z</time>
      </trkpt>
      <trkpt lat="42.63174" lon="1.71439">
        <ele>2145.8000488281</ele>
        <time>2011-06-19T06:49:00Z</time>
      </trkpt>
      <trkpt lat="42.63166" lon="1.71432">
        <ele>2147.2419433594</ele>
        <time>2011-06-19T06:49:08Z</time>
      </trkpt>
      <trkpt lat="42.6316" lon="1.71424">
        <ele>2149.1645507812</ele>
        <time>2011-06-19T06:49:15Z</time>
      </trkpt>
      <trkpt lat="42.63157" lon="1.71421">
        <ele>2149.1645507812</ele>
        <time>2011-06-19T06:49:18Z</time>
      </trkpt>
      <trkpt lat="42.63155" lon="1.71416">
        <ele>2149.6452636719</ele>
        <time>2011-06-19T06:49:22Z</time>
      </trkpt>
      <trkpt lat="42.63148" lon="1.71407">
        <ele>2150.6064453125</ele>
        <time>2011-06-19T06:49:31Z</time>
      </trkpt>
      <trkpt lat="42.63144" lon="1.71403">
        <ele>2150.6064453125</ele>
        <time>2011-06-19T06:49:37Z</time>
      </trkpt>
      <trkpt lat="42.63138" lon="1.71396">
        <ele>2150.6064453125</ele>
        <time>2011-06-19T06:49:43Z</time>
      </trkpt>
      <trkpt lat="42.63127" lon="1.71387">
        <ele>2151.5678710938</ele>
        <time>2011-06-19T06:49:53Z</time>
      </trkpt>
      <trkpt lat="42.63118" lon="1.71378">
        <ele>2152.0483398438</ele>
        <time>2011-06-19T06:50:01Z</time>
      </trkpt>
      <trkpt lat="42.6311" lon="1.7137">
        <ele>2152.5290527344</ele>
        <time>2011-06-19T06:50:09Z</time>
      </trkpt>
      <trkpt lat="42.63101" lon="1.71363">
        <ele>2153.009765625</ele>
        <time>2011-06-19T06:50:17Z</time>
      </trkpt>
      <trkpt lat="42.63091" lon="1.71354">
        <ele>2153.009765625</ele>
        <time>2011-06-19T06:50:26Z</time>
      </trkpt>
      <trkpt lat="42.6308" lon="1.71346">
        <ele>2153.009765625</ele>
        <time>2011-06-19T06:50:35Z</time>
      </trkpt>
      <trkpt lat="42.63071" lon="1.7134">
        <ele>2153.4904785156</ele>
        <time>2011-06-19T06:50:42Z</time>
      </trkpt>
      <trkpt lat="42.6307" lon="1.71338">
        <ele>2153.4904785156</ele>
        <time>2011-06-19T06:50:44Z</time>
      </trkpt>
      <trkpt lat="42.63068" lon="1.71331">
        <ele>2153.4904785156</ele>
        <time>2011-06-19T06:50:49Z</time>
      </trkpt>
      <trkpt lat="42.63063" lon="1.71318">
        <ele>2152.5290527344</ele>
        <time>2011-06-19T06:50:55Z</time>
      </trkpt>
      <trkpt lat="42.63057" lon="1.71296">
        <ele>2153.009765625</ele>
        <time>2011-06-19T06:51:03Z</time>
      </trkpt>
      <trkpt lat="42.63054" lon="1.71281">
        <ele>2153.9711914062</ele>
        <time>2011-06-19T06:51:11Z</time>
      </trkpt>
      <trkpt lat="42.63054" lon="1.71272">
        <ele>2155.4130859375</ele>
        <time>2011-06-19T06:51:17Z</time>
      </trkpt>
      <trkpt lat="42.63057" lon="1.71261">
        <ele>2157.3359375</ele>
        <time>2011-06-19T06:51:26Z</time>
      </trkpt>
      <trkpt lat="42.63055" lon="1.71257">
        <ele>2157.8166503906</ele>
        <time>2011-06-19T06:51:32Z</time>
      </trkpt>
      <trkpt lat="42.63049" lon="1.71253">
        <ele>2157.8166503906</ele>
        <time>2011-06-19T06:51:39Z</time>
      </trkpt>
      <trkpt lat="42.63045" lon="1.71247">
        <ele>2158.2971191406</ele>
        <time>2011-06-19T06:51:46Z</time>
      </trkpt>
      <trkpt lat="42.63042" lon="1.71241">
        <ele>2158.2971191406</ele>
        <time>2011-06-19T06:51:50Z</time>
      </trkpt>
      <trkpt lat="42.63036" lon="1.71228">
        <ele>2158.2971191406</ele>
        <time>2011-06-19T06:51:58Z</time>
      </trkpt>
      <trkpt lat="42.63033" lon="1.71216">
        <ele>2158.2971191406</ele>
        <time>2011-06-19T06:52:05Z</time>
      </trkpt>
      <trkpt lat="42.63031" lon="1.71213">
        <ele>2158.7778320312</ele>
        <time>2011-06-19T06:52:08Z</time>
      </trkpt>
      <trkpt lat="42.63028" lon="1.71196">
        <ele>2159.2585449219</ele>
        <time>2011-06-19T06:52:18Z</time>
      </trkpt>
      <trkpt lat="42.63028" lon="1.71193">
        <ele>2160.2197265625</ele>
        <time>2011-06-19T06:52:20Z</time>
      </trkpt>
      <trkpt lat="42.63026" lon="1.71188">
        <ele>2161.6618652344</ele>
        <time>2011-06-19T06:52:24Z</time>
      </trkpt>
      <trkpt lat="42.63025" lon="1.71179">
        <ele>2164.0649414062</ele>
        <time>2011-06-19T06:52:32Z</time>
      </trkpt>
      <trkpt lat="42.63025" lon="1.71169">
        <ele>2163.5842285156</ele>
        <time>2011-06-19T06:52:39Z</time>
      </trkpt>
      <trkpt lat="42.63026" lon="1.71158">
        <ele>2162.623046875</ele>
        <time>2011-06-19T06:52:45Z</time>
      </trkpt>
      <trkpt lat="42.63028" lon="1.71154">
        <ele>2162.623046875</ele>
        <time>2011-06-19T06:52:47Z</time>
      </trkpt>
      <trkpt lat="42.63028" lon="1.71151">
        <ele>2162.1423339844</ele>
        <time>2011-06-19T06:52:53Z</time>
      </trkpt>
      <trkpt lat="42.63028" lon="1.71148">
        <ele>2161.6618652344</ele>
        <time>2011-06-19T06:52:55Z</time>
      </trkpt>
      <trkpt lat="42.63029" lon="1.7114">
        <ele>2161.1811523438</ele>
        <time>2011-06-19T06:53:01Z</time>
      </trkpt>
      <trkpt lat="42.63031" lon="1.71128">
        <ele>2160.2197265625</ele>
        <time>2011-06-19T06:53:10Z</time>
      </trkpt>
      <trkpt lat="42.63032" lon="1.71126">
        <ele>2160.2197265625</ele>
        <time>2011-06-19T06:53:11Z</time>
      </trkpt>
      <trkpt lat="42.63034" lon="1.71113">
        <ele>2159.7390136719</ele>
        <time>2011-06-19T06:53:20Z</time>
      </trkpt>
      <trkpt lat="42.63036" lon="1.711">
        <ele>2158.7778320312</ele>
        <time>2011-06-19T06:53:28Z</time>
      </trkpt>
      <trkpt lat="42.63037" lon="1.71097">
        <ele>2159.2585449219</ele>
        <time>2011-06-19T06:53:35Z</time>
      </trkpt>
      <trkpt lat="42.63037" lon="1.71092">
        <ele>2159.2585449219</ele>
        <time>2011-06-19T06:53:41Z</time>
      </trkpt>
      <trkpt lat="42.63037" lon="1.71082">
        <ele>2158.7778320312</ele>
        <time>2011-06-19T06:53:48Z</time>
      </trkpt>
      <trkpt lat="42.63041" lon="1.71073">
        <ele>2158.7778320312</ele>
        <time>2011-06-19T06:53:56Z</time>
      </trkpt>
      <trkpt lat="42.63043" lon="1.71068">
        <ele>2158.2971191406</ele>
        <time>2011-06-19T06:54:01Z</time>
      </trkpt>
      <trkpt lat="42.63046" lon="1.71061">
        <ele>2157.8166503906</ele>
        <time>2011-06-19T06:54:07Z</time>
      </trkpt>
      <trkpt lat="42.63047" lon="1.71053">
        <ele>2157.8166503906</ele>
        <time>2011-06-19T06:54:14Z</time>
      </trkpt>
      <trkpt lat="42.63048" lon="1.7104">
        <ele>2156.8552246094</ele>
        <time>2011-06-19T06:54:22Z</time>
      </trkpt>
      <trkpt lat="42.63049" lon="1.71035">
        <ele>2156.8552246094</ele>
        <time>2011-06-19T06:54:25Z</time>
      </trkpt>
      <trkpt lat="42.6305" lon="1.71028">
        <ele>2156.8552246094</ele>
        <time>2011-06-19T06:54:30Z</time>
      </trkpt>
      <trkpt lat="42.63051" lon="1.71022">
        <ele>2156.3745117188</ele>
        <time>2011-06-19T06:54:37Z</time>
      </trkpt>
      <trkpt lat="42.6305" lon="1.71016">
        <ele>2154.9323730469</ele>
        <time>2011-06-19T06:54:42Z</time>
      </trkpt>
      <trkpt lat="42.6305" lon="1.71016">
        <ele>2154.4516601562</ele>
        <time>2011-06-19T06:54:50Z</time>
      </trkpt>
      <trkpt lat="42.63047" lon="1.71014">
        <ele>2153.4904785156</ele>
        <time>2011-06-19T06:54:56Z</time>
      </trkpt>
      <trkpt lat="42.63045" lon="1.71013">
        <ele>2153.4904785156</ele>
        <time>2011-06-19T06:55:01Z</time>
      </trkpt>
      <trkpt lat="42.63036" lon="1.71006">
        <ele>2152.5290527344</ele>
        <time>2011-06-19T06:55:09Z</time>
      </trkpt>
      <trkpt lat="42.63034" lon="1.71005">
        <ele>2152.0483398438</ele>
        <time>2011-06-19T06:55:11Z</time>
      </trkpt>
      <trkpt lat="42.63033" lon="1.71004">
        <ele>2151.0871582031</ele>
        <time>2011-06-19T06:55:17Z</time>
      </trkpt>
      <trkpt lat="42.6303" lon="1.71002">
        <ele>2150.6064453125</ele>
        <time>2011-06-19T06:55:27Z</time>
      </trkpt>
      <trkpt lat="42.63025" lon="1.70996">
        <ele>2150.6064453125</ele>
        <time>2011-06-19T06:55:33Z</time>
      </trkpt>
      <trkpt lat="42.63019" lon="1.70983">
        <ele>2151.5678710938</ele>
        <time>2011-06-19T06:55:42Z</time>
      </trkpt>
      <trkpt lat="42.63011" lon="1.70978">
        <ele>2150.6064453125</ele>
        <time>2011-06-19T06:55:49Z</time>
      </trkpt>
      <trkpt lat="42.63005" lon="1.70973">
        <ele>2150.1259765625</ele>
        <time>2011-06-19T06:55:54Z</time>
      </trkpt>
      <trkpt lat="42.63" lon="1.70966">
        <ele>2150.1259765625</ele>
        <time>2011-06-19T06:56:01Z</time>
      </trkpt>
      <trkpt lat="42.62994" lon="1.70964">
        <ele>2150.1259765625</ele>
        <time>2011-06-19T06:56:07Z</time>
      </trkpt>
      <trkpt lat="42.62986" lon="1.70958">
        <ele>2150.1259765625</ele>
        <time>2011-06-19T06:56:14Z</time>
      </trkpt>
      <trkpt lat="42.62979" lon="1.70952">
        <ele>2150.1259765625</ele>
        <time>2011-06-19T06:56:21Z</time>
      </trkpt>
      <trkpt lat="42.62975" lon="1.70949">
        <ele>2150.6064453125</ele>
        <time>2011-06-19T06:56:25Z</time>
      </trkpt>
      <trkpt lat="42.6297" lon="1.70946">
        <ele>2151.0871582031</ele>
        <time>2011-06-19T06:56:30Z</time>
      </trkpt>
      <trkpt lat="42.62962" lon="1.7094">
        <ele>2151.5678710938</ele>
        <time>2011-06-19T06:56:38Z</time>
      </trkpt>
      <trkpt lat="42.62952" lon="1.70935">
        <ele>2151.5678710938</ele>
        <time>2011-06-19T06:56:47Z</time>
      </trkpt>
      <trkpt lat="42.62941" lon="1.70931">
        <ele>2151.5678710938</ele>
        <time>2011-06-19T06:56:56Z</time>
      </trkpt>
      <trkpt lat="42.62934" lon="1.70926">
        <ele>2153.009765625</ele>
        <time>2011-06-19T06:57:02Z</time>
      </trkpt>
      <trkpt lat="42.62928" lon="1.70918">
        <ele>2154.4516601562</ele>
        <time>2011-06-19T06:57:09Z</time>
      </trkpt>
      <trkpt lat="42.6292" lon="1.7091">
        <ele>2154.4516601562</ele>
        <time>2011-06-19T06:57:18Z</time>
      </trkpt>
      <trkpt lat="42.62916" lon="1.70901">
        <ele>2154.4516601562</ele>
        <time>2011-06-19T06:57:24Z</time>
      </trkpt>
      <trkpt lat="42.6291" lon="1.70887">
        <ele>2153.4904785156</ele>
        <time>2011-06-19T06:57:31Z</time>
      </trkpt>
      <trkpt lat="42.62907" lon="1.70881">
        <ele>2152.0483398438</ele>
        <time>2011-06-19T06:57:35Z</time>
      </trkpt>
      <trkpt lat="42.62904" lon="1.70872">
        <ele>2151.5678710938</ele>
        <time>2011-06-19T06:57:41Z</time>
      </trkpt>
      <trkpt lat="42.62901" lon="1.70865">
        <ele>2152.0483398438</ele>
        <time>2011-06-19T06:57:47Z</time>
      </trkpt>
      <trkpt lat="42.62897" lon="1.7086">
        <ele>2153.009765625</ele>
        <time>2011-06-19T06:57:53Z</time>
      </trkpt>
      <trkpt lat="42.62891" lon="1.70858">
        <ele>2153.009765625</ele>
        <time>2011-06-19T06:58:01Z</time>
      </trkpt>
      <trkpt lat="42.62887" lon="1.70855">
        <ele>2152.5290527344</ele>
        <time>2011-06-19T06:58:07Z</time>
      </trkpt>
      <trkpt lat="42.62884" lon="1.70853">
        <ele>2153.009765625</ele>
        <time>2011-06-19T06:58:12Z</time>
      </trkpt>
      <trkpt lat="42.62881" lon="1.70853">
        <ele>2153.009765625</ele>
        <time>2011-06-19T06:58:17Z</time>
      </trkpt>
      <trkpt lat="42.62874" lon="1.70855">
        <ele>2152.5290527344</ele>
        <time>2011-06-19T06:58:24Z</time>
      </trkpt>
      <trkpt lat="42.62872" lon="1.70856">
        <ele>2152.5290527344</ele>
        <time>2011-06-19T06:58:27Z</time>
      </trkpt>
      <trkpt lat="42.62868" lon="1.7086">
        <ele>2152.5290527344</ele>
        <time>2011-06-19T06:58:30Z</time>
      </trkpt>
      <trkpt lat="42.62859" lon="1.70864">
        <ele>2153.009765625</ele>
        <time>2011-06-19T06:58:38Z</time>
      </trkpt>
      <trkpt lat="42.62857" lon="1.70865">
        <ele>2153.009765625</ele>
        <time>2011-06-19T06:58:40Z</time>
      </trkpt>
      <trkpt lat="42.62851" lon="1.70869">
        <ele>2153.4904785156</ele>
        <time>2011-06-19T06:58:46Z</time>
      </trkpt>
      <trkpt lat="42.62846" lon="1.70871">
        <ele>2153.9711914062</ele>
        <time>2011-06-19T06:58:50Z</time>
      </trkpt>
      <trkpt lat="42.62839" lon="1.70873">
        <ele>2154.4516601562</ele>
        <time>2011-06-19T06:58:57Z</time>
      </trkpt>
      <trkpt lat="42.62827" lon="1.70871">
        <ele>2153.9711914062</ele>
        <time>2011-06-19T06:59:05Z</time>
      </trkpt>
      <trkpt lat="42.62818" lon="1.70866">
        <ele>2153.9711914062</ele>
        <time>2011-06-19T06:59:12Z</time>
      </trkpt>
      <trkpt lat="42.62814" lon="1.70864">
        <ele>2153.9711914062</ele>
        <time>2011-06-19T06:59:15Z</time>
      </trkpt>
      <trkpt lat="42.62808" lon="1.70865">
        <ele>2154.4516601562</ele>
        <time>2011-06-19T06:59:20Z</time>
      </trkpt>
      <trkpt lat="42.62798" lon="1.70864">
        <ele>2154.9323730469</ele>
        <time>2011-06-19T06:59:28Z</time>
      </trkpt>
      <trkpt lat="42.6279" lon="1.70863">
        <ele>2154.4516601562</ele>
        <time>2011-06-19T06:59:34Z</time>
      </trkpt>
      <trkpt lat="42.62786" lon="1.70862">
        <ele>2153.9711914062</ele>
        <time>2011-06-19T06:59:36Z</time>
      </trkpt>
      <trkpt lat="42.62782" lon="1.70862">
        <ele>2153.4904785156</ele>
        <time>2011-06-19T06:59:40Z</time>
      </trkpt>
      <trkpt lat="42.62777" lon="1.70865">
        <ele>2152.5290527344</ele>
        <time>2011-06-19T06:59:45Z</time>
      </trkpt>
      <trkpt lat="42.62774" lon="1.70865">
        <ele>2152.5290527344</ele>
        <time>2011-06-19T06:59:48Z</time>
      </trkpt>
      <trkpt lat="42.62765" lon="1.70867">
        <ele>2152.5290527344</ele>
        <time>2011-06-19T06:59:55Z</time>
      </trkpt>
      <trkpt lat="42.62758" lon="1.70869">
        <ele>2153.009765625</ele>
        <time>2011-06-19T07:00:01Z</time>
      </trkpt>
      <trkpt lat="42.62748" lon="1.70869">
        <ele>2153.009765625</ele>
        <time>2011-06-19T07:00:09Z</time>
      </trkpt>
      <trkpt lat="42.62738" lon="1.70869">
        <ele>2153.009765625</ele>
        <time>2011-06-19T07:00:16Z</time>
      </trkpt>
      <trkpt lat="42.62726" lon="1.70867">
        <ele>2153.9711914062</ele>
        <time>2011-06-19T07:00:25Z</time>
      </trkpt>
      <trkpt lat="42.62718" lon="1.70865">
        <ele>2154.4516601562</ele>
        <time>2011-06-19T07:00:32Z</time>
      </trkpt>
      <trkpt lat="42.62708" lon="1.70858">
        <ele>2153.9711914062</ele>
        <time>2011-06-19T07:00:40Z</time>
      </trkpt>
      <trkpt lat="42.627" lon="1.7085">
        <ele>2153.4904785156</ele>
        <time>2011-06-19T07:00:47Z</time>
      </trkpt>
      <trkpt lat="42.62693" lon="1.7084">
        <ele>2153.9711914062</ele>
        <time>2011-06-19T07:00:55Z</time>
      </trkpt>
      <trkpt lat="42.62688" lon="1.70837">
        <ele>2153.9711914062</ele>
        <time>2011-06-19T07:00:59Z</time>
      </trkpt>
      <trkpt lat="42.62682" lon="1.70827">
        <ele>2154.4516601562</ele>
        <time>2011-06-19T07:01:06Z</time>
      </trkpt>
      <trkpt lat="42.62676" lon="1.70821">
        <ele>2153.9711914062</ele>
        <time>2011-06-19T07:01:12Z</time>
      </trkpt>
      <trkpt lat="42.62669" lon="1.70816">
        <ele>2153.4904785156</ele>
        <time>2011-06-19T07:01:18Z</time>
      </trkpt>
      <trkpt lat="42.62662" lon="1.7081">
        <ele>2153.009765625</ele>
        <time>2011-06-19T07:01:24Z</time>
      </trkpt>
      <trkpt lat="42.62656" lon="1.70804">
        <ele>2152.5290527344</ele>
        <time>2011-06-19T07:01:30Z</time>
      </trkpt>
      <trkpt lat="42.62647" lon="1.70798">
        <ele>2152.0483398438</ele>
        <time>2011-06-19T07:01:37Z</time>
      </trkpt>
      <trkpt lat="42.62639" lon="1.70791">
        <ele>2152.0483398438</ele>
        <time>2011-06-19T07:01:44Z</time>
      </trkpt>
      <trkpt lat="42.62636" lon="1.70785">
        <ele>2152.5290527344</ele>
        <time>2011-06-19T07:01:49Z</time>
      </trkpt>
      <trkpt lat="42.62635" lon="1.70785">
        <ele>2152.5290527344</ele>
        <time>2011-06-19T07:01:50Z</time>
      </trkpt>
      <trkpt lat="42.62629" lon="1.70781">
        <ele>2152.5290527344</ele>
        <time>2011-06-19T07:01:56Z</time>
      </trkpt>
      <trkpt lat="42.62624" lon="1.70777">
        <ele>2152.5290527344</ele>
        <time>2011-06-19T07:02:02Z</time>
      </trkpt>
      <trkpt lat="42.6262" lon="1.70773">
        <ele>2152.5290527344</ele>
        <time>2011-06-19T07:02:09Z</time>
      </trkpt>
      <trkpt lat="42.62616" lon="1.70772">
        <ele>2153.009765625</ele>
        <time>2011-06-19T07:02:15Z</time>
      </trkpt>
      <trkpt lat="42.62611" lon="1.70771">
        <ele>2153.009765625</ele>
        <time>2011-06-19T07:02:20Z</time>
      </trkpt>
      <trkpt lat="42.62607" lon="1.70769">
        <ele>2153.9711914062</ele>
        <time>2011-06-19T07:02:26Z</time>
      </trkpt>
      <trkpt lat="42.62605" lon="1.70769">
        <ele>2153.9711914062</ele>
        <time>2011-06-19T07:02:27Z</time>
      </trkpt>
      <trkpt lat="42.626" lon="1.70765">
        <ele>2153.4904785156</ele>
        <time>2011-06-19T07:02:32Z</time>
      </trkpt>
      <trkpt lat="42.62595" lon="1.70765">
        <ele>2153.4904785156</ele>
        <time>2011-06-19T07:02:36Z</time>
      </trkpt>
      <trkpt lat="42.62592" lon="1.70766">
        <ele>2153.9711914062</ele>
        <time>2011-06-19T07:02:39Z</time>
      </trkpt>
      <trkpt lat="42.62586" lon="1.70766">
        <ele>2154.4516601562</ele>
        <time>2011-06-19T07:02:45Z</time>
      </trkpt>
      <trkpt lat="42.62581" lon="1.70767">
        <ele>2154.4516601562</ele>
        <time>2011-06-19T07:02:51Z</time>
      </trkpt>
      <trkpt lat="42.62573" lon="1.70768">
        <ele>2154.4516601562</ele>
        <time>2011-06-19T07:02:58Z</time>
      </trkpt>
      <trkpt lat="42.62571" lon="1.70768">
        <ele>2154.4516601562</ele>
        <time>2011-06-19T07:03:00Z</time>
      </trkpt>
      <trkpt lat="42.62566" lon="1.70772">
        <ele>2154.4516601562</ele>
        <time>2011-06-19T07:03:06Z</time>
      </trkpt>
      <trkpt lat="42.62564" lon="1.70772">
        <ele>2154.4516601562</ele>
        <time>2011-06-19T07:03:07Z</time>
      </trkpt>
      <trkpt lat="42.62556" lon="1.70773">
        <ele>2154.4516601562</ele>
        <time>2011-06-19T07:03:14Z</time>
      </trkpt>
      <trkpt lat="42.62555" lon="1.70773">
        <ele>2154.4516601562</ele>
        <time>2011-06-19T07:03:15Z</time>
      </trkpt>
      <trkpt lat="42.62548" lon="1.70775">
        <ele>2155.4130859375</ele>
        <time>2011-06-19T07:03:21Z</time>
      </trkpt>
      <trkpt lat="42.62543" lon="1.70773">
        <ele>2155.4130859375</ele>
        <time>2011-06-19T07:03:27Z</time>
      </trkpt>
      <trkpt lat="42.62539" lon="1.70773">
        <ele>2155.8935546875</ele>
        <time>2011-06-19T07:03:33Z</time>
      </trkpt>
      <trkpt lat="42.62534" lon="1.70774">
        <ele>2155.8935546875</ele>
        <time>2011-06-19T07:03:38Z</time>
      </trkpt>
      <trkpt lat="42.62528" lon="1.70774">
        <ele>2155.4130859375</ele>
        <time>2011-06-19T07:03:44Z</time>
      </trkpt>
      <trkpt lat="42.62523" lon="1.70773">
        <ele>2155.8935546875</ele>
        <time>2011-06-19T07:03:50Z</time>
      </trkpt>
      <trkpt lat="42.6252" lon="1.70773">
        <ele>2156.3745117188</ele>
        <time>2011-06-19T07:03:55Z</time>
      </trkpt>
      <trkpt lat="42.62514" lon="1.70774">
        <ele>2156.3745117188</ele>
        <time>2011-06-19T07:04:02Z</time>
      </trkpt>
      <trkpt lat="42.62507" lon="1.70775">
        <ele>2156.3745117188</ele>
        <time>2011-06-19T07:04:09Z</time>
      </trkpt>
      <trkpt lat="42.62506" lon="1.70776">
        <ele>2156.3745117188</ele>
        <time>2011-06-19T07:04:10Z</time>
      </trkpt>
      <trkpt lat="42.62501" lon="1.70776">
        <ele>2157.3359375</ele>
        <time>2011-06-19T07:04:16Z</time>
      </trkpt>
      <trkpt lat="42.62498" lon="1.70774">
        <ele>2157.8166503906</ele>
        <time>2011-06-19T07:04:19Z</time>
      </trkpt>
      <trkpt lat="42.62492" lon="1.70773">
        <ele>2158.2971191406</ele>
        <time>2011-06-19T07:04:26Z</time>
      </trkpt>
      <trkpt lat="42.62485" lon="1.70777">
        <ele>2158.7778320312</ele>
        <time>2011-06-19T07:04:34Z</time>
      </trkpt>
      <trkpt lat="42.6248" lon="1.70777">
        <ele>2159.2585449219</ele>
        <time>2011-06-19T07:04:39Z</time>
      </trkpt>
      <trkpt lat="42.62478" lon="1.70777">
        <ele>2160.7004394531</ele>
        <time>2011-06-19T07:04:44Z</time>
      </trkpt>
      <trkpt lat="42.62476" lon="1.70777">
        <ele>2161.1811523438</ele>
        <time>2011-06-19T07:04:52Z</time>
      </trkpt>
      <trkpt lat="42.62471" lon="1.70777">
        <ele>2161.6618652344</ele>
        <time>2011-06-19T07:04:59Z</time>
      </trkpt>
      <trkpt lat="42.62464" lon="1.70774">
        <ele>2163.1037597656</ele>
        <time>2011-06-19T07:05:07Z</time>
      </trkpt>
      <trkpt lat="42.62459" lon="1.70771">
        <ele>2164.5456542969</ele>
        <time>2011-06-19T07:05:13Z</time>
      </trkpt>
      <trkpt lat="42.62457" lon="1.70767">
        <ele>2165.0263671875</ele>
        <time>2011-06-19T07:05:20Z</time>
      </trkpt>
      <trkpt lat="42.62452" lon="1.70765">
        <ele>2166.9489746094</ele>
        <time>2011-06-19T07:05:27Z</time>
      </trkpt>
      <trkpt lat="42.62447" lon="1.70764">
        <ele>2167.4294433594</ele>
        <time>2011-06-19T07:05:34Z</time>
      </trkpt>
      <trkpt lat="42.62444" lon="1.70765">
        <ele>2167.4294433594</ele>
        <time>2011-06-19T07:05:39Z</time>
      </trkpt>
      <trkpt lat="42.6244" lon="1.70766">
        <ele>2167.4294433594</ele>
        <time>2011-06-19T07:05:45Z</time>
      </trkpt>
      <trkpt lat="42.62438" lon="1.70768">
        <ele>2167.91015625</ele>
        <time>2011-06-19T07:05:49Z</time>
      </trkpt>
      <trkpt lat="42.62435" lon="1.7077">
        <ele>2168.3908691406</ele>
        <time>2011-06-19T07:05:55Z</time>
      </trkpt>
      <trkpt lat="42.62433" lon="1.70772">
        <ele>2168.8715820312</ele>
        <time>2011-06-19T07:06:01Z</time>
      </trkpt>
      <trkpt lat="42.62431" lon="1.70775">
        <ele>2169.3522949219</ele>
        <time>2011-06-19T07:06:07Z</time>
      </trkpt>
      <trkpt lat="42.62431" lon="1.70781">
        <ele>2169.8327636719</ele>
        <time>2011-06-19T07:06:12Z</time>
      </trkpt>
      <trkpt lat="42.62427" lon="1.70785">
        <ele>2170.7941894531</ele>
        <time>2011-06-19T07:06:18Z</time>
      </trkpt>
      <trkpt lat="42.62424" lon="1.70788">
        <ele>2171.2746582031</ele>
        <time>2011-06-19T07:06:23Z</time>
      </trkpt>
      <trkpt lat="42.62421" lon="1.7079">
        <ele>2172.236328125</ele>
        <time>2011-06-19T07:06:30Z</time>
      </trkpt>
      <trkpt lat="42.62417" lon="1.70792">
        <ele>2173.1977539062</ele>
        <time>2011-06-19T07:06:36Z</time>
      </trkpt>
      <trkpt lat="42.62414" lon="1.70795">
        <ele>2175.1201171875</ele>
        <time>2011-06-19T07:06:42Z</time>
      </trkpt>
      <trkpt lat="42.62413" lon="1.70795">
        <ele>2176.0815429688</ele>
        <time>2011-06-19T07:06:47Z</time>
      </trkpt>
      <trkpt lat="42.62409" lon="1.70795">
        <ele>2177.5234375</ele>
        <time>2011-06-19T07:06:53Z</time>
      </trkpt>
      <trkpt lat="42.62403" lon="1.70791">
        <ele>2178.4848632812</ele>
        <time>2011-06-19T07:07:00Z</time>
      </trkpt>
      <trkpt lat="42.62398" lon="1.70792">
        <ele>2179.4460449219</ele>
        <time>2011-06-19T07:07:07Z</time>
      </trkpt>
      <trkpt lat="42.62394" lon="1.70794">
        <ele>2180.4074707031</ele>
        <time>2011-06-19T07:07:13Z</time>
      </trkpt>
      <trkpt lat="42.62388" lon="1.70795">
        <ele>2180.8881835938</ele>
        <time>2011-06-19T07:07:20Z</time>
      </trkpt>
      <trkpt lat="42.62381" lon="1.70795">
        <ele>2179.9267578125</ele>
        <time>2011-06-19T07:07:27Z</time>
      </trkpt>
      <trkpt lat="42.62379" lon="1.70796">
        <ele>2179.9267578125</ele>
        <time>2011-06-19T07:07:29Z</time>
      </trkpt>
      <trkpt lat="42.6237" lon="1.70808">
        <ele>2179.9267578125</ele>
        <time>2011-06-19T07:07:38Z</time>
      </trkpt>
      <trkpt lat="42.62362" lon="1.70811">
        <ele>2179.4460449219</ele>
        <time>2011-06-19T07:07:46Z</time>
      </trkpt>
      <trkpt lat="42.62357" lon="1.70813">
        <ele>2178.9653320312</ele>
        <time>2011-06-19T07:07:52Z</time>
      </trkpt>
      <trkpt lat="42.62353" lon="1.70816">
        <ele>2179.4460449219</ele>
        <time>2011-06-19T07:07:57Z</time>
      </trkpt>
      <trkpt lat="42.6235" lon="1.70818">
        <ele>2179.4460449219</ele>
        <time>2011-06-19T07:08:00Z</time>
      </trkpt>
      <trkpt lat="42.62348" lon="1.7082">
        <ele>2179.4460449219</ele>
        <time>2011-06-19T07:08:08Z</time>
      </trkpt>
      <trkpt lat="42.62345" lon="1.70821">
        <ele>2179.9267578125</ele>
        <time>2011-06-19T07:08:14Z</time>
      </trkpt>
      <trkpt lat="42.62343" lon="1.7082">
        <ele>2180.4074707031</ele>
        <time>2011-06-19T07:08:21Z</time>
      </trkpt>
      <trkpt lat="42.62341" lon="1.70819">
        <ele>2179.9267578125</ele>
        <time>2011-06-19T07:08:27Z</time>
      </trkpt>
      <trkpt lat="42.62338" lon="1.70818">
        <ele>2180.4074707031</ele>
        <time>2011-06-19T07:08:33Z</time>
      </trkpt>
      <trkpt lat="42.62335" lon="1.70817">
        <ele>2180.8881835938</ele>
        <time>2011-06-19T07:08:39Z</time>
      </trkpt>
      <trkpt lat="42.62331" lon="1.70815">
        <ele>2181.8493652344</ele>
        <time>2011-06-19T07:08:46Z</time>
      </trkpt>
      <trkpt lat="42.62329" lon="1.70816">
        <ele>2182.330078125</ele>
        <time>2011-06-19T07:08:53Z</time>
      </trkpt>
      <trkpt lat="42.62325" lon="1.70819">
        <ele>2182.330078125</ele>
        <time>2011-06-19T07:08:58Z</time>
      </trkpt>
      <trkpt lat="42.62321" lon="1.70818">
        <ele>2182.810546875</ele>
        <time>2011-06-19T07:09:03Z</time>
      </trkpt>
      <trkpt lat="42.62317" lon="1.70818">
        <ele>2183.7719726562</ele>
        <time>2011-06-19T07:09:09Z</time>
      </trkpt>
      <trkpt lat="42.62313" lon="1.70818">
        <ele>2184.2526855469</ele>
        <time>2011-06-19T07:09:14Z</time>
      </trkpt>
      <trkpt lat="42.62309" lon="1.70821">
        <ele>2185.2138671875</ele>
        <time>2011-06-19T07:09:20Z</time>
      </trkpt>
      <trkpt lat="42.62305" lon="1.70821">
        <ele>2185.2138671875</ele>
        <time>2011-06-19T07:09:23Z</time>
      </trkpt>
      <trkpt lat="42.62296" lon="1.70814">
        <ele>2185.6945800781</ele>
        <time>2011-06-19T07:09:32Z</time>
      </trkpt>
      <trkpt lat="42.62292" lon="1.7081">
        <ele>2186.6557617188</ele>
        <time>2011-06-19T07:09:38Z</time>
      </trkpt>
      <trkpt lat="42.62286" lon="1.7081">
        <ele>2188.0981445312</ele>
        <time>2011-06-19T07:09:46Z</time>
      </trkpt>
      <trkpt lat="42.62284" lon="1.70815">
        <ele>2188.5788574219</ele>
        <time>2011-06-19T07:09:52Z</time>
      </trkpt>
      <trkpt lat="42.62282" lon="1.70819">
        <ele>2188.5788574219</ele>
        <time>2011-06-19T07:09:57Z</time>
      </trkpt>
      <trkpt lat="42.62279" lon="1.70823">
        <ele>2189.0593261719</ele>
        <time>2011-06-19T07:10:04Z</time>
      </trkpt>
      <trkpt lat="42.62274" lon="1.70824">
        <ele>2190.0207519531</ele>
        <time>2011-06-19T07:10:10Z</time>
      </trkpt>
      <trkpt lat="42.6227" lon="1.70821">
        <ele>2190.0207519531</ele>
        <time>2011-06-19T07:10:16Z</time>
      </trkpt>
      <trkpt lat="42.62267" lon="1.70816">
        <ele>2190.5012207031</ele>
        <time>2011-06-19T07:10:23Z</time>
      </trkpt>
      <trkpt lat="42.62266" lon="1.70809">
        <ele>2191.4626464844</ele>
        <time>2011-06-19T07:10:30Z</time>
      </trkpt>
      <trkpt lat="42.62265" lon="1.70803">
        <ele>2191.943359375</ele>
        <time>2011-06-19T07:10:35Z</time>
      </trkpt>
      <trkpt lat="42.62262" lon="1.70799">
        <ele>2191.943359375</ele>
        <time>2011-06-19T07:10:41Z</time>
      </trkpt>
      <trkpt lat="42.62258" lon="1.70797">
        <ele>2191.943359375</ele>
        <time>2011-06-19T07:10:47Z</time>
      </trkpt>
      <trkpt lat="42.62255" lon="1.70794">
        <ele>2191.943359375</ele>
        <time>2011-06-19T07:10:53Z</time>
      </trkpt>
      <trkpt lat="42.62252" lon="1.70791">
        <ele>2191.943359375</ele>
        <time>2011-06-19T07:10:58Z</time>
      </trkpt>
      <trkpt lat="42.62247" lon="1.70785">
        <ele>2192.4240722656</ele>
        <time>2011-06-19T07:11:05Z</time>
      </trkpt>
      <trkpt lat="42.62244" lon="1.70779">
        <ele>2192.4240722656</ele>
        <time>2011-06-19T07:11:11Z</time>
      </trkpt>
      <trkpt lat="42.62241" lon="1.70775">
        <ele>2192.9045410156</ele>
        <time>2011-06-19T07:11:17Z</time>
      </trkpt>
      <trkpt lat="42.62239" lon="1.70769">
        <ele>2193.8659667969</ele>
        <time>2011-06-19T07:11:23Z</time>
      </trkpt>
      <trkpt lat="42.62234" lon="1.70767">
        <ele>2194.3464355469</ele>
        <time>2011-06-19T07:11:29Z</time>
      </trkpt>
      <trkpt lat="42.62232" lon="1.70764">
        <ele>2194.8271484375</ele>
        <time>2011-06-19T07:11:34Z</time>
      </trkpt>
      <trkpt lat="42.62229" lon="1.70759">
        <ele>2195.3078613281</ele>
        <time>2011-06-19T07:11:41Z</time>
      </trkpt>
      <trkpt lat="42.62225" lon="1.70754">
        <ele>2195.3078613281</ele>
        <time>2011-06-19T07:11:47Z</time>
      </trkpt>
      <trkpt lat="42.62221" lon="1.70745">
        <ele>2196.2692871094</ele>
        <time>2011-06-19T07:11:55Z</time>
      </trkpt>
      <trkpt lat="42.62218" lon="1.70741">
        <ele>2196.7497558594</ele>
        <time>2011-06-19T07:12:00Z</time>
      </trkpt>
      <trkpt lat="42.62212" lon="1.70739">
        <ele>2196.7497558594</ele>
        <time>2011-06-19T07:12:06Z</time>
      </trkpt>
      <trkpt lat="42.62208" lon="1.70738">
        <ele>2196.7497558594</ele>
        <time>2011-06-19T07:12:10Z</time>
      </trkpt>
      <trkpt lat="42.62203" lon="1.70733">
        <ele>2197.23046875</ele>
        <time>2011-06-19T07:12:18Z</time>
      </trkpt>
      <trkpt lat="42.62199" lon="1.70729">
        <ele>2197.7111816406</ele>
        <time>2011-06-19T07:12:24Z</time>
      </trkpt>
      <trkpt lat="42.62195" lon="1.70727">
        <ele>2198.1916503906</ele>
        <time>2011-06-19T07:12:29Z</time>
      </trkpt>
      <trkpt lat="42.62191" lon="1.70724">
        <ele>2198.6723632812</ele>
        <time>2011-06-19T07:12:34Z</time>
      </trkpt>
      <trkpt lat="42.62189" lon="1.70719">
        <ele>2199.1530761719</ele>
        <time>2011-06-19T07:12:39Z</time>
      </trkpt>
      <trkpt lat="42.62186" lon="1.70712">
        <ele>2199.1530761719</ele>
        <time>2011-06-19T07:12:46Z</time>
      </trkpt>
      <trkpt lat="42.62182" lon="1.70707">
        <ele>2199.1530761719</ele>
        <time>2011-06-19T07:12:51Z</time>
      </trkpt>
      <trkpt lat="42.62175" lon="1.70702">
        <ele>2200.1145019531</ele>
        <time>2011-06-19T07:12:58Z</time>
      </trkpt>
      <trkpt lat="42.62173" lon="1.707">
        <ele>2199.6337890625</ele>
        <time>2011-06-19T07:13:00Z</time>
      </trkpt>
      <trkpt lat="42.62169" lon="1.70696">
        <ele>2199.6337890625</ele>
        <time>2011-06-19T07:13:06Z</time>
      </trkpt>
      <trkpt lat="42.62166" lon="1.70691">
        <ele>2200.1145019531</ele>
        <time>2011-06-19T07:13:12Z</time>
      </trkpt>
      <trkpt lat="42.62161" lon="1.70685">
        <ele>2200.1145019531</ele>
        <time>2011-06-19T07:13:19Z</time>
      </trkpt>
      <trkpt lat="42.62156" lon="1.70682">
        <ele>2200.1145019531</ele>
        <time>2011-06-19T07:13:24Z</time>
      </trkpt>
      <trkpt lat="42.62144" lon="1.70676">
        <ele>2201.0756835938</ele>
        <time>2011-06-19T07:13:34Z</time>
      </trkpt>
      <trkpt lat="42.62136" lon="1.7067">
        <ele>2201.0756835938</ele>
        <time>2011-06-19T07:13:41Z</time>
      </trkpt>
      <trkpt lat="42.6213" lon="1.70665">
        <ele>2202.0368652344</ele>
        <time>2011-06-19T07:13:47Z</time>
      </trkpt>
      <trkpt lat="42.62125" lon="1.70664">
        <ele>2202.517578125</ele>
        <time>2011-06-19T07:13:53Z</time>
      </trkpt>
      <trkpt lat="42.6212" lon="1.70661">
        <ele>2203.9597167969</ele>
        <time>2011-06-19T07:13:59Z</time>
      </trkpt>
      <trkpt lat="42.62117" lon="1.70659">
        <ele>2204.9211425781</ele>
        <time>2011-06-19T07:14:04Z</time>
      </trkpt>
      <trkpt lat="42.62114" lon="1.70655">
        <ele>2205.8823242188</ele>
        <time>2011-06-19T07:14:09Z</time>
      </trkpt>
      <trkpt lat="42.62109" lon="1.70651">
        <ele>2207.3244628906</ele>
        <time>2011-06-19T07:14:16Z</time>
      </trkpt>
      <trkpt lat="42.62104" lon="1.70649">
        <ele>2208.7663574219</ele>
        <time>2011-06-19T07:14:23Z</time>
      </trkpt>
      <trkpt lat="42.62098" lon="1.70648">
        <ele>2210.6889648438</ele>
        <time>2011-06-19T07:14:30Z</time>
      </trkpt>
      <trkpt lat="42.62093" lon="1.70645">
        <ele>2212.6115722656</ele>
        <time>2011-06-19T07:14:37Z</time>
      </trkpt>
      <trkpt lat="42.62091" lon="1.70645">
        <ele>2213.0922851562</ele>
        <time>2011-06-19T07:14:42Z</time>
      </trkpt>
      <trkpt lat="42.62089" lon="1.70644">
        <ele>2212.6115722656</ele>
        <time>2011-06-19T07:14:52Z</time>
      </trkpt>
      <trkpt lat="42.62082" lon="1.70645">
        <ele>2213.5727539062</ele>
        <time>2011-06-19T07:14:58Z</time>
      </trkpt>
      <trkpt lat="42.62075" lon="1.70645">
        <ele>2214.5341796875</ele>
        <time>2011-06-19T07:15:05Z</time>
      </trkpt>
      <trkpt lat="42.62071" lon="1.70645">
        <ele>2215.4956054688</ele>
        <time>2011-06-19T07:15:09Z</time>
      </trkpt>
      <trkpt lat="42.62067" lon="1.70642">
        <ele>2215.4956054688</ele>
        <time>2011-06-19T07:15:13Z</time>
      </trkpt>
      <trkpt lat="42.62059" lon="1.70637">
        <ele>2218.3793945312</ele>
        <time>2011-06-19T07:15:23Z</time>
      </trkpt>
      <trkpt lat="42.62055" lon="1.70634">
        <ele>2219.3408203125</ele>
        <time>2011-06-19T07:15:30Z</time>
      </trkpt>
      <trkpt lat="42.6205" lon="1.70631">
        <ele>2220.7829589844</ele>
        <time>2011-06-19T07:15:36Z</time>
      </trkpt>
      <trkpt lat="42.62046" lon="1.70631">
        <ele>2222.2248535156</ele>
        <time>2011-06-19T07:15:41Z</time>
      </trkpt>
      <trkpt lat="42.62044" lon="1.7063">
        <ele>2223.1862792969</ele>
        <time>2011-06-19T07:15:48Z</time>
      </trkpt>
      <trkpt lat="42.62043" lon="1.70629">
        <ele>2223.6667480469</ele>
        <time>2011-06-19T07:15:57Z</time>
      </trkpt>
      <trkpt lat="42.62041" lon="1.70625">
        <ele>2224.6281738281</ele>
        <time>2011-06-19T07:16:03Z</time>
      </trkpt>
      <trkpt lat="42.62045" lon="1.7062">
        <ele>2225.5893554688</ele>
        <time>2011-06-19T07:16:09Z</time>
      </trkpt>
      <trkpt lat="42.62042" lon="1.70618">
        <ele>2226.55078125</ele>
        <time>2011-06-19T07:16:14Z</time>
      </trkpt>
      <trkpt lat="42.62036" lon="1.70619">
        <ele>2227.9926757812</ele>
        <time>2011-06-19T07:16:20Z</time>
      </trkpt>
      <trkpt lat="42.62029" lon="1.70619">
        <ele>2229.9152832031</ele>
        <time>2011-06-19T07:16:27Z</time>
      </trkpt>
      <trkpt lat="42.62025" lon="1.70617">
        <ele>2231.3571777344</ele>
        <time>2011-06-19T07:16:32Z</time>
      </trkpt>
      <trkpt lat="42.62023" lon="1.70613">
        <ele>2233.2797851562</ele>
        <time>2011-06-19T07:16:40Z</time>
      </trkpt>
      <trkpt lat="42.62022" lon="1.70609">
        <ele>2234.7219238281</ele>
        <time>2011-06-19T07:16:46Z</time>
      </trkpt>
      <trkpt lat="42.62025" lon="1.70603">
        <ele>2235.6831054688</ele>
        <time>2011-06-19T07:16:53Z</time>
      </trkpt>
      <trkpt lat="42.62028" lon="1.706">
        <ele>2237.6059570312</ele>
        <time>2011-06-19T07:17:01Z</time>
      </trkpt>
      <trkpt lat="42.62027" lon="1.70598">
        <ele>2239.0478515625</ele>
        <time>2011-06-19T07:17:08Z</time>
      </trkpt>
      <trkpt lat="42.62025" lon="1.70594">
        <ele>2240.9704589844</ele>
        <time>2011-06-19T07:17:14Z</time>
      </trkpt>
      <trkpt lat="42.62022" lon="1.70593">
        <ele>2241.9318847656</ele>
        <time>2011-06-19T07:17:20Z</time>
      </trkpt>
      <trkpt lat="42.6202" lon="1.70589">
        <ele>2242.8930664062</ele>
        <time>2011-06-19T07:17:26Z</time>
      </trkpt>
      <trkpt lat="42.62019" lon="1.70587">
        <ele>2244.3349609375</ele>
        <time>2011-06-19T07:17:32Z</time>
      </trkpt>
      <trkpt lat="42.62016" lon="1.70583">
        <ele>2246.2578125</ele>
        <time>2011-06-19T07:17:38Z</time>
      </trkpt>
      <trkpt lat="42.62016" lon="1.70578">
        <ele>2247.6997070312</ele>
        <time>2011-06-19T07:17:45Z</time>
      </trkpt>
      <trkpt lat="42.62013" lon="1.70574">
        <ele>2249.6223144531</ele>
        <time>2011-06-19T07:17:51Z</time>
      </trkpt>
      <trkpt lat="42.62012" lon="1.70569">
        <ele>2251.544921875</ele>
        <time>2011-06-19T07:17:57Z</time>
      </trkpt>
      <trkpt lat="42.62012" lon="1.70565">
        <ele>2251.544921875</ele>
        <time>2011-06-19T07:18:02Z</time>
      </trkpt>
      <trkpt lat="42.62012" lon="1.70559">
        <ele>2252.0256347656</ele>
        <time>2011-06-19T07:18:09Z</time>
      </trkpt>
      <trkpt lat="42.62015" lon="1.70555">
        <ele>2252.5063476562</ele>
        <time>2011-06-19T07:18:15Z</time>
      </trkpt>
      <trkpt lat="42.62016" lon="1.7055">
        <ele>2253.9484863281</ele>
        <time>2011-06-19T07:18:21Z</time>
      </trkpt>
      <trkpt lat="42.62017" lon="1.70545">
        <ele>2254.9096679688</ele>
        <time>2011-06-19T07:18:26Z</time>
      </trkpt>
      <trkpt lat="42.62015" lon="1.70539">
        <ele>2257.3129882812</ele>
        <time>2011-06-19T07:18:33Z</time>
      </trkpt>
      <trkpt lat="42.62011" lon="1.70534">
        <ele>2258.7548828125</ele>
        <time>2011-06-19T07:18:40Z</time>
      </trkpt>
      <trkpt lat="42.62009" lon="1.70532">
        <ele>2259.7160644531</ele>
        <time>2011-06-19T07:18:46Z</time>
      </trkpt>
      <trkpt lat="42.62008" lon="1.70532">
        <ele>2260.1967773438</ele>
        <time>2011-06-19T07:18:52Z</time>
      </trkpt>
      <trkpt lat="42.62008" lon="1.70532">
        <ele>2259.2355957031</ele>
        <time>2011-06-19T07:19:06Z</time>
      </trkpt>
      <trkpt lat="42.62006" lon="1.70531">
        <ele>2259.2355957031</ele>
        <time>2011-06-19T07:19:12Z</time>
      </trkpt>
      <trkpt lat="42.62002" lon="1.70529">
        <ele>2259.7160644531</ele>
        <time>2011-06-19T07:19:18Z</time>
      </trkpt>
      <trkpt lat="42.61997" lon="1.70527">
        <ele>2260.6774902344</ele>
        <time>2011-06-19T07:19:25Z</time>
      </trkpt>
      <trkpt lat="42.61991" lon="1.70526">
        <ele>2262.1193847656</ele>
        <time>2011-06-19T07:19:32Z</time>
      </trkpt>
      <trkpt lat="42.61988" lon="1.70525">
        <ele>2263.0808105469</ele>
        <time>2011-06-19T07:19:37Z</time>
      </trkpt>
      <trkpt lat="42.61986" lon="1.70524">
        <ele>2264.5227050781</ele>
        <time>2011-06-19T07:19:43Z</time>
      </trkpt>
      <trkpt lat="42.61981" lon="1.70523">
        <ele>2265.9645996094</ele>
        <time>2011-06-19T07:19:50Z</time>
      </trkpt>
      <trkpt lat="42.61978" lon="1.70522">
        <ele>2266.9260253906</ele>
        <time>2011-06-19T07:19:55Z</time>
      </trkpt>
      <trkpt lat="42.61975" lon="1.70522">
        <ele>2266.9260253906</ele>
        <time>2011-06-19T07:20:09Z</time>
      </trkpt>
      <trkpt lat="42.61972" lon="1.70521">
        <ele>2266.4453125</ele>
        <time>2011-06-19T07:20:14Z</time>
      </trkpt>
      <trkpt lat="42.61966" lon="1.70516">
        <ele>2266.9260253906</ele>
        <time>2011-06-19T07:20:21Z</time>
      </trkpt>
      <trkpt lat="42.61958" lon="1.70509">
        <ele>2268.3681640625</ele>
        <time>2011-06-19T07:20:30Z</time>
      </trkpt>
      <trkpt lat="42.61951" lon="1.705">
        <ele>2268.3681640625</ele>
        <time>2011-06-19T07:20:38Z</time>
      </trkpt>
      <trkpt lat="42.61947" lon="1.70495">
        <ele>2268.3681640625</ele>
        <time>2011-06-19T07:20:44Z</time>
      </trkpt>
      <trkpt lat="42.61944" lon="1.70493">
        <ele>2268.3681640625</ele>
        <time>2011-06-19T07:20:48Z</time>
      </trkpt>
      <trkpt lat="42.61941" lon="1.70491">
        <ele>2267.8872070312</ele>
        <time>2011-06-19T07:20:53Z</time>
      </trkpt>
      <trkpt lat="42.61937" lon="1.70488">
        <ele>2267.8872070312</ele>
        <time>2011-06-19T07:20:57Z</time>
      </trkpt>
      <trkpt lat="42.61934" lon="1.70487">
        <ele>2267.4064941406</ele>
        <time>2011-06-19T07:21:00Z</time>
      </trkpt>
      <trkpt lat="42.61927" lon="1.70479">
        <ele>2266.4453125</ele>
        <time>2011-06-19T07:21:07Z</time>
      </trkpt>
      <trkpt lat="42.61919" lon="1.7047">
        <ele>2264.5227050781</ele>
        <time>2011-06-19T07:21:16Z</time>
      </trkpt>
      <trkpt lat="42.6191" lon="1.70464">
        <ele>2263.0808105469</ele>
        <time>2011-06-19T07:21:24Z</time>
      </trkpt>
      <trkpt lat="42.61903" lon="1.70459">
        <ele>2261.6389160156</ele>
        <time>2011-06-19T07:21:31Z</time>
      </trkpt>
      <trkpt lat="42.61903" lon="1.70458">
        <ele>2261.6389160156</ele>
        <time>2011-06-19T07:21:32Z</time>
      </trkpt>
      <trkpt lat="42.61894" lon="1.70454">
        <ele>2259.7160644531</ele>
        <time>2011-06-19T07:21:38Z</time>
      </trkpt>
      <trkpt lat="42.61884" lon="1.70446">
        <ele>2256.8322753906</ele>
        <time>2011-06-19T07:21:46Z</time>
      </trkpt>
      <trkpt lat="42.61875" lon="1.70439">
        <ele>2254.9096679688</ele>
        <time>2011-06-19T07:21:53Z</time>
      </trkpt>
      <trkpt lat="42.61867" lon="1.70434">
        <ele>2254.4289550781</ele>
        <time>2011-06-19T07:22:00Z</time>
      </trkpt>
      <trkpt lat="42.61859" lon="1.70429">
        <ele>2253.4677734375</ele>
        <time>2011-06-19T07:22:07Z</time>
      </trkpt>
      <trkpt lat="42.61853" lon="1.7043">
        <ele>2252.0256347656</ele>
        <time>2011-06-19T07:22:14Z</time>
      </trkpt>
      <trkpt lat="42.61848" lon="1.7043">
        <ele>2250.1030273438</ele>
        <time>2011-06-19T07:22:20Z</time>
      </trkpt>
      <trkpt lat="42.61841" lon="1.70429">
        <ele>2247.6997070312</ele>
        <time>2011-06-19T07:22:27Z</time>
      </trkpt>
      <trkpt lat="42.6184" lon="1.70428">
        <ele>2247.2189941406</ele>
        <time>2011-06-19T07:22:28Z</time>
      </trkpt>
      <trkpt lat="42.6183" lon="1.70418">
        <ele>2245.7770996094</ele>
        <time>2011-06-19T07:22:38Z</time>
      </trkpt>
      <trkpt lat="42.61826" lon="1.70407">
        <ele>2245.2963867188</ele>
        <time>2011-06-19T07:22:46Z</time>
      </trkpt>
      <trkpt lat="42.61826" lon="1.70406">
        <ele>2245.2963867188</ele>
        <time>2011-06-19T07:22:47Z</time>
      </trkpt>
      <trkpt lat="42.61824" lon="1.70404">
        <ele>2244.3349609375</ele>
        <time>2011-06-19T07:22:54Z</time>
      </trkpt>
      <trkpt lat="42.61824" lon="1.70404">
        <ele>2245.2963867188</ele>
        <time>2011-06-19T07:23:01Z</time>
      </trkpt>
      <trkpt lat="42.61823" lon="1.70403">
        <ele>2245.7770996094</ele>
        <time>2011-06-19T07:23:13Z</time>
      </trkpt>
      <trkpt lat="42.6182" lon="1.704">
        <ele>2244.8156738281</ele>
        <time>2011-06-19T07:23:17Z</time>
      </trkpt>
      <trkpt lat="42.61815" lon="1.70391">
        <ele>2243.8544921875</ele>
        <time>2011-06-19T07:23:23Z</time>
      </trkpt>
      <trkpt lat="42.61809" lon="1.70383">
        <ele>2242.4125976562</ele>
        <time>2011-06-19T07:23:30Z</time>
      </trkpt>
      <trkpt lat="42.61806" lon="1.7038">
        <ele>2241.451171875</ele>
        <time>2011-06-19T07:23:36Z</time>
      </trkpt>
      <trkpt lat="42.61804" lon="1.70374">
        <ele>2240.4897460938</ele>
        <time>2011-06-19T07:23:42Z</time>
      </trkpt>
      <trkpt lat="42.618" lon="1.70367">
        <ele>2239.0478515625</ele>
        <time>2011-06-19T07:23:50Z</time>
      </trkpt>
      <trkpt lat="42.61795" lon="1.70365">
        <ele>2237.1252441406</ele>
        <time>2011-06-19T07:23:56Z</time>
      </trkpt>
      <trkpt lat="42.61793" lon="1.70362">
        <ele>2237.1252441406</ele>
        <time>2011-06-19T07:24:03Z</time>
      </trkpt>
      <trkpt lat="42.61792" lon="1.70358">
        <ele>2237.1252441406</ele>
        <time>2011-06-19T07:24:10Z</time>
      </trkpt>
      <trkpt lat="42.61793" lon="1.70359">
        <ele>2236.1640625</ele>
        <time>2011-06-19T07:24:16Z</time>
      </trkpt>
      <trkpt lat="42.61794" lon="1.70359">
        <ele>2237.6059570312</ele>
        <time>2011-06-19T07:24:33Z</time>
      </trkpt>
      <trkpt lat="42.61794" lon="1.70356">
        <ele>2236.64453125</ele>
        <time>2011-06-19T07:24:47Z</time>
      </trkpt>
      <trkpt lat="42.61798" lon="1.70349">
        <ele>2237.1252441406</ele>
        <time>2011-06-19T07:24:52Z</time>
      </trkpt>
      <trkpt lat="42.61799" lon="1.70341">
        <ele>2238.0866699219</ele>
        <time>2011-06-19T07:24:57Z</time>
      </trkpt>
      <trkpt lat="42.61803" lon="1.70332">
        <ele>2240.4897460938</ele>
        <time>2011-06-19T07:25:03Z</time>
      </trkpt>
      <trkpt lat="42.61805" lon="1.70322">
        <ele>2240.0092773438</ele>
        <time>2011-06-19T07:25:09Z</time>
      </trkpt>
      <trkpt lat="42.61805" lon="1.70321">
        <ele>2240.0092773438</ele>
        <time>2011-06-19T07:25:10Z</time>
      </trkpt>
      <trkpt lat="42.61807" lon="1.70319">
        <ele>2239.5285644531</ele>
        <time>2011-06-19T07:25:15Z</time>
      </trkpt>
      <trkpt lat="42.61807" lon="1.70321">
        <ele>2239.0478515625</ele>
        <time>2011-06-19T07:25:30Z</time>
      </trkpt>
      <trkpt lat="42.61807" lon="1.70321">
        <ele>2238.5673828125</ele>
        <time>2011-06-19T07:25:38Z</time>
      </trkpt>
      <trkpt lat="42.61807" lon="1.70321">
        <ele>2237.6059570312</ele>
        <time>2011-06-19T07:25:52Z</time>
      </trkpt>
      <trkpt lat="42.61806" lon="1.70321">
        <ele>2238.5673828125</ele>
        <time>2011-06-19T07:25:58Z</time>
      </trkpt>
      <trkpt lat="42.61806" lon="1.70321">
        <ele>2240.0092773438</ele>
        <time>2011-06-19T07:26:07Z</time>
      </trkpt>
      <trkpt lat="42.61805" lon="1.7032">
        <ele>2240.0092773438</ele>
        <time>2011-06-19T07:26:16Z</time>
      </trkpt>
      <trkpt lat="42.61805" lon="1.7032">
        <ele>2237.1252441406</ele>
        <time>2011-06-19T07:26:23Z</time>
      </trkpt>
      <trkpt lat="42.61805" lon="1.70321">
        <ele>2236.1640625</ele>
        <time>2011-06-19T07:26:32Z</time>
      </trkpt>
      <trkpt lat="42.61805" lon="1.70321">
        <ele>2234.7219238281</ele>
        <time>2011-06-19T07:26:43Z</time>
      </trkpt>
      <trkpt lat="42.61806" lon="1.7032">
        <ele>2233.2797851562</ele>
        <time>2011-06-19T07:26:50Z</time>
      </trkpt>
      <trkpt lat="42.61805" lon="1.70319">
        <ele>2234.7219238281</ele>
        <time>2011-06-19T07:26:59Z</time>
      </trkpt>
      <trkpt lat="42.61805" lon="1.70319">
        <ele>2236.1640625</ele>
        <time>2011-06-19T07:27:12Z</time>
      </trkpt>
      <trkpt lat="42.61805" lon="1.70319">
        <ele>2237.6059570312</ele>
        <time>2011-06-19T07:27:20Z</time>
      </trkpt>
      <trkpt lat="42.61805" lon="1.70319">
        <ele>2240.0092773438</ele>
        <time>2011-06-19T07:27:30Z</time>
      </trkpt>
      <trkpt lat="42.61805" lon="1.7032">
        <ele>2238.0866699219</ele>
        <time>2011-06-19T07:27:39Z</time>
      </trkpt>
      <trkpt lat="42.61805" lon="1.70321">
        <ele>2235.2023925781</ele>
        <time>2011-06-19T07:27:49Z</time>
      </trkpt>
      <trkpt lat="42.61805" lon="1.70322">
        <ele>2234.7219238281</ele>
        <time>2011-06-19T07:27:52Z</time>
      </trkpt>
      <trkpt lat="42.61803" lon="1.70322">
        <ele>2233.7604980469</ele>
        <time>2011-06-19T07:27:56Z</time>
      </trkpt>
      <trkpt lat="42.61801" lon="1.70324">
        <ele>2233.2797851562</ele>
        <time>2011-06-19T07:28:25Z</time>
      </trkpt>
      <trkpt lat="42.61798" lon="1.70331">
        <ele>2233.2797851562</ele>
        <time>2011-06-19T07:28:32Z</time>
      </trkpt>
      <trkpt lat="42.61797" lon="1.70338">
        <ele>2234.2412109375</ele>
        <time>2011-06-19T07:28:38Z</time>
      </trkpt>
      <trkpt lat="42.61796" lon="1.70347">
        <ele>2234.2412109375</ele>
        <time>2011-06-19T07:28:44Z</time>
      </trkpt>
      <trkpt lat="42.61795" lon="1.70354">
        <ele>2234.2412109375</ele>
        <time>2011-06-19T07:28:50Z</time>
      </trkpt>
      <trkpt lat="42.61795" lon="1.70359">
        <ele>2235.6831054688</ele>
        <time>2011-06-19T07:28:55Z</time>
      </trkpt>
      <trkpt lat="42.61796" lon="1.7036">
        <ele>2239.5285644531</ele>
        <time>2011-06-19T07:29:14Z</time>
      </trkpt>
      <trkpt lat="42.61796" lon="1.7036">
        <ele>2240.4897460938</ele>
        <time>2011-06-19T07:29:24Z</time>
      </trkpt>
      <trkpt lat="42.61795" lon="1.7036">
        <ele>2241.451171875</ele>
        <time>2011-06-19T07:29:43Z</time>
      </trkpt>
      <trkpt lat="42.61795" lon="1.7036">
        <ele>2241.9318847656</ele>
        <time>2011-06-19T07:29:55Z</time>
      </trkpt>
      <trkpt lat="42.61793" lon="1.70364">
        <ele>2236.1640625</ele>
        <time>2011-06-19T07:30:44Z</time>
      </trkpt>
      <trkpt lat="42.61793" lon="1.70362">
        <ele>2239.0478515625</ele>
        <time>2011-06-19T07:30:55Z</time>
      </trkpt>
      <trkpt lat="42.61793" lon="1.70361">
        <ele>2238.0866699219</ele>
        <time>2011-06-19T07:31:09Z</time>
      </trkpt>
      <trkpt lat="42.61794" lon="1.7036">
        <ele>2237.1252441406</ele>
        <time>2011-06-19T07:31:17Z</time>
      </trkpt>
      <trkpt lat="42.61794" lon="1.70362">
        <ele>2235.6831054688</ele>
        <time>2011-06-19T07:31:28Z</time>
      </trkpt>
      <trkpt lat="42.61791" lon="1.70366">
        <ele>2235.2023925781</ele>
        <time>2011-06-19T07:31:33Z</time>
      </trkpt>
      <trkpt lat="42.6179" lon="1.70367">
        <ele>2234.2412109375</ele>
        <time>2011-06-19T07:31:38Z</time>
      </trkpt>
      <trkpt lat="42.61791" lon="1.70364">
        <ele>2235.6831054688</ele>
        <time>2011-06-19T07:31:44Z</time>
      </trkpt>
      <trkpt lat="42.61792" lon="1.70357">
        <ele>2238.0866699219</ele>
        <time>2011-06-19T07:31:50Z</time>
      </trkpt>
      <trkpt lat="42.61794" lon="1.70357">
        <ele>2239.0478515625</ele>
        <time>2011-06-19T07:31:55Z</time>
      </trkpt>
      <trkpt lat="42.61793" lon="1.70358">
        <ele>2237.1252441406</ele>
        <time>2011-06-19T07:32:05Z</time>
      </trkpt>
      <trkpt lat="42.61793" lon="1.70359">
        <ele>2236.64453125</ele>
        <time>2011-06-19T07:32:26Z</time>
      </trkpt>
      <trkpt lat="42.61794" lon="1.70359">
        <ele>2236.64453125</ele>
        <time>2011-06-19T07:32:40Z</time>
      </trkpt>
      <trkpt lat="42.61795" lon="1.70359">
        <ele>2240.4897460938</ele>
        <time>2011-06-19T07:32:50Z</time>
      </trkpt>
      <trkpt lat="42.61795" lon="1.70359">
        <ele>2240.9704589844</ele>
        <time>2011-06-19T07:32:55Z</time>
      </trkpt>
      <trkpt lat="42.61797" lon="1.70358">
        <ele>2240.4897460938</ele>
        <time>2011-06-19T07:33:13Z</time>
      </trkpt>
      <trkpt lat="42.61797" lon="1.70357">
        <ele>2239.0478515625</ele>
        <time>2011-06-19T07:33:21Z</time>
      </trkpt>
      <trkpt lat="42.61796" lon="1.70358">
        <ele>2238.0866699219</ele>
        <time>2011-06-19T07:33:30Z</time>
      </trkpt>
      <trkpt lat="42.61794" lon="1.7036">
        <ele>2238.0866699219</ele>
        <time>2011-06-19T07:33:35Z</time>
      </trkpt>
      <trkpt lat="42.6179" lon="1.7036">
        <ele>2235.6831054688</ele>
        <time>2011-06-19T07:33:41Z</time>
      </trkpt>
      <trkpt lat="42.61787" lon="1.70354">
        <ele>2234.7219238281</ele>
        <time>2011-06-19T07:33:46Z</time>
      </trkpt>
      <trkpt lat="42.61786" lon="1.70351">
        <ele>2233.2797851562</ele>
        <time>2011-06-19T07:33:52Z</time>
      </trkpt>
      <trkpt lat="42.61781" lon="1.70345">
        <ele>2230.3959960938</ele>
        <time>2011-06-19T07:33:59Z</time>
      </trkpt>
      <trkpt lat="42.61778" lon="1.70343">
        <ele>2228.4733886719</ele>
        <time>2011-06-19T07:34:04Z</time>
      </trkpt>
      <trkpt lat="42.61774" lon="1.70335">
        <ele>2226.0700683594</ele>
        <time>2011-06-19T07:34:11Z</time>
      </trkpt>
      <trkpt lat="42.6177" lon="1.7033">
        <ele>2224.1474609375</ele>
        <time>2011-06-19T07:34:17Z</time>
      </trkpt>
      <trkpt lat="42.61767" lon="1.70327">
        <ele>2223.1862792969</ele>
        <time>2011-06-19T07:34:22Z</time>
      </trkpt>
      <trkpt lat="42.61765" lon="1.7032">
        <ele>2222.2248535156</ele>
        <time>2011-06-19T07:34:27Z</time>
      </trkpt>
      <trkpt lat="42.61764" lon="1.70317">
        <ele>2221.744140625</ele>
        <time>2011-06-19T07:34:33Z</time>
      </trkpt>
      <trkpt lat="42.61764" lon="1.70317">
        <ele>2222.2248535156</ele>
        <time>2011-06-19T07:34:44Z</time>
      </trkpt>
      <trkpt lat="42.61762" lon="1.70314">
        <ele>2221.744140625</ele>
        <time>2011-06-19T07:34:48Z</time>
      </trkpt>
      <trkpt lat="42.61759" lon="1.70308">
        <ele>2219.3408203125</ele>
        <time>2011-06-19T07:34:54Z</time>
      </trkpt>
      <trkpt lat="42.61755" lon="1.70304">
        <ele>2216.4567871094</ele>
        <time>2011-06-19T07:34:59Z</time>
      </trkpt>
      <trkpt lat="42.61754" lon="1.70302">
        <ele>2215.9760742188</ele>
        <time>2011-06-19T07:35:01Z</time>
      </trkpt>
      <trkpt lat="42.61753" lon="1.70293">
        <ele>2215.0148925781</ele>
        <time>2011-06-19T07:35:05Z</time>
      </trkpt>
      <trkpt lat="42.61749" lon="1.70289">
        <ele>2212.130859375</ele>
        <time>2011-06-19T07:35:12Z</time>
      </trkpt>
      <trkpt lat="42.61746" lon="1.70287">
        <ele>2210.6889648438</ele>
        <time>2011-06-19T07:35:16Z</time>
      </trkpt>
      <trkpt lat="42.61744" lon="1.70281">
        <ele>2209.7275390625</ele>
        <time>2011-06-19T07:35:21Z</time>
      </trkpt>
      <trkpt lat="42.61743" lon="1.70277">
        <ele>2208.7663574219</ele>
        <time>2011-06-19T07:35:27Z</time>
      </trkpt>
      <trkpt lat="42.6174" lon="1.70274">
        <ele>2207.8051757812</ele>
        <time>2011-06-19T07:35:32Z</time>
      </trkpt>
      <trkpt lat="42.61736" lon="1.7027">
        <ele>2207.3244628906</ele>
        <time>2011-06-19T07:35:37Z</time>
      </trkpt>
      <trkpt lat="42.61735" lon="1.70269">
        <ele>2207.3244628906</ele>
        <time>2011-06-19T07:35:38Z</time>
      </trkpt>
      <trkpt lat="42.61732" lon="1.70255">
        <ele>2206.3630371094</ele>
        <time>2011-06-19T07:35:43Z</time>
      </trkpt>
      <trkpt lat="42.61734" lon="1.70244">
        <ele>2204.4404296875</ele>
        <time>2011-06-19T07:35:49Z</time>
      </trkpt>
      <trkpt lat="42.6173" lon="1.70247">
        <ele>2202.0368652344</ele>
        <time>2011-06-19T07:35:54Z</time>
      </trkpt>
      <trkpt lat="42.61726" lon="1.70244">
        <ele>2200.1145019531</ele>
        <time>2011-06-19T07:36:00Z</time>
      </trkpt>
      <trkpt lat="42.61725" lon="1.70243">
        <ele>2197.7111816406</ele>
        <time>2011-06-19T07:36:08Z</time>
      </trkpt>
      <trkpt lat="42.61723" lon="1.70237">
        <ele>2195.7885742188</ele>
        <time>2011-06-19T07:36:15Z</time>
      </trkpt>
      <trkpt lat="42.61721" lon="1.70232">
        <ele>2194.8271484375</ele>
        <time>2011-06-19T07:36:21Z</time>
      </trkpt>
      <trkpt lat="42.61717" lon="1.70229">
        <ele>2192.9045410156</ele>
        <time>2011-06-19T07:36:27Z</time>
      </trkpt>
      <trkpt lat="42.61713" lon="1.70225">
        <ele>2191.4626464844</ele>
        <time>2011-06-19T07:36:33Z</time>
      </trkpt>
      <trkpt lat="42.6171" lon="1.70222">
        <ele>2190.5012207031</ele>
        <time>2011-06-19T07:36:36Z</time>
      </trkpt>
      <trkpt lat="42.61705" lon="1.70214">
        <ele>2188.0981445312</ele>
        <time>2011-06-19T07:36:43Z</time>
      </trkpt>
      <trkpt lat="42.61703" lon="1.7021">
        <ele>2187.6171875</ele>
        <time>2011-06-19T07:36:45Z</time>
      </trkpt>
      <trkpt lat="42.61699" lon="1.702">
        <ele>2186.6557617188</ele>
        <time>2011-06-19T07:36:52Z</time>
      </trkpt>
      <trkpt lat="42.61696" lon="1.70194">
        <ele>2185.6945800781</ele>
        <time>2011-06-19T07:36:57Z</time>
      </trkpt>
      <trkpt lat="42.61694" lon="1.70192">
        <ele>2184.7333984375</ele>
        <time>2011-06-19T07:37:02Z</time>
      </trkpt>
      <trkpt lat="42.61689" lon="1.70191">
        <ele>2184.2526855469</ele>
        <time>2011-06-19T07:37:07Z</time>
      </trkpt>
      <trkpt lat="42.61684" lon="1.70185">
        <ele>2183.7719726562</ele>
        <time>2011-06-19T07:37:12Z</time>
      </trkpt>
      <trkpt lat="42.61677" lon="1.70179">
        <ele>2183.2912597656</ele>
        <time>2011-06-19T07:37:18Z</time>
      </trkpt>
      <trkpt lat="42.61668" lon="1.70168">
        <ele>2182.330078125</ele>
        <time>2011-06-19T07:37:23Z</time>
      </trkpt>
      <trkpt lat="42.61655" lon="1.70159">
        <ele>2180.8881835938</ele>
        <time>2011-06-19T07:37:29Z</time>
      </trkpt>
      <trkpt lat="42.6165" lon="1.70154">
        <ele>2179.9267578125</ele>
        <time>2011-06-19T07:37:32Z</time>
      </trkpt>
      <trkpt lat="42.61647" lon="1.70148">
        <ele>2178.9653320312</ele>
        <time>2011-06-19T07:37:37Z</time>
      </trkpt>
      <trkpt lat="42.61643" lon="1.7014">
        <ele>2178.0041503906</ele>
        <time>2011-06-19T07:37:43Z</time>
      </trkpt>
      <trkpt lat="42.61642" lon="1.70136">
        <ele>2177.5234375</ele>
        <time>2011-06-19T07:37:45Z</time>
      </trkpt>
      <trkpt lat="42.6164" lon="1.70131">
        <ele>2177.04296875</ele>
        <time>2011-06-19T07:37:49Z</time>
      </trkpt>
      <trkpt lat="42.61637" lon="1.70125">
        <ele>2175.6008300781</ele>
        <time>2011-06-19T07:37:54Z</time>
      </trkpt>
      <trkpt lat="42.61632" lon="1.70121">
        <ele>2173.1977539062</ele>
        <time>2011-06-19T07:38:01Z</time>
      </trkpt>
      <trkpt lat="42.61632" lon="1.70117">
        <ele>2172.236328125</ele>
        <time>2011-06-19T07:38:06Z</time>
      </trkpt>
      <trkpt lat="42.6163" lon="1.70112">
        <ele>2172.236328125</ele>
        <time>2011-06-19T07:38:10Z</time>
      </trkpt>
      <trkpt lat="42.61628" lon="1.70106">
        <ele>2171.2746582031</ele>
        <time>2011-06-19T07:38:15Z</time>
      </trkpt>
      <trkpt lat="42.61623" lon="1.70095">
        <ele>2171.2746582031</ele>
        <time>2011-06-19T07:38:20Z</time>
      </trkpt>
      <trkpt lat="42.6162" lon="1.70091">
        <ele>2170.7941894531</ele>
        <time>2011-06-19T07:38:24Z</time>
      </trkpt>
      <trkpt lat="42.6162" lon="1.70084">
        <ele>2170.3134765625</ele>
        <time>2011-06-19T07:38:28Z</time>
      </trkpt>
      <trkpt lat="42.61618" lon="1.70082">
        <ele>2169.8327636719</ele>
        <time>2011-06-19T07:38:31Z</time>
      </trkpt>
      <trkpt lat="42.61615" lon="1.70074">
        <ele>2168.3908691406</ele>
        <time>2011-06-19T07:38:38Z</time>
      </trkpt>
      <trkpt lat="42.61612" lon="1.70068">
        <ele>2166.9489746094</ele>
        <time>2011-06-19T07:38:45Z</time>
      </trkpt>
      <trkpt lat="42.61607" lon="1.70057">
        <ele>2165.9875488281</ele>
        <time>2011-06-19T07:38:51Z</time>
      </trkpt>
      <trkpt lat="42.61598" lon="1.70045">
        <ele>2163.5842285156</ele>
        <time>2011-06-19T07:38:57Z</time>
      </trkpt>
      <trkpt lat="42.61591" lon="1.70035">
        <ele>2162.1423339844</ele>
        <time>2011-06-19T07:39:02Z</time>
      </trkpt>
      <trkpt lat="42.61584" lon="1.70024">
        <ele>2160.2197265625</ele>
        <time>2011-06-19T07:39:08Z</time>
      </trkpt>
      <trkpt lat="42.6158" lon="1.70018">
        <ele>2159.2585449219</ele>
        <time>2011-06-19T07:39:13Z</time>
      </trkpt>
      <trkpt lat="42.61578" lon="1.70016">
        <ele>2158.7778320312</ele>
        <time>2011-06-19T07:39:15Z</time>
      </trkpt>
      <trkpt lat="42.61574" lon="1.70008">
        <ele>2155.8935546875</ele>
        <time>2011-06-19T07:39:22Z</time>
      </trkpt>
      <trkpt lat="42.61571" lon="1.70002">
        <ele>2153.9711914062</ele>
        <time>2011-06-19T07:39:27Z</time>
      </trkpt>
      <trkpt lat="42.61568" lon="1.7">
        <ele>2153.4904785156</ele>
        <time>2011-06-19T07:39:30Z</time>
      </trkpt>
      <trkpt lat="42.61565" lon="1.69997">
        <ele>2153.9711914062</ele>
        <time>2011-06-19T07:39:34Z</time>
      </trkpt>
      <trkpt lat="42.61561" lon="1.69993">
        <ele>2153.4904785156</ele>
        <time>2011-06-19T07:39:41Z</time>
      </trkpt>
      <trkpt lat="42.6156" lon="1.69984">
        <ele>2152.5290527344</ele>
        <time>2011-06-19T07:39:47Z</time>
      </trkpt>
      <trkpt lat="42.61553" lon="1.69972">
        <ele>2152.5290527344</ele>
        <time>2011-06-19T07:39:53Z</time>
      </trkpt>
      <trkpt lat="42.61551" lon="1.69968">
        <ele>2153.009765625</ele>
        <time>2011-06-19T07:39:56Z</time>
      </trkpt>
      <trkpt lat="42.61547" lon="1.69963">
        <ele>2153.4904785156</ele>
        <time>2011-06-19T07:40:01Z</time>
      </trkpt>
      <trkpt lat="42.61541" lon="1.69959">
        <ele>2154.4516601562</ele>
        <time>2011-06-19T07:40:07Z</time>
      </trkpt>
      <trkpt lat="42.61536" lon="1.69957">
        <ele>2153.9711914062</ele>
        <time>2011-06-19T07:40:13Z</time>
      </trkpt>
      <trkpt lat="42.61532" lon="1.69955">
        <ele>2153.9711914062</ele>
        <time>2011-06-19T07:40:20Z</time>
      </trkpt>
      <trkpt lat="42.6153" lon="1.6995">
        <ele>2153.9711914062</ele>
        <time>2011-06-19T07:40:25Z</time>
      </trkpt>
      <trkpt lat="42.61527" lon="1.69945">
        <ele>2153.4904785156</ele>
        <time>2011-06-19T07:40:30Z</time>
      </trkpt>
      <trkpt lat="42.61525" lon="1.69939">
        <ele>2153.009765625</ele>
        <time>2011-06-19T07:40:36Z</time>
      </trkpt>
      <trkpt lat="42.61523" lon="1.69933">
        <ele>2152.5290527344</ele>
        <time>2011-06-19T07:40:40Z</time>
      </trkpt>
      <trkpt lat="42.6152" lon="1.6992">
        <ele>2150.6064453125</ele>
        <time>2011-06-19T07:40:49Z</time>
      </trkpt>
      <trkpt lat="42.61517" lon="1.69914">
        <ele>2150.6064453125</ele>
        <time>2011-06-19T07:40:53Z</time>
      </trkpt>
      <trkpt lat="42.61515" lon="1.69909">
        <ele>2149.6452636719</ele>
        <time>2011-06-19T07:40:57Z</time>
      </trkpt>
      <trkpt lat="42.61515" lon="1.69905">
        <ele>2149.1645507812</ele>
        <time>2011-06-19T07:41:00Z</time>
      </trkpt>
      <trkpt lat="42.61513" lon="1.69899">
        <ele>2147.72265625</ele>
        <time>2011-06-19T07:41:07Z</time>
      </trkpt>
      <trkpt lat="42.6151" lon="1.69893">
        <ele>2146.2807617188</ele>
        <time>2011-06-19T07:41:12Z</time>
      </trkpt>
      <trkpt lat="42.61507" lon="1.69888">
        <ele>2143.8774414062</ele>
        <time>2011-06-19T07:41:18Z</time>
      </trkpt>
      <trkpt lat="42.61506" lon="1.69883">
        <ele>2143.3967285156</ele>
        <time>2011-06-19T07:41:23Z</time>
      </trkpt>
      <trkpt lat="42.61509" lon="1.69878">
        <ele>2142.435546875</ele>
        <time>2011-06-19T07:41:29Z</time>
      </trkpt>
      <trkpt lat="42.61506" lon="1.69872">
        <ele>2140.5126953125</ele>
        <time>2011-06-19T07:41:34Z</time>
      </trkpt>
      <trkpt lat="42.61505" lon="1.69869">
        <ele>2139.5512695312</ele>
        <time>2011-06-19T07:41:36Z</time>
      </trkpt>
      <trkpt lat="42.61502" lon="1.69863">
        <ele>2137.6286621094</ele>
        <time>2011-06-19T07:41:42Z</time>
      </trkpt>
      <trkpt lat="42.61498" lon="1.69853">
        <ele>2136.1867675781</ele>
        <time>2011-06-19T07:41:47Z</time>
      </trkpt>
      <trkpt lat="42.61497" lon="1.69851">
        <ele>2136.1867675781</ele>
        <time>2011-06-19T07:41:48Z</time>
      </trkpt>
      <trkpt lat="42.61496" lon="1.69839">
        <ele>2134.7448730469</ele>
        <time>2011-06-19T07:41:55Z</time>
      </trkpt>
      <trkpt lat="42.61497" lon="1.69835">
        <ele>2133.7834472656</ele>
        <time>2011-06-19T07:41:59Z</time>
      </trkpt>
      <trkpt lat="42.61496" lon="1.69829">
        <ele>2130.4189453125</ele>
        <time>2011-06-19T07:42:05Z</time>
      </trkpt>
      <trkpt lat="42.61494" lon="1.69827">
        <ele>2130.4189453125</ele>
        <time>2011-06-19T07:42:06Z</time>
      </trkpt>
      <trkpt lat="42.61489" lon="1.69819">
        <ele>2128.9768066406</ele>
        <time>2011-06-19T07:42:12Z</time>
      </trkpt>
      <trkpt lat="42.61488" lon="1.69816">
        <ele>2128.015625</ele>
        <time>2011-06-19T07:42:17Z</time>
      </trkpt>
      <trkpt lat="42.61486" lon="1.69809">
        <ele>2126.5737304688</ele>
        <time>2011-06-19T07:42:22Z</time>
      </trkpt>
      <trkpt lat="42.61483" lon="1.69807">
        <ele>2125.6123046875</ele>
        <time>2011-06-19T07:42:25Z</time>
      </trkpt>
      <trkpt lat="42.61479" lon="1.69799">
        <ele>2124.1704101562</ele>
        <time>2011-06-19T07:42:31Z</time>
      </trkpt>
      <trkpt lat="42.61479" lon="1.69798">
        <ele>2123.208984375</ele>
        <time>2011-06-19T07:42:32Z</time>
      </trkpt>
      <trkpt lat="42.61475" lon="1.69791">
        <ele>2121.2861328125</ele>
        <time>2011-06-19T07:42:39Z</time>
      </trkpt>
      <trkpt lat="42.61473" lon="1.69785">
        <ele>2118.8830566406</ele>
        <time>2011-06-19T07:42:45Z</time>
      </trkpt>
      <trkpt lat="42.6147" lon="1.69781">
        <ele>2117.4409179688</ele>
        <time>2011-06-19T07:42:50Z</time>
      </trkpt>
      <trkpt lat="42.61467" lon="1.69779">
        <ele>2116.4797363281</ele>
        <time>2011-06-19T07:42:53Z</time>
      </trkpt>
      <trkpt lat="42.61463" lon="1.69772">
        <ele>2115.5185546875</ele>
        <time>2011-06-19T07:42:59Z</time>
      </trkpt>
      <trkpt lat="42.61461" lon="1.69764">
        <ele>2112.6345214844</ele>
        <time>2011-06-19T07:43:05Z</time>
      </trkpt>
      <trkpt lat="42.61459" lon="1.69761">
        <ele>2112.1538085938</ele>
        <time>2011-06-19T07:43:07Z</time>
      </trkpt>
      <trkpt lat="42.61459" lon="1.69754">
        <ele>2112.1538085938</ele>
        <time>2011-06-19T07:43:12Z</time>
      </trkpt>
      <trkpt lat="42.61454" lon="1.69749">
        <ele>2109.7504882812</ele>
        <time>2011-06-19T07:43:18Z</time>
      </trkpt>
      <trkpt lat="42.61451" lon="1.69745">
        <ele>2108.7893066406</ele>
        <time>2011-06-19T07:43:22Z</time>
      </trkpt>
      <trkpt lat="42.61451" lon="1.69742">
        <ele>2108.30859375</ele>
        <time>2011-06-19T07:43:25Z</time>
      </trkpt>
      <trkpt lat="42.61444" lon="1.69741">
        <ele>2107.3471679688</ele>
        <time>2011-06-19T07:43:30Z</time>
      </trkpt>
      <trkpt lat="42.61443" lon="1.6974">
        <ele>2106.8664550781</ele>
        <time>2011-06-19T07:43:32Z</time>
      </trkpt>
      <trkpt lat="42.6144" lon="1.69736">
        <ele>2105.4245605469</ele>
        <time>2011-06-19T07:43:40Z</time>
      </trkpt>
      <trkpt lat="42.61441" lon="1.69732">
        <ele>2103.9826660156</ele>
        <time>2011-06-19T07:43:45Z</time>
      </trkpt>
      <trkpt lat="42.6144" lon="1.69729">
        <ele>2103.0212402344</ele>
        <time>2011-06-19T07:43:51Z</time>
      </trkpt>
      <trkpt lat="42.61438" lon="1.69724">
        <ele>2100.6179199219</ele>
        <time>2011-06-19T07:43:58Z</time>
      </trkpt>
      <trkpt lat="42.61435" lon="1.6972">
        <ele>2100.1374511719</ele>
        <time>2011-06-19T07:44:03Z</time>
      </trkpt>
      <trkpt lat="42.61433" lon="1.69715">
        <ele>2099.1760253906</ele>
        <time>2011-06-19T07:44:07Z</time>
      </trkpt>
      <trkpt lat="42.61433" lon="1.69709">
        <ele>2098.2145996094</ele>
        <time>2011-06-19T07:44:11Z</time>
      </trkpt>
      <trkpt lat="42.61432" lon="1.69699">
        <ele>2096.2922363281</ele>
        <time>2011-06-19T07:44:17Z</time>
      </trkpt>
      <trkpt lat="42.61432" lon="1.69695">
        <ele>2095.8115234375</ele>
        <time>2011-06-19T07:44:23Z</time>
      </trkpt>
      <trkpt lat="42.61433" lon="1.69691">
        <ele>2093.8889160156</ele>
        <time>2011-06-19T07:44:29Z</time>
      </trkpt>
      <trkpt lat="42.61432" lon="1.69687">
        <ele>2093.8889160156</ele>
        <time>2011-06-19T07:44:35Z</time>
      </trkpt>
      <trkpt lat="42.61432" lon="1.69682">
        <ele>2091.0046386719</ele>
        <time>2011-06-19T07:44:41Z</time>
      </trkpt>
      <trkpt lat="42.6143" lon="1.69677">
        <ele>2089.08203125</ele>
        <time>2011-06-19T07:44:46Z</time>
      </trkpt>
      <trkpt lat="42.61423" lon="1.6967">
        <ele>2087.6401367188</ele>
        <time>2011-06-19T07:44:51Z</time>
      </trkpt>
      <trkpt lat="42.61423" lon="1.69669">
        <ele>2086.6787109375</ele>
        <time>2011-06-19T07:44:52Z</time>
      </trkpt>
      <trkpt lat="42.61419" lon="1.69664">
        <ele>2083.794921875</ele>
        <time>2011-06-19T07:44:58Z</time>
      </trkpt>
      <trkpt lat="42.61411" lon="1.69662">
        <ele>2082.3530273438</ele>
        <time>2011-06-19T07:45:03Z</time>
      </trkpt>
      <trkpt lat="42.61406" lon="1.69657">
        <ele>2080.9111328125</ele>
        <time>2011-06-19T07:45:07Z</time>
      </trkpt>
      <trkpt lat="42.61405" lon="1.69653">
        <ele>2079.9497070312</ele>
        <time>2011-06-19T07:45:11Z</time>
      </trkpt>
      <trkpt lat="42.61399" lon="1.69647">
        <ele>2079.4689941406</ele>
        <time>2011-06-19T07:45:18Z</time>
      </trkpt>
      <trkpt lat="42.61401" lon="1.69642">
        <ele>2078.5078125</ele>
        <time>2011-06-19T07:45:24Z</time>
      </trkpt>
      <trkpt lat="42.61401" lon="1.69636">
        <ele>2076.1044921875</ele>
        <time>2011-06-19T07:45:30Z</time>
      </trkpt>
      <trkpt lat="42.61397" lon="1.69628">
        <ele>2074.181640625</ele>
        <time>2011-06-19T07:45:36Z</time>
      </trkpt>
      <trkpt lat="42.61391" lon="1.69617">
        <ele>2071.7783203125</ele>
        <time>2011-06-19T07:45:43Z</time>
      </trkpt>
      <trkpt lat="42.61386" lon="1.69607">
        <ele>2067.9331054688</ele>
        <time>2011-06-19T07:45:48Z</time>
      </trkpt>
      <trkpt lat="42.61382" lon="1.69601">
        <ele>2065.5300292969</ele>
        <time>2011-06-19T07:45:53Z</time>
      </trkpt>
      <trkpt lat="42.61372" lon="1.69592">
        <ele>2063.1267089844</ele>
        <time>2011-06-19T07:45:59Z</time>
      </trkpt>
      <trkpt lat="42.61365" lon="1.69585">
        <ele>2061.2041015625</ele>
        <time>2011-06-19T07:46:03Z</time>
      </trkpt>
      <trkpt lat="42.61358" lon="1.69575">
        <ele>2059.28125</ele>
        <time>2011-06-19T07:46:09Z</time>
      </trkpt>
      <trkpt lat="42.61357" lon="1.69574">
        <ele>2058.8005371094</ele>
        <time>2011-06-19T07:46:10Z</time>
      </trkpt>
      <trkpt lat="42.61356" lon="1.69567">
        <ele>2056.8779296875</ele>
        <time>2011-06-19T07:46:15Z</time>
      </trkpt>
      <trkpt lat="42.61354" lon="1.69562">
        <ele>2056.3972167969</ele>
        <time>2011-06-19T07:46:18Z</time>
      </trkpt>
      <trkpt lat="42.61347" lon="1.6956">
        <ele>2055.4360351562</ele>
        <time>2011-06-19T07:46:26Z</time>
      </trkpt>
      <trkpt lat="42.61341" lon="1.69558">
        <ele>2054.474609375</ele>
        <time>2011-06-19T07:46:30Z</time>
      </trkpt>
      <trkpt lat="42.61335" lon="1.69552">
        <ele>2052.5520019531</ele>
        <time>2011-06-19T07:46:37Z</time>
      </trkpt>
      <trkpt lat="42.61332" lon="1.69544">
        <ele>2051.1101074219</ele>
        <time>2011-06-19T07:46:42Z</time>
      </trkpt>
      <trkpt lat="42.61329" lon="1.69537">
        <ele>2049.1875</ele>
        <time>2011-06-19T07:46:48Z</time>
      </trkpt>
      <trkpt lat="42.61329" lon="1.69537">
        <ele>2049.1875</ele>
        <time>2011-06-19T07:46:49Z</time>
      </trkpt>
      <trkpt lat="42.61322" lon="1.69533">
        <ele>2048.2260742188</ele>
        <time>2011-06-19T07:46:56Z</time>
      </trkpt>
      <trkpt lat="42.61319" lon="1.6953">
        <ele>2047.2648925781</ele>
        <time>2011-06-19T07:47:01Z</time>
      </trkpt>
      <trkpt lat="42.61316" lon="1.69527">
        <ele>2045.8229980469</ele>
        <time>2011-06-19T07:47:07Z</time>
      </trkpt>
      <trkpt lat="42.61309" lon="1.69525">
        <ele>2043.9001464844</ele>
        <time>2011-06-19T07:47:14Z</time>
      </trkpt>
      <trkpt lat="42.61307" lon="1.69524">
        <ele>2043.9001464844</ele>
        <time>2011-06-19T07:47:16Z</time>
      </trkpt>
      <trkpt lat="42.61301" lon="1.6952">
        <ele>2043.9001464844</ele>
        <time>2011-06-19T07:47:22Z</time>
      </trkpt>
      <trkpt lat="42.61298" lon="1.69519">
        <ele>2043.9001464844</ele>
        <time>2011-06-19T07:47:25Z</time>
      </trkpt>
      <trkpt lat="42.61296" lon="1.69518">
        <ele>2043.9001464844</ele>
        <time>2011-06-19T07:47:27Z</time>
      </trkpt>
      <trkpt lat="42.61289" lon="1.69516">
        <ele>2045.3422851562</ele>
        <time>2011-06-19T07:47:35Z</time>
      </trkpt>
      <trkpt lat="42.61283" lon="1.6951">
        <ele>2045.3422851562</ele>
        <time>2011-06-19T07:47:41Z</time>
      </trkpt>
      <trkpt lat="42.61277" lon="1.69504">
        <ele>2044.380859375</ele>
        <time>2011-06-19T07:47:47Z</time>
      </trkpt>
      <trkpt lat="42.61275" lon="1.69503">
        <ele>2044.380859375</ele>
        <time>2011-06-19T07:47:49Z</time>
      </trkpt>
      <trkpt lat="42.6127" lon="1.69497">
        <ele>2042.9387207031</ele>
        <time>2011-06-19T07:47:56Z</time>
      </trkpt>
      <trkpt lat="42.61269" lon="1.69487">
        <ele>2041.9775390625</ele>
        <time>2011-06-19T07:48:00Z</time>
      </trkpt>
      <trkpt lat="42.61268" lon="1.69484">
        <ele>2041.0161132812</ele>
        <time>2011-06-19T07:48:02Z</time>
      </trkpt>
      <trkpt lat="42.61261" lon="1.69472">
        <ele>2039.0935058594</ele>
        <time>2011-06-19T07:48:08Z</time>
      </trkpt>
      <trkpt lat="42.61255" lon="1.69469">
        <ele>2038.1323242188</ele>
        <time>2011-06-19T07:48:13Z</time>
      </trkpt>
      <trkpt lat="42.61251" lon="1.6946">
        <ele>2038.1323242188</ele>
        <time>2011-06-19T07:48:19Z</time>
      </trkpt>
      <trkpt lat="42.61246" lon="1.69455">
        <ele>2036.6901855469</ele>
        <time>2011-06-19T07:48:25Z</time>
      </trkpt>
      <trkpt lat="42.61243" lon="1.69453">
        <ele>2035.7290039062</ele>
        <time>2011-06-19T07:48:28Z</time>
      </trkpt>
      <trkpt lat="42.61235" lon="1.69443">
        <ele>2032.8449707031</ele>
        <time>2011-06-19T07:48:33Z</time>
      </trkpt>
      <trkpt lat="42.61226" lon="1.69441">
        <ele>2031.4030761719</ele>
        <time>2011-06-19T07:48:38Z</time>
      </trkpt>
      <trkpt lat="42.61221" lon="1.69436">
        <ele>2029.9611816406</ele>
        <time>2011-06-19T07:48:43Z</time>
      </trkpt>
      <trkpt lat="42.61218" lon="1.69434">
        <ele>2029.48046875</ele>
        <time>2011-06-19T07:48:46Z</time>
      </trkpt>
      <trkpt lat="42.61217" lon="1.69428">
        <ele>2028.0385742188</ele>
        <time>2011-06-19T07:48:52Z</time>
      </trkpt>
      <trkpt lat="42.61214" lon="1.69423">
        <ele>2026.5964355469</ele>
        <time>2011-06-19T07:48:57Z</time>
      </trkpt>
      <trkpt lat="42.61212" lon="1.69421">
        <ele>2026.1157226562</ele>
        <time>2011-06-19T07:48:59Z</time>
      </trkpt>
      <trkpt lat="42.61205" lon="1.69415">
        <ele>2026.1157226562</ele>
        <time>2011-06-19T07:49:05Z</time>
      </trkpt>
      <trkpt lat="42.61199" lon="1.69411">
        <ele>2027.0771484375</ele>
        <time>2011-06-19T07:49:13Z</time>
      </trkpt>
      <trkpt lat="42.61193" lon="1.69404">
        <ele>2027.0771484375</ele>
        <time>2011-06-19T07:49:19Z</time>
      </trkpt>
      <trkpt lat="42.61189" lon="1.694">
        <ele>2027.0771484375</ele>
        <time>2011-06-19T07:49:24Z</time>
      </trkpt>
      <trkpt lat="42.61184" lon="1.69397">
        <ele>2027.0771484375</ele>
        <time>2011-06-19T07:49:30Z</time>
      </trkpt>
      <trkpt lat="42.61177" lon="1.69392">
        <ele>2027.5576171875</ele>
        <time>2011-06-19T07:49:34Z</time>
      </trkpt>
      <trkpt lat="42.61167" lon="1.69388">
        <ele>2028.5192871094</ele>
        <time>2011-06-19T07:49:40Z</time>
      </trkpt>
      <trkpt lat="42.61164" lon="1.69381">
        <ele>2027.5576171875</ele>
        <time>2011-06-19T07:49:46Z</time>
      </trkpt>
      <trkpt lat="42.61163" lon="1.6938">
        <ele>2027.5576171875</ele>
        <time>2011-06-19T07:49:47Z</time>
      </trkpt>
      <trkpt lat="42.61157" lon="1.69376">
        <ele>2027.0771484375</ele>
        <time>2011-06-19T07:49:54Z</time>
      </trkpt>
      <trkpt lat="42.61152" lon="1.69369">
        <ele>2027.5576171875</ele>
        <time>2011-06-19T07:50:00Z</time>
      </trkpt>
      <trkpt lat="42.61146" lon="1.69364">
        <ele>2026.5964355469</ele>
        <time>2011-06-19T07:50:06Z</time>
      </trkpt>
      <trkpt lat="42.61143" lon="1.69361">
        <ele>2026.1157226562</ele>
        <time>2011-06-19T07:50:10Z</time>
      </trkpt>
      <trkpt lat="42.61134" lon="1.69357">
        <ele>2025.154296875</ele>
        <time>2011-06-19T07:50:18Z</time>
      </trkpt>
      <trkpt lat="42.61134" lon="1.69356">
        <ele>2025.154296875</ele>
        <time>2011-06-19T07:50:19Z</time>
      </trkpt>
      <trkpt lat="42.61126" lon="1.69353">
        <ele>2025.154296875</ele>
        <time>2011-06-19T07:50:27Z</time>
      </trkpt>
      <trkpt lat="42.61123" lon="1.69346">
        <ele>2024.1931152344</ele>
        <time>2011-06-19T07:50:33Z</time>
      </trkpt>
      <trkpt lat="42.61119" lon="1.6934">
        <ele>2024.673828125</ele>
        <time>2011-06-19T07:50:39Z</time>
      </trkpt>
      <trkpt lat="42.61114" lon="1.69334">
        <ele>2024.673828125</ele>
        <time>2011-06-19T07:50:46Z</time>
      </trkpt>
      <trkpt lat="42.61109" lon="1.69324">
        <ele>2025.154296875</ele>
        <time>2011-06-19T07:50:53Z</time>
      </trkpt>
      <trkpt lat="42.61099" lon="1.69312">
        <ele>2024.673828125</ele>
        <time>2011-06-19T07:50:59Z</time>
      </trkpt>
      <trkpt lat="42.61093" lon="1.69306">
        <ele>2024.673828125</ele>
        <time>2011-06-19T07:51:03Z</time>
      </trkpt>
      <trkpt lat="42.61092" lon="1.69305">
        <ele>2024.1931152344</ele>
        <time>2011-06-19T07:51:04Z</time>
      </trkpt>
      <trkpt lat="42.61086" lon="1.69298">
        <ele>2022.7512207031</ele>
        <time>2011-06-19T07:51:09Z</time>
      </trkpt>
      <trkpt lat="42.61076" lon="1.69285">
        <ele>2022.2705078125</ele>
        <time>2011-06-19T07:51:15Z</time>
      </trkpt>
      <trkpt lat="42.61068" lon="1.69276">
        <ele>2022.2705078125</ele>
        <time>2011-06-19T07:51:20Z</time>
      </trkpt>
      <trkpt lat="42.61059" lon="1.6927">
        <ele>2020.3479003906</ele>
        <time>2011-06-19T07:51:26Z</time>
      </trkpt>
      <trkpt lat="42.61052" lon="1.69263">
        <ele>2018.9060058594</ele>
        <time>2011-06-19T07:51:31Z</time>
      </trkpt>
      <trkpt lat="42.61048" lon="1.6926">
        <ele>2018.4252929688</ele>
        <time>2011-06-19T07:51:36Z</time>
      </trkpt>
      <trkpt lat="42.61042" lon="1.6926">
        <ele>2019.38671875</ele>
        <time>2011-06-19T07:51:42Z</time>
      </trkpt>
      <trkpt lat="42.61037" lon="1.69259">
        <ele>2019.8671875</ele>
        <time>2011-06-19T07:51:48Z</time>
      </trkpt>
      <trkpt lat="42.61037" lon="1.69258">
        <ele>2019.8671875</ele>
        <time>2011-06-19T07:51:54Z</time>
      </trkpt>
      <trkpt lat="42.61036" lon="1.69259">
        <ele>2020.3479003906</ele>
        <time>2011-06-19T07:52:19Z</time>
      </trkpt>
      <trkpt lat="42.61036" lon="1.69259">
        <ele>2020.3479003906</ele>
        <time>2011-06-19T07:52:27Z</time>
      </trkpt>
      <trkpt lat="42.61036" lon="1.69261">
        <ele>2020.8286132812</ele>
        <time>2011-06-19T07:52:36Z</time>
      </trkpt>
      <trkpt lat="42.61036" lon="1.69261">
        <ele>2019.8671875</ele>
        <time>2011-06-19T07:53:01Z</time>
      </trkpt>
      <trkpt lat="42.61037" lon="1.69261">
        <ele>2018.9060058594</ele>
        <time>2011-06-19T07:53:16Z</time>
      </trkpt>
      <trkpt lat="42.61036" lon="1.69261">
        <ele>2019.38671875</ele>
        <time>2011-06-19T07:53:38Z</time>
      </trkpt>
      <trkpt lat="42.61037" lon="1.69261">
        <ele>2022.7512207031</ele>
        <time>2011-06-19T07:54:10Z</time>
      </trkpt>
      <trkpt lat="42.61037" lon="1.69261">
        <ele>2023.2319335938</ele>
        <time>2011-06-19T07:54:34Z</time>
      </trkpt>
      <trkpt lat="42.61036" lon="1.69261">
        <ele>2021.3090820312</ele>
        <time>2011-06-19T07:54:58Z</time>
      </trkpt>
      <trkpt lat="42.61034" lon="1.69262">
        <ele>2013.1381835938</ele>
        <time>2011-06-19T07:55:26Z</time>
      </trkpt>
      <trkpt lat="42.61034" lon="1.69263">
        <ele>2008.8120117188</ele>
        <time>2011-06-19T07:55:55Z</time>
      </trkpt>
      <trkpt lat="42.61035" lon="1.69264">
        <ele>2007.8508300781</ele>
        <time>2011-06-19T07:56:08Z</time>
      </trkpt>
      <trkpt lat="42.61037" lon="1.69262">
        <ele>2014.580078125</ele>
        <time>2011-06-19T07:56:46Z</time>
      </trkpt>
      <trkpt lat="42.61035" lon="1.69263">
        <ele>2016.0219726562</ele>
        <time>2011-06-19T07:57:00Z</time>
      </trkpt>
      <trkpt lat="42.61034" lon="1.69263">
        <ele>2016.0219726562</ele>
        <time>2011-06-19T07:57:13Z</time>
      </trkpt>
      <trkpt lat="42.61034" lon="1.69263">
        <ele>2017.9445800781</ele>
        <time>2011-06-19T07:57:21Z</time>
      </trkpt>
      <trkpt lat="42.61035" lon="1.69261">
        <ele>2019.38671875</ele>
        <time>2011-06-19T07:57:29Z</time>
      </trkpt>
      <trkpt lat="42.61036" lon="1.6926">
        <ele>2019.8671875</ele>
        <time>2011-06-19T07:57:38Z</time>
      </trkpt>
      <trkpt lat="42.61037" lon="1.6926">
        <ele>2020.3479003906</ele>
        <time>2011-06-19T07:57:47Z</time>
      </trkpt>
      <trkpt lat="42.61039" lon="1.69262">
        <ele>2020.3479003906</ele>
        <time>2011-06-19T07:57:52Z</time>
      </trkpt>
      <trkpt lat="42.6104" lon="1.69262">
        <ele>2020.8286132812</ele>
        <time>2011-06-19T07:58:00Z</time>
      </trkpt>
      <trkpt lat="42.61038" lon="1.69262">
        <ele>2020.8286132812</ele>
        <time>2011-06-19T07:58:09Z</time>
      </trkpt>
      <trkpt lat="42.61039" lon="1.69263">
        <ele>2018.4252929688</ele>
        <time>2011-06-19T07:58:22Z</time>
      </trkpt>
      <trkpt lat="42.61039" lon="1.69262">
        <ele>2018.4252929688</ele>
        <time>2011-06-19T07:58:29Z</time>
      </trkpt>
      <trkpt lat="42.61038" lon="1.69263">
        <ele>2017.4638671875</ele>
        <time>2011-06-19T07:58:47Z</time>
      </trkpt>
      <trkpt lat="42.61039" lon="1.69262">
        <ele>2016.5026855469</ele>
        <time>2011-06-19T07:58:56Z</time>
      </trkpt>
      <trkpt lat="42.61037" lon="1.6926">
        <ele>2016.0219726562</ele>
        <time>2011-06-19T07:59:05Z</time>
      </trkpt>
      <trkpt lat="42.61036" lon="1.69261">
        <ele>2016.9833984375</ele>
        <time>2011-06-19T07:59:11Z</time>
      </trkpt>
      <trkpt lat="42.61034" lon="1.69264">
        <ele>2017.9445800781</ele>
        <time>2011-06-19T07:59:23Z</time>
      </trkpt>
      <trkpt lat="42.61031" lon="1.69269">
        <ele>2018.9060058594</ele>
        <time>2011-06-19T07:59:28Z</time>
      </trkpt>
      <trkpt lat="42.61024" lon="1.69268">
        <ele>2020.8286132812</ele>
        <time>2011-06-19T07:59:35Z</time>
      </trkpt>
      <trkpt lat="42.61019" lon="1.69266">
        <ele>2022.7512207031</ele>
        <time>2011-06-19T07:59:42Z</time>
      </trkpt>
      <trkpt lat="42.61013" lon="1.69267">
        <ele>2025.154296875</ele>
        <time>2011-06-19T07:59:50Z</time>
      </trkpt>
      <trkpt lat="42.61007" lon="1.69266">
        <ele>2026.5964355469</ele>
        <time>2011-06-19T07:59:57Z</time>
      </trkpt>
      <trkpt lat="42.61002" lon="1.69266">
        <ele>2027.5576171875</ele>
        <time>2011-06-19T08:00:04Z</time>
      </trkpt>
      <trkpt lat="42.61" lon="1.69269">
        <ele>2028.9997558594</ele>
        <time>2011-06-19T08:00:10Z</time>
      </trkpt>
      <trkpt lat="42.60999" lon="1.6927">
        <ele>2029.9611816406</ele>
        <time>2011-06-19T08:00:15Z</time>
      </trkpt>
      <trkpt lat="42.60996" lon="1.69269">
        <ele>2032.3645019531</ele>
        <time>2011-06-19T08:00:22Z</time>
      </trkpt>
      <trkpt lat="42.60995" lon="1.69272">
        <ele>2033.3256835938</ele>
        <time>2011-06-19T08:00:27Z</time>
      </trkpt>
      <trkpt lat="42.60994" lon="1.69274">
        <ele>2034.287109375</ele>
        <time>2011-06-19T08:00:32Z</time>
      </trkpt>
      <trkpt lat="42.6099" lon="1.69274">
        <ele>2035.7290039062</ele>
        <time>2011-06-19T08:00:38Z</time>
      </trkpt>
      <trkpt lat="42.60987" lon="1.69275">
        <ele>2037.1708984375</ele>
        <time>2011-06-19T08:00:45Z</time>
      </trkpt>
      <trkpt lat="42.60983" lon="1.69276">
        <ele>2038.6130371094</ele>
        <time>2011-06-19T08:00:51Z</time>
      </trkpt>
      <trkpt lat="42.6098" lon="1.69278">
        <ele>2040.0549316406</ele>
        <time>2011-06-19T08:00:57Z</time>
      </trkpt>
      <trkpt lat="42.60976" lon="1.69279">
        <ele>2041.4968261719</ele>
        <time>2011-06-19T08:01:03Z</time>
      </trkpt>
      <trkpt lat="42.60973" lon="1.69281">
        <ele>2042.4582519531</ele>
        <time>2011-06-19T08:01:09Z</time>
      </trkpt>
      <trkpt lat="42.60971" lon="1.69281">
        <ele>2044.380859375</ele>
        <time>2011-06-19T08:01:16Z</time>
      </trkpt>
      <trkpt lat="42.60969" lon="1.69281">
        <ele>2045.3422851562</ele>
        <time>2011-06-19T08:01:20Z</time>
      </trkpt>
      <trkpt lat="42.60965" lon="1.69282">
        <ele>2046.3037109375</ele>
        <time>2011-06-19T08:01:27Z</time>
      </trkpt>
      <trkpt lat="42.60966" lon="1.69287">
        <ele>2047.7456054688</ele>
        <time>2011-06-19T08:01:33Z</time>
      </trkpt>
      <trkpt lat="42.60965" lon="1.6929">
        <ele>2048.7067871094</ele>
        <time>2011-06-19T08:01:39Z</time>
      </trkpt>
      <trkpt lat="42.60961" lon="1.69289">
        <ele>2050.6293945312</ele>
        <time>2011-06-19T08:01:47Z</time>
      </trkpt>
      <trkpt lat="42.6096" lon="1.69291">
        <ele>2051.5908203125</ele>
        <time>2011-06-19T08:01:54Z</time>
      </trkpt>
      <trkpt lat="42.60962" lon="1.69297">
        <ele>2052.5520019531</ele>
        <time>2011-06-19T08:02:01Z</time>
      </trkpt>
      <trkpt lat="42.60963" lon="1.69303">
        <ele>2053.0327148438</ele>
        <time>2011-06-19T08:02:09Z</time>
      </trkpt>
      <trkpt lat="42.60964" lon="1.69307">
        <ele>2054.474609375</ele>
        <time>2011-06-19T08:02:15Z</time>
      </trkpt>
      <trkpt lat="42.60962" lon="1.6931">
        <ele>2055.9165039062</ele>
        <time>2011-06-19T08:02:20Z</time>
      </trkpt>
      <trkpt lat="42.60963" lon="1.69314">
        <ele>2056.8779296875</ele>
        <time>2011-06-19T08:02:27Z</time>
      </trkpt>
      <trkpt lat="42.60965" lon="1.69319">
        <ele>2057.3586425781</ele>
        <time>2011-06-19T08:02:34Z</time>
      </trkpt>
      <trkpt lat="42.60965" lon="1.69323">
        <ele>2059.28125</ele>
        <time>2011-06-19T08:02:40Z</time>
      </trkpt>
      <trkpt lat="42.60962" lon="1.6932">
        <ele>2059.76171875</ele>
        <time>2011-06-19T08:02:46Z</time>
      </trkpt>
      <trkpt lat="42.60957" lon="1.69319">
        <ele>2060.7233886719</ele>
        <time>2011-06-19T08:02:53Z</time>
      </trkpt>
      <trkpt lat="42.60954" lon="1.6932">
        <ele>2062.1652832031</ele>
        <time>2011-06-19T08:02:58Z</time>
      </trkpt>
      <trkpt lat="42.6095" lon="1.69316">
        <ele>2062.6459960938</ele>
        <time>2011-06-19T08:03:06Z</time>
      </trkpt>
      <trkpt lat="42.60945" lon="1.69312">
        <ele>2061.6848144531</ele>
        <time>2011-06-19T08:03:12Z</time>
      </trkpt>
      <trkpt lat="42.60939" lon="1.69311">
        <ele>2061.6848144531</ele>
        <time>2011-06-19T08:03:19Z</time>
      </trkpt>
      <trkpt lat="42.60937" lon="1.69313">
        <ele>2062.1652832031</ele>
        <time>2011-06-19T08:03:25Z</time>
      </trkpt>
      <trkpt lat="42.60937" lon="1.69314">
        <ele>2062.6459960938</ele>
        <time>2011-06-19T08:03:30Z</time>
      </trkpt>
      <trkpt lat="42.60934" lon="1.69315">
        <ele>2063.6071777344</ele>
        <time>2011-06-19T08:03:37Z</time>
      </trkpt>
      <trkpt lat="42.60935" lon="1.69316">
        <ele>2064.5686035156</ele>
        <time>2011-06-19T08:03:42Z</time>
      </trkpt>
      <trkpt lat="42.60937" lon="1.6932">
        <ele>2066.9719238281</ele>
        <time>2011-06-19T08:03:48Z</time>
      </trkpt>
      <trkpt lat="42.60938" lon="1.69322">
        <ele>2068.4138183594</ele>
        <time>2011-06-19T08:03:54Z</time>
      </trkpt>
      <trkpt lat="42.60938" lon="1.69324">
        <ele>2069.3752441406</ele>
        <time>2011-06-19T08:04:00Z</time>
      </trkpt>
      <trkpt lat="42.60934" lon="1.69325">
        <ele>2069.8557128906</ele>
        <time>2011-06-19T08:04:06Z</time>
      </trkpt>
      <trkpt lat="42.60931" lon="1.69327">
        <ele>2071.7783203125</ele>
        <time>2011-06-19T08:04:14Z</time>
      </trkpt>
      <trkpt lat="42.6093" lon="1.69329">
        <ele>2073.2204589844</ele>
        <time>2011-06-19T08:04:20Z</time>
      </trkpt>
      <trkpt lat="42.60931" lon="1.69332">
        <ele>2075.1428222656</ele>
        <time>2011-06-19T08:04:25Z</time>
      </trkpt>
      <trkpt lat="42.60932" lon="1.69336">
        <ele>2076.1044921875</ele>
        <time>2011-06-19T08:04:30Z</time>
      </trkpt>
      <trkpt lat="42.60929" lon="1.69338">
        <ele>2078.0270996094</ele>
        <time>2011-06-19T08:04:36Z</time>
      </trkpt>
      <trkpt lat="42.60926" lon="1.6934">
        <ele>2078.98828125</ele>
        <time>2011-06-19T08:04:41Z</time>
      </trkpt>
      <trkpt lat="42.60922" lon="1.69342">
        <ele>2078.98828125</ele>
        <time>2011-06-19T08:04:47Z</time>
      </trkpt>
      <trkpt lat="42.60919" lon="1.69343">
        <ele>2078.98828125</ele>
        <time>2011-06-19T08:04:54Z</time>
      </trkpt>
      <trkpt lat="42.60916" lon="1.69345">
        <ele>2078.98828125</ele>
        <time>2011-06-19T08:05:00Z</time>
      </trkpt>
      <trkpt lat="42.60917" lon="1.69348">
        <ele>2080.4304199219</ele>
        <time>2011-06-19T08:05:05Z</time>
      </trkpt>
      <trkpt lat="42.60916" lon="1.69351">
        <ele>2081.3916015625</ele>
        <time>2011-06-19T08:05:11Z</time>
      </trkpt>
      <trkpt lat="42.60914" lon="1.69352">
        <ele>2083.3142089844</ele>
        <time>2011-06-19T08:05:16Z</time>
      </trkpt>
      <trkpt lat="42.60911" lon="1.69351">
        <ele>2083.3142089844</ele>
        <time>2011-06-19T08:05:22Z</time>
      </trkpt>
      <trkpt lat="42.60907" lon="1.6935">
        <ele>2085.2368164062</ele>
        <time>2011-06-19T08:05:28Z</time>
      </trkpt>
      <trkpt lat="42.60908" lon="1.69353">
        <ele>2087.6401367188</ele>
        <time>2011-06-19T08:05:34Z</time>
      </trkpt>
      <trkpt lat="42.60909" lon="1.69357">
        <ele>2088.1208496094</ele>
        <time>2011-06-19T08:05:40Z</time>
      </trkpt>
      <trkpt lat="42.60909" lon="1.6936">
        <ele>2088.6015625</ele>
        <time>2011-06-19T08:05:46Z</time>
      </trkpt>
      <trkpt lat="42.60907" lon="1.69361">
        <ele>2089.5627441406</ele>
        <time>2011-06-19T08:05:51Z</time>
      </trkpt>
      <trkpt lat="42.60904" lon="1.6936">
        <ele>2090.0434570312</ele>
        <time>2011-06-19T08:05:57Z</time>
      </trkpt>
      <trkpt lat="42.60902" lon="1.69358">
        <ele>2090.0434570312</ele>
        <time>2011-06-19T08:06:04Z</time>
      </trkpt>
      <trkpt lat="42.60902" lon="1.69358">
        <ele>2091.4853515625</ele>
        <time>2011-06-19T08:06:14Z</time>
      </trkpt>
      <trkpt lat="42.60899" lon="1.69357">
        <ele>2092.4470214844</ele>
        <time>2011-06-19T08:06:20Z</time>
      </trkpt>
      <trkpt lat="42.60897" lon="1.69358">
        <ele>2093.408203125</ele>
        <time>2011-06-19T08:06:27Z</time>
      </trkpt>
      <trkpt lat="42.60895" lon="1.69358">
        <ele>2094.3693847656</ele>
        <time>2011-06-19T08:06:32Z</time>
      </trkpt>
      <trkpt lat="42.60891" lon="1.69358">
        <ele>2097.7341308594</ele>
        <time>2011-06-19T08:06:39Z</time>
      </trkpt>
      <trkpt lat="42.60889" lon="1.69357">
        <ele>2098.2145996094</ele>
        <time>2011-06-19T08:06:43Z</time>
      </trkpt>
      <trkpt lat="42.60887" lon="1.69358">
        <ele>2101.0986328125</ele>
        <time>2011-06-19T08:06:49Z</time>
      </trkpt>
      <trkpt lat="42.60887" lon="1.69362">
        <ele>2103.501953125</ele>
        <time>2011-06-19T08:06:55Z</time>
      </trkpt>
      <trkpt lat="42.60884" lon="1.69365">
        <ele>2105.4245605469</ele>
        <time>2011-06-19T08:07:02Z</time>
      </trkpt>
      <trkpt lat="42.60883" lon="1.69368">
        <ele>2106.3857421875</ele>
        <time>2011-06-19T08:07:09Z</time>
      </trkpt>
      <trkpt lat="42.60883" lon="1.69373">
        <ele>2106.3857421875</ele>
        <time>2011-06-19T08:07:15Z</time>
      </trkpt>
      <trkpt lat="42.60881" lon="1.69375">
        <ele>2106.3857421875</ele>
        <time>2011-06-19T08:07:21Z</time>
      </trkpt>
      <trkpt lat="42.60878" lon="1.69376">
        <ele>2106.8664550781</ele>
        <time>2011-06-19T08:07:27Z</time>
      </trkpt>
      <trkpt lat="42.60876" lon="1.69378">
        <ele>2107.3471679688</ele>
        <time>2011-06-19T08:07:34Z</time>
      </trkpt>
      <trkpt lat="42.60873" lon="1.69377">
        <ele>2108.30859375</ele>
        <time>2011-06-19T08:07:40Z</time>
      </trkpt>
      <trkpt lat="42.60869" lon="1.69377">
        <ele>2108.7893066406</ele>
        <time>2011-06-19T08:07:47Z</time>
      </trkpt>
      <trkpt lat="42.60869" lon="1.69377">
        <ele>2108.7893066406</ele>
        <time>2011-06-19T08:07:54Z</time>
      </trkpt>
      <trkpt lat="42.60868" lon="1.69381">
        <ele>2109.2700195312</ele>
        <time>2011-06-19T08:08:00Z</time>
      </trkpt>
      <trkpt lat="42.6087" lon="1.69385">
        <ele>2110.7119140625</ele>
        <time>2011-06-19T08:08:06Z</time>
      </trkpt>
      <trkpt lat="42.6087" lon="1.69387">
        <ele>2112.1538085938</ele>
        <time>2011-06-19T08:08:11Z</time>
      </trkpt>
      <trkpt lat="42.60869" lon="1.69391">
        <ele>2114.0764160156</ele>
        <time>2011-06-19T08:08:17Z</time>
      </trkpt>
      <trkpt lat="42.60867" lon="1.69395">
        <ele>2116.4797363281</ele>
        <time>2011-06-19T08:08:23Z</time>
      </trkpt>
      <trkpt lat="42.60866" lon="1.69398">
        <ele>2117.4409179688</ele>
        <time>2011-06-19T08:08:28Z</time>
      </trkpt>
      <trkpt lat="42.60864" lon="1.694">
        <ele>2118.40234375</ele>
        <time>2011-06-19T08:08:33Z</time>
      </trkpt>
      <trkpt lat="42.60862" lon="1.69402">
        <ele>2119.3637695312</ele>
        <time>2011-06-19T08:08:39Z</time>
      </trkpt>
      <trkpt lat="42.60859" lon="1.694">
        <ele>2119.8442382812</ele>
        <time>2011-06-19T08:08:45Z</time>
      </trkpt>
      <trkpt lat="42.60857" lon="1.694">
        <ele>2120.3249511719</ele>
        <time>2011-06-19T08:09:05Z</time>
      </trkpt>
      <trkpt lat="42.60855" lon="1.69402">
        <ele>2120.8056640625</ele>
        <time>2011-06-19T08:09:10Z</time>
      </trkpt>
      <trkpt lat="42.60854" lon="1.69406">
        <ele>2121.2861328125</ele>
        <time>2011-06-19T08:09:16Z</time>
      </trkpt>
      <trkpt lat="42.60852" lon="1.6941">
        <ele>2122.2475585938</ele>
        <time>2011-06-19T08:09:23Z</time>
      </trkpt>
      <trkpt lat="42.60855" lon="1.69416">
        <ele>2122.2475585938</ele>
        <time>2011-06-19T08:09:29Z</time>
      </trkpt>
      <trkpt lat="42.60856" lon="1.69424">
        <ele>2121.7668457031</ele>
        <time>2011-06-19T08:09:36Z</time>
      </trkpt>
      <trkpt lat="42.60856" lon="1.69429">
        <ele>2123.689453125</ele>
        <time>2011-06-19T08:09:41Z</time>
      </trkpt>
      <trkpt lat="42.60855" lon="1.69431">
        <ele>2124.6511230469</ele>
        <time>2011-06-19T08:09:46Z</time>
      </trkpt>
      <trkpt lat="42.60855" lon="1.69435">
        <ele>2127.0544433594</ele>
        <time>2011-06-19T08:09:54Z</time>
      </trkpt>
      <trkpt lat="42.60853" lon="1.69438">
        <ele>2128.9768066406</ele>
        <time>2011-06-19T08:09:58Z</time>
      </trkpt>
      <trkpt lat="42.6085" lon="1.69441">
        <ele>2130.8996582031</ele>
        <time>2011-06-19T08:10:03Z</time>
      </trkpt>
      <trkpt lat="42.60846" lon="1.6944">
        <ele>2130.8996582031</ele>
        <time>2011-06-19T08:10:09Z</time>
      </trkpt>
      <trkpt lat="42.60843" lon="1.69438">
        <ele>2132.3415527344</ele>
        <time>2011-06-19T08:10:16Z</time>
      </trkpt>
      <trkpt lat="42.60841" lon="1.69438">
        <ele>2132.3415527344</ele>
        <time>2011-06-19T08:10:21Z</time>
      </trkpt>
      <trkpt lat="42.60837" lon="1.6944">
        <ele>2132.3415527344</ele>
        <time>2011-06-19T08:10:27Z</time>
      </trkpt>
      <trkpt lat="42.60834" lon="1.6944">
        <ele>2132.8220214844</ele>
        <time>2011-06-19T08:10:33Z</time>
      </trkpt>
      <trkpt lat="42.60832" lon="1.69439">
        <ele>2133.7834472656</ele>
        <time>2011-06-19T08:10:39Z</time>
      </trkpt>
      <trkpt lat="42.6083" lon="1.69438">
        <ele>2134.7448730469</ele>
        <time>2011-06-19T08:10:45Z</time>
      </trkpt>
      <trkpt lat="42.60828" lon="1.69438">
        <ele>2138.109375</ele>
        <time>2011-06-19T08:10:51Z</time>
      </trkpt>
      <trkpt lat="42.60825" lon="1.69436">
        <ele>2138.5900878906</ele>
        <time>2011-06-19T08:10:56Z</time>
      </trkpt>
      <trkpt lat="42.60824" lon="1.69435">
        <ele>2138.5900878906</ele>
        <time>2011-06-19T08:11:01Z</time>
      </trkpt>
      <trkpt lat="42.60821" lon="1.69433">
        <ele>2139.5512695312</ele>
        <time>2011-06-19T08:11:07Z</time>
      </trkpt>
      <trkpt lat="42.60819" lon="1.69432">
        <ele>2139.5512695312</ele>
        <time>2011-06-19T08:11:12Z</time>
      </trkpt>
      <trkpt lat="42.60817" lon="1.69433">
        <ele>2140.5126953125</ele>
        <time>2011-06-19T08:11:18Z</time>
      </trkpt>
      <trkpt lat="42.60816" lon="1.69435">
        <ele>2143.3967285156</ele>
        <time>2011-06-19T08:11:24Z</time>
      </trkpt>
      <trkpt lat="42.60814" lon="1.69435">
        <ele>2144.8386230469</ele>
        <time>2011-06-19T08:11:29Z</time>
      </trkpt>
      <trkpt lat="42.60811" lon="1.69436">
        <ele>2144.3579101562</ele>
        <time>2011-06-19T08:11:34Z</time>
      </trkpt>
      <trkpt lat="42.60809" lon="1.69435">
        <ele>2145.3193359375</ele>
        <time>2011-06-19T08:11:38Z</time>
      </trkpt>
      <trkpt lat="42.60807" lon="1.69435">
        <ele>2145.3193359375</ele>
        <time>2011-06-19T08:11:45Z</time>
      </trkpt>
      <trkpt lat="42.60805" lon="1.69435">
        <ele>2146.7612304688</ele>
        <time>2011-06-19T08:11:51Z</time>
      </trkpt>
      <trkpt lat="42.60804" lon="1.69436">
        <ele>2148.6838378906</ele>
        <time>2011-06-19T08:11:56Z</time>
      </trkpt>
      <trkpt lat="42.60803" lon="1.69438">
        <ele>2153.4904785156</ele>
        <time>2011-06-19T08:12:12Z</time>
      </trkpt>
      <trkpt lat="42.60802" lon="1.6944">
        <ele>2156.3745117188</ele>
        <time>2011-06-19T08:12:17Z</time>
      </trkpt>
      <trkpt lat="42.60802" lon="1.69445">
        <ele>2161.1811523438</ele>
        <time>2011-06-19T08:12:25Z</time>
      </trkpt>
      <trkpt lat="42.60801" lon="1.6945">
        <ele>2161.1811523438</ele>
        <time>2011-06-19T08:12:31Z</time>
      </trkpt>
      <trkpt lat="42.60799" lon="1.69453">
        <ele>2160.7004394531</ele>
        <time>2011-06-19T08:12:35Z</time>
      </trkpt>
      <trkpt lat="42.60799" lon="1.69458">
        <ele>2163.5842285156</ele>
        <time>2011-06-19T08:12:42Z</time>
      </trkpt>
      <trkpt lat="42.60796" lon="1.69461">
        <ele>2164.0649414062</ele>
        <time>2011-06-19T08:12:48Z</time>
      </trkpt>
      <trkpt lat="42.60794" lon="1.69462">
        <ele>2162.623046875</ele>
        <time>2011-06-19T08:12:53Z</time>
      </trkpt>
      <trkpt lat="42.60791" lon="1.69462">
        <ele>2163.5842285156</ele>
        <time>2011-06-19T08:12:59Z</time>
      </trkpt>
      <trkpt lat="42.6079" lon="1.69462">
        <ele>2165.0263671875</ele>
        <time>2011-06-19T08:13:04Z</time>
      </trkpt>
      <trkpt lat="42.60788" lon="1.69462">
        <ele>2165.0263671875</ele>
        <time>2011-06-19T08:13:09Z</time>
      </trkpt>
      <trkpt lat="42.60786" lon="1.69465">
        <ele>2166.4682617188</ele>
        <time>2011-06-19T08:13:15Z</time>
      </trkpt>
      <trkpt lat="42.60785" lon="1.69467">
        <ele>2166.4682617188</ele>
        <time>2011-06-19T08:13:19Z</time>
      </trkpt>
      <trkpt lat="42.60783" lon="1.69468">
        <ele>2166.9489746094</ele>
        <time>2011-06-19T08:13:23Z</time>
      </trkpt>
      <trkpt lat="42.60781" lon="1.69468">
        <ele>2168.3908691406</ele>
        <time>2011-06-19T08:13:29Z</time>
      </trkpt>
      <trkpt lat="42.6078" lon="1.6947">
        <ele>2169.3522949219</ele>
        <time>2011-06-19T08:13:38Z</time>
      </trkpt>
      <trkpt lat="42.60778" lon="1.69471">
        <ele>2171.2746582031</ele>
        <time>2011-06-19T08:14:21Z</time>
      </trkpt>
      <trkpt lat="42.60777" lon="1.69473">
        <ele>2172.7170410156</ele>
        <time>2011-06-19T08:14:27Z</time>
      </trkpt>
      <trkpt lat="42.60774" lon="1.69472">
        <ele>2174.6396484375</ele>
        <time>2011-06-19T08:14:34Z</time>
      </trkpt>
      <trkpt lat="42.60773" lon="1.69473">
        <ele>2175.6008300781</ele>
        <time>2011-06-19T08:14:39Z</time>
      </trkpt>
      <trkpt lat="42.60772" lon="1.69476">
        <ele>2176.0815429688</ele>
        <time>2011-06-19T08:14:43Z</time>
      </trkpt>
      <trkpt lat="42.60771" lon="1.69477">
        <ele>2176.0815429688</ele>
        <time>2011-06-19T08:14:49Z</time>
      </trkpt>
      <trkpt lat="42.6077" lon="1.6948">
        <ele>2174.6396484375</ele>
        <time>2011-06-19T08:14:59Z</time>
      </trkpt>
      <trkpt lat="42.60771" lon="1.69484">
        <ele>2176.0815429688</ele>
        <time>2011-06-19T08:15:05Z</time>
      </trkpt>
      <trkpt lat="42.60771" lon="1.69487">
        <ele>2178.0041503906</ele>
        <time>2011-06-19T08:15:10Z</time>
      </trkpt>
      <trkpt lat="42.60772" lon="1.69489">
        <ele>2178.9653320312</ele>
        <time>2011-06-19T08:15:16Z</time>
      </trkpt>
      <trkpt lat="42.60771" lon="1.69491">
        <ele>2180.8881835938</ele>
        <time>2011-06-19T08:15:21Z</time>
      </trkpt>
      <trkpt lat="42.60769" lon="1.6949">
        <ele>2181.8493652344</ele>
        <time>2011-06-19T08:15:26Z</time>
      </trkpt>
      <trkpt lat="42.60766" lon="1.6949">
        <ele>2183.7719726562</ele>
        <time>2011-06-19T08:15:39Z</time>
      </trkpt>
      <trkpt lat="42.60765" lon="1.6949">
        <ele>2183.2912597656</ele>
        <time>2011-06-19T08:15:48Z</time>
      </trkpt>
      <trkpt lat="42.60763" lon="1.69492">
        <ele>2183.2912597656</ele>
        <time>2011-06-19T08:15:53Z</time>
      </trkpt>
      <trkpt lat="42.6076" lon="1.69493">
        <ele>2184.7333984375</ele>
        <time>2011-06-19T08:15:59Z</time>
      </trkpt>
      <trkpt lat="42.60758" lon="1.69494">
        <ele>2187.1364746094</ele>
        <time>2011-06-19T08:16:05Z</time>
      </trkpt>
      <trkpt lat="42.60756" lon="1.69493">
        <ele>2190.5012207031</ele>
        <time>2011-06-19T08:16:11Z</time>
      </trkpt>
      <trkpt lat="42.60754" lon="1.69493">
        <ele>2192.9045410156</ele>
        <time>2011-06-19T08:16:19Z</time>
      </trkpt>
      <trkpt lat="42.60752" lon="1.69494">
        <ele>2194.3464355469</ele>
        <time>2011-06-19T08:16:25Z</time>
      </trkpt>
      <trkpt lat="42.60751" lon="1.69496">
        <ele>2195.7885742188</ele>
        <time>2011-06-19T08:16:31Z</time>
      </trkpt>
      <trkpt lat="42.6075" lon="1.69499">
        <ele>2198.6723632812</ele>
        <time>2011-06-19T08:16:44Z</time>
      </trkpt>
      <trkpt lat="42.60749" lon="1.69503">
        <ele>2199.1530761719</ele>
        <time>2011-06-19T08:16:49Z</time>
      </trkpt>
      <trkpt lat="42.60748" lon="1.69506">
        <ele>2201.0756835938</ele>
        <time>2011-06-19T08:16:55Z</time>
      </trkpt>
      <trkpt lat="42.60746" lon="1.69507">
        <ele>2201.5563964844</ele>
        <time>2011-06-19T08:17:03Z</time>
      </trkpt>
      <trkpt lat="42.60744" lon="1.6951">
        <ele>2201.0756835938</ele>
        <time>2011-06-19T08:17:10Z</time>
      </trkpt>
      <trkpt lat="42.60744" lon="1.69513">
        <ele>2202.517578125</ele>
        <time>2011-06-19T08:17:14Z</time>
      </trkpt>
      <trkpt lat="42.60741" lon="1.69514">
        <ele>2203.4790039062</ele>
        <time>2011-06-19T08:17:19Z</time>
      </trkpt>
      <trkpt lat="42.60737" lon="1.69514">
        <ele>2204.9211425781</ele>
        <time>2011-06-19T08:17:27Z</time>
      </trkpt>
      <trkpt lat="42.60732" lon="1.69509">
        <ele>2205.4018554688</ele>
        <time>2011-06-19T08:17:33Z</time>
      </trkpt>
      <trkpt lat="42.60728" lon="1.69508">
        <ele>2205.4018554688</ele>
        <time>2011-06-19T08:17:37Z</time>
      </trkpt>
      <trkpt lat="42.60719" lon="1.69509">
        <ele>2207.3244628906</ele>
        <time>2011-06-19T08:17:46Z</time>
      </trkpt>
      <trkpt lat="42.60715" lon="1.69509">
        <ele>2208.2856445312</ele>
        <time>2011-06-19T08:17:51Z</time>
      </trkpt>
      <trkpt lat="42.6071" lon="1.69511">
        <ele>2209.7275390625</ele>
        <time>2011-06-19T08:17:57Z</time>
      </trkpt>
      <trkpt lat="42.60705" lon="1.69513">
        <ele>2211.650390625</ele>
        <time>2011-06-19T08:18:03Z</time>
      </trkpt>
      <trkpt lat="42.60701" lon="1.69516">
        <ele>2212.6115722656</ele>
        <time>2011-06-19T08:18:09Z</time>
      </trkpt>
      <trkpt lat="42.60696" lon="1.69516">
        <ele>2214.5341796875</ele>
        <time>2011-06-19T08:18:16Z</time>
      </trkpt>
      <trkpt lat="42.60689" lon="1.69519">
        <ele>2215.9760742188</ele>
        <time>2011-06-19T08:18:24Z</time>
      </trkpt>
      <trkpt lat="42.60685" lon="1.69525">
        <ele>2217.41796875</ele>
        <time>2011-06-19T08:18:32Z</time>
      </trkpt>
      <trkpt lat="42.60682" lon="1.69529">
        <ele>2218.3793945312</ele>
        <time>2011-06-19T08:18:38Z</time>
      </trkpt>
      <trkpt lat="42.6068" lon="1.69535">
        <ele>2217.8986816406</ele>
        <time>2011-06-19T08:18:44Z</time>
      </trkpt>
      <trkpt lat="42.60677" lon="1.69541">
        <ele>2217.8986816406</ele>
        <time>2011-06-19T08:18:50Z</time>
      </trkpt>
      <trkpt lat="42.60671" lon="1.69546">
        <ele>2218.3793945312</ele>
        <time>2011-06-19T08:18:57Z</time>
      </trkpt>
      <trkpt lat="42.60667" lon="1.69553">
        <ele>2218.3793945312</ele>
        <time>2011-06-19T08:19:04Z</time>
      </trkpt>
      <trkpt lat="42.60665" lon="1.69558">
        <ele>2219.3408203125</ele>
        <time>2011-06-19T08:19:10Z</time>
      </trkpt>
      <trkpt lat="42.60664" lon="1.69564">
        <ele>2220.3022460938</ele>
        <time>2011-06-19T08:19:17Z</time>
      </trkpt>
      <trkpt lat="42.60664" lon="1.69567">
        <ele>2219.8212890625</ele>
        <time>2011-06-19T08:19:22Z</time>
      </trkpt>
      <trkpt lat="42.60662" lon="1.69576">
        <ele>2218.8601074219</ele>
        <time>2011-06-19T08:19:29Z</time>
      </trkpt>
      <trkpt lat="42.60662" lon="1.69585">
        <ele>2219.3408203125</ele>
        <time>2011-06-19T08:19:36Z</time>
      </trkpt>
      <trkpt lat="42.60662" lon="1.69592">
        <ele>2219.8212890625</ele>
        <time>2011-06-19T08:19:42Z</time>
      </trkpt>
      <trkpt lat="42.60662" lon="1.69604">
        <ele>2219.8212890625</ele>
        <time>2011-06-19T08:19:51Z</time>
      </trkpt>
      <trkpt lat="42.60661" lon="1.69613">
        <ele>2220.3022460938</ele>
        <time>2011-06-19T08:19:59Z</time>
      </trkpt>
      <trkpt lat="42.60661" lon="1.69621">
        <ele>2220.3022460938</ele>
        <time>2011-06-19T08:20:07Z</time>
      </trkpt>
      <trkpt lat="42.60659" lon="1.69627">
        <ele>2219.3408203125</ele>
        <time>2011-06-19T08:20:14Z</time>
      </trkpt>
      <trkpt lat="42.60658" lon="1.69635">
        <ele>2218.8601074219</ele>
        <time>2011-06-19T08:20:21Z</time>
      </trkpt>
      <trkpt lat="42.60659" lon="1.69643">
        <ele>2220.3022460938</ele>
        <time>2011-06-19T08:20:29Z</time>
      </trkpt>
      <trkpt lat="42.6066" lon="1.69651">
        <ele>2222.2248535156</ele>
        <time>2011-06-19T08:20:38Z</time>
      </trkpt>
      <trkpt lat="42.60661" lon="1.69657">
        <ele>2224.6281738281</ele>
        <time>2011-06-19T08:20:44Z</time>
      </trkpt>
      <trkpt lat="42.60662" lon="1.69661">
        <ele>2225.5893554688</ele>
        <time>2011-06-19T08:20:49Z</time>
      </trkpt>
      <trkpt lat="42.60662" lon="1.69664">
        <ele>2227.0314941406</ele>
        <time>2011-06-19T08:20:53Z</time>
      </trkpt>
      <trkpt lat="42.60664" lon="1.69667">
        <ele>2229.9152832031</ele>
        <time>2011-06-19T08:20:59Z</time>
      </trkpt>
      <trkpt lat="42.60663" lon="1.69667">
        <ele>2229.9152832031</ele>
        <time>2011-06-19T08:21:06Z</time>
      </trkpt>
      <trkpt lat="42.6066" lon="1.69665">
        <ele>2231.837890625</ele>
        <time>2011-06-19T08:21:33Z</time>
      </trkpt>
      <trkpt lat="42.60662" lon="1.69667">
        <ele>2231.837890625</ele>
        <time>2011-06-19T08:21:38Z</time>
      </trkpt>
      <trkpt lat="42.60664" lon="1.69671">
        <ele>2231.837890625</ele>
        <time>2011-06-19T08:21:43Z</time>
      </trkpt>
      <trkpt lat="42.60665" lon="1.69675">
        <ele>2232.3186035156</ele>
        <time>2011-06-19T08:21:48Z</time>
      </trkpt>
      <trkpt lat="42.60664" lon="1.6968">
        <ele>2232.3186035156</ele>
        <time>2011-06-19T08:21:54Z</time>
      </trkpt>
      <trkpt lat="42.60664" lon="1.69682">
        <ele>2232.3186035156</ele>
        <time>2011-06-19T08:22:00Z</time>
      </trkpt>
      <trkpt lat="42.60666" lon="1.69684">
        <ele>2232.3186035156</ele>
        <time>2011-06-19T08:22:07Z</time>
      </trkpt>
      <trkpt lat="42.60667" lon="1.69688">
        <ele>2232.3186035156</ele>
        <time>2011-06-19T08:22:14Z</time>
      </trkpt>
      <trkpt lat="42.60666" lon="1.6969">
        <ele>2233.2797851562</ele>
        <time>2011-06-19T08:22:19Z</time>
      </trkpt>
      <trkpt lat="42.60667" lon="1.69691">
        <ele>2234.2412109375</ele>
        <time>2011-06-19T08:22:26Z</time>
      </trkpt>
      <trkpt lat="42.60668" lon="1.69695">
        <ele>2235.2023925781</ele>
        <time>2011-06-19T08:22:31Z</time>
      </trkpt>
      <trkpt lat="42.60668" lon="1.69697">
        <ele>2236.1640625</ele>
        <time>2011-06-19T08:22:36Z</time>
      </trkpt>
      <trkpt lat="42.6067" lon="1.69699">
        <ele>2237.6059570312</ele>
        <time>2011-06-19T08:22:42Z</time>
      </trkpt>
      <trkpt lat="42.60671" lon="1.69699">
        <ele>2238.5673828125</ele>
        <time>2011-06-19T08:22:47Z</time>
      </trkpt>
      <trkpt lat="42.60672" lon="1.69702">
        <ele>2239.5285644531</ele>
        <time>2011-06-19T08:22:54Z</time>
      </trkpt>
      <trkpt lat="42.60673" lon="1.69706">
        <ele>2240.9704589844</ele>
        <time>2011-06-19T08:23:09Z</time>
      </trkpt>
      <trkpt lat="42.60673" lon="1.69711">
        <ele>2241.451171875</ele>
        <time>2011-06-19T08:23:15Z</time>
      </trkpt>
      <trkpt lat="42.60674" lon="1.69712">
        <ele>2241.9318847656</ele>
        <time>2011-06-19T08:23:19Z</time>
      </trkpt>
      <trkpt lat="42.60677" lon="1.69714">
        <ele>2243.3737792969</ele>
        <time>2011-06-19T08:23:26Z</time>
      </trkpt>
      <trkpt lat="42.60679" lon="1.69718">
        <ele>2244.8156738281</ele>
        <time>2011-06-19T08:23:32Z</time>
      </trkpt>
      <trkpt lat="42.6068" lon="1.6972">
        <ele>2245.7770996094</ele>
        <time>2011-06-19T08:23:37Z</time>
      </trkpt>
      <trkpt lat="42.60682" lon="1.69721">
        <ele>2246.73828125</ele>
        <time>2011-06-19T08:23:42Z</time>
      </trkpt>
      <trkpt lat="42.60685" lon="1.69721">
        <ele>2247.6997070312</ele>
        <time>2011-06-19T08:23:48Z</time>
      </trkpt>
      <trkpt lat="42.60686" lon="1.69725">
        <ele>2248.6608886719</ele>
        <time>2011-06-19T08:23:54Z</time>
      </trkpt>
      <trkpt lat="42.60686" lon="1.69728">
        <ele>2249.6223144531</ele>
        <time>2011-06-19T08:23:58Z</time>
      </trkpt>
      <trkpt lat="42.60686" lon="1.69733">
        <ele>2251.0642089844</ele>
        <time>2011-06-19T08:24:04Z</time>
      </trkpt>
      <trkpt lat="42.60686" lon="1.69732">
        <ele>2252.5063476562</ele>
        <time>2011-06-19T08:24:13Z</time>
      </trkpt>
      <trkpt lat="42.60686" lon="1.69735">
        <ele>2251.544921875</ele>
        <time>2011-06-19T08:24:26Z</time>
      </trkpt>
      <trkpt lat="42.60685" lon="1.6974">
        <ele>2252.0256347656</ele>
        <time>2011-06-19T08:24:31Z</time>
      </trkpt>
      <trkpt lat="42.60685" lon="1.69745">
        <ele>2251.544921875</ele>
        <time>2011-06-19T08:24:37Z</time>
      </trkpt>
      <trkpt lat="42.60685" lon="1.69751">
        <ele>2252.5063476562</ele>
        <time>2011-06-19T08:24:44Z</time>
      </trkpt>
      <trkpt lat="42.60685" lon="1.69756">
        <ele>2253.4677734375</ele>
        <time>2011-06-19T08:24:50Z</time>
      </trkpt>
      <trkpt lat="42.60683" lon="1.69761">
        <ele>2254.4289550781</ele>
        <time>2011-06-19T08:24:57Z</time>
      </trkpt>
      <trkpt lat="42.60682" lon="1.69764">
        <ele>2256.3515625</ele>
        <time>2011-06-19T08:25:01Z</time>
      </trkpt>
      <trkpt lat="42.60682" lon="1.6977">
        <ele>2256.8322753906</ele>
        <time>2011-06-19T08:25:08Z</time>
      </trkpt>
      <trkpt lat="42.6068" lon="1.69775">
        <ele>2258.2741699219</ele>
        <time>2011-06-19T08:25:15Z</time>
      </trkpt>
      <trkpt lat="42.6068" lon="1.69778">
        <ele>2260.6774902344</ele>
        <time>2011-06-19T08:25:21Z</time>
      </trkpt>
      <trkpt lat="42.6068" lon="1.6978">
        <ele>2261.6389160156</ele>
        <time>2011-06-19T08:25:27Z</time>
      </trkpt>
      <trkpt lat="42.60682" lon="1.69784">
        <ele>2263.5612792969</ele>
        <time>2011-06-19T08:25:37Z</time>
      </trkpt>
      <trkpt lat="42.60683" lon="1.69787">
        <ele>2264.5227050781</ele>
        <time>2011-06-19T08:25:42Z</time>
      </trkpt>
      <trkpt lat="42.60685" lon="1.6979">
        <ele>2266.4453125</ele>
        <time>2011-06-19T08:25:48Z</time>
      </trkpt>
      <trkpt lat="42.60684" lon="1.69792">
        <ele>2268.3681640625</ele>
        <time>2011-06-19T08:25:53Z</time>
      </trkpt>
      <trkpt lat="42.60685" lon="1.69795">
        <ele>2269.3295898438</ele>
        <time>2011-06-19T08:25:58Z</time>
      </trkpt>
      <trkpt lat="42.60684" lon="1.69796">
        <ele>2269.3295898438</ele>
        <time>2011-06-19T08:26:04Z</time>
      </trkpt>
      <trkpt lat="42.60685" lon="1.69798">
        <ele>2270.2907714844</ele>
        <time>2011-06-19T08:26:09Z</time>
      </trkpt>
      <trkpt lat="42.60686" lon="1.69799">
        <ele>2271.7326660156</ele>
        <time>2011-06-19T08:26:15Z</time>
      </trkpt>
      <trkpt lat="42.60687" lon="1.69803">
        <ele>2272.6940917969</ele>
        <time>2011-06-19T08:26:21Z</time>
      </trkpt>
      <trkpt lat="42.60686" lon="1.69805">
        <ele>2274.6166992188</ele>
        <time>2011-06-19T08:26:28Z</time>
      </trkpt>
      <trkpt lat="42.60688" lon="1.69807">
        <ele>2277.9812011719</ele>
        <time>2011-06-19T08:26:41Z</time>
      </trkpt>
      <trkpt lat="42.60686" lon="1.69809">
        <ele>2279.4230957031</ele>
        <time>2011-06-19T08:26:47Z</time>
      </trkpt>
      <trkpt lat="42.60686" lon="1.6981">
        <ele>2279.4230957031</ele>
        <time>2011-06-19T08:26:55Z</time>
      </trkpt>
      <trkpt lat="42.60688" lon="1.69811">
        <ele>2278.9423828125</ele>
        <time>2011-06-19T08:27:00Z</time>
      </trkpt>
      <trkpt lat="42.6069" lon="1.69814">
        <ele>2279.9038085938</ele>
        <time>2011-06-19T08:27:05Z</time>
      </trkpt>
      <trkpt lat="42.6069" lon="1.69818">
        <ele>2280.865234375</ele>
        <time>2011-06-19T08:27:11Z</time>
      </trkpt>
      <trkpt lat="42.60691" lon="1.6982">
        <ele>2281.8264160156</ele>
        <time>2011-06-19T08:27:16Z</time>
      </trkpt>
      <trkpt lat="42.60691" lon="1.69824">
        <ele>2282.7875976562</ele>
        <time>2011-06-19T08:27:21Z</time>
      </trkpt>
      <trkpt lat="42.60691" lon="1.69825">
        <ele>2283.2683105469</ele>
        <time>2011-06-19T08:27:30Z</time>
      </trkpt>
      <trkpt lat="42.60692" lon="1.69828">
        <ele>2284.2299804688</ele>
        <time>2011-06-19T08:27:35Z</time>
      </trkpt>
      <trkpt lat="42.60693" lon="1.6983">
        <ele>2285.671875</ele>
        <time>2011-06-19T08:27:41Z</time>
      </trkpt>
      <trkpt lat="42.60693" lon="1.69834">
        <ele>2287.1137695312</ele>
        <time>2011-06-19T08:27:47Z</time>
      </trkpt>
      <trkpt lat="42.60694" lon="1.69836">
        <ele>2288.0751953125</ele>
        <time>2011-06-19T08:27:52Z</time>
      </trkpt>
      <trkpt lat="42.60695" lon="1.69839">
        <ele>2289.0363769531</ele>
        <time>2011-06-19T08:27:55Z</time>
      </trkpt>
      <trkpt lat="42.60695" lon="1.69843">
        <ele>2290.958984375</ele>
        <time>2011-06-19T08:28:02Z</time>
      </trkpt>
      <trkpt lat="42.60694" lon="1.69846">
        <ele>2292.4011230469</ele>
        <time>2011-06-19T08:28:12Z</time>
      </trkpt>
      <trkpt lat="42.60693" lon="1.6985">
        <ele>2293.3623046875</ele>
        <time>2011-06-19T08:28:18Z</time>
      </trkpt>
      <trkpt lat="42.60693" lon="1.69855">
        <ele>2293.3623046875</ele>
        <time>2011-06-19T08:28:24Z</time>
      </trkpt>
      <trkpt lat="42.60693" lon="1.69856">
        <ele>2293.8430175781</ele>
        <time>2011-06-19T08:28:29Z</time>
      </trkpt>
      <trkpt lat="42.60696" lon="1.69855">
        <ele>2293.8430175781</ele>
        <time>2011-06-19T08:28:36Z</time>
      </trkpt>
      <trkpt lat="42.60697" lon="1.69854">
        <ele>2293.3623046875</ele>
        <time>2011-06-19T08:28:55Z</time>
      </trkpt>
      <trkpt lat="42.60697" lon="1.69854">
        <ele>2293.8430175781</ele>
        <time>2011-06-19T08:29:07Z</time>
      </trkpt>
      <trkpt lat="42.60696" lon="1.69858">
        <ele>2295.2849121094</ele>
        <time>2011-06-19T08:29:38Z</time>
      </trkpt>
      <trkpt lat="42.60695" lon="1.69859">
        <ele>2295.2849121094</ele>
        <time>2011-06-19T08:29:39Z</time>
      </trkpt>
      <trkpt lat="42.60694" lon="1.69867">
        <ele>2295.2849121094</ele>
        <time>2011-06-19T08:29:46Z</time>
      </trkpt>
      <trkpt lat="42.60692" lon="1.69873">
        <ele>2296.2463378906</ele>
        <time>2011-06-19T08:29:53Z</time>
      </trkpt>
      <trkpt lat="42.60691" lon="1.69876">
        <ele>2296.7268066406</ele>
        <time>2011-06-19T08:29:59Z</time>
      </trkpt>
      <trkpt lat="42.60692" lon="1.69876">
        <ele>2297.2075195312</ele>
        <time>2011-06-19T08:30:26Z</time>
      </trkpt>
      <trkpt lat="42.60693" lon="1.69879">
        <ele>2297.6882324219</ele>
        <time>2011-06-19T08:30:31Z</time>
      </trkpt>
      <trkpt lat="42.60695" lon="1.69888">
        <ele>2298.6494140625</ele>
        <time>2011-06-19T08:30:40Z</time>
      </trkpt>
      <trkpt lat="42.60695" lon="1.6989">
        <ele>2298.6494140625</ele>
        <time>2011-06-19T08:30:47Z</time>
      </trkpt>
      <trkpt lat="42.60696" lon="1.69894">
        <ele>2299.1301269531</ele>
        <time>2011-06-19T08:30:56Z</time>
      </trkpt>
      <trkpt lat="42.60697" lon="1.69903">
        <ele>2301.0529785156</ele>
        <time>2011-06-19T08:31:05Z</time>
      </trkpt>
      <trkpt lat="42.60698" lon="1.6991">
        <ele>2301.0529785156</ele>
        <time>2011-06-19T08:31:12Z</time>
      </trkpt>
      <trkpt lat="42.60699" lon="1.69918">
        <ele>2300.572265625</ele>
        <time>2011-06-19T08:31:19Z</time>
      </trkpt>
      <trkpt lat="42.60702" lon="1.69925">
        <ele>2302.0141601562</ele>
        <time>2011-06-19T08:31:26Z</time>
      </trkpt>
      <trkpt lat="42.60704" lon="1.69926">
        <ele>2302.9755859375</ele>
        <time>2011-06-19T08:31:31Z</time>
      </trkpt>
      <trkpt lat="42.60706" lon="1.6993">
        <ele>2303.4562988281</ele>
        <time>2011-06-19T08:31:37Z</time>
      </trkpt>
      <trkpt lat="42.60707" lon="1.69937">
        <ele>2304.4174804688</ele>
        <time>2011-06-19T08:31:44Z</time>
      </trkpt>
      <trkpt lat="42.60707" lon="1.69941">
        <ele>2304.8981933594</ele>
        <time>2011-06-19T08:31:49Z</time>
      </trkpt>
      <trkpt lat="42.60706" lon="1.69944">
        <ele>2305.859375</ele>
        <time>2011-06-19T08:31:55Z</time>
      </trkpt>
      <trkpt lat="42.60705" lon="1.69947">
        <ele>2306.3400878906</ele>
        <time>2011-06-19T08:32:01Z</time>
      </trkpt>
      <trkpt lat="42.60703" lon="1.6995">
        <ele>2307.3015136719</ele>
        <time>2011-06-19T08:32:08Z</time>
      </trkpt>
      <trkpt lat="42.60703" lon="1.69953">
        <ele>2308.2626953125</ele>
        <time>2011-06-19T08:32:14Z</time>
      </trkpt>
      <trkpt lat="42.60703" lon="1.69954">
        <ele>2309.2241210938</ele>
        <time>2011-06-19T08:32:18Z</time>
      </trkpt>
      <trkpt lat="42.60703" lon="1.69956">
        <ele>2309.7045898438</ele>
        <time>2011-06-19T08:32:23Z</time>
      </trkpt>
      <trkpt lat="42.60704" lon="1.69957">
        <ele>2310.1853027344</ele>
        <time>2011-06-19T08:32:29Z</time>
      </trkpt>
      <trkpt lat="42.60703" lon="1.6996">
        <ele>2311.6274414062</ele>
        <time>2011-06-19T08:32:35Z</time>
      </trkpt>
      <trkpt lat="42.60702" lon="1.69963">
        <ele>2313.5498046875</ele>
        <time>2011-06-19T08:32:42Z</time>
      </trkpt>
      <trkpt lat="42.60701" lon="1.69967">
        <ele>2315.47265625</ele>
        <time>2011-06-19T08:32:48Z</time>
      </trkpt>
      <trkpt lat="42.607" lon="1.69971">
        <ele>2317.8759765625</ele>
        <time>2011-06-19T08:32:55Z</time>
      </trkpt>
      <trkpt lat="42.60699" lon="1.69975">
        <ele>2319.3181152344</ele>
        <time>2011-06-19T08:33:01Z</time>
      </trkpt>
      <trkpt lat="42.60701" lon="1.69979">
        <ele>2320.7600097656</ele>
        <time>2011-06-19T08:33:07Z</time>
      </trkpt>
      <trkpt lat="42.607" lon="1.69983">
        <ele>2321.2404785156</ele>
        <time>2011-06-19T08:33:14Z</time>
      </trkpt>
      <trkpt lat="42.607" lon="1.69986">
        <ele>2321.7211914062</ele>
        <time>2011-06-19T08:33:20Z</time>
      </trkpt>
      <trkpt lat="42.60701" lon="1.69988">
        <ele>2321.2404785156</ele>
        <time>2011-06-19T08:33:24Z</time>
      </trkpt>
      <trkpt lat="42.60702" lon="1.69991">
        <ele>2321.2404785156</ele>
        <time>2011-06-19T08:33:30Z</time>
      </trkpt>
      <trkpt lat="42.60702" lon="1.69994">
        <ele>2322.6826171875</ele>
        <time>2011-06-19T08:33:36Z</time>
      </trkpt>
      <trkpt lat="42.60703" lon="1.69997">
        <ele>2324.1245117188</ele>
        <time>2011-06-19T08:33:43Z</time>
      </trkpt>
      <trkpt lat="42.60702" lon="1.70001">
        <ele>2325.0856933594</ele>
        <time>2011-06-19T08:33:49Z</time>
      </trkpt>
      <trkpt lat="42.60703" lon="1.70008">
        <ele>2325.56640625</ele>
        <time>2011-06-19T08:33:56Z</time>
      </trkpt>
      <trkpt lat="42.60702" lon="1.70014">
        <ele>2327.4890136719</ele>
        <time>2011-06-19T08:34:03Z</time>
      </trkpt>
      <trkpt lat="42.60701" lon="1.70016">
        <ele>2328.4504394531</ele>
        <time>2011-06-19T08:34:07Z</time>
      </trkpt>
      <trkpt lat="42.60702" lon="1.7002">
        <ele>2328.9309082031</ele>
        <time>2011-06-19T08:34:15Z</time>
      </trkpt>
      <trkpt lat="42.60703" lon="1.70023">
        <ele>2329.4116210938</ele>
        <time>2011-06-19T08:34:21Z</time>
      </trkpt>
      <trkpt lat="42.60703" lon="1.70027">
        <ele>2329.4116210938</ele>
        <time>2011-06-19T08:34:27Z</time>
      </trkpt>
      <trkpt lat="42.60703" lon="1.70028">
        <ele>2328.9309082031</ele>
        <time>2011-06-19T08:34:35Z</time>
      </trkpt>
      <trkpt lat="42.60702" lon="1.7003">
        <ele>2328.4504394531</ele>
        <time>2011-06-19T08:34:41Z</time>
      </trkpt>
      <trkpt lat="42.60703" lon="1.70029">
        <ele>2327.9697265625</ele>
        <time>2011-06-19T08:34:55Z</time>
      </trkpt>
      <trkpt lat="42.60703" lon="1.70029">
        <ele>2327.4890136719</ele>
        <time>2011-06-19T08:35:14Z</time>
      </trkpt>
      <trkpt lat="42.60702" lon="1.70031">
        <ele>2327.0085449219</ele>
        <time>2011-06-19T08:35:24Z</time>
      </trkpt>
      <trkpt lat="42.60702" lon="1.70036">
        <ele>2326.0471191406</ele>
        <time>2011-06-19T08:35:29Z</time>
      </trkpt>
      <trkpt lat="42.60702" lon="1.70045">
        <ele>2324.6052246094</ele>
        <time>2011-06-19T08:35:36Z</time>
      </trkpt>
      <trkpt lat="42.60702" lon="1.70052">
        <ele>2324.1245117188</ele>
        <time>2011-06-19T08:35:43Z</time>
      </trkpt>
      <trkpt lat="42.60703" lon="1.70059">
        <ele>2323.6437988281</ele>
        <time>2011-06-19T08:35:49Z</time>
      </trkpt>
      <trkpt lat="42.60702" lon="1.70065">
        <ele>2322.6826171875</ele>
        <time>2011-06-19T08:35:56Z</time>
      </trkpt>
      <trkpt lat="42.607" lon="1.70068">
        <ele>2321.7211914062</ele>
        <time>2011-06-19T08:36:03Z</time>
      </trkpt>
      <trkpt lat="42.60698" lon="1.70068">
        <ele>2320.279296875</ele>
        <time>2011-06-19T08:36:09Z</time>
      </trkpt>
      <trkpt lat="42.60697" lon="1.70069">
        <ele>2319.7985839844</ele>
        <time>2011-06-19T08:36:14Z</time>
      </trkpt>
      <trkpt lat="42.60697" lon="1.70075">
        <ele>2319.3181152344</ele>
        <time>2011-06-19T08:36:20Z</time>
      </trkpt>
      <trkpt lat="42.60698" lon="1.70077">
        <ele>2319.7985839844</ele>
        <time>2011-06-19T08:36:25Z</time>
      </trkpt>
      <trkpt lat="42.60698" lon="1.70078">
        <ele>2319.3181152344</ele>
        <time>2011-06-19T08:36:30Z</time>
      </trkpt>
      <trkpt lat="42.60698" lon="1.7008">
        <ele>2319.3181152344</ele>
        <time>2011-06-19T08:36:35Z</time>
      </trkpt>
      <trkpt lat="42.60698" lon="1.70086">
        <ele>2318.3566894531</ele>
        <time>2011-06-19T08:36:42Z</time>
      </trkpt>
      <trkpt lat="42.60697" lon="1.70092">
        <ele>2317.8759765625</ele>
        <time>2011-06-19T08:36:48Z</time>
      </trkpt>
      <trkpt lat="42.60698" lon="1.70099">
        <ele>2317.3952636719</ele>
        <time>2011-06-19T08:36:55Z</time>
      </trkpt>
      <trkpt lat="42.60698" lon="1.70109">
        <ele>2316.9147949219</ele>
        <time>2011-06-19T08:37:02Z</time>
      </trkpt>
      <trkpt lat="42.60697" lon="1.70116">
        <ele>2316.9147949219</ele>
        <time>2011-06-19T08:37:08Z</time>
      </trkpt>
      <trkpt lat="42.60698" lon="1.70122">
        <ele>2316.9147949219</ele>
        <time>2011-06-19T08:37:14Z</time>
      </trkpt>
      <trkpt lat="42.60696" lon="1.70126">
        <ele>2316.4340820312</ele>
        <time>2011-06-19T08:37:18Z</time>
      </trkpt>
      <trkpt lat="42.6069" lon="1.70132">
        <ele>2315.47265625</ele>
        <time>2011-06-19T08:37:25Z</time>
      </trkpt>
      <trkpt lat="42.60686" lon="1.7014">
        <ele>2315.953125</ele>
        <time>2011-06-19T08:37:32Z</time>
      </trkpt>
      <trkpt lat="42.60684" lon="1.70143">
        <ele>2316.4340820312</ele>
        <time>2011-06-19T08:37:35Z</time>
      </trkpt>
      <trkpt lat="42.60682" lon="1.70149">
        <ele>2317.8759765625</ele>
        <time>2011-06-19T08:37:42Z</time>
      </trkpt>
      <trkpt lat="42.6068" lon="1.70156">
        <ele>2319.3181152344</ele>
        <time>2011-06-19T08:37:49Z</time>
      </trkpt>
      <trkpt lat="42.60678" lon="1.70168">
        <ele>2320.279296875</ele>
        <time>2011-06-19T08:37:59Z</time>
      </trkpt>
      <trkpt lat="42.60676" lon="1.70178">
        <ele>2319.7985839844</ele>
        <time>2011-06-19T08:38:06Z</time>
      </trkpt>
      <trkpt lat="42.60677" lon="1.70183">
        <ele>2320.279296875</ele>
        <time>2011-06-19T08:38:11Z</time>
      </trkpt>
      <trkpt lat="42.60677" lon="1.70186">
        <ele>2320.7600097656</ele>
        <time>2011-06-19T08:38:17Z</time>
      </trkpt>
      <trkpt lat="42.60677" lon="1.70192">
        <ele>2320.279296875</ele>
        <time>2011-06-19T08:38:23Z</time>
      </trkpt>
      <trkpt lat="42.60677" lon="1.70198">
        <ele>2319.7985839844</ele>
        <time>2011-06-19T08:38:30Z</time>
      </trkpt>
      <trkpt lat="42.60677" lon="1.70207">
        <ele>2320.279296875</ele>
        <time>2011-06-19T08:38:36Z</time>
      </trkpt>
      <trkpt lat="42.60677" lon="1.70213">
        <ele>2320.7600097656</ele>
        <time>2011-06-19T08:38:42Z</time>
      </trkpt>
      <trkpt lat="42.60675" lon="1.70222">
        <ele>2320.7600097656</ele>
        <time>2011-06-19T08:38:50Z</time>
      </trkpt>
      <trkpt lat="42.60677" lon="1.70232">
        <ele>2319.3181152344</ele>
        <time>2011-06-19T08:38:57Z</time>
      </trkpt>
      <trkpt lat="42.60677" lon="1.70233">
        <ele>2319.3181152344</ele>
        <time>2011-06-19T08:38:58Z</time>
      </trkpt>
      <trkpt lat="42.60677" lon="1.70241">
        <ele>2320.7600097656</ele>
        <time>2011-06-19T08:39:05Z</time>
      </trkpt>
      <trkpt lat="42.60674" lon="1.70248">
        <ele>2322.2019042969</ele>
        <time>2011-06-19T08:39:13Z</time>
      </trkpt>
      <trkpt lat="42.6067" lon="1.70251">
        <ele>2322.6826171875</ele>
        <time>2011-06-19T08:39:19Z</time>
      </trkpt>
      <trkpt lat="42.60666" lon="1.70252">
        <ele>2322.6826171875</ele>
        <time>2011-06-19T08:39:25Z</time>
      </trkpt>
      <trkpt lat="42.60664" lon="1.70254">
        <ele>2322.6826171875</ele>
        <time>2011-06-19T08:39:31Z</time>
      </trkpt>
      <trkpt lat="42.60662" lon="1.70257">
        <ele>2322.6826171875</ele>
        <time>2011-06-19T08:39:38Z</time>
      </trkpt>
      <trkpt lat="42.60664" lon="1.70261">
        <ele>2323.6437988281</ele>
        <time>2011-06-19T08:39:45Z</time>
      </trkpt>
      <trkpt lat="42.60664" lon="1.70263">
        <ele>2324.1245117188</ele>
        <time>2011-06-19T08:39:50Z</time>
      </trkpt>
      <trkpt lat="42.60667" lon="1.70265">
        <ele>2324.1245117188</ele>
        <time>2011-06-19T08:39:55Z</time>
      </trkpt>
      <trkpt lat="42.60667" lon="1.70269">
        <ele>2326.0471191406</ele>
        <time>2011-06-19T08:40:00Z</time>
      </trkpt>
      <trkpt lat="42.60666" lon="1.70273">
        <ele>2327.0085449219</ele>
        <time>2011-06-19T08:40:05Z</time>
      </trkpt>
      <trkpt lat="42.60666" lon="1.70277">
        <ele>2327.9697265625</ele>
        <time>2011-06-19T08:40:12Z</time>
      </trkpt>
      <trkpt lat="42.60664" lon="1.7028">
        <ele>2329.4116210938</ele>
        <time>2011-06-19T08:40:18Z</time>
      </trkpt>
      <trkpt lat="42.60662" lon="1.70283">
        <ele>2330.373046875</ele>
        <time>2011-06-19T08:40:24Z</time>
      </trkpt>
      <trkpt lat="42.60663" lon="1.70285">
        <ele>2330.8537597656</ele>
        <time>2011-06-19T08:40:30Z</time>
      </trkpt>
      <trkpt lat="42.60664" lon="1.70286">
        <ele>2330.8537597656</ele>
        <time>2011-06-19T08:40:38Z</time>
      </trkpt>
      <trkpt lat="42.60664" lon="1.70287">
        <ele>2331.3342285156</ele>
        <time>2011-06-19T08:40:45Z</time>
      </trkpt>
      <trkpt lat="42.60664" lon="1.7029">
        <ele>2332.2958984375</ele>
        <time>2011-06-19T08:40:51Z</time>
      </trkpt>
      <trkpt lat="42.60667" lon="1.70291">
        <ele>2332.7763671875</ele>
        <time>2011-06-19T08:40:57Z</time>
      </trkpt>
      <trkpt lat="42.60669" lon="1.70294">
        <ele>2333.7377929688</ele>
        <time>2011-06-19T08:41:02Z</time>
      </trkpt>
      <trkpt lat="42.60669" lon="1.70297">
        <ele>2334.69921875</ele>
        <time>2011-06-19T08:41:06Z</time>
      </trkpt>
      <trkpt lat="42.60668" lon="1.70301">
        <ele>2336.1411132812</ele>
        <time>2011-06-19T08:41:11Z</time>
      </trkpt>
      <trkpt lat="42.6067" lon="1.70303">
        <ele>2338.5444335938</ele>
        <time>2011-06-19T08:41:16Z</time>
      </trkpt>
      <trkpt lat="42.6067" lon="1.70306">
        <ele>2339.5056152344</ele>
        <time>2011-06-19T08:41:21Z</time>
      </trkpt>
      <trkpt lat="42.60669" lon="1.70308">
        <ele>2339.0249023438</ele>
        <time>2011-06-19T08:41:26Z</time>
      </trkpt>
      <trkpt lat="42.6067" lon="1.70311">
        <ele>2340.466796875</ele>
        <time>2011-06-19T08:41:33Z</time>
      </trkpt>
      <trkpt lat="42.60671" lon="1.70313">
        <ele>2339.986328125</ele>
        <time>2011-06-19T08:41:44Z</time>
      </trkpt>
      <trkpt lat="42.60673" lon="1.70317">
        <ele>2340.9475097656</ele>
        <time>2011-06-19T08:41:50Z</time>
      </trkpt>
      <trkpt lat="42.60674" lon="1.7032">
        <ele>2341.9089355469</ele>
        <time>2011-06-19T08:41:55Z</time>
      </trkpt>
      <trkpt lat="42.60677" lon="1.70322">
        <ele>2342.8701171875</ele>
        <time>2011-06-19T08:42:00Z</time>
      </trkpt>
      <trkpt lat="42.60678" lon="1.70326">
        <ele>2344.7927246094</ele>
        <time>2011-06-19T08:42:06Z</time>
      </trkpt>
      <trkpt lat="42.60682" lon="1.70328">
        <ele>2347.1960449219</ele>
        <time>2011-06-19T08:42:12Z</time>
      </trkpt>
      <trkpt lat="42.60682" lon="1.70334">
        <ele>2348.6381835938</ele>
        <time>2011-06-19T08:42:20Z</time>
      </trkpt>
      <trkpt lat="42.60683" lon="1.70337">
        <ele>2351.0415039062</ele>
        <time>2011-06-19T08:42:26Z</time>
      </trkpt>
      <trkpt lat="42.60685" lon="1.70339">
        <ele>2351.5222167969</ele>
        <time>2011-06-19T08:42:33Z</time>
      </trkpt>
      <trkpt lat="42.60686" lon="1.70342">
        <ele>2352.0026855469</ele>
        <time>2011-06-19T08:42:38Z</time>
      </trkpt>
      <trkpt lat="42.60688" lon="1.70346">
        <ele>2352.4833984375</ele>
        <time>2011-06-19T08:42:44Z</time>
      </trkpt>
      <trkpt lat="42.60691" lon="1.70348">
        <ele>2352.0026855469</ele>
        <time>2011-06-19T08:42:50Z</time>
      </trkpt>
      <trkpt lat="42.60692" lon="1.70353">
        <ele>2353.9255371094</ele>
        <time>2011-06-19T08:42:56Z</time>
      </trkpt>
      <trkpt lat="42.60694" lon="1.70359">
        <ele>2353.4448242188</ele>
        <time>2011-06-19T08:43:02Z</time>
      </trkpt>
      <trkpt lat="42.60695" lon="1.70361">
        <ele>2354.4060058594</ele>
        <time>2011-06-19T08:43:07Z</time>
      </trkpt>
      <trkpt lat="42.60697" lon="1.70364">
        <ele>2355.3674316406</ele>
        <time>2011-06-19T08:43:13Z</time>
      </trkpt>
      <trkpt lat="42.60698" lon="1.70368">
        <ele>2356.3286132812</ele>
        <time>2011-06-19T08:43:19Z</time>
      </trkpt>
      <trkpt lat="42.607" lon="1.7037">
        <ele>2357.2900390625</ele>
        <time>2011-06-19T08:43:25Z</time>
      </trkpt>
      <trkpt lat="42.60702" lon="1.70372">
        <ele>2358.7319335938</ele>
        <time>2011-06-19T08:43:31Z</time>
      </trkpt>
      <trkpt lat="42.60702" lon="1.70372">
        <ele>2361.1352539062</ele>
        <time>2011-06-19T08:43:37Z</time>
      </trkpt>
      <trkpt lat="42.60701" lon="1.7037">
        <ele>2366.4226074219</ele>
        <time>2011-06-19T08:43:54Z</time>
      </trkpt>
      <trkpt lat="42.60701" lon="1.7037">
        <ele>2366.4226074219</ele>
        <time>2011-06-19T08:44:00Z</time>
      </trkpt>
      <trkpt lat="42.60705" lon="1.70371">
        <ele>2365.9418945312</ele>
        <time>2011-06-19T08:44:07Z</time>
      </trkpt>
      <trkpt lat="42.60706" lon="1.70375">
        <ele>2366.9033203125</ele>
        <time>2011-06-19T08:44:12Z</time>
      </trkpt>
      <trkpt lat="42.60704" lon="1.70379">
        <ele>2367.8645019531</ele>
        <time>2011-06-19T08:44:18Z</time>
      </trkpt>
      <trkpt lat="42.60702" lon="1.70384">
        <ele>2369.306640625</ele>
        <time>2011-06-19T08:44:27Z</time>
      </trkpt>
      <trkpt lat="42.60702" lon="1.70388">
        <ele>2370.2678222656</ele>
        <time>2011-06-19T08:44:33Z</time>
      </trkpt>
      <trkpt lat="42.60701" lon="1.70392">
        <ele>2370.7485351562</ele>
        <time>2011-06-19T08:44:39Z</time>
      </trkpt>
      <trkpt lat="42.60702" lon="1.704">
        <ele>2371.7097167969</ele>
        <time>2011-06-19T08:44:46Z</time>
      </trkpt>
      <trkpt lat="42.60702" lon="1.70406">
        <ele>2372.6711425781</ele>
        <time>2011-06-19T08:44:52Z</time>
      </trkpt>
      <trkpt lat="42.60705" lon="1.70414">
        <ele>2374.59375</ele>
        <time>2011-06-19T08:45:01Z</time>
      </trkpt>
      <trkpt lat="42.60708" lon="1.7042">
        <ele>2376.0356445312</ele>
        <time>2011-06-19T08:45:09Z</time>
      </trkpt>
      <trkpt lat="42.60711" lon="1.70429">
        <ele>2376.5163574219</ele>
        <time>2011-06-19T08:45:17Z</time>
      </trkpt>
      <trkpt lat="42.60714" lon="1.70437">
        <ele>2376.9970703125</ele>
        <time>2011-06-19T08:45:24Z</time>
      </trkpt>
      <trkpt lat="42.60717" lon="1.70444">
        <ele>2377.9582519531</ele>
        <time>2011-06-19T08:45:31Z</time>
      </trkpt>
      <trkpt lat="42.6072" lon="1.70453">
        <ele>2377.4775390625</ele>
        <time>2011-06-19T08:45:38Z</time>
      </trkpt>
      <trkpt lat="42.60723" lon="1.70461">
        <ele>2376.9970703125</ele>
        <time>2011-06-19T08:45:44Z</time>
      </trkpt>
      <trkpt lat="42.60724" lon="1.7047">
        <ele>2376.9970703125</ele>
        <time>2011-06-19T08:45:51Z</time>
      </trkpt>
      <trkpt lat="42.60726" lon="1.70477">
        <ele>2376.5163574219</ele>
        <time>2011-06-19T08:45:57Z</time>
      </trkpt>
      <trkpt lat="42.60727" lon="1.70481">
        <ele>2375.5549316406</ele>
        <time>2011-06-19T08:46:01Z</time>
      </trkpt>
      <trkpt lat="42.60728" lon="1.70486">
        <ele>2374.59375</ele>
        <time>2011-06-19T08:46:06Z</time>
      </trkpt>
      <trkpt lat="42.6073" lon="1.70492">
        <ele>2373.1518554688</ele>
        <time>2011-06-19T08:46:12Z</time>
      </trkpt>
      <trkpt lat="42.60732" lon="1.70498">
        <ele>2372.1904296875</ele>
        <time>2011-06-19T08:46:17Z</time>
      </trkpt>
      <trkpt lat="42.60734" lon="1.70505">
        <ele>2370.7485351562</ele>
        <time>2011-06-19T08:46:25Z</time>
      </trkpt>
      <trkpt lat="42.60735" lon="1.70511">
        <ele>2369.306640625</ele>
        <time>2011-06-19T08:46:32Z</time>
      </trkpt>
      <trkpt lat="42.60735" lon="1.70516">
        <ele>2368.8259277344</ele>
        <time>2011-06-19T08:46:37Z</time>
      </trkpt>
      <trkpt lat="42.60735" lon="1.70519">
        <ele>2367.8645019531</ele>
        <time>2011-06-19T08:46:44Z</time>
      </trkpt>
      <trkpt lat="42.60734" lon="1.70523">
        <ele>2366.9033203125</ele>
        <time>2011-06-19T08:46:49Z</time>
      </trkpt>
      <trkpt lat="42.60733" lon="1.70528">
        <ele>2365.9418945312</ele>
        <time>2011-06-19T08:46:56Z</time>
      </trkpt>
      <trkpt lat="42.60733" lon="1.70531">
        <ele>2364.9807128906</ele>
        <time>2011-06-19T08:47:07Z</time>
      </trkpt>
      <trkpt lat="42.60732" lon="1.70537">
        <ele>2363.5383300781</ele>
        <time>2011-06-19T08:47:12Z</time>
      </trkpt>
      <trkpt lat="42.6073" lon="1.70542">
        <ele>2361.6159667969</ele>
        <time>2011-06-19T08:47:19Z</time>
      </trkpt>
      <trkpt lat="42.60729" lon="1.70543">
        <ele>2361.6159667969</ele>
        <time>2011-06-19T08:47:26Z</time>
      </trkpt>
      <trkpt lat="42.60728" lon="1.70549">
        <ele>2359.2126464844</ele>
        <time>2011-06-19T08:47:33Z</time>
      </trkpt>
      <trkpt lat="42.60726" lon="1.70555">
        <ele>2356.8093261719</ele>
        <time>2011-06-19T08:47:39Z</time>
      </trkpt>
      <trkpt lat="42.60725" lon="1.70559">
        <ele>2355.8479003906</ele>
        <time>2011-06-19T08:47:45Z</time>
      </trkpt>
      <trkpt lat="42.60723" lon="1.70566">
        <ele>2353.4448242188</ele>
        <time>2011-06-19T08:47:53Z</time>
      </trkpt>
      <trkpt lat="42.60722" lon="1.70573">
        <ele>2351.5222167969</ele>
        <time>2011-06-19T08:48:01Z</time>
      </trkpt>
      <trkpt lat="42.60721" lon="1.70574">
        <ele>2351.0415039062</ele>
        <time>2011-06-19T08:48:06Z</time>
      </trkpt>
      <trkpt lat="42.6072" lon="1.70576">
        <ele>2350.0803222656</ele>
        <time>2011-06-19T08:48:12Z</time>
      </trkpt>
      <trkpt lat="42.60714" lon="1.70582">
        <ele>2348.1574707031</ele>
        <time>2011-06-19T08:48:20Z</time>
      </trkpt>
      <trkpt lat="42.60712" lon="1.70586">
        <ele>2346.7153320312</ele>
        <time>2011-06-19T08:48:28Z</time>
      </trkpt>
      <trkpt lat="42.60709" lon="1.70592">
        <ele>2345.2734375</ele>
        <time>2011-06-19T08:48:34Z</time>
      </trkpt>
      <trkpt lat="42.60707" lon="1.70596">
        <ele>2344.3120117188</ele>
        <time>2011-06-19T08:48:39Z</time>
      </trkpt>
      <trkpt lat="42.60705" lon="1.70597">
        <ele>2343.3508300781</ele>
        <time>2011-06-19T08:48:45Z</time>
      </trkpt>
      <trkpt lat="42.60705" lon="1.70599">
        <ele>2342.3896484375</ele>
        <time>2011-06-19T08:48:50Z</time>
      </trkpt>
      <trkpt lat="42.60705" lon="1.70598">
        <ele>2342.3896484375</ele>
        <time>2011-06-19T08:48:57Z</time>
      </trkpt>
      <trkpt lat="42.60704" lon="1.706">
        <ele>2340.9475097656</ele>
        <time>2011-06-19T08:49:09Z</time>
      </trkpt>
      <trkpt lat="42.60701" lon="1.70605">
        <ele>2339.5056152344</ele>
        <time>2011-06-19T08:49:15Z</time>
      </trkpt>
      <trkpt lat="42.60699" lon="1.70607">
        <ele>2339.0249023438</ele>
        <time>2011-06-19T08:49:21Z</time>
      </trkpt>
      <trkpt lat="42.60699" lon="1.70609">
        <ele>2339.0249023438</ele>
        <time>2011-06-19T08:49:28Z</time>
      </trkpt>
      <trkpt lat="42.60699" lon="1.70614">
        <ele>2338.5444335938</ele>
        <time>2011-06-19T08:49:36Z</time>
      </trkpt>
      <trkpt lat="42.60699" lon="1.70614">
        <ele>2337.5830078125</ele>
        <time>2011-06-19T08:49:42Z</time>
      </trkpt>
      <trkpt lat="42.60703" lon="1.70615">
        <ele>2336.6215820312</ele>
        <time>2011-06-19T08:49:49Z</time>
      </trkpt>
      <trkpt lat="42.60709" lon="1.70618">
        <ele>2335.6604003906</ele>
        <time>2011-06-19T08:49:57Z</time>
      </trkpt>
      <trkpt lat="42.60715" lon="1.70621">
        <ele>2334.2185058594</ele>
        <time>2011-06-19T08:50:04Z</time>
      </trkpt>
      <trkpt lat="42.60717" lon="1.70622">
        <ele>2333.7377929688</ele>
        <time>2011-06-19T08:50:06Z</time>
      </trkpt>
      <trkpt lat="42.60722" lon="1.70626">
        <ele>2332.7763671875</ele>
        <time>2011-06-19T08:50:13Z</time>
      </trkpt>
      <trkpt lat="42.60728" lon="1.70625">
        <ele>2332.2958984375</ele>
        <time>2011-06-19T08:50:20Z</time>
      </trkpt>
      <trkpt lat="42.60734" lon="1.70627">
        <ele>2332.2958984375</ele>
        <time>2011-06-19T08:50:28Z</time>
      </trkpt>
      <trkpt lat="42.60737" lon="1.70629">
        <ele>2330.8537597656</ele>
        <time>2011-06-19T08:50:35Z</time>
      </trkpt>
      <trkpt lat="42.60738" lon="1.70628">
        <ele>2330.373046875</ele>
        <time>2011-06-19T08:50:40Z</time>
      </trkpt>
      <trkpt lat="42.60738" lon="1.70626">
        <ele>2331.8149414062</ele>
        <time>2011-06-19T08:50:48Z</time>
      </trkpt>
      <trkpt lat="42.6074" lon="1.70628">
        <ele>2330.8537597656</ele>
        <time>2011-06-19T08:50:53Z</time>
      </trkpt>
      <trkpt lat="42.60744" lon="1.70631">
        <ele>2329.4116210938</ele>
        <time>2011-06-19T08:50:59Z</time>
      </trkpt>
      <trkpt lat="42.60748" lon="1.70633">
        <ele>2327.9697265625</ele>
        <time>2011-06-19T08:51:05Z</time>
      </trkpt>
      <trkpt lat="42.60749" lon="1.70634">
        <ele>2327.9697265625</ele>
        <time>2011-06-19T08:51:10Z</time>
      </trkpt>
      <trkpt lat="42.60749" lon="1.70634">
        <ele>2332.7763671875</ele>
        <time>2011-06-19T08:51:54Z</time>
      </trkpt>
      <trkpt lat="42.60749" lon="1.70634">
        <ele>2334.2185058594</ele>
        <time>2011-06-19T08:52:08Z</time>
      </trkpt>
      <trkpt lat="42.6075" lon="1.70638">
        <ele>2328.9309082031</ele>
        <time>2011-06-19T08:52:21Z</time>
      </trkpt>
      <trkpt lat="42.60748" lon="1.70646">
        <ele>2327.9697265625</ele>
        <time>2011-06-19T08:52:27Z</time>
      </trkpt>
      <trkpt lat="42.60748" lon="1.7065">
        <ele>2327.4890136719</ele>
        <time>2011-06-19T08:52:30Z</time>
      </trkpt>
      <trkpt lat="42.60745" lon="1.70662">
        <ele>2325.56640625</ele>
        <time>2011-06-19T08:52:38Z</time>
      </trkpt>
      <trkpt lat="42.60743" lon="1.70666">
        <ele>2325.0856933594</ele>
        <time>2011-06-19T08:52:42Z</time>
      </trkpt>
      <trkpt lat="42.60739" lon="1.70675">
        <ele>2324.1245117188</ele>
        <time>2011-06-19T08:52:49Z</time>
      </trkpt>
      <trkpt lat="42.60735" lon="1.70681">
        <ele>2324.6052246094</ele>
        <time>2011-06-19T08:52:55Z</time>
      </trkpt>
      <trkpt lat="42.60731" lon="1.7069">
        <ele>2324.6052246094</ele>
        <time>2011-06-19T08:53:01Z</time>
      </trkpt>
      <trkpt lat="42.60726" lon="1.70698">
        <ele>2325.0856933594</ele>
        <time>2011-06-19T08:53:08Z</time>
      </trkpt>
      <trkpt lat="42.60721" lon="1.70707">
        <ele>2325.0856933594</ele>
        <time>2011-06-19T08:53:15Z</time>
      </trkpt>
      <trkpt lat="42.60716" lon="1.70717">
        <ele>2325.0856933594</ele>
        <time>2011-06-19T08:53:22Z</time>
      </trkpt>
      <trkpt lat="42.6071" lon="1.70729">
        <ele>2325.56640625</ele>
        <time>2011-06-19T08:53:30Z</time>
      </trkpt>
      <trkpt lat="42.60705" lon="1.70736">
        <ele>2325.0856933594</ele>
        <time>2011-06-19T08:53:37Z</time>
      </trkpt>
      <trkpt lat="42.60699" lon="1.70745">
        <ele>2324.6052246094</ele>
        <time>2011-06-19T08:53:44Z</time>
      </trkpt>
      <trkpt lat="42.60699" lon="1.70746">
        <ele>2324.6052246094</ele>
        <time>2011-06-19T08:53:45Z</time>
      </trkpt>
      <trkpt lat="42.60691" lon="1.70752">
        <ele>2323.6437988281</ele>
        <time>2011-06-19T08:53:52Z</time>
      </trkpt>
      <trkpt lat="42.60688" lon="1.70754">
        <ele>2322.6826171875</ele>
        <time>2011-06-19T08:53:56Z</time>
      </trkpt>
      <trkpt lat="42.60684" lon="1.7076">
        <ele>2322.6826171875</ele>
        <time>2011-06-19T08:54:02Z</time>
      </trkpt>
      <trkpt lat="42.6068" lon="1.70763">
        <ele>2322.6826171875</ele>
        <time>2011-06-19T08:54:06Z</time>
      </trkpt>
      <trkpt lat="42.60674" lon="1.70769">
        <ele>2322.6826171875</ele>
        <time>2011-06-19T08:54:13Z</time>
      </trkpt>
      <trkpt lat="42.60669" lon="1.70775">
        <ele>2322.2019042969</ele>
        <time>2011-06-19T08:54:20Z</time>
      </trkpt>
      <trkpt lat="42.60667" lon="1.70778">
        <ele>2322.6826171875</ele>
        <time>2011-06-19T08:54:23Z</time>
      </trkpt>
      <trkpt lat="42.60666" lon="1.70789">
        <ele>2324.1245117188</ele>
        <time>2011-06-19T08:54:31Z</time>
      </trkpt>
      <trkpt lat="42.60669" lon="1.70801">
        <ele>2324.1245117188</ele>
        <time>2011-06-19T08:54:38Z</time>
      </trkpt>
      <trkpt lat="42.60672" lon="1.7081">
        <ele>2325.0856933594</ele>
        <time>2011-06-19T08:54:45Z</time>
      </trkpt>
      <trkpt lat="42.60677" lon="1.70821">
        <ele>2325.0856933594</ele>
        <time>2011-06-19T08:54:53Z</time>
      </trkpt>
      <trkpt lat="42.60678" lon="1.7083">
        <ele>2326.0471191406</ele>
        <time>2011-06-19T08:55:00Z</time>
      </trkpt>
      <trkpt lat="42.60678" lon="1.70831">
        <ele>2326.5278320312</ele>
        <time>2011-06-19T08:55:01Z</time>
      </trkpt>
      <trkpt lat="42.60683" lon="1.70836">
        <ele>2327.9697265625</ele>
        <time>2011-06-19T08:55:08Z</time>
      </trkpt>
      <trkpt lat="42.60687" lon="1.70842">
        <ele>2328.9309082031</ele>
        <time>2011-06-19T08:55:16Z</time>
      </trkpt>
      <trkpt lat="42.60689" lon="1.70846">
        <ele>2330.373046875</ele>
        <time>2011-06-19T08:55:22Z</time>
      </trkpt>
      <trkpt lat="42.6069" lon="1.70846">
        <ele>2329.8923339844</ele>
        <time>2011-06-19T08:55:27Z</time>
      </trkpt>
      <trkpt lat="42.60692" lon="1.70848">
        <ele>2329.4116210938</ele>
        <time>2011-06-19T08:55:36Z</time>
      </trkpt>
      <trkpt lat="42.60694" lon="1.70852">
        <ele>2330.373046875</ele>
        <time>2011-06-19T08:55:43Z</time>
      </trkpt>
      <trkpt lat="42.60696" lon="1.70855">
        <ele>2330.8537597656</ele>
        <time>2011-06-19T08:55:47Z</time>
      </trkpt>
      <trkpt lat="42.60697" lon="1.7086">
        <ele>2331.8149414062</ele>
        <time>2011-06-19T08:55:53Z</time>
      </trkpt>
      <trkpt lat="42.60695" lon="1.70865">
        <ele>2333.2570800781</ele>
        <time>2011-06-19T08:56:00Z</time>
      </trkpt>
      <trkpt lat="42.60694" lon="1.70868">
        <ele>2334.2185058594</ele>
        <time>2011-06-19T08:56:06Z</time>
      </trkpt>
      <trkpt lat="42.60692" lon="1.70868">
        <ele>2334.69921875</ele>
        <time>2011-06-19T08:56:11Z</time>
      </trkpt>
      <trkpt lat="42.60688" lon="1.70869">
        <ele>2335.6604003906</ele>
        <time>2011-06-19T08:56:18Z</time>
      </trkpt>
      <trkpt lat="42.60685" lon="1.70869">
        <ele>2336.6215820312</ele>
        <time>2011-06-19T08:56:23Z</time>
      </trkpt>
      <trkpt lat="42.60682" lon="1.7087">
        <ele>2337.5830078125</ele>
        <time>2011-06-19T08:56:29Z</time>
      </trkpt>
      <trkpt lat="42.60682" lon="1.70872">
        <ele>2339.0249023438</ele>
        <time>2011-06-19T08:56:37Z</time>
      </trkpt>
      <trkpt lat="42.60682" lon="1.70874">
        <ele>2339.0249023438</ele>
        <time>2011-06-19T08:56:41Z</time>
      </trkpt>
      <trkpt lat="42.60683" lon="1.70877">
        <ele>2340.466796875</ele>
        <time>2011-06-19T08:56:48Z</time>
      </trkpt>
      <trkpt lat="42.60681" lon="1.70877">
        <ele>2341.4282226562</ele>
        <time>2011-06-19T08:56:54Z</time>
      </trkpt>
      <trkpt lat="42.60679" lon="1.70879">
        <ele>2342.3896484375</ele>
        <time>2011-06-19T08:56:59Z</time>
      </trkpt>
      <trkpt lat="42.60678" lon="1.7088">
        <ele>2343.8315429688</ele>
        <time>2011-06-19T08:57:06Z</time>
      </trkpt>
      <trkpt lat="42.60677" lon="1.70883">
        <ele>2345.2734375</ele>
        <time>2011-06-19T08:57:12Z</time>
      </trkpt>
      <trkpt lat="42.60678" lon="1.70888">
        <ele>2347.1960449219</ele>
        <time>2011-06-19T08:57:18Z</time>
      </trkpt>
      <trkpt lat="42.60678" lon="1.70891">
        <ele>2348.6381835938</ele>
        <time>2011-06-19T08:57:26Z</time>
      </trkpt>
      <trkpt lat="42.60678" lon="1.70895">
        <ele>2350.0803222656</ele>
        <time>2011-06-19T08:57:31Z</time>
      </trkpt>
      <trkpt lat="42.60677" lon="1.70896">
        <ele>2350.5607910156</ele>
        <time>2011-06-19T08:57:36Z</time>
      </trkpt>
      <trkpt lat="42.60677" lon="1.709">
        <ele>2352.0026855469</ele>
        <time>2011-06-19T08:57:42Z</time>
      </trkpt>
      <trkpt lat="42.60678" lon="1.70903">
        <ele>2352.4833984375</ele>
        <time>2011-06-19T08:57:49Z</time>
      </trkpt>
      <trkpt lat="42.60678" lon="1.70905">
        <ele>2352.9641113281</ele>
        <time>2011-06-19T08:57:56Z</time>
      </trkpt>
      <trkpt lat="42.60677" lon="1.70908">
        <ele>2353.9255371094</ele>
        <time>2011-06-19T08:58:01Z</time>
      </trkpt>
      <trkpt lat="42.60675" lon="1.70914">
        <ele>2353.4448242188</ele>
        <time>2011-06-19T08:58:07Z</time>
      </trkpt>
      <trkpt lat="42.60675" lon="1.70919">
        <ele>2354.4060058594</ele>
        <time>2011-06-19T08:58:13Z</time>
      </trkpt>
      <trkpt lat="42.60674" lon="1.70927">
        <ele>2353.9255371094</ele>
        <time>2011-06-19T08:58:20Z</time>
      </trkpt>
      <trkpt lat="42.60674" lon="1.70929">
        <ele>2352.9641113281</ele>
        <time>2011-06-19T08:58:23Z</time>
      </trkpt>
      <trkpt lat="42.60674" lon="1.70933">
        <ele>2352.9641113281</ele>
        <time>2011-06-19T08:58:25Z</time>
      </trkpt>
      <trkpt lat="42.60672" lon="1.70938">
        <ele>2353.4448242188</ele>
        <time>2011-06-19T08:58:33Z</time>
      </trkpt>
      <trkpt lat="42.60672" lon="1.70944">
        <ele>2353.4448242188</ele>
        <time>2011-06-19T08:58:40Z</time>
      </trkpt>
      <trkpt lat="42.60672" lon="1.70951">
        <ele>2353.9255371094</ele>
        <time>2011-06-19T08:58:49Z</time>
      </trkpt>
      <trkpt lat="42.60672" lon="1.70954">
        <ele>2353.4448242188</ele>
        <time>2011-06-19T08:58:57Z</time>
      </trkpt>
      <trkpt lat="42.60674" lon="1.70959">
        <ele>2352.9641113281</ele>
        <time>2011-06-19T08:59:05Z</time>
      </trkpt>
      <trkpt lat="42.60675" lon="1.70965">
        <ele>2352.0026855469</ele>
        <time>2011-06-19T08:59:11Z</time>
      </trkpt>
      <trkpt lat="42.60676" lon="1.70971">
        <ele>2350.0803222656</ele>
        <time>2011-06-19T08:59:18Z</time>
      </trkpt>
      <trkpt lat="42.60675" lon="1.70976">
        <ele>2348.1574707031</ele>
        <time>2011-06-19T08:59:24Z</time>
      </trkpt>
      <trkpt lat="42.60673" lon="1.70977">
        <ele>2347.1960449219</ele>
        <time>2011-06-19T08:59:30Z</time>
      </trkpt>
      <trkpt lat="42.60671" lon="1.70976">
        <ele>2345.7541503906</ele>
        <time>2011-06-19T08:59:36Z</time>
      </trkpt>
      <trkpt lat="42.60669" lon="1.70981">
        <ele>2343.8315429688</ele>
        <time>2011-06-19T08:59:42Z</time>
      </trkpt>
      <trkpt lat="42.60668" lon="1.70983">
        <ele>2343.3508300781</ele>
        <time>2011-06-19T08:59:44Z</time>
      </trkpt>
      <trkpt lat="42.60666" lon="1.70991">
        <ele>2343.3508300781</ele>
        <time>2011-06-19T08:59:52Z</time>
      </trkpt>
      <trkpt lat="42.60666" lon="1.70995">
        <ele>2343.3508300781</ele>
        <time>2011-06-19T08:59:59Z</time>
      </trkpt>
      <trkpt lat="42.60662" lon="1.70998">
        <ele>2342.8701171875</ele>
        <time>2011-06-19T09:00:06Z</time>
      </trkpt>
      <trkpt lat="42.60661" lon="1.71005">
        <ele>2341.9089355469</ele>
        <time>2011-06-19T09:00:13Z</time>
      </trkpt>
      <trkpt lat="42.60662" lon="1.71013">
        <ele>2340.9475097656</ele>
        <time>2011-06-19T09:00:20Z</time>
      </trkpt>
      <trkpt lat="42.60664" lon="1.71022">
        <ele>2338.5444335938</ele>
        <time>2011-06-19T09:00:27Z</time>
      </trkpt>
      <trkpt lat="42.60662" lon="1.71032">
        <ele>2336.1411132812</ele>
        <time>2011-06-19T09:00:34Z</time>
      </trkpt>
      <trkpt lat="42.60662" lon="1.71034">
        <ele>2335.6604003906</ele>
        <time>2011-06-19T09:00:36Z</time>
      </trkpt>
      <trkpt lat="42.60663" lon="1.71037">
        <ele>2334.2185058594</ele>
        <time>2011-06-19T09:00:41Z</time>
      </trkpt>
      <trkpt lat="42.60666" lon="1.71042">
        <ele>2332.2958984375</ele>
        <time>2011-06-19T09:00:46Z</time>
      </trkpt>
      <trkpt lat="42.60665" lon="1.71047">
        <ele>2330.373046875</ele>
        <time>2011-06-19T09:00:51Z</time>
      </trkpt>
      <trkpt lat="42.60663" lon="1.7105">
        <ele>2327.9697265625</ele>
        <time>2011-06-19T09:00:56Z</time>
      </trkpt>
      <trkpt lat="42.60664" lon="1.71056">
        <ele>2326.0471191406</ele>
        <time>2011-06-19T09:01:02Z</time>
      </trkpt>
      <trkpt lat="42.60667" lon="1.71061">
        <ele>2325.0856933594</ele>
        <time>2011-06-19T09:01:08Z</time>
      </trkpt>
      <trkpt lat="42.60669" lon="1.71065">
        <ele>2325.56640625</ele>
        <time>2011-06-19T09:01:15Z</time>
      </trkpt>
      <trkpt lat="42.60672" lon="1.71067">
        <ele>2326.5278320312</ele>
        <time>2011-06-19T09:01:21Z</time>
      </trkpt>
      <trkpt lat="42.60673" lon="1.71068">
        <ele>2327.0085449219</ele>
        <time>2011-06-19T09:01:36Z</time>
      </trkpt>
      <trkpt lat="42.60674" lon="1.71072">
        <ele>2327.0085449219</ele>
        <time>2011-06-19T09:01:43Z</time>
      </trkpt>
      <trkpt lat="42.60677" lon="1.71076">
        <ele>2327.0085449219</ele>
        <time>2011-06-19T09:01:51Z</time>
      </trkpt>
      <trkpt lat="42.60678" lon="1.71079">
        <ele>2325.0856933594</ele>
        <time>2011-06-19T09:01:58Z</time>
      </trkpt>
      <trkpt lat="42.60681" lon="1.71087">
        <ele>2322.6826171875</ele>
        <time>2011-06-19T09:02:05Z</time>
      </trkpt>
      <trkpt lat="42.60681" lon="1.71094">
        <ele>2320.7600097656</ele>
        <time>2011-06-19T09:02:10Z</time>
      </trkpt>
      <trkpt lat="42.60681" lon="1.711">
        <ele>2318.8374023438</ele>
        <time>2011-06-19T09:02:15Z</time>
      </trkpt>
      <trkpt lat="42.60681" lon="1.71107">
        <ele>2315.953125</ele>
        <time>2011-06-19T09:02:21Z</time>
      </trkpt>
      <trkpt lat="42.6068" lon="1.71112">
        <ele>2314.5112304688</ele>
        <time>2011-06-19T09:02:25Z</time>
      </trkpt>
      <trkpt lat="42.6068" lon="1.71117">
        <ele>2312.5886230469</ele>
        <time>2011-06-19T09:02:30Z</time>
      </trkpt>
      <trkpt lat="42.60678" lon="1.71121">
        <ele>2310.1853027344</ele>
        <time>2011-06-19T09:02:36Z</time>
      </trkpt>
      <trkpt lat="42.60677" lon="1.71126">
        <ele>2309.2241210938</ele>
        <time>2011-06-19T09:02:41Z</time>
      </trkpt>
      <trkpt lat="42.60676" lon="1.71135">
        <ele>2307.3015136719</ele>
        <time>2011-06-19T09:02:47Z</time>
      </trkpt>
      <trkpt lat="42.60675" lon="1.71137">
        <ele>2305.859375</ele>
        <time>2011-06-19T09:02:52Z</time>
      </trkpt>
      <trkpt lat="42.60672" lon="1.7114">
        <ele>2304.8981933594</ele>
        <time>2011-06-19T09:02:57Z</time>
      </trkpt>
      <trkpt lat="42.6067" lon="1.71142">
        <ele>2303.9370117188</ele>
        <time>2011-06-19T09:03:02Z</time>
      </trkpt>
      <trkpt lat="42.60668" lon="1.71145">
        <ele>2302.4948730469</ele>
        <time>2011-06-19T09:03:07Z</time>
      </trkpt>
      <trkpt lat="42.60667" lon="1.71149">
        <ele>2301.0529785156</ele>
        <time>2011-06-19T09:03:12Z</time>
      </trkpt>
      <trkpt lat="42.60663" lon="1.71149">
        <ele>2300.091796875</ele>
        <time>2011-06-19T09:03:17Z</time>
      </trkpt>
      <trkpt lat="42.60657" lon="1.7115">
        <ele>2298.1687011719</ele>
        <time>2011-06-19T09:03:23Z</time>
      </trkpt>
      <trkpt lat="42.60654" lon="1.71152">
        <ele>2298.1687011719</ele>
        <time>2011-06-19T09:03:26Z</time>
      </trkpt>
      <trkpt lat="42.60651" lon="1.71156">
        <ele>2296.7268066406</ele>
        <time>2011-06-19T09:03:30Z</time>
      </trkpt>
      <trkpt lat="42.60649" lon="1.7116">
        <ele>2294.8041992188</ele>
        <time>2011-06-19T09:03:36Z</time>
      </trkpt>
      <trkpt lat="42.60648" lon="1.71166">
        <ele>2292.8815917969</ele>
        <time>2011-06-19T09:03:42Z</time>
      </trkpt>
      <trkpt lat="42.60647" lon="1.71171">
        <ele>2290.4782714844</ele>
        <time>2011-06-19T09:03:49Z</time>
      </trkpt>
      <trkpt lat="42.60649" lon="1.71177">
        <ele>2286.6330566406</ele>
        <time>2011-06-19T09:03:55Z</time>
      </trkpt>
      <trkpt lat="42.60648" lon="1.7118">
        <ele>2285.1911621094</ele>
        <time>2011-06-19T09:04:00Z</time>
      </trkpt>
      <trkpt lat="42.60644" lon="1.71182">
        <ele>2283.7490234375</ele>
        <time>2011-06-19T09:04:07Z</time>
      </trkpt>
      <trkpt lat="42.60641" lon="1.71184">
        <ele>2281.8264160156</ele>
        <time>2011-06-19T09:04:12Z</time>
      </trkpt>
      <trkpt lat="42.60641" lon="1.71186">
        <ele>2280.865234375</ele>
        <time>2011-06-19T09:04:17Z</time>
      </trkpt>
      <trkpt lat="42.60641" lon="1.71191">
        <ele>2278.9423828125</ele>
        <time>2011-06-19T09:04:23Z</time>
      </trkpt>
      <trkpt lat="42.60639" lon="1.71196">
        <ele>2277.5004882812</ele>
        <time>2011-06-19T09:04:30Z</time>
      </trkpt>
      <trkpt lat="42.60635" lon="1.71199">
        <ele>2276.05859375</ele>
        <time>2011-06-19T09:04:36Z</time>
      </trkpt>
      <trkpt lat="42.6063" lon="1.71203">
        <ele>2274.1359863281</ele>
        <time>2011-06-19T09:04:41Z</time>
      </trkpt>
      <trkpt lat="42.6063" lon="1.71208">
        <ele>2273.1748046875</ele>
        <time>2011-06-19T09:04:46Z</time>
      </trkpt>
      <trkpt lat="42.6063" lon="1.7121">
        <ele>2272.6940917969</ele>
        <time>2011-06-19T09:04:47Z</time>
      </trkpt>
      <trkpt lat="42.6063" lon="1.71221">
        <ele>2271.251953125</ele>
        <time>2011-06-19T09:04:53Z</time>
      </trkpt>
      <trkpt lat="42.60629" lon="1.71223">
        <ele>2271.251953125</ele>
        <time>2011-06-19T09:04:54Z</time>
      </trkpt>
      <trkpt lat="42.60629" lon="1.71233">
        <ele>2271.251953125</ele>
        <time>2011-06-19T09:05:00Z</time>
      </trkpt>
      <trkpt lat="42.60628" lon="1.71246">
        <ele>2269.8100585938</ele>
        <time>2011-06-19T09:05:07Z</time>
      </trkpt>
      <trkpt lat="42.60631" lon="1.71258">
        <ele>2269.3295898438</ele>
        <time>2011-06-19T09:05:15Z</time>
      </trkpt>
      <trkpt lat="42.60631" lon="1.71269">
        <ele>2267.4064941406</ele>
        <time>2011-06-19T09:05:21Z</time>
      </trkpt>
      <trkpt lat="42.6063" lon="1.71277">
        <ele>2267.4064941406</ele>
        <time>2011-06-19T09:05:26Z</time>
      </trkpt>
      <trkpt lat="42.60633" lon="1.71283">
        <ele>2267.4064941406</ele>
        <time>2011-06-19T09:05:32Z</time>
      </trkpt>
      <trkpt lat="42.60635" lon="1.71291">
        <ele>2267.4064941406</ele>
        <time>2011-06-19T09:05:38Z</time>
      </trkpt>
      <trkpt lat="42.60635" lon="1.71299">
        <ele>2267.4064941406</ele>
        <time>2011-06-19T09:05:43Z</time>
      </trkpt>
      <trkpt lat="42.60637" lon="1.71311">
        <ele>2266.4453125</ele>
        <time>2011-06-19T09:05:51Z</time>
      </trkpt>
      <trkpt lat="42.60641" lon="1.71319">
        <ele>2266.9260253906</ele>
        <time>2011-06-19T09:05:58Z</time>
      </trkpt>
      <trkpt lat="42.60649" lon="1.71321">
        <ele>2268.3681640625</ele>
        <time>2011-06-19T09:06:05Z</time>
      </trkpt>
      <trkpt lat="42.60656" lon="1.71331">
        <ele>2269.3295898438</ele>
        <time>2011-06-19T09:06:13Z</time>
      </trkpt>
      <trkpt lat="42.60662" lon="1.71337">
        <ele>2269.3295898438</ele>
        <time>2011-06-19T09:06:19Z</time>
      </trkpt>
      <trkpt lat="42.60669" lon="1.71343">
        <ele>2269.3295898438</ele>
        <time>2011-06-19T09:06:26Z</time>
      </trkpt>
      <trkpt lat="42.60673" lon="1.71347">
        <ele>2270.2907714844</ele>
        <time>2011-06-19T09:06:30Z</time>
      </trkpt>
      <trkpt lat="42.60674" lon="1.71358">
        <ele>2270.771484375</ele>
        <time>2011-06-19T09:06:37Z</time>
      </trkpt>
      <trkpt lat="42.60675" lon="1.71367">
        <ele>2271.251953125</ele>
        <time>2011-06-19T09:06:44Z</time>
      </trkpt>
      <trkpt lat="42.60677" lon="1.7138">
        <ele>2271.7326660156</ele>
        <time>2011-06-19T09:06:52Z</time>
      </trkpt>
      <trkpt lat="42.60677" lon="1.71381">
        <ele>2271.7326660156</ele>
        <time>2011-06-19T09:06:53Z</time>
      </trkpt>
      <trkpt lat="42.60673" lon="1.71391">
        <ele>2272.6940917969</ele>
        <time>2011-06-19T09:07:00Z</time>
      </trkpt>
      <trkpt lat="42.60672" lon="1.71394">
        <ele>2272.2133789062</ele>
        <time>2011-06-19T09:07:02Z</time>
      </trkpt>
      <trkpt lat="42.60669" lon="1.714">
        <ele>2272.6940917969</ele>
        <time>2011-06-19T09:07:08Z</time>
      </trkpt>
      <trkpt lat="42.60669" lon="1.71407">
        <ele>2274.6166992188</ele>
        <time>2011-06-19T09:07:15Z</time>
      </trkpt>
      <trkpt lat="42.60674" lon="1.71412">
        <ele>2277.0200195312</ele>
        <time>2011-06-19T09:07:23Z</time>
      </trkpt>
      <trkpt lat="42.60677" lon="1.71413">
        <ele>2278.9423828125</ele>
        <time>2011-06-19T09:07:28Z</time>
      </trkpt>
      <trkpt lat="42.60678" lon="1.71416">
        <ele>2279.9038085938</ele>
        <time>2011-06-19T09:07:33Z</time>
      </trkpt>
      <trkpt lat="42.6068" lon="1.7142">
        <ele>2281.345703125</ele>
        <time>2011-06-19T09:07:39Z</time>
      </trkpt>
      <trkpt lat="42.60683" lon="1.71422">
        <ele>2281.8264160156</ele>
        <time>2011-06-19T09:07:45Z</time>
      </trkpt>
      <trkpt lat="42.60685" lon="1.71422">
        <ele>2283.2683105469</ele>
        <time>2011-06-19T09:07:50Z</time>
      </trkpt>
      <trkpt lat="42.60689" lon="1.7142">
        <ele>2284.2299804688</ele>
        <time>2011-06-19T09:07:56Z</time>
      </trkpt>
      <trkpt lat="42.60693" lon="1.71421">
        <ele>2285.671875</ele>
        <time>2011-06-19T09:08:02Z</time>
      </trkpt>
      <trkpt lat="42.60696" lon="1.71428">
        <ele>2286.1525878906</ele>
        <time>2011-06-19T09:08:09Z</time>
      </trkpt>
      <trkpt lat="42.60698" lon="1.71432">
        <ele>2287.5944824219</ele>
        <time>2011-06-19T09:08:15Z</time>
      </trkpt>
      <trkpt lat="42.60702" lon="1.71435">
        <ele>2287.1137695312</ele>
        <time>2011-06-19T09:08:22Z</time>
      </trkpt>
      <trkpt lat="42.60706" lon="1.71439">
        <ele>2287.1137695312</ele>
        <time>2011-06-19T09:08:28Z</time>
      </trkpt>
      <trkpt lat="42.6071" lon="1.7144">
        <ele>2287.5944824219</ele>
        <time>2011-06-19T09:08:34Z</time>
      </trkpt>
      <trkpt lat="42.60713" lon="1.71444">
        <ele>2289.0363769531</ele>
        <time>2011-06-19T09:08:41Z</time>
      </trkpt>
      <trkpt lat="42.60716" lon="1.7145">
        <ele>2290.958984375</ele>
        <time>2011-06-19T09:08:48Z</time>
      </trkpt>
      <trkpt lat="42.60714" lon="1.71452">
        <ele>2291.4396972656</ele>
        <time>2011-06-19T09:08:52Z</time>
      </trkpt>
      <trkpt lat="42.60713" lon="1.71457">
        <ele>2291.4396972656</ele>
        <time>2011-06-19T09:08:58Z</time>
      </trkpt>
      <trkpt lat="42.60717" lon="1.71462">
        <ele>2293.3623046875</ele>
        <time>2011-06-19T09:09:05Z</time>
      </trkpt>
      <trkpt lat="42.60719" lon="1.71463">
        <ele>2295.2849121094</ele>
        <time>2011-06-19T09:09:11Z</time>
      </trkpt>
      <trkpt lat="42.60721" lon="1.71465">
        <ele>2297.6882324219</ele>
        <time>2011-06-19T09:09:17Z</time>
      </trkpt>
      <trkpt lat="42.60722" lon="1.71469">
        <ele>2297.2075195312</ele>
        <time>2011-06-19T09:09:24Z</time>
      </trkpt>
      <trkpt lat="42.60724" lon="1.7147">
        <ele>2297.6882324219</ele>
        <time>2011-06-19T09:09:30Z</time>
      </trkpt>
      <trkpt lat="42.60725" lon="1.71472">
        <ele>2297.6882324219</ele>
        <time>2011-06-19T09:09:35Z</time>
      </trkpt>
      <trkpt lat="42.60726" lon="1.71473">
        <ele>2298.1687011719</ele>
        <time>2011-06-19T09:09:45Z</time>
      </trkpt>
      <trkpt lat="42.60727" lon="1.71476">
        <ele>2299.6108398438</ele>
        <time>2011-06-19T09:09:52Z</time>
      </trkpt>
      <trkpt lat="42.60728" lon="1.7148">
        <ele>2300.572265625</ele>
        <time>2011-06-19T09:09:58Z</time>
      </trkpt>
      <trkpt lat="42.60728" lon="1.71482">
        <ele>2301.0529785156</ele>
        <time>2011-06-19T09:10:04Z</time>
      </trkpt>
      <trkpt lat="42.6073" lon="1.71481">
        <ele>2302.0141601562</ele>
        <time>2011-06-19T09:10:10Z</time>
      </trkpt>
      <trkpt lat="42.60734" lon="1.7148">
        <ele>2303.4562988281</ele>
        <time>2011-06-19T09:10:16Z</time>
      </trkpt>
      <trkpt lat="42.60739" lon="1.71482">
        <ele>2305.37890625</ele>
        <time>2011-06-19T09:10:23Z</time>
      </trkpt>
      <trkpt lat="42.60739" lon="1.71486">
        <ele>2306.3400878906</ele>
        <time>2011-06-19T09:10:28Z</time>
      </trkpt>
      <trkpt lat="42.60741" lon="1.71489">
        <ele>2308.2626953125</ele>
        <time>2011-06-19T09:10:35Z</time>
      </trkpt>
      <trkpt lat="42.60746" lon="1.71494">
        <ele>2309.2241210938</ele>
        <time>2011-06-19T09:10:42Z</time>
      </trkpt>
      <trkpt lat="42.60751" lon="1.71498">
        <ele>2309.2241210938</ele>
        <time>2011-06-19T09:10:47Z</time>
      </trkpt>
      <trkpt lat="42.60757" lon="1.71506">
        <ele>2309.2241210938</ele>
        <time>2011-06-19T09:10:55Z</time>
      </trkpt>
      <trkpt lat="42.60768" lon="1.71514">
        <ele>2308.2626953125</ele>
        <time>2011-06-19T09:11:05Z</time>
      </trkpt>
      <trkpt lat="42.60775" lon="1.7152">
        <ele>2308.7434082031</ele>
        <time>2011-06-19T09:11:12Z</time>
      </trkpt>
      <trkpt lat="42.60776" lon="1.71522">
        <ele>2308.2626953125</ele>
        <time>2011-06-19T09:11:13Z</time>
      </trkpt>
      <trkpt lat="42.60779" lon="1.7153">
        <ele>2308.7434082031</ele>
        <time>2011-06-19T09:11:19Z</time>
      </trkpt>
      <trkpt lat="42.60781" lon="1.71539">
        <ele>2310.1853027344</ele>
        <time>2011-06-19T09:11:27Z</time>
      </trkpt>
      <trkpt lat="42.60785" lon="1.71545">
        <ele>2311.1467285156</ele>
        <time>2011-06-19T09:11:32Z</time>
      </trkpt>
      <trkpt lat="42.60786" lon="1.71549">
        <ele>2312.1079101562</ele>
        <time>2011-06-19T09:11:37Z</time>
      </trkpt>
      <trkpt lat="42.60788" lon="1.7155">
        <ele>2311.6274414062</ele>
        <time>2011-06-19T09:11:43Z</time>
      </trkpt>
      <trkpt lat="42.60793" lon="1.71552">
        <ele>2311.1467285156</ele>
        <time>2011-06-19T09:11:50Z</time>
      </trkpt>
      <trkpt lat="42.60796" lon="1.71558">
        <ele>2313.0693359375</ele>
        <time>2011-06-19T09:11:57Z</time>
      </trkpt>
      <trkpt lat="42.60798" lon="1.71564">
        <ele>2315.47265625</ele>
        <time>2011-06-19T09:12:03Z</time>
      </trkpt>
      <trkpt lat="42.60801" lon="1.71568">
        <ele>2317.3952636719</ele>
        <time>2011-06-19T09:12:07Z</time>
      </trkpt>
      <trkpt lat="42.608" lon="1.71576">
        <ele>2316.4340820312</ele>
        <time>2011-06-19T09:12:13Z</time>
      </trkpt>
      <trkpt lat="42.60799" lon="1.71581">
        <ele>2315.47265625</ele>
        <time>2011-06-19T09:12:17Z</time>
      </trkpt>
      <trkpt lat="42.60797" lon="1.71589">
        <ele>2314.9919433594</ele>
        <time>2011-06-19T09:12:24Z</time>
      </trkpt>
      <trkpt lat="42.60799" lon="1.71594">
        <ele>2314.5112304688</ele>
        <time>2011-06-19T09:12:29Z</time>
      </trkpt>
      <trkpt lat="42.60799" lon="1.71599">
        <ele>2314.5112304688</ele>
        <time>2011-06-19T09:12:33Z</time>
      </trkpt>
      <trkpt lat="42.60799" lon="1.71601">
        <ele>2314.9919433594</ele>
        <time>2011-06-19T09:12:39Z</time>
      </trkpt>
      <trkpt lat="42.60799" lon="1.71601">
        <ele>2313.0693359375</ele>
        <time>2011-06-19T09:12:49Z</time>
      </trkpt>
      <trkpt lat="42.60797" lon="1.71601">
        <ele>2313.5498046875</ele>
        <time>2011-06-19T09:12:54Z</time>
      </trkpt>
      <trkpt lat="42.60798" lon="1.71603">
        <ele>2312.5886230469</ele>
        <time>2011-06-19T09:13:02Z</time>
      </trkpt>
      <trkpt lat="42.608" lon="1.71606">
        <ele>2312.1079101562</ele>
        <time>2011-06-19T09:13:08Z</time>
      </trkpt>
      <trkpt lat="42.60801" lon="1.71612">
        <ele>2311.1467285156</ele>
        <time>2011-06-19T09:13:14Z</time>
      </trkpt>
      <trkpt lat="42.60802" lon="1.7162">
        <ele>2310.1853027344</ele>
        <time>2011-06-19T09:13:20Z</time>
      </trkpt>
      <trkpt lat="42.60806" lon="1.71628">
        <ele>2308.7434082031</ele>
        <time>2011-06-19T09:13:27Z</time>
      </trkpt>
      <trkpt lat="42.60807" lon="1.71636">
        <ele>2307.7822265625</ele>
        <time>2011-06-19T09:13:34Z</time>
      </trkpt>
      <trkpt lat="42.60809" lon="1.71641">
        <ele>2307.3015136719</ele>
        <time>2011-06-19T09:13:39Z</time>
      </trkpt>
      <trkpt lat="42.60809" lon="1.71649">
        <ele>2306.8208007812</ele>
        <time>2011-06-19T09:13:46Z</time>
      </trkpt>
      <trkpt lat="42.6081" lon="1.71657">
        <ele>2305.859375</ele>
        <time>2011-06-19T09:13:52Z</time>
      </trkpt>
      <trkpt lat="42.60811" lon="1.71664">
        <ele>2306.3400878906</ele>
        <time>2011-06-19T09:13:58Z</time>
      </trkpt>
      <trkpt lat="42.60811" lon="1.7167">
        <ele>2306.8208007812</ele>
        <time>2011-06-19T09:14:04Z</time>
      </trkpt>
      <trkpt lat="42.60814" lon="1.71674">
        <ele>2308.7434082031</ele>
        <time>2011-06-19T09:14:09Z</time>
      </trkpt>
      <trkpt lat="42.60816" lon="1.71678">
        <ele>2310.1853027344</ele>
        <time>2011-06-19T09:14:13Z</time>
      </trkpt>
      <trkpt lat="42.60818" lon="1.71686">
        <ele>2309.7045898438</ele>
        <time>2011-06-19T09:14:19Z</time>
      </trkpt>
      <trkpt lat="42.60819" lon="1.7169">
        <ele>2308.7434082031</ele>
        <time>2011-06-19T09:14:23Z</time>
      </trkpt>
      <trkpt lat="42.60822" lon="1.71696">
        <ele>2308.7434082031</ele>
        <time>2011-06-19T09:14:31Z</time>
      </trkpt>
      <trkpt lat="42.60823" lon="1.71702">
        <ele>2308.7434082031</ele>
        <time>2011-06-19T09:14:36Z</time>
      </trkpt>
      <trkpt lat="42.60827" lon="1.71709">
        <ele>2305.859375</ele>
        <time>2011-06-19T09:14:44Z</time>
      </trkpt>
      <trkpt lat="42.60831" lon="1.71715">
        <ele>2304.4174804688</ele>
        <time>2011-06-19T09:14:50Z</time>
      </trkpt>
      <trkpt lat="42.60835" lon="1.71718">
        <ele>2302.9755859375</ele>
        <time>2011-06-19T09:14:56Z</time>
      </trkpt>
      <trkpt lat="42.60839" lon="1.71723">
        <ele>2303.9370117188</ele>
        <time>2011-06-19T09:15:02Z</time>
      </trkpt>
      <trkpt lat="42.60843" lon="1.71728">
        <ele>2303.9370117188</ele>
        <time>2011-06-19T09:15:09Z</time>
      </trkpt>
      <trkpt lat="42.60847" lon="1.7173">
        <ele>2302.9755859375</ele>
        <time>2011-06-19T09:15:14Z</time>
      </trkpt>
      <trkpt lat="42.60853" lon="1.71733">
        <ele>2302.0141601562</ele>
        <time>2011-06-19T09:15:21Z</time>
      </trkpt>
      <trkpt lat="42.60856" lon="1.71735">
        <ele>2301.5336914062</ele>
        <time>2011-06-19T09:15:26Z</time>
      </trkpt>
      <trkpt lat="42.60863" lon="1.71741">
        <ele>2302.0141601562</ele>
        <time>2011-06-19T09:15:35Z</time>
      </trkpt>
      <trkpt lat="42.6087" lon="1.71745">
        <ele>2303.4562988281</ele>
        <time>2011-06-19T09:15:42Z</time>
      </trkpt>
      <trkpt lat="42.60873" lon="1.7175">
        <ele>2304.8981933594</ele>
        <time>2011-06-19T09:15:49Z</time>
      </trkpt>
      <trkpt lat="42.60876" lon="1.71752">
        <ele>2306.3400878906</ele>
        <time>2011-06-19T09:15:55Z</time>
      </trkpt>
      <trkpt lat="42.60879" lon="1.71754">
        <ele>2307.3015136719</ele>
        <time>2011-06-19T09:16:03Z</time>
      </trkpt>
      <trkpt lat="42.60882" lon="1.71758">
        <ele>2308.2626953125</ele>
        <time>2011-06-19T09:16:09Z</time>
      </trkpt>
      <trkpt lat="42.60885" lon="1.71767">
        <ele>2309.7045898438</ele>
        <time>2011-06-19T09:16:18Z</time>
      </trkpt>
      <trkpt lat="42.60889" lon="1.71773">
        <ele>2309.7045898438</ele>
        <time>2011-06-19T09:16:25Z</time>
      </trkpt>
      <trkpt lat="42.6089" lon="1.71781">
        <ele>2310.1853027344</ele>
        <time>2011-06-19T09:16:31Z</time>
      </trkpt>
      <trkpt lat="42.60894" lon="1.71788">
        <ele>2310.666015625</ele>
        <time>2011-06-19T09:16:38Z</time>
      </trkpt>
      <trkpt lat="42.60898" lon="1.71795">
        <ele>2310.666015625</ele>
        <time>2011-06-19T09:16:44Z</time>
      </trkpt>
      <trkpt lat="42.60901" lon="1.71805">
        <ele>2311.1467285156</ele>
        <time>2011-06-19T09:16:51Z</time>
      </trkpt>
      <trkpt lat="42.60901" lon="1.7181">
        <ele>2312.1079101562</ele>
        <time>2011-06-19T09:16:58Z</time>
      </trkpt>
      <trkpt lat="42.60903" lon="1.71815">
        <ele>2310.666015625</ele>
        <time>2011-06-19T09:17:04Z</time>
      </trkpt>
      <trkpt lat="42.60903" lon="1.71819">
        <ele>2310.1853027344</ele>
        <time>2011-06-19T09:17:09Z</time>
      </trkpt>
      <trkpt lat="42.60904" lon="1.71825">
        <ele>2310.666015625</ele>
        <time>2011-06-19T09:17:14Z</time>
      </trkpt>
      <trkpt lat="42.60905" lon="1.71831">
        <ele>2312.1079101562</ele>
        <time>2011-06-19T09:17:20Z</time>
      </trkpt>
      <trkpt lat="42.60906" lon="1.71836">
        <ele>2313.0693359375</ele>
        <time>2011-06-19T09:17:26Z</time>
      </trkpt>
      <trkpt lat="42.60903" lon="1.71839">
        <ele>2314.0305175781</ele>
        <time>2011-06-19T09:17:31Z</time>
      </trkpt>
      <trkpt lat="42.60899" lon="1.71842">
        <ele>2313.5498046875</ele>
        <time>2011-06-19T09:17:37Z</time>
      </trkpt>
      <trkpt lat="42.60897" lon="1.71848">
        <ele>2315.47265625</ele>
        <time>2011-06-19T09:17:44Z</time>
      </trkpt>
      <trkpt lat="42.60899" lon="1.71855">
        <ele>2315.953125</ele>
        <time>2011-06-19T09:17:50Z</time>
      </trkpt>
      <trkpt lat="42.609" lon="1.71866">
        <ele>2316.4340820312</ele>
        <time>2011-06-19T09:17:57Z</time>
      </trkpt>
      <trkpt lat="42.60901" lon="1.71867">
        <ele>2316.4340820312</ele>
        <time>2011-06-19T09:17:58Z</time>
      </trkpt>
      <trkpt lat="42.60902" lon="1.71878">
        <ele>2316.4340820312</ele>
        <time>2011-06-19T09:18:06Z</time>
      </trkpt>
      <trkpt lat="42.60902" lon="1.71885">
        <ele>2315.953125</ele>
        <time>2011-06-19T09:18:12Z</time>
      </trkpt>
      <trkpt lat="42.60904" lon="1.71889">
        <ele>2315.47265625</ele>
        <time>2011-06-19T09:18:18Z</time>
      </trkpt>
      <trkpt lat="42.60904" lon="1.71893">
        <ele>2315.47265625</ele>
        <time>2011-06-19T09:18:28Z</time>
      </trkpt>
      <trkpt lat="42.60905" lon="1.71897">
        <ele>2314.9919433594</ele>
        <time>2011-06-19T09:18:35Z</time>
      </trkpt>
      <trkpt lat="42.60907" lon="1.71907">
        <ele>2312.5886230469</ele>
        <time>2011-06-19T09:18:43Z</time>
      </trkpt>
      <trkpt lat="42.60907" lon="1.7191">
        <ele>2312.5886230469</ele>
        <time>2011-06-19T09:18:45Z</time>
      </trkpt>
      <trkpt lat="42.60906" lon="1.71915">
        <ele>2312.5886230469</ele>
        <time>2011-06-19T09:18:48Z</time>
      </trkpt>
      <trkpt lat="42.60905" lon="1.71921">
        <ele>2313.0693359375</ele>
        <time>2011-06-19T09:18:55Z</time>
      </trkpt>
      <trkpt lat="42.60905" lon="1.7193">
        <ele>2312.1079101562</ele>
        <time>2011-06-19T09:19:02Z</time>
      </trkpt>
      <trkpt lat="42.60906" lon="1.71935">
        <ele>2310.666015625</ele>
        <time>2011-06-19T09:19:07Z</time>
      </trkpt>
      <trkpt lat="42.6091" lon="1.71944">
        <ele>2309.7045898438</ele>
        <time>2011-06-19T09:19:15Z</time>
      </trkpt>
      <trkpt lat="42.60911" lon="1.7195">
        <ele>2309.2241210938</ele>
        <time>2011-06-19T09:19:22Z</time>
      </trkpt>
      <trkpt lat="42.6091" lon="1.71953">
        <ele>2309.7045898438</ele>
        <time>2011-06-19T09:19:31Z</time>
      </trkpt>
      <trkpt lat="42.60909" lon="1.71961">
        <ele>2308.2626953125</ele>
        <time>2011-06-19T09:19:37Z</time>
      </trkpt>
      <trkpt lat="42.60909" lon="1.71967">
        <ele>2307.7822265625</ele>
        <time>2011-06-19T09:19:43Z</time>
      </trkpt>
      <trkpt lat="42.60909" lon="1.71974">
        <ele>2308.7434082031</ele>
        <time>2011-06-19T09:19:49Z</time>
      </trkpt>
      <trkpt lat="42.60909" lon="1.71976">
        <ele>2309.2241210938</ele>
        <time>2011-06-19T09:19:55Z</time>
      </trkpt>
      <trkpt lat="42.6091" lon="1.71984">
        <ele>2308.7434082031</ele>
        <time>2011-06-19T09:20:01Z</time>
      </trkpt>
      <trkpt lat="42.60909" lon="1.71994">
        <ele>2308.7434082031</ele>
        <time>2011-06-19T09:20:07Z</time>
      </trkpt>
      <trkpt lat="42.6091" lon="1.72002">
        <ele>2309.2241210938</ele>
        <time>2011-06-19T09:20:13Z</time>
      </trkpt>
      <trkpt lat="42.60908" lon="1.72007">
        <ele>2307.3015136719</ele>
        <time>2011-06-19T09:20:18Z</time>
      </trkpt>
      <trkpt lat="42.60907" lon="1.72017">
        <ele>2304.4174804688</ele>
        <time>2011-06-19T09:20:25Z</time>
      </trkpt>
      <trkpt lat="42.60908" lon="1.72021">
        <ele>2303.4562988281</ele>
        <time>2011-06-19T09:20:28Z</time>
      </trkpt>
      <trkpt lat="42.60909" lon="1.72029">
        <ele>2302.4948730469</ele>
        <time>2011-06-19T09:20:35Z</time>
      </trkpt>
      <trkpt lat="42.6091" lon="1.72034">
        <ele>2302.0141601562</ele>
        <time>2011-06-19T09:20:40Z</time>
      </trkpt>
      <trkpt lat="42.6091" lon="1.72041">
        <ele>2302.0141601562</ele>
        <time>2011-06-19T09:20:46Z</time>
      </trkpt>
      <trkpt lat="42.6091" lon="1.72047">
        <ele>2302.0141601562</ele>
        <time>2011-06-19T09:20:52Z</time>
      </trkpt>
      <trkpt lat="42.60912" lon="1.72055">
        <ele>2302.4948730469</ele>
        <time>2011-06-19T09:20:59Z</time>
      </trkpt>
      <trkpt lat="42.60912" lon="1.72061">
        <ele>2302.0141601562</ele>
        <time>2011-06-19T09:21:05Z</time>
      </trkpt>
      <trkpt lat="42.60912" lon="1.72067">
        <ele>2302.9755859375</ele>
        <time>2011-06-19T09:21:10Z</time>
      </trkpt>
      <trkpt lat="42.60911" lon="1.72073">
        <ele>2302.9755859375</ele>
        <time>2011-06-19T09:21:16Z</time>
      </trkpt>
      <trkpt lat="42.60911" lon="1.72082">
        <ele>2302.0141601562</ele>
        <time>2011-06-19T09:21:23Z</time>
      </trkpt>
      <trkpt lat="42.6091" lon="1.72085">
        <ele>2302.0141601562</ele>
        <time>2011-06-19T09:21:25Z</time>
      </trkpt>
      <trkpt lat="42.60911" lon="1.72096">
        <ele>2301.5336914062</ele>
        <time>2011-06-19T09:21:31Z</time>
      </trkpt>
      <trkpt lat="42.60916" lon="1.72103">
        <ele>2300.572265625</ele>
        <time>2011-06-19T09:21:38Z</time>
      </trkpt>
      <trkpt lat="42.60917" lon="1.72108">
        <ele>2300.572265625</ele>
        <time>2011-06-19T09:21:42Z</time>
      </trkpt>
      <trkpt lat="42.60917" lon="1.72119">
        <ele>2301.5336914062</ele>
        <time>2011-06-19T09:21:50Z</time>
      </trkpt>
      <trkpt lat="42.60918" lon="1.72131">
        <ele>2302.4948730469</ele>
        <time>2011-06-19T09:21:58Z</time>
      </trkpt>
      <trkpt lat="42.6092" lon="1.72143">
        <ele>2302.0141601562</ele>
        <time>2011-06-19T09:22:07Z</time>
      </trkpt>
      <trkpt lat="42.60919" lon="1.72154">
        <ele>2302.0141601562</ele>
        <time>2011-06-19T09:22:15Z</time>
      </trkpt>
      <trkpt lat="42.60916" lon="1.72158">
        <ele>2303.4562988281</ele>
        <time>2011-06-19T09:22:23Z</time>
      </trkpt>
      <trkpt lat="42.60913" lon="1.7216">
        <ele>2304.8981933594</ele>
        <time>2011-06-19T09:22:29Z</time>
      </trkpt>
      <trkpt lat="42.6091" lon="1.7216">
        <ele>2306.3400878906</ele>
        <time>2011-06-19T09:22:35Z</time>
      </trkpt>
      <trkpt lat="42.6091" lon="1.72159">
        <ele>2305.37890625</ele>
        <time>2011-06-19T09:22:46Z</time>
      </trkpt>
      <trkpt lat="42.60908" lon="1.72163">
        <ele>2305.859375</ele>
        <time>2011-06-19T09:22:52Z</time>
      </trkpt>
      <trkpt lat="42.60907" lon="1.72167">
        <ele>2306.3400878906</ele>
        <time>2011-06-19T09:22:58Z</time>
      </trkpt>
      <trkpt lat="42.60905" lon="1.72169">
        <ele>2306.8208007812</ele>
        <time>2011-06-19T09:23:03Z</time>
      </trkpt>
      <trkpt lat="42.60903" lon="1.72175">
        <ele>2308.7434082031</ele>
        <time>2011-06-19T09:23:11Z</time>
      </trkpt>
      <trkpt lat="42.60902" lon="1.72181">
        <ele>2309.2241210938</ele>
        <time>2011-06-19T09:23:17Z</time>
      </trkpt>
      <trkpt lat="42.60903" lon="1.72185">
        <ele>2309.7045898438</ele>
        <time>2011-06-19T09:23:25Z</time>
      </trkpt>
      <trkpt lat="42.60903" lon="1.72189">
        <ele>2310.666015625</ele>
        <time>2011-06-19T09:23:30Z</time>
      </trkpt>
      <trkpt lat="42.60903" lon="1.72191">
        <ele>2310.666015625</ele>
        <time>2011-06-19T09:23:36Z</time>
      </trkpt>
      <trkpt lat="42.60902" lon="1.72197">
        <ele>2311.1467285156</ele>
        <time>2011-06-19T09:23:42Z</time>
      </trkpt>
      <trkpt lat="42.60901" lon="1.72202">
        <ele>2311.1467285156</ele>
        <time>2011-06-19T09:23:49Z</time>
      </trkpt>
      <trkpt lat="42.60899" lon="1.72206">
        <ele>2312.1079101562</ele>
        <time>2011-06-19T09:23:54Z</time>
      </trkpt>
      <trkpt lat="42.60897" lon="1.72217">
        <ele>2313.0693359375</ele>
        <time>2011-06-19T09:24:03Z</time>
      </trkpt>
      <trkpt lat="42.60897" lon="1.72223">
        <ele>2312.5886230469</ele>
        <time>2011-06-19T09:24:09Z</time>
      </trkpt>
      <trkpt lat="42.60897" lon="1.72227">
        <ele>2313.0693359375</ele>
        <time>2011-06-19T09:24:13Z</time>
      </trkpt>
      <trkpt lat="42.60896" lon="1.7223">
        <ele>2313.0693359375</ele>
        <time>2011-06-19T09:24:19Z</time>
      </trkpt>
      <trkpt lat="42.60897" lon="1.72235">
        <ele>2313.5498046875</ele>
        <time>2011-06-19T09:24:25Z</time>
      </trkpt>
      <trkpt lat="42.609" lon="1.72243">
        <ele>2313.5498046875</ele>
        <time>2011-06-19T09:24:33Z</time>
      </trkpt>
      <trkpt lat="42.60902" lon="1.72247">
        <ele>2313.5498046875</ele>
        <time>2011-06-19T09:24:38Z</time>
      </trkpt>
      <trkpt lat="42.60904" lon="1.7225">
        <ele>2313.5498046875</ele>
        <time>2011-06-19T09:24:40Z</time>
      </trkpt>
      <trkpt lat="42.60905" lon="1.72255">
        <ele>2314.0305175781</ele>
        <time>2011-06-19T09:24:46Z</time>
      </trkpt>
      <trkpt lat="42.60905" lon="1.72258">
        <ele>2313.5498046875</ele>
        <time>2011-06-19T09:24:51Z</time>
      </trkpt>
      <trkpt lat="42.60907" lon="1.72262">
        <ele>2313.0693359375</ele>
        <time>2011-06-19T09:24:58Z</time>
      </trkpt>
      <trkpt lat="42.60906" lon="1.72264">
        <ele>2313.0693359375</ele>
        <time>2011-06-19T09:25:02Z</time>
      </trkpt>
      <trkpt lat="42.60907" lon="1.72264">
        <ele>2312.5886230469</ele>
        <time>2011-06-19T09:25:07Z</time>
      </trkpt>
      <trkpt lat="42.60909" lon="1.72271">
        <ele>2312.1079101562</ele>
        <time>2011-06-19T09:25:13Z</time>
      </trkpt>
      <trkpt lat="42.6091" lon="1.72275">
        <ele>2312.1079101562</ele>
        <time>2011-06-19T09:25:18Z</time>
      </trkpt>
      <trkpt lat="42.60912" lon="1.72281">
        <ele>2311.6274414062</ele>
        <time>2011-06-19T09:25:24Z</time>
      </trkpt>
      <trkpt lat="42.60914" lon="1.72283">
        <ele>2309.7045898438</ele>
        <time>2011-06-19T09:25:32Z</time>
      </trkpt>
      <trkpt lat="42.60917" lon="1.72284">
        <ele>2308.2626953125</ele>
        <time>2011-06-19T09:25:37Z</time>
      </trkpt>
      <trkpt lat="42.60923" lon="1.7229">
        <ele>2307.7822265625</ele>
        <time>2011-06-19T09:25:45Z</time>
      </trkpt>
      <trkpt lat="42.60923" lon="1.72292">
        <ele>2307.7822265625</ele>
        <time>2011-06-19T09:25:51Z</time>
      </trkpt>
      <trkpt lat="42.6092" lon="1.72293">
        <ele>2307.3015136719</ele>
        <time>2011-06-19T09:25:58Z</time>
      </trkpt>
      <trkpt lat="42.60923" lon="1.72292">
        <ele>2306.8208007812</ele>
        <time>2011-06-19T09:26:03Z</time>
      </trkpt>
      <trkpt lat="42.60925" lon="1.72292">
        <ele>2307.3015136719</ele>
        <time>2011-06-19T09:26:08Z</time>
      </trkpt>
      <trkpt lat="42.60925" lon="1.72292">
        <ele>2307.7822265625</ele>
        <time>2011-06-19T09:26:17Z</time>
      </trkpt>
      <trkpt lat="42.60926" lon="1.72293">
        <ele>2307.3015136719</ele>
        <time>2011-06-19T09:26:27Z</time>
      </trkpt>
      <trkpt lat="42.60926" lon="1.72292">
        <ele>2307.3015136719</ele>
        <time>2011-06-19T09:26:39Z</time>
      </trkpt>
      <trkpt lat="42.60925" lon="1.72292">
        <ele>2306.3400878906</ele>
        <time>2011-06-19T09:26:51Z</time>
      </trkpt>
      <trkpt lat="42.60927" lon="1.72293">
        <ele>2306.3400878906</ele>
        <time>2011-06-19T09:26:57Z</time>
      </trkpt>
      <trkpt lat="42.60927" lon="1.72294">
        <ele>2306.8208007812</ele>
        <time>2011-06-19T09:27:12Z</time>
      </trkpt>
      <trkpt lat="42.60931" lon="1.723">
        <ele>2306.8208007812</ele>
        <time>2011-06-19T09:27:18Z</time>
      </trkpt>
      <trkpt lat="42.60933" lon="1.72304">
        <ele>2307.3015136719</ele>
        <time>2011-06-19T09:27:23Z</time>
      </trkpt>
      <trkpt lat="42.60936" lon="1.72312">
        <ele>2308.2626953125</ele>
        <time>2011-06-19T09:27:31Z</time>
      </trkpt>
      <trkpt lat="42.60937" lon="1.72319">
        <ele>2308.7434082031</ele>
        <time>2011-06-19T09:27:36Z</time>
      </trkpt>
      <trkpt lat="42.60937" lon="1.72323">
        <ele>2308.2626953125</ele>
        <time>2011-06-19T09:27:39Z</time>
      </trkpt>
      <trkpt lat="42.60932" lon="1.7233">
        <ele>2308.2626953125</ele>
        <time>2011-06-19T09:27:45Z</time>
      </trkpt>
      <trkpt lat="42.60931" lon="1.72333">
        <ele>2308.2626953125</ele>
        <time>2011-06-19T09:27:47Z</time>
      </trkpt>
      <trkpt lat="42.6093" lon="1.72342">
        <ele>2308.2626953125</ele>
        <time>2011-06-19T09:27:54Z</time>
      </trkpt>
      <trkpt lat="42.60932" lon="1.72347">
        <ele>2309.2241210938</ele>
        <time>2011-06-19T09:27:59Z</time>
      </trkpt>
      <trkpt lat="42.60938" lon="1.72352">
        <ele>2308.7434082031</ele>
        <time>2011-06-19T09:28:05Z</time>
      </trkpt>
      <trkpt lat="42.60946" lon="1.72355">
        <ele>2308.2626953125</ele>
        <time>2011-06-19T09:28:12Z</time>
      </trkpt>
      <trkpt lat="42.60954" lon="1.72354">
        <ele>2307.7822265625</ele>
        <time>2011-06-19T09:28:18Z</time>
      </trkpt>
      <trkpt lat="42.60954" lon="1.72354">
        <ele>2307.7822265625</ele>
        <time>2011-06-19T09:28:19Z</time>
      </trkpt>
      <trkpt lat="42.60958" lon="1.72355">
        <ele>2309.2241210938</ele>
        <time>2011-06-19T09:28:23Z</time>
      </trkpt>
      <trkpt lat="42.60966" lon="1.72356">
        <ele>2310.1853027344</ele>
        <time>2011-06-19T09:28:31Z</time>
      </trkpt>
      <trkpt lat="42.60974" lon="1.72357">
        <ele>2311.6274414062</ele>
        <time>2011-06-19T09:28:39Z</time>
      </trkpt>
      <trkpt lat="42.60981" lon="1.72356">
        <ele>2311.6274414062</ele>
        <time>2011-06-19T09:28:45Z</time>
      </trkpt>
      <trkpt lat="42.60985" lon="1.72353">
        <ele>2310.1853027344</ele>
        <time>2011-06-19T09:28:52Z</time>
      </trkpt>
      <trkpt lat="42.60987" lon="1.72352">
        <ele>2309.2241210938</ele>
        <time>2011-06-19T09:28:58Z</time>
      </trkpt>
      <trkpt lat="42.60991" lon="1.7235">
        <ele>2307.7822265625</ele>
        <time>2011-06-19T09:29:04Z</time>
      </trkpt>
      <trkpt lat="42.60994" lon="1.72351">
        <ele>2307.3015136719</ele>
        <time>2011-06-19T09:29:09Z</time>
      </trkpt>
      <trkpt lat="42.60996" lon="1.72351">
        <ele>2307.3015136719</ele>
        <time>2011-06-19T09:29:13Z</time>
      </trkpt>
      <trkpt lat="42.60999" lon="1.72347">
        <ele>2307.7822265625</ele>
        <time>2011-06-19T09:29:18Z</time>
      </trkpt>
      <trkpt lat="42.61002" lon="1.72348">
        <ele>2307.3015136719</ele>
        <time>2011-06-19T09:29:22Z</time>
      </trkpt>
      <trkpt lat="42.61008" lon="1.72347">
        <ele>2308.2626953125</ele>
        <time>2011-06-19T09:29:27Z</time>
      </trkpt>
      <trkpt lat="42.61012" lon="1.72346">
        <ele>2308.2626953125</ele>
        <time>2011-06-19T09:29:33Z</time>
      </trkpt>
      <trkpt lat="42.61012" lon="1.72343">
        <ele>2308.2626953125</ele>
        <time>2011-06-19T09:29:39Z</time>
      </trkpt>
      <trkpt lat="42.61015" lon="1.72346">
        <ele>2309.2241210938</ele>
        <time>2011-06-19T09:29:50Z</time>
      </trkpt>
      <trkpt lat="42.61019" lon="1.72347">
        <ele>2310.1853027344</ele>
        <time>2011-06-19T09:29:56Z</time>
      </trkpt>
      <trkpt lat="42.61022" lon="1.72346">
        <ele>2310.666015625</ele>
        <time>2011-06-19T09:30:01Z</time>
      </trkpt>
      <trkpt lat="42.61025" lon="1.72348">
        <ele>2311.1467285156</ele>
        <time>2011-06-19T09:30:06Z</time>
      </trkpt>
      <trkpt lat="42.61027" lon="1.72348">
        <ele>2310.666015625</ele>
        <time>2011-06-19T09:30:11Z</time>
      </trkpt>
      <trkpt lat="42.61031" lon="1.72353">
        <ele>2310.1853027344</ele>
        <time>2011-06-19T09:30:18Z</time>
      </trkpt>
      <trkpt lat="42.61034" lon="1.72357">
        <ele>2309.7045898438</ele>
        <time>2011-06-19T09:30:24Z</time>
      </trkpt>
      <trkpt lat="42.61038" lon="1.72363">
        <ele>2309.7045898438</ele>
        <time>2011-06-19T09:30:31Z</time>
      </trkpt>
      <trkpt lat="42.6104" lon="1.72366">
        <ele>2309.2241210938</ele>
        <time>2011-06-19T09:30:36Z</time>
      </trkpt>
      <trkpt lat="42.61043" lon="1.72371">
        <ele>2309.7045898438</ele>
        <time>2011-06-19T09:30:42Z</time>
      </trkpt>
      <trkpt lat="42.61046" lon="1.72376">
        <ele>2310.1853027344</ele>
        <time>2011-06-19T09:30:49Z</time>
      </trkpt>
      <trkpt lat="42.6105" lon="1.72383">
        <ele>2309.7045898438</ele>
        <time>2011-06-19T09:30:57Z</time>
      </trkpt>
      <trkpt lat="42.61054" lon="1.72389">
        <ele>2310.666015625</ele>
        <time>2011-06-19T09:31:03Z</time>
      </trkpt>
      <trkpt lat="42.61057" lon="1.72393">
        <ele>2311.1467285156</ele>
        <time>2011-06-19T09:31:09Z</time>
      </trkpt>
      <trkpt lat="42.61061" lon="1.724">
        <ele>2312.1079101562</ele>
        <time>2011-06-19T09:31:16Z</time>
      </trkpt>
      <trkpt lat="42.61063" lon="1.72402">
        <ele>2312.1079101562</ele>
        <time>2011-06-19T09:31:18Z</time>
      </trkpt>
      <trkpt lat="42.6107" lon="1.72415">
        <ele>2313.0693359375</ele>
        <time>2011-06-19T09:31:27Z</time>
      </trkpt>
      <trkpt lat="42.61071" lon="1.72422">
        <ele>2312.5886230469</ele>
        <time>2011-06-19T09:31:32Z</time>
      </trkpt>
      <trkpt lat="42.61076" lon="1.72431">
        <ele>2312.5886230469</ele>
        <time>2011-06-19T09:31:40Z</time>
      </trkpt>
      <trkpt lat="42.61079" lon="1.72438">
        <ele>2313.0693359375</ele>
        <time>2011-06-19T09:31:45Z</time>
      </trkpt>
      <trkpt lat="42.61081" lon="1.72442">
        <ele>2312.5886230469</ele>
        <time>2011-06-19T09:31:48Z</time>
      </trkpt>
      <trkpt lat="42.61089" lon="1.72448">
        <ele>2312.1079101562</ele>
        <time>2011-06-19T09:31:56Z</time>
      </trkpt>
      <trkpt lat="42.61095" lon="1.72448">
        <ele>2313.0693359375</ele>
        <time>2011-06-19T09:32:05Z</time>
      </trkpt>
      <trkpt lat="42.61099" lon="1.72448">
        <ele>2314.5112304688</ele>
        <time>2011-06-19T09:32:13Z</time>
      </trkpt>
      <trkpt lat="42.61101" lon="1.72446">
        <ele>2315.953125</ele>
        <time>2011-06-19T09:32:20Z</time>
      </trkpt>
      <trkpt lat="42.61101" lon="1.72442">
        <ele>2315.953125</ele>
        <time>2011-06-19T09:32:26Z</time>
      </trkpt>
      <trkpt lat="42.61103" lon="1.72436">
        <ele>2315.47265625</ele>
        <time>2011-06-19T09:32:32Z</time>
      </trkpt>
      <trkpt lat="42.61107" lon="1.72434">
        <ele>2314.5112304688</ele>
        <time>2011-06-19T09:32:37Z</time>
      </trkpt>
      <trkpt lat="42.61111" lon="1.72434">
        <ele>2313.0693359375</ele>
        <time>2011-06-19T09:32:41Z</time>
      </trkpt>
      <trkpt lat="42.61115" lon="1.7243">
        <ele>2312.1079101562</ele>
        <time>2011-06-19T09:32:45Z</time>
      </trkpt>
      <trkpt lat="42.61122" lon="1.72426">
        <ele>2311.6274414062</ele>
        <time>2011-06-19T09:32:52Z</time>
      </trkpt>
      <trkpt lat="42.61123" lon="1.72421">
        <ele>2313.0693359375</ele>
        <time>2011-06-19T09:32:58Z</time>
      </trkpt>
      <trkpt lat="42.61124" lon="1.72418">
        <ele>2314.5112304688</ele>
        <time>2011-06-19T09:33:02Z</time>
      </trkpt>
      <trkpt lat="42.61127" lon="1.72419">
        <ele>2315.953125</ele>
        <time>2011-06-19T09:33:08Z</time>
      </trkpt>
      <trkpt lat="42.6113" lon="1.72421">
        <ele>2317.3952636719</ele>
        <time>2011-06-19T09:33:14Z</time>
      </trkpt>
      <trkpt lat="42.61133" lon="1.72422">
        <ele>2318.8374023438</ele>
        <time>2011-06-19T09:33:20Z</time>
      </trkpt>
      <trkpt lat="42.61137" lon="1.72426">
        <ele>2318.8374023438</ele>
        <time>2011-06-19T09:33:27Z</time>
      </trkpt>
      <trkpt lat="42.61143" lon="1.72431">
        <ele>2319.3181152344</ele>
        <time>2011-06-19T09:33:34Z</time>
      </trkpt>
      <trkpt lat="42.61147" lon="1.72434">
        <ele>2320.279296875</ele>
        <time>2011-06-19T09:33:41Z</time>
      </trkpt>
      <trkpt lat="42.61151" lon="1.72437">
        <ele>2320.7600097656</ele>
        <time>2011-06-19T09:33:47Z</time>
      </trkpt>
      <trkpt lat="42.61156" lon="1.7244">
        <ele>2322.2019042969</ele>
        <time>2011-06-19T09:33:56Z</time>
      </trkpt>
      <trkpt lat="42.61161" lon="1.72444">
        <ele>2323.6437988281</ele>
        <time>2011-06-19T09:34:04Z</time>
      </trkpt>
      <trkpt lat="42.61165" lon="1.72447">
        <ele>2325.0856933594</ele>
        <time>2011-06-19T09:34:12Z</time>
      </trkpt>
      <trkpt lat="42.61168" lon="1.72451">
        <ele>2326.5278320312</ele>
        <time>2011-06-19T09:34:21Z</time>
      </trkpt>
      <trkpt lat="42.6117" lon="1.72452">
        <ele>2327.4890136719</ele>
        <time>2011-06-19T09:34:29Z</time>
      </trkpt>
      <trkpt lat="42.61172" lon="1.72453">
        <ele>2327.9697265625</ele>
        <time>2011-06-19T09:34:37Z</time>
      </trkpt>
      <trkpt lat="42.61176" lon="1.72458">
        <ele>2329.8923339844</ele>
        <time>2011-06-19T09:34:45Z</time>
      </trkpt>
      <trkpt lat="42.6118" lon="1.72461">
        <ele>2330.8537597656</ele>
        <time>2011-06-19T09:34:52Z</time>
      </trkpt>
      <trkpt lat="42.61182" lon="1.72462">
        <ele>2331.8149414062</ele>
        <time>2011-06-19T09:35:00Z</time>
      </trkpt>
      <trkpt lat="42.61182" lon="1.7246">
        <ele>2333.2570800781</ele>
        <time>2011-06-19T09:35:07Z</time>
      </trkpt>
      <trkpt lat="42.61185" lon="1.72461">
        <ele>2333.2570800781</ele>
        <time>2011-06-19T09:35:13Z</time>
      </trkpt>
      <trkpt lat="42.61187" lon="1.72463">
        <ele>2334.2185058594</ele>
        <time>2011-06-19T09:35:20Z</time>
      </trkpt>
      <trkpt lat="42.6119" lon="1.72466">
        <ele>2335.6604003906</ele>
        <time>2011-06-19T09:35:28Z</time>
      </trkpt>
      <trkpt lat="42.61193" lon="1.72469">
        <ele>2337.1022949219</ele>
        <time>2011-06-19T09:35:35Z</time>
      </trkpt>
      <trkpt lat="42.61196" lon="1.72471">
        <ele>2338.5444335938</ele>
        <time>2011-06-19T09:35:41Z</time>
      </trkpt>
      <trkpt lat="42.612" lon="1.72473">
        <ele>2339.986328125</ele>
        <time>2011-06-19T09:35:49Z</time>
      </trkpt>
      <trkpt lat="42.61202" lon="1.72474">
        <ele>2340.466796875</ele>
        <time>2011-06-19T09:35:55Z</time>
      </trkpt>
      <trkpt lat="42.61205" lon="1.72474">
        <ele>2341.4282226562</ele>
        <time>2011-06-19T09:35:59Z</time>
      </trkpt>
      <trkpt lat="42.61208" lon="1.72474">
        <ele>2343.3508300781</ele>
        <time>2011-06-19T09:36:06Z</time>
      </trkpt>
      <trkpt lat="42.61211" lon="1.72474">
        <ele>2345.2734375</ele>
        <time>2011-06-19T09:36:13Z</time>
      </trkpt>
      <trkpt lat="42.61213" lon="1.72474">
        <ele>2345.7541503906</ele>
        <time>2011-06-19T09:36:19Z</time>
      </trkpt>
      <trkpt lat="42.61215" lon="1.72476">
        <ele>2346.7153320312</ele>
        <time>2011-06-19T09:36:24Z</time>
      </trkpt>
      <trkpt lat="42.61219" lon="1.7248">
        <ele>2347.1960449219</ele>
        <time>2011-06-19T09:36:31Z</time>
      </trkpt>
      <trkpt lat="42.61221" lon="1.72482">
        <ele>2349.1188964844</ele>
        <time>2011-06-19T09:36:37Z</time>
      </trkpt>
      <trkpt lat="42.6122" lon="1.72481">
        <ele>2349.599609375</ele>
        <time>2011-06-19T09:36:49Z</time>
      </trkpt>
      <trkpt lat="42.61222" lon="1.72482">
        <ele>2350.0803222656</ele>
        <time>2011-06-19T09:36:57Z</time>
      </trkpt>
      <trkpt lat="42.61225" lon="1.72486">
        <ele>2351.5222167969</ele>
        <time>2011-06-19T09:37:03Z</time>
      </trkpt>
      <trkpt lat="42.61229" lon="1.72488">
        <ele>2352.4833984375</ele>
        <time>2011-06-19T09:37:10Z</time>
      </trkpt>
      <trkpt lat="42.61232" lon="1.72491">
        <ele>2353.4448242188</ele>
        <time>2011-06-19T09:37:17Z</time>
      </trkpt>
      <trkpt lat="42.61235" lon="1.72491">
        <ele>2354.4060058594</ele>
        <time>2011-06-19T09:37:22Z</time>
      </trkpt>
      <trkpt lat="42.61239" lon="1.72491">
        <ele>2355.3674316406</ele>
        <time>2011-06-19T09:37:28Z</time>
      </trkpt>
      <trkpt lat="42.61242" lon="1.72492">
        <ele>2356.3286132812</ele>
        <time>2011-06-19T09:37:33Z</time>
      </trkpt>
      <trkpt lat="42.61243" lon="1.72496">
        <ele>2356.8093261719</ele>
        <time>2011-06-19T09:37:39Z</time>
      </trkpt>
      <trkpt lat="42.61245" lon="1.72498">
        <ele>2359.2126464844</ele>
        <time>2011-06-19T09:37:45Z</time>
      </trkpt>
      <trkpt lat="42.61248" lon="1.725">
        <ele>2360.173828125</ele>
        <time>2011-06-19T09:37:51Z</time>
      </trkpt>
      <trkpt lat="42.6125" lon="1.725">
        <ele>2361.1352539062</ele>
        <time>2011-06-19T09:37:57Z</time>
      </trkpt>
      <trkpt lat="42.61253" lon="1.72502">
        <ele>2362.5771484375</ele>
        <time>2011-06-19T09:38:03Z</time>
      </trkpt>
      <trkpt lat="42.61254" lon="1.72505">
        <ele>2363.5383300781</ele>
        <time>2011-06-19T09:38:09Z</time>
      </trkpt>
      <trkpt lat="42.61255" lon="1.72508">
        <ele>2364.5</ele>
        <time>2011-06-19T09:38:15Z</time>
      </trkpt>
      <trkpt lat="42.61256" lon="1.72512">
        <ele>2365.4614257812</ele>
        <time>2011-06-19T09:38:21Z</time>
      </trkpt>
      <trkpt lat="42.61259" lon="1.72515">
        <ele>2365.9418945312</ele>
        <time>2011-06-19T09:38:28Z</time>
      </trkpt>
      <trkpt lat="42.6126" lon="1.72521">
        <ele>2365.4614257812</ele>
        <time>2011-06-19T09:38:35Z</time>
      </trkpt>
      <trkpt lat="42.61262" lon="1.72527">
        <ele>2365.9418945312</ele>
        <time>2011-06-19T09:38:42Z</time>
      </trkpt>
      <trkpt lat="42.61263" lon="1.7253">
        <ele>2365.9418945312</ele>
        <time>2011-06-19T09:38:47Z</time>
      </trkpt>
      <trkpt lat="42.61262" lon="1.72536">
        <ele>2365.4614257812</ele>
        <time>2011-06-19T09:38:53Z</time>
      </trkpt>
      <trkpt lat="42.61263" lon="1.72542">
        <ele>2365.4614257812</ele>
        <time>2011-06-19T09:38:58Z</time>
      </trkpt>
      <trkpt lat="42.61263" lon="1.7255">
        <ele>2364.9807128906</ele>
        <time>2011-06-19T09:39:05Z</time>
      </trkpt>
      <trkpt lat="42.61265" lon="1.72556">
        <ele>2365.4614257812</ele>
        <time>2011-06-19T09:39:11Z</time>
      </trkpt>
      <trkpt lat="42.61267" lon="1.72563">
        <ele>2364.9807128906</ele>
        <time>2011-06-19T09:39:17Z</time>
      </trkpt>
      <trkpt lat="42.61268" lon="1.72569">
        <ele>2365.4614257812</ele>
        <time>2011-06-19T09:39:22Z</time>
      </trkpt>
      <trkpt lat="42.61271" lon="1.72576">
        <ele>2365.9418945312</ele>
        <time>2011-06-19T09:39:28Z</time>
      </trkpt>
      <trkpt lat="42.61274" lon="1.72582">
        <ele>2364.9807128906</ele>
        <time>2011-06-19T09:39:33Z</time>
      </trkpt>
      <trkpt lat="42.61277" lon="1.72587">
        <ele>2365.4614257812</ele>
        <time>2011-06-19T09:39:41Z</time>
      </trkpt>
      <trkpt lat="42.61281" lon="1.72588">
        <ele>2365.9418945312</ele>
        <time>2011-06-19T09:39:48Z</time>
      </trkpt>
      <trkpt lat="42.61285" lon="1.72591">
        <ele>2366.4226074219</ele>
        <time>2011-06-19T09:39:53Z</time>
      </trkpt>
      <trkpt lat="42.6129" lon="1.72595">
        <ele>2366.4226074219</ele>
        <time>2011-06-19T09:39:59Z</time>
      </trkpt>
      <trkpt lat="42.61296" lon="1.72597">
        <ele>2367.3837890625</ele>
        <time>2011-06-19T09:40:07Z</time>
      </trkpt>
      <trkpt lat="42.61298" lon="1.72599">
        <ele>2368.3452148438</ele>
        <time>2011-06-19T09:40:13Z</time>
      </trkpt>
      <trkpt lat="42.613" lon="1.72602">
        <ele>2368.8259277344</ele>
        <time>2011-06-19T09:40:19Z</time>
      </trkpt>
      <trkpt lat="42.61303" lon="1.72604">
        <ele>2370.7485351562</ele>
        <time>2011-06-19T09:40:26Z</time>
      </trkpt>
      <trkpt lat="42.61306" lon="1.72604">
        <ele>2373.1518554688</ele>
        <time>2011-06-19T09:40:34Z</time>
      </trkpt>
      <trkpt lat="42.61309" lon="1.72604">
        <ele>2373.6323242188</ele>
        <time>2011-06-19T09:40:40Z</time>
      </trkpt>
      <trkpt lat="42.6131" lon="1.72604">
        <ele>2374.1130371094</ele>
        <time>2011-06-19T09:40:45Z</time>
      </trkpt>
      <trkpt lat="42.61311" lon="1.72605">
        <ele>2374.1130371094</ele>
        <time>2011-06-19T09:40:51Z</time>
      </trkpt>
      <trkpt lat="42.61313" lon="1.72607">
        <ele>2375.07421875</ele>
        <time>2011-06-19T09:40:57Z</time>
      </trkpt>
      <trkpt lat="42.61315" lon="1.72612">
        <ele>2375.5549316406</ele>
        <time>2011-06-19T09:41:03Z</time>
      </trkpt>
      <trkpt lat="42.61317" lon="1.72617">
        <ele>2376.0356445312</ele>
        <time>2011-06-19T09:41:10Z</time>
      </trkpt>
      <trkpt lat="42.61322" lon="1.7262">
        <ele>2376.9970703125</ele>
        <time>2011-06-19T09:41:18Z</time>
      </trkpt>
      <trkpt lat="42.61326" lon="1.72624">
        <ele>2377.4775390625</ele>
        <time>2011-06-19T09:41:24Z</time>
      </trkpt>
      <trkpt lat="42.61329" lon="1.7263">
        <ele>2378.4389648438</ele>
        <time>2011-06-19T09:41:30Z</time>
      </trkpt>
      <trkpt lat="42.61333" lon="1.72635">
        <ele>2379.4001464844</ele>
        <time>2011-06-19T09:41:37Z</time>
      </trkpt>
      <trkpt lat="42.61335" lon="1.72642">
        <ele>2380.8425292969</ele>
        <time>2011-06-19T09:41:44Z</time>
      </trkpt>
      <trkpt lat="42.61334" lon="1.72647">
        <ele>2382.7648925781</ele>
        <time>2011-06-19T09:41:50Z</time>
      </trkpt>
      <trkpt lat="42.61337" lon="1.72649">
        <ele>2384.20703125</ele>
        <time>2011-06-19T09:41:56Z</time>
      </trkpt>
      <trkpt lat="42.6134" lon="1.72653">
        <ele>2385.6489257812</ele>
        <time>2011-06-19T09:42:03Z</time>
      </trkpt>
      <trkpt lat="42.61342" lon="1.72656">
        <ele>2386.1296386719</ele>
        <time>2011-06-19T09:42:08Z</time>
      </trkpt>
      <trkpt lat="42.61344" lon="1.72663">
        <ele>2387.0908203125</ele>
        <time>2011-06-19T09:42:15Z</time>
      </trkpt>
      <trkpt lat="42.61347" lon="1.72671">
        <ele>2387.5715332031</ele>
        <time>2011-06-19T09:42:22Z</time>
      </trkpt>
      <trkpt lat="42.6135" lon="1.72676">
        <ele>2389.494140625</ele>
        <time>2011-06-19T09:42:30Z</time>
      </trkpt>
      <trkpt lat="42.61353" lon="1.7268">
        <ele>2391.4167480469</ele>
        <time>2011-06-19T09:42:37Z</time>
      </trkpt>
      <trkpt lat="42.61354" lon="1.72681">
        <ele>2392.3781738281</ele>
        <time>2011-06-19T09:42:41Z</time>
      </trkpt>
      <trkpt lat="42.61355" lon="1.72685">
        <ele>2393.3393554688</ele>
        <time>2011-06-19T09:42:47Z</time>
      </trkpt>
      <trkpt lat="42.61356" lon="1.72688">
        <ele>2394.3005371094</ele>
        <time>2011-06-19T09:42:53Z</time>
      </trkpt>
      <trkpt lat="42.61357" lon="1.72695">
        <ele>2395.2619628906</ele>
        <time>2011-06-19T09:43:01Z</time>
      </trkpt>
      <trkpt lat="42.61359" lon="1.72702">
        <ele>2396.2236328125</ele>
        <time>2011-06-19T09:43:08Z</time>
      </trkpt>
      <trkpt lat="42.61363" lon="1.72709">
        <ele>2396.7041015625</ele>
        <time>2011-06-19T09:43:15Z</time>
      </trkpt>
      <trkpt lat="42.61364" lon="1.72715">
        <ele>2396.2236328125</ele>
        <time>2011-06-19T09:43:21Z</time>
      </trkpt>
      <trkpt lat="42.61367" lon="1.7272">
        <ele>2397.1848144531</ele>
        <time>2011-06-19T09:43:27Z</time>
      </trkpt>
      <trkpt lat="42.61373" lon="1.72726">
        <ele>2398.1459960938</ele>
        <time>2011-06-19T09:43:35Z</time>
      </trkpt>
      <trkpt lat="42.61377" lon="1.72734">
        <ele>2399.107421875</ele>
        <time>2011-06-19T09:43:42Z</time>
      </trkpt>
      <trkpt lat="42.61378" lon="1.7274">
        <ele>2399.107421875</ele>
        <time>2011-06-19T09:43:47Z</time>
      </trkpt>
      <trkpt lat="42.61383" lon="1.72747">
        <ele>2399.5881347656</ele>
        <time>2011-06-19T09:43:54Z</time>
      </trkpt>
      <trkpt lat="42.61387" lon="1.72754">
        <ele>2401.5107421875</ele>
        <time>2011-06-19T09:44:02Z</time>
      </trkpt>
      <trkpt lat="42.6139" lon="1.72762">
        <ele>2401.9912109375</ele>
        <time>2011-06-19T09:44:09Z</time>
      </trkpt>
      <trkpt lat="42.61391" lon="1.7277">
        <ele>2402.4719238281</ele>
        <time>2011-06-19T09:44:16Z</time>
      </trkpt>
      <trkpt lat="42.61393" lon="1.72777">
        <ele>2403.9140625</ele>
        <time>2011-06-19T09:44:22Z</time>
      </trkpt>
      <trkpt lat="42.61395" lon="1.72783">
        <ele>2405.8364257812</ele>
        <time>2011-06-19T09:44:29Z</time>
      </trkpt>
      <trkpt lat="42.61396" lon="1.72791">
        <ele>2406.7978515625</ele>
        <time>2011-06-19T09:44:36Z</time>
      </trkpt>
      <trkpt lat="42.61395" lon="1.72796">
        <ele>2407.7592773438</ele>
        <time>2011-06-19T09:44:41Z</time>
      </trkpt>
      <trkpt lat="42.61396" lon="1.728">
        <ele>2408.2397460938</ele>
        <time>2011-06-19T09:44:46Z</time>
      </trkpt>
      <trkpt lat="42.61399" lon="1.72805">
        <ele>2409.681640625</ele>
        <time>2011-06-19T09:44:53Z</time>
      </trkpt>
      <trkpt lat="42.61399" lon="1.72805">
        <ele>2410.1623535156</ele>
        <time>2011-06-19T09:45:08Z</time>
      </trkpt>
      <trkpt lat="42.61398" lon="1.72804">
        <ele>2409.201171875</ele>
        <time>2011-06-19T09:45:17Z</time>
      </trkpt>
      <trkpt lat="42.61398" lon="1.72807">
        <ele>2408.2397460938</ele>
        <time>2011-06-19T09:45:34Z</time>
      </trkpt>
      <trkpt lat="42.61398" lon="1.72813">
        <ele>2408.7204589844</ele>
        <time>2011-06-19T09:45:41Z</time>
      </trkpt>
      <trkpt lat="42.61399" lon="1.72819">
        <ele>2409.201171875</ele>
        <time>2011-06-19T09:45:47Z</time>
      </trkpt>
      <trkpt lat="42.614" lon="1.72826">
        <ele>2410.6430664062</ele>
        <time>2011-06-19T09:45:54Z</time>
      </trkpt>
      <trkpt lat="42.614" lon="1.72834">
        <ele>2411.6044921875</ele>
        <time>2011-06-19T09:46:00Z</time>
      </trkpt>
      <trkpt lat="42.61401" lon="1.72842">
        <ele>2412.0852050781</ele>
        <time>2011-06-19T09:46:06Z</time>
      </trkpt>
      <trkpt lat="42.61404" lon="1.7285">
        <ele>2412.5659179688</ele>
        <time>2011-06-19T09:46:12Z</time>
      </trkpt>
      <trkpt lat="42.61406" lon="1.72857">
        <ele>2413.5270996094</ele>
        <time>2011-06-19T09:46:19Z</time>
      </trkpt>
      <trkpt lat="42.61407" lon="1.72867">
        <ele>2414.4885253906</ele>
        <time>2011-06-19T09:46:26Z</time>
      </trkpt>
      <trkpt lat="42.61408" lon="1.72872">
        <ele>2415.4499511719</ele>
        <time>2011-06-19T09:46:30Z</time>
      </trkpt>
      <trkpt lat="42.61408" lon="1.72881">
        <ele>2416.8918457031</ele>
        <time>2011-06-19T09:46:37Z</time>
      </trkpt>
      <trkpt lat="42.6141" lon="1.72889">
        <ele>2418.3337402344</ele>
        <time>2011-06-19T09:46:44Z</time>
      </trkpt>
      <trkpt lat="42.61412" lon="1.72898">
        <ele>2419.7756347656</ele>
        <time>2011-06-19T09:46:51Z</time>
      </trkpt>
      <trkpt lat="42.61412" lon="1.729">
        <ele>2420.2563476562</ele>
        <time>2011-06-19T09:46:53Z</time>
      </trkpt>
      <trkpt lat="42.61413" lon="1.7291">
        <ele>2421.2175292969</ele>
        <time>2011-06-19T09:47:01Z</time>
      </trkpt>
      <trkpt lat="42.61414" lon="1.72917">
        <ele>2422.1789550781</ele>
        <time>2011-06-19T09:47:08Z</time>
      </trkpt>
      <trkpt lat="42.61414" lon="1.72919">
        <ele>2423.6208496094</ele>
        <time>2011-06-19T09:47:13Z</time>
      </trkpt>
      <trkpt lat="42.61415" lon="1.72919">
        <ele>2422.6596679688</ele>
        <time>2011-06-19T09:47:21Z</time>
      </trkpt>
      <trkpt lat="42.61415" lon="1.72924">
        <ele>2422.6596679688</ele>
        <time>2011-06-19T09:47:29Z</time>
      </trkpt>
      <trkpt lat="42.61416" lon="1.72927">
        <ele>2421.6982421875</ele>
        <time>2011-06-19T09:47:33Z</time>
      </trkpt>
      <trkpt lat="42.61417" lon="1.72935">
        <ele>2423.1403808594</ele>
        <time>2011-06-19T09:47:42Z</time>
      </trkpt>
      <trkpt lat="42.61419" lon="1.72942">
        <ele>2425.0627441406</ele>
        <time>2011-06-19T09:47:49Z</time>
      </trkpt>
      <trkpt lat="42.61418" lon="1.72951">
        <ele>2426.9855957031</ele>
        <time>2011-06-19T09:47:57Z</time>
      </trkpt>
      <trkpt lat="42.61419" lon="1.7296">
        <ele>2428.427734375</ele>
        <time>2011-06-19T09:48:05Z</time>
      </trkpt>
      <trkpt lat="42.61419" lon="1.72966">
        <ele>2429.8696289062</ele>
        <time>2011-06-19T09:48:11Z</time>
      </trkpt>
      <trkpt lat="42.61419" lon="1.72966">
        <ele>2430.8310546875</ele>
        <time>2011-06-19T09:48:17Z</time>
      </trkpt>
      <trkpt lat="42.61419" lon="1.72967">
        <ele>2430.8310546875</ele>
        <time>2011-06-19T09:48:24Z</time>
      </trkpt>
      <trkpt lat="42.6142" lon="1.72973">
        <ele>2432.7534179688</ele>
        <time>2011-06-19T09:48:30Z</time>
      </trkpt>
      <trkpt lat="42.61422" lon="1.72979">
        <ele>2434.1955566406</ele>
        <time>2011-06-19T09:48:36Z</time>
      </trkpt>
      <trkpt lat="42.61424" lon="1.72985">
        <ele>2436.5986328125</ele>
        <time>2011-06-19T09:48:45Z</time>
      </trkpt>
      <trkpt lat="42.61426" lon="1.72989">
        <ele>2438.0407714844</ele>
        <time>2011-06-19T09:48:52Z</time>
      </trkpt>
      <trkpt lat="42.61427" lon="1.72994">
        <ele>2438.521484375</ele>
        <time>2011-06-19T09:48:59Z</time>
      </trkpt>
      <trkpt lat="42.61428" lon="1.72994">
        <ele>2439.001953125</ele>
        <time>2011-06-19T09:49:05Z</time>
      </trkpt>
      <trkpt lat="42.6143" lon="1.72996">
        <ele>2439.9633789062</ele>
        <time>2011-06-19T09:49:13Z</time>
      </trkpt>
      <trkpt lat="42.61432" lon="1.72999">
        <ele>2440.9245605469</ele>
        <time>2011-06-19T09:49:18Z</time>
      </trkpt>
      <trkpt lat="42.61434" lon="1.72999">
        <ele>2442.8471679688</ele>
        <time>2011-06-19T09:49:24Z</time>
      </trkpt>
      <trkpt lat="42.61436" lon="1.73002">
        <ele>2444.7700195312</ele>
        <time>2011-06-19T09:49:30Z</time>
      </trkpt>
      <trkpt lat="42.61436" lon="1.73003">
        <ele>2446.2121582031</ele>
        <time>2011-06-19T09:49:37Z</time>
      </trkpt>
      <trkpt lat="42.61438" lon="1.73006">
        <ele>2447.6540527344</ele>
        <time>2011-06-19T09:49:43Z</time>
      </trkpt>
      <trkpt lat="42.6144" lon="1.73008">
        <ele>2448.615234375</ele>
        <time>2011-06-19T09:49:49Z</time>
      </trkpt>
      <trkpt lat="42.61442" lon="1.73011">
        <ele>2450.0573730469</ele>
        <time>2011-06-19T09:49:56Z</time>
      </trkpt>
      <trkpt lat="42.61442" lon="1.7301">
        <ele>2450.5378417969</ele>
        <time>2011-06-19T09:50:00Z</time>
      </trkpt>
      <trkpt lat="42.61442" lon="1.7301">
        <ele>2450.0573730469</ele>
        <time>2011-06-19T09:50:11Z</time>
      </trkpt>
      <trkpt lat="42.61443" lon="1.73011">
        <ele>2448.615234375</ele>
        <time>2011-06-19T09:51:22Z</time>
      </trkpt>
      <trkpt lat="42.61447" lon="1.73015">
        <ele>2449.0959472656</ele>
        <time>2011-06-19T09:51:28Z</time>
      </trkpt>
      <trkpt lat="42.61452" lon="1.7302">
        <ele>2450.5378417969</ele>
        <time>2011-06-19T09:51:36Z</time>
      </trkpt>
      <trkpt lat="42.6146" lon="1.73025">
        <ele>2450.5378417969</ele>
        <time>2011-06-19T09:51:44Z</time>
      </trkpt>
      <trkpt lat="42.61461" lon="1.73025">
        <ele>2450.5378417969</ele>
        <time>2011-06-19T09:51:45Z</time>
      </trkpt>
      <trkpt lat="42.61469" lon="1.73026">
        <ele>2450.5378417969</ele>
        <time>2011-06-19T09:51:53Z</time>
      </trkpt>
      <trkpt lat="42.61471" lon="1.73024">
        <ele>2451.0185546875</ele>
        <time>2011-06-19T09:51:56Z</time>
      </trkpt>
      <trkpt lat="42.61477" lon="1.73024">
        <ele>2450.5378417969</ele>
        <time>2011-06-19T09:52:02Z</time>
      </trkpt>
      <trkpt lat="42.61483" lon="1.73021">
        <ele>2451.0185546875</ele>
        <time>2011-06-19T09:52:08Z</time>
      </trkpt>
      <trkpt lat="42.6149" lon="1.7302">
        <ele>2451.4992675781</ele>
        <time>2011-06-19T09:52:14Z</time>
      </trkpt>
      <trkpt lat="42.61495" lon="1.73023">
        <ele>2452.4604492188</ele>
        <time>2011-06-19T09:52:20Z</time>
      </trkpt>
      <trkpt lat="42.61499" lon="1.73022">
        <ele>2452.9411621094</ele>
        <time>2011-06-19T09:52:28Z</time>
      </trkpt>
      <trkpt lat="42.61499" lon="1.73023">
        <ele>2452.4604492188</ele>
        <time>2011-06-19T09:52:45Z</time>
      </trkpt>
      <trkpt lat="42.61501" lon="1.7302">
        <ele>2451.9797363281</ele>
        <time>2011-06-19T09:52:51Z</time>
      </trkpt>
      <trkpt lat="42.61504" lon="1.73019">
        <ele>2451.9797363281</ele>
        <time>2011-06-19T09:52:57Z</time>
      </trkpt>
      <trkpt lat="42.61504" lon="1.73022">
        <ele>2451.9797363281</ele>
        <time>2011-06-19T09:53:02Z</time>
      </trkpt>
      <trkpt lat="42.61504" lon="1.73025">
        <ele>2451.9797363281</ele>
        <time>2011-06-19T09:53:09Z</time>
      </trkpt>
      <trkpt lat="42.61503" lon="1.73026">
        <ele>2451.9797363281</ele>
        <time>2011-06-19T09:53:15Z</time>
      </trkpt>
      <trkpt lat="42.61503" lon="1.73024">
        <ele>2450.5378417969</ele>
        <time>2011-06-19T09:53:43Z</time>
      </trkpt>
      <trkpt lat="42.61504" lon="1.73021">
        <ele>2449.5766601562</ele>
        <time>2011-06-19T09:53:49Z</time>
      </trkpt>
      <trkpt lat="42.61504" lon="1.73021">
        <ele>2448.615234375</ele>
        <time>2011-06-19T09:53:59Z</time>
      </trkpt>
      <trkpt lat="42.61504" lon="1.73021">
        <ele>2448.1345214844</ele>
        <time>2011-06-19T09:54:06Z</time>
      </trkpt>
      <trkpt lat="42.61503" lon="1.73021">
        <ele>2449.0959472656</ele>
        <time>2011-06-19T09:54:15Z</time>
      </trkpt>
      <trkpt lat="42.61503" lon="1.73021">
        <ele>2449.0959472656</ele>
        <time>2011-06-19T09:54:24Z</time>
      </trkpt>
      <trkpt lat="42.61502" lon="1.73021">
        <ele>2448.615234375</ele>
        <time>2011-06-19T09:54:35Z</time>
      </trkpt>
      <trkpt lat="42.61502" lon="1.73021">
        <ele>2448.615234375</ele>
        <time>2011-06-19T09:54:48Z</time>
      </trkpt>
      <trkpt lat="42.61503" lon="1.7302">
        <ele>2449.0959472656</ele>
        <time>2011-06-19T09:55:06Z</time>
      </trkpt>
      <trkpt lat="42.61504" lon="1.7302">
        <ele>2448.1345214844</ele>
        <time>2011-06-19T09:56:01Z</time>
      </trkpt>
      <trkpt lat="42.61504" lon="1.73019">
        <ele>2448.1345214844</ele>
        <time>2011-06-19T09:56:33Z</time>
      </trkpt>
      <trkpt lat="42.61504" lon="1.7302">
        <ele>2448.615234375</ele>
        <time>2011-06-19T09:57:06Z</time>
      </trkpt>
      <trkpt lat="42.61504" lon="1.73021">
        <ele>2448.615234375</ele>
        <time>2011-06-19T09:57:24Z</time>
      </trkpt>
      <trkpt lat="42.61504" lon="1.73022">
        <ele>2447.6540527344</ele>
        <time>2011-06-19T09:57:40Z</time>
      </trkpt>
      <trkpt lat="42.61503" lon="1.7302">
        <ele>2449.5766601562</ele>
        <time>2011-06-19T09:58:03Z</time>
      </trkpt>
      <trkpt lat="42.61503" lon="1.73019">
        <ele>2449.5766601562</ele>
        <time>2011-06-19T09:58:17Z</time>
      </trkpt>
      <trkpt lat="42.61503" lon="1.7302">
        <ele>2450.0573730469</ele>
        <time>2011-06-19T09:58:53Z</time>
      </trkpt>
      <trkpt lat="42.61503" lon="1.7302">
        <ele>2450.0573730469</ele>
        <time>2011-06-19T09:59:05Z</time>
      </trkpt>
      <trkpt lat="42.61504" lon="1.7302">
        <ele>2450.0573730469</ele>
        <time>2011-06-19T09:59:18Z</time>
      </trkpt>
      <trkpt lat="42.61504" lon="1.7302">
        <ele>2450.0573730469</ele>
        <time>2011-06-19T09:59:27Z</time>
      </trkpt>
      <trkpt lat="42.61503" lon="1.7302">
        <ele>2450.0573730469</ele>
        <time>2011-06-19T09:59:32Z</time>
      </trkpt>
      <trkpt lat="42.61504" lon="1.7302">
        <ele>2450.0573730469</ele>
        <time>2011-06-19T09:59:38Z</time>
      </trkpt>
      <trkpt lat="42.61504" lon="1.73021">
        <ele>2450.5378417969</ele>
        <time>2011-06-19T09:59:51Z</time>
      </trkpt>
      <trkpt lat="42.61504" lon="1.73021">
        <ele>2450.5378417969</ele>
        <time>2011-06-19T10:00:06Z</time>
      </trkpt>
      <trkpt lat="42.61504" lon="1.73022">
        <ele>2450.5378417969</ele>
        <time>2011-06-19T10:00:21Z</time>
      </trkpt>
      <trkpt lat="42.61504" lon="1.73022">
        <ele>2450.0573730469</ele>
        <time>2011-06-19T10:01:03Z</time>
      </trkpt>
      <trkpt lat="42.61504" lon="1.73021">
        <ele>2451.4992675781</ele>
        <time>2011-06-19T10:01:12Z</time>
      </trkpt>
      <trkpt lat="42.61503" lon="1.73023">
        <ele>2451.4992675781</ele>
        <time>2011-06-19T10:01:23Z</time>
      </trkpt>
      <trkpt lat="42.61504" lon="1.73023">
        <ele>2450.5378417969</ele>
        <time>2011-06-19T10:01:29Z</time>
      </trkpt>
      <trkpt lat="42.61504" lon="1.73022">
        <ele>2451.0185546875</ele>
        <time>2011-06-19T10:01:40Z</time>
      </trkpt>
      <trkpt lat="42.61503" lon="1.73021">
        <ele>2451.4992675781</ele>
        <time>2011-06-19T10:01:50Z</time>
      </trkpt>
      <trkpt lat="42.61504" lon="1.73021">
        <ele>2451.4992675781</ele>
        <time>2011-06-19T10:02:00Z</time>
      </trkpt>
      <trkpt lat="42.61504" lon="1.73022">
        <ele>2451.9797363281</ele>
        <time>2011-06-19T10:02:11Z</time>
      </trkpt>
      <trkpt lat="42.61504" lon="1.73022">
        <ele>2451.0185546875</ele>
        <time>2011-06-19T10:02:18Z</time>
      </trkpt>
      <trkpt lat="42.61503" lon="1.73021">
        <ele>2450.0573730469</ele>
        <time>2011-06-19T10:02:25Z</time>
      </trkpt>
      <trkpt lat="42.61503" lon="1.73023">
        <ele>2450.0573730469</ele>
        <time>2011-06-19T10:02:33Z</time>
      </trkpt>
      <trkpt lat="42.61504" lon="1.7302">
        <ele>2450.5378417969</ele>
        <time>2011-06-19T10:02:39Z</time>
      </trkpt>
      <trkpt lat="42.61505" lon="1.73012">
        <ele>2450.5378417969</ele>
        <time>2011-06-19T10:02:46Z</time>
      </trkpt>
      <trkpt lat="42.61509" lon="1.73005">
        <ele>2450.5378417969</ele>
        <time>2011-06-19T10:02:52Z</time>
      </trkpt>
      <trkpt lat="42.61514" lon="1.72996">
        <ele>2450.0573730469</ele>
        <time>2011-06-19T10:02:59Z</time>
      </trkpt>
      <trkpt lat="42.61514" lon="1.72995">
        <ele>2450.0573730469</ele>
        <time>2011-06-19T10:03:00Z</time>
      </trkpt>
      <trkpt lat="42.61515" lon="1.72991">
        <ele>2450.0573730469</ele>
        <time>2011-06-19T10:03:03Z</time>
      </trkpt>
      <trkpt lat="42.61515" lon="1.72989">
        <ele>2449.5766601562</ele>
        <time>2011-06-19T10:03:13Z</time>
      </trkpt>
      <trkpt lat="42.61516" lon="1.72986">
        <ele>2449.0959472656</ele>
        <time>2011-06-19T10:03:21Z</time>
      </trkpt>
      <trkpt lat="42.61516" lon="1.72982">
        <ele>2449.0959472656</ele>
        <time>2011-06-19T10:03:27Z</time>
      </trkpt>
      <trkpt lat="42.61516" lon="1.72979">
        <ele>2448.615234375</ele>
        <time>2011-06-19T10:03:33Z</time>
      </trkpt>
      <trkpt lat="42.61518" lon="1.72977">
        <ele>2447.6540527344</ele>
        <time>2011-06-19T10:03:38Z</time>
      </trkpt>
      <trkpt lat="42.61519" lon="1.72977">
        <ele>2447.1733398438</ele>
        <time>2011-06-19T10:03:43Z</time>
      </trkpt>
      <trkpt lat="42.61521" lon="1.72973">
        <ele>2446.2121582031</ele>
        <time>2011-06-19T10:03:48Z</time>
      </trkpt>
      <trkpt lat="42.61522" lon="1.72971">
        <ele>2444.7700195312</ele>
        <time>2011-06-19T10:03:54Z</time>
      </trkpt>
      <trkpt lat="42.6152" lon="1.72969">
        <ele>2443.80859375</ele>
        <time>2011-06-19T10:03:59Z</time>
      </trkpt>
      <trkpt lat="42.6152" lon="1.72968">
        <ele>2443.3278808594</ele>
        <time>2011-06-19T10:04:02Z</time>
      </trkpt>
      <trkpt lat="42.61523" lon="1.72967">
        <ele>2442.3666992188</ele>
        <time>2011-06-19T10:04:08Z</time>
      </trkpt>
      <trkpt lat="42.61524" lon="1.72965">
        <ele>2440.9245605469</ele>
        <time>2011-06-19T10:04:15Z</time>
      </trkpt>
      <trkpt lat="42.61525" lon="1.72963">
        <ele>2439.001953125</ele>
        <time>2011-06-19T10:04:22Z</time>
      </trkpt>
      <trkpt lat="42.61526" lon="1.72962">
        <ele>2438.0407714844</ele>
        <time>2011-06-19T10:04:28Z</time>
      </trkpt>
      <trkpt lat="42.61528" lon="1.7296">
        <ele>2437.0793457031</ele>
        <time>2011-06-19T10:04:35Z</time>
      </trkpt>
      <trkpt lat="42.61529" lon="1.72962">
        <ele>2436.5986328125</ele>
        <time>2011-06-19T10:04:40Z</time>
      </trkpt>
      <trkpt lat="42.61532" lon="1.72968">
        <ele>2435.1567382812</ele>
        <time>2011-06-19T10:04:47Z</time>
      </trkpt>
      <trkpt lat="42.61536" lon="1.72973">
        <ele>2433.71484375</ele>
        <time>2011-06-19T10:04:54Z</time>
      </trkpt>
      <trkpt lat="42.61539" lon="1.72977">
        <ele>2432.7534179688</ele>
        <time>2011-06-19T10:05:00Z</time>
      </trkpt>
      <trkpt lat="42.61544" lon="1.72983">
        <ele>2430.8310546875</ele>
        <time>2011-06-19T10:05:07Z</time>
      </trkpt>
      <trkpt lat="42.61546" lon="1.72984">
        <ele>2431.3115234375</ele>
        <time>2011-06-19T10:05:11Z</time>
      </trkpt>
      <trkpt lat="42.61549" lon="1.72987">
        <ele>2429.8696289062</ele>
        <time>2011-06-19T10:05:19Z</time>
      </trkpt>
      <trkpt lat="42.6155" lon="1.72989">
        <ele>2429.3889160156</ele>
        <time>2011-06-19T10:05:20Z</time>
      </trkpt>
      <trkpt lat="42.61551" lon="1.73001">
        <ele>2425.5434570312</ele>
        <time>2011-06-19T10:05:27Z</time>
      </trkpt>
      <trkpt lat="42.61552" lon="1.7301">
        <ele>2423.1403808594</ele>
        <time>2011-06-19T10:05:34Z</time>
      </trkpt>
      <trkpt lat="42.61554" lon="1.73017">
        <ele>2422.1789550781</ele>
        <time>2011-06-19T10:05:39Z</time>
      </trkpt>
      <trkpt lat="42.61553" lon="1.73018">
        <ele>2421.6982421875</ele>
        <time>2011-06-19T10:05:40Z</time>
      </trkpt>
      <trkpt lat="42.61554" lon="1.73025">
        <ele>2420.7370605469</ele>
        <time>2011-06-19T10:05:44Z</time>
      </trkpt>
      <trkpt lat="42.61555" lon="1.73029">
        <ele>2420.7370605469</ele>
        <time>2011-06-19T10:05:47Z</time>
      </trkpt>
      <trkpt lat="42.61557" lon="1.73039">
        <ele>2417.8530273438</ele>
        <time>2011-06-19T10:05:55Z</time>
      </trkpt>
      <trkpt lat="42.61561" lon="1.73042">
        <ele>2415.9304199219</ele>
        <time>2011-06-19T10:06:00Z</time>
      </trkpt>
      <trkpt lat="42.61565" lon="1.73044">
        <ele>2415.4499511719</ele>
        <time>2011-06-19T10:06:06Z</time>
      </trkpt>
      <trkpt lat="42.61571" lon="1.73043">
        <ele>2415.4499511719</ele>
        <time>2011-06-19T10:06:12Z</time>
      </trkpt>
      <trkpt lat="42.61573" lon="1.73043">
        <ele>2414.9692382812</ele>
        <time>2011-06-19T10:06:17Z</time>
      </trkpt>
      <trkpt lat="42.61576" lon="1.73046">
        <ele>2413.0466308594</ele>
        <time>2011-06-19T10:06:24Z</time>
      </trkpt>
      <trkpt lat="42.6158" lon="1.73051">
        <ele>2410.1623535156</ele>
        <time>2011-06-19T10:06:30Z</time>
      </trkpt>
      <trkpt lat="42.61584" lon="1.73055">
        <ele>2408.7204589844</ele>
        <time>2011-06-19T10:06:37Z</time>
      </trkpt>
      <trkpt lat="42.6159" lon="1.73057">
        <ele>2406.3171386719</ele>
        <time>2011-06-19T10:06:43Z</time>
      </trkpt>
      <trkpt lat="42.61593" lon="1.73057">
        <ele>2404.8752441406</ele>
        <time>2011-06-19T10:06:47Z</time>
      </trkpt>
      <trkpt lat="42.61597" lon="1.73059">
        <ele>2402.4719238281</ele>
        <time>2011-06-19T10:06:54Z</time>
      </trkpt>
      <trkpt lat="42.61602" lon="1.73055">
        <ele>2401.9912109375</ele>
        <time>2011-06-19T10:07:00Z</time>
      </trkpt>
      <trkpt lat="42.61606" lon="1.73055">
        <ele>2401.5107421875</ele>
        <time>2011-06-19T10:07:03Z</time>
      </trkpt>
      <trkpt lat="42.61611" lon="1.73057">
        <ele>2400.5493164062</ele>
        <time>2011-06-19T10:07:07Z</time>
      </trkpt>
      <trkpt lat="42.61612" lon="1.73057">
        <ele>2400.0688476562</ele>
        <time>2011-06-19T10:07:09Z</time>
      </trkpt>
      <trkpt lat="42.6162" lon="1.73057">
        <ele>2396.2236328125</ele>
        <time>2011-06-19T10:07:16Z</time>
      </trkpt>
      <trkpt lat="42.61622" lon="1.73056">
        <ele>2394.78125</ele>
        <time>2011-06-19T10:07:20Z</time>
      </trkpt>
      <trkpt lat="42.61625" lon="1.73061">
        <ele>2392.3781738281</ele>
        <time>2011-06-19T10:07:25Z</time>
      </trkpt>
      <trkpt lat="42.61628" lon="1.73066">
        <ele>2391.4167480469</ele>
        <time>2011-06-19T10:07:31Z</time>
      </trkpt>
      <trkpt lat="42.61633" lon="1.73071">
        <ele>2390.4553222656</ele>
        <time>2011-06-19T10:07:37Z</time>
      </trkpt>
      <trkpt lat="42.61635" lon="1.73076">
        <ele>2389.9748535156</ele>
        <time>2011-06-19T10:07:42Z</time>
      </trkpt>
      <trkpt lat="42.61641" lon="1.7308">
        <ele>2389.494140625</ele>
        <time>2011-06-19T10:07:48Z</time>
      </trkpt>
      <trkpt lat="42.61641" lon="1.7308">
        <ele>2389.494140625</ele>
        <time>2011-06-19T10:07:49Z</time>
      </trkpt>
      <trkpt lat="42.61644" lon="1.73087">
        <ele>2389.494140625</ele>
        <time>2011-06-19T10:07:54Z</time>
      </trkpt>
      <trkpt lat="42.61648" lon="1.73092">
        <ele>2389.9748535156</ele>
        <time>2011-06-19T10:08:02Z</time>
      </trkpt>
      <trkpt lat="42.61653" lon="1.73096">
        <ele>2390.4553222656</ele>
        <time>2011-06-19T10:08:09Z</time>
      </trkpt>
      <trkpt lat="42.61658" lon="1.73098">
        <ele>2390.4553222656</ele>
        <time>2011-06-19T10:08:16Z</time>
      </trkpt>
      <trkpt lat="42.61664" lon="1.73098">
        <ele>2389.9748535156</ele>
        <time>2011-06-19T10:08:23Z</time>
      </trkpt>
      <trkpt lat="42.61671" lon="1.73102">
        <ele>2388.5329589844</ele>
        <time>2011-06-19T10:08:30Z</time>
      </trkpt>
      <trkpt lat="42.61675" lon="1.73102">
        <ele>2387.5715332031</ele>
        <time>2011-06-19T10:08:35Z</time>
      </trkpt>
      <trkpt lat="42.61678" lon="1.73103">
        <ele>2386.6101074219</ele>
        <time>2011-06-19T10:08:37Z</time>
      </trkpt>
      <trkpt lat="42.61683" lon="1.73103">
        <ele>2385.6489257812</ele>
        <time>2011-06-19T10:08:42Z</time>
      </trkpt>
      <trkpt lat="42.61688" lon="1.7311">
        <ele>2385.6489257812</ele>
        <time>2011-06-19T10:08:48Z</time>
      </trkpt>
      <trkpt lat="42.61692" lon="1.73114">
        <ele>2385.1682128906</ele>
        <time>2011-06-19T10:08:53Z</time>
      </trkpt>
      <trkpt lat="42.61696" lon="1.73118">
        <ele>2384.20703125</ele>
        <time>2011-06-19T10:08:59Z</time>
      </trkpt>
      <trkpt lat="42.61702" lon="1.73124">
        <ele>2383.7263183594</ele>
        <time>2011-06-19T10:09:06Z</time>
      </trkpt>
      <trkpt lat="42.61705" lon="1.73127">
        <ele>2383.2456054688</ele>
        <time>2011-06-19T10:09:11Z</time>
      </trkpt>
      <trkpt lat="42.61707" lon="1.73132">
        <ele>2383.2456054688</ele>
        <time>2011-06-19T10:09:17Z</time>
      </trkpt>
      <trkpt lat="42.61712" lon="1.73135">
        <ele>2383.2456054688</ele>
        <time>2011-06-19T10:09:24Z</time>
      </trkpt>
      <trkpt lat="42.61716" lon="1.73136">
        <ele>2382.2844238281</ele>
        <time>2011-06-19T10:09:29Z</time>
      </trkpt>
      <trkpt lat="42.61718" lon="1.73137">
        <ele>2380.8425292969</ele>
        <time>2011-06-19T10:09:33Z</time>
      </trkpt>
      <trkpt lat="42.61724" lon="1.73137">
        <ele>2379.4001464844</ele>
        <time>2011-06-19T10:09:39Z</time>
      </trkpt>
      <trkpt lat="42.61729" lon="1.73139">
        <ele>2376.9970703125</ele>
        <time>2011-06-19T10:09:47Z</time>
      </trkpt>
      <trkpt lat="42.61732" lon="1.7314">
        <ele>2375.5549316406</ele>
        <time>2011-06-19T10:09:53Z</time>
      </trkpt>
      <trkpt lat="42.61734" lon="1.73142">
        <ele>2373.1518554688</ele>
        <time>2011-06-19T10:09:59Z</time>
      </trkpt>
      <trkpt lat="42.61736" lon="1.73143">
        <ele>2371.2290039062</ele>
        <time>2011-06-19T10:10:04Z</time>
      </trkpt>
      <trkpt lat="42.61741" lon="1.73143">
        <ele>2368.3452148438</ele>
        <time>2011-06-19T10:10:10Z</time>
      </trkpt>
      <trkpt lat="42.61746" lon="1.73145">
        <ele>2367.8645019531</ele>
        <time>2011-06-19T10:10:16Z</time>
      </trkpt>
      <trkpt lat="42.61751" lon="1.73147">
        <ele>2368.3452148438</ele>
        <time>2011-06-19T10:10:22Z</time>
      </trkpt>
      <trkpt lat="42.61756" lon="1.7315">
        <ele>2367.8645019531</ele>
        <time>2011-06-19T10:10:30Z</time>
      </trkpt>
      <trkpt lat="42.6176" lon="1.7315">
        <ele>2366.9033203125</ele>
        <time>2011-06-19T10:10:35Z</time>
      </trkpt>
      <trkpt lat="42.61763" lon="1.7315">
        <ele>2365.4614257812</ele>
        <time>2011-06-19T10:10:41Z</time>
      </trkpt>
      <trkpt lat="42.61764" lon="1.73147">
        <ele>2364.5</ele>
        <time>2011-06-19T10:10:48Z</time>
      </trkpt>
      <trkpt lat="42.61766" lon="1.73143">
        <ele>2362.0964355469</ele>
        <time>2011-06-19T10:10:55Z</time>
      </trkpt>
      <trkpt lat="42.61768" lon="1.73136">
        <ele>2361.6159667969</ele>
        <time>2011-06-19T10:11:01Z</time>
      </trkpt>
      <trkpt lat="42.61772" lon="1.73132">
        <ele>2361.1352539062</ele>
        <time>2011-06-19T10:11:06Z</time>
      </trkpt>
      <trkpt lat="42.61776" lon="1.73129">
        <ele>2360.6545410156</ele>
        <time>2011-06-19T10:11:10Z</time>
      </trkpt>
      <trkpt lat="42.61781" lon="1.73123">
        <ele>2360.6545410156</ele>
        <time>2011-06-19T10:11:16Z</time>
      </trkpt>
      <trkpt lat="42.61787" lon="1.73121">
        <ele>2360.173828125</ele>
        <time>2011-06-19T10:11:24Z</time>
      </trkpt>
      <trkpt lat="42.61792" lon="1.73121">
        <ele>2359.2126464844</ele>
        <time>2011-06-19T10:11:31Z</time>
      </trkpt>
      <trkpt lat="42.61796" lon="1.73122">
        <ele>2358.7319335938</ele>
        <time>2011-06-19T10:11:36Z</time>
      </trkpt>
      <trkpt lat="42.61799" lon="1.73122">
        <ele>2357.7707519531</ele>
        <time>2011-06-19T10:11:42Z</time>
      </trkpt>
      <trkpt lat="42.61801" lon="1.73121">
        <ele>2356.8093261719</ele>
        <time>2011-06-19T10:11:47Z</time>
      </trkpt>
      <trkpt lat="42.61803" lon="1.73122">
        <ele>2355.8479003906</ele>
        <time>2011-06-19T10:11:52Z</time>
      </trkpt>
      <trkpt lat="42.61807" lon="1.73121">
        <ele>2354.4060058594</ele>
        <time>2011-06-19T10:11:58Z</time>
      </trkpt>
      <trkpt lat="42.61811" lon="1.7312">
        <ele>2353.4448242188</ele>
        <time>2011-06-19T10:12:06Z</time>
      </trkpt>
      <trkpt lat="42.61816" lon="1.73125">
        <ele>2352.9641113281</ele>
        <time>2011-06-19T10:12:12Z</time>
      </trkpt>
      <trkpt lat="42.61819" lon="1.73126">
        <ele>2351.5222167969</ele>
        <time>2011-06-19T10:12:18Z</time>
      </trkpt>
      <trkpt lat="42.61821" lon="1.73127">
        <ele>2350.5607910156</ele>
        <time>2011-06-19T10:12:24Z</time>
      </trkpt>
      <trkpt lat="42.61821" lon="1.73127">
        <ele>2350.5607910156</ele>
        <time>2011-06-19T10:12:34Z</time>
      </trkpt>
      <trkpt lat="42.61823" lon="1.73127">
        <ele>2349.1188964844</ele>
        <time>2011-06-19T10:12:39Z</time>
      </trkpt>
      <trkpt lat="42.61828" lon="1.73128">
        <ele>2347.6767578125</ele>
        <time>2011-06-19T10:12:45Z</time>
      </trkpt>
      <trkpt lat="42.61831" lon="1.7313">
        <ele>2347.1960449219</ele>
        <time>2011-06-19T10:12:51Z</time>
      </trkpt>
      <trkpt lat="42.61832" lon="1.73126">
        <ele>2346.7153320312</ele>
        <time>2011-06-19T10:12:54Z</time>
      </trkpt>
      <trkpt lat="42.61834" lon="1.73117">
        <ele>2345.7541503906</ele>
        <time>2011-06-19T10:13:00Z</time>
      </trkpt>
      <trkpt lat="42.61835" lon="1.73114">
        <ele>2345.7541503906</ele>
        <time>2011-06-19T10:13:02Z</time>
      </trkpt>
      <trkpt lat="42.6184" lon="1.73103">
        <ele>2345.2734375</ele>
        <time>2011-06-19T10:13:08Z</time>
      </trkpt>
      <trkpt lat="42.6184" lon="1.731">
        <ele>2345.2734375</ele>
        <time>2011-06-19T10:13:10Z</time>
      </trkpt>
      <trkpt lat="42.61845" lon="1.7309">
        <ele>2344.3120117188</ele>
        <time>2011-06-19T10:13:17Z</time>
      </trkpt>
      <trkpt lat="42.61853" lon="1.73085">
        <ele>2343.8315429688</ele>
        <time>2011-06-19T10:13:24Z</time>
      </trkpt>
      <trkpt lat="42.61859" lon="1.7308">
        <ele>2343.8315429688</ele>
        <time>2011-06-19T10:13:30Z</time>
      </trkpt>
      <trkpt lat="42.61862" lon="1.73076">
        <ele>2344.3120117188</ele>
        <time>2011-06-19T10:13:34Z</time>
      </trkpt>
      <trkpt lat="42.61864" lon="1.7307">
        <ele>2344.7927246094</ele>
        <time>2011-06-19T10:13:41Z</time>
      </trkpt>
      <trkpt lat="42.61867" lon="1.73071">
        <ele>2344.7927246094</ele>
        <time>2011-06-19T10:13:45Z</time>
      </trkpt>
      <trkpt lat="42.61868" lon="1.73069">
        <ele>2345.7541503906</ele>
        <time>2011-06-19T10:13:51Z</time>
      </trkpt>
      <trkpt lat="42.61871" lon="1.73066">
        <ele>2345.7541503906</ele>
        <time>2011-06-19T10:13:55Z</time>
      </trkpt>
      <trkpt lat="42.61875" lon="1.73064">
        <ele>2346.2348632812</ele>
        <time>2011-06-19T10:14:01Z</time>
      </trkpt>
      <trkpt lat="42.61877" lon="1.73059">
        <ele>2346.2348632812</ele>
        <time>2011-06-19T10:14:06Z</time>
      </trkpt>
      <trkpt lat="42.6188" lon="1.73059">
        <ele>2346.7153320312</ele>
        <time>2011-06-19T10:14:12Z</time>
      </trkpt>
      <trkpt lat="42.61882" lon="1.73057">
        <ele>2347.1960449219</ele>
        <time>2011-06-19T10:14:16Z</time>
      </trkpt>
      <trkpt lat="42.61884" lon="1.73053">
        <ele>2348.1574707031</ele>
        <time>2011-06-19T10:14:21Z</time>
      </trkpt>
      <trkpt lat="42.61887" lon="1.7305">
        <ele>2349.599609375</ele>
        <time>2011-06-19T10:14:27Z</time>
      </trkpt>
      <trkpt lat="42.61889" lon="1.73047">
        <ele>2351.5222167969</ele>
        <time>2011-06-19T10:14:33Z</time>
      </trkpt>
      <trkpt lat="42.61891" lon="1.73041">
        <ele>2352.4833984375</ele>
        <time>2011-06-19T10:14:39Z</time>
      </trkpt>
      <trkpt lat="42.61893" lon="1.7304">
        <ele>2353.4448242188</ele>
        <time>2011-06-19T10:14:46Z</time>
      </trkpt>
      <trkpt lat="42.61895" lon="1.7304">
        <ele>2352.4833984375</ele>
        <time>2011-06-19T10:14:54Z</time>
      </trkpt>
      <trkpt lat="42.619" lon="1.7304">
        <ele>2352.9641113281</ele>
        <time>2011-06-19T10:15:00Z</time>
      </trkpt>
      <trkpt lat="42.61905" lon="1.73037">
        <ele>2352.9641113281</ele>
        <time>2011-06-19T10:15:06Z</time>
      </trkpt>
      <trkpt lat="42.61911" lon="1.73036">
        <ele>2352.0026855469</ele>
        <time>2011-06-19T10:15:12Z</time>
      </trkpt>
      <trkpt lat="42.61914" lon="1.73035">
        <ele>2350.0803222656</ele>
        <time>2011-06-19T10:15:18Z</time>
      </trkpt>
      <trkpt lat="42.61917" lon="1.73036">
        <ele>2347.6767578125</ele>
        <time>2011-06-19T10:15:26Z</time>
      </trkpt>
      <trkpt lat="42.61921" lon="1.73032">
        <ele>2346.2348632812</ele>
        <time>2011-06-19T10:15:31Z</time>
      </trkpt>
      <trkpt lat="42.61925" lon="1.73033">
        <ele>2344.7927246094</ele>
        <time>2011-06-19T10:15:37Z</time>
      </trkpt>
      <trkpt lat="42.61928" lon="1.73032">
        <ele>2343.8315429688</ele>
        <time>2011-06-19T10:15:41Z</time>
      </trkpt>
      <trkpt lat="42.6194" lon="1.73028">
        <ele>2343.3508300781</ele>
        <time>2011-06-19T10:15:49Z</time>
      </trkpt>
      <trkpt lat="42.61942" lon="1.73026">
        <ele>2343.8315429688</ele>
        <time>2011-06-19T10:15:50Z</time>
      </trkpt>
      <trkpt lat="42.61949" lon="1.73019">
        <ele>2344.3120117188</ele>
        <time>2011-06-19T10:15:56Z</time>
      </trkpt>
      <trkpt lat="42.61952" lon="1.73015">
        <ele>2344.3120117188</ele>
        <time>2011-06-19T10:15:59Z</time>
      </trkpt>
      <trkpt lat="42.61956" lon="1.73013">
        <ele>2344.7927246094</ele>
        <time>2011-06-19T10:16:03Z</time>
      </trkpt>
      <trkpt lat="42.61964" lon="1.73013">
        <ele>2344.7927246094</ele>
        <time>2011-06-19T10:16:11Z</time>
      </trkpt>
      <trkpt lat="42.61969" lon="1.73016">
        <ele>2344.7927246094</ele>
        <time>2011-06-19T10:16:18Z</time>
      </trkpt>
      <trkpt lat="42.61974" lon="1.73015">
        <ele>2343.8315429688</ele>
        <time>2011-06-19T10:16:22Z</time>
      </trkpt>
      <trkpt lat="42.61981" lon="1.73014">
        <ele>2343.8315429688</ele>
        <time>2011-06-19T10:16:28Z</time>
      </trkpt>
      <trkpt lat="42.61984" lon="1.73013">
        <ele>2344.3120117188</ele>
        <time>2011-06-19T10:16:30Z</time>
      </trkpt>
      <trkpt lat="42.61993" lon="1.73013">
        <ele>2342.3896484375</ele>
        <time>2011-06-19T10:16:37Z</time>
      </trkpt>
      <trkpt lat="42.61998" lon="1.73012">
        <ele>2341.9089355469</ele>
        <time>2011-06-19T10:16:40Z</time>
      </trkpt>
      <trkpt lat="42.62004" lon="1.73013">
        <ele>2340.9475097656</ele>
        <time>2011-06-19T10:16:45Z</time>
      </trkpt>
      <trkpt lat="42.62008" lon="1.73015">
        <ele>2339.986328125</ele>
        <time>2011-06-19T10:16:48Z</time>
      </trkpt>
      <trkpt lat="42.62014" lon="1.7302">
        <ele>2338.0637207031</ele>
        <time>2011-06-19T10:16:53Z</time>
      </trkpt>
      <trkpt lat="42.62017" lon="1.73022">
        <ele>2337.1022949219</ele>
        <time>2011-06-19T10:16:57Z</time>
      </trkpt>
      <trkpt lat="42.6202" lon="1.73023">
        <ele>2336.6215820312</ele>
        <time>2011-06-19T10:17:00Z</time>
      </trkpt>
      <trkpt lat="42.62027" lon="1.73024">
        <ele>2336.1411132812</ele>
        <time>2011-06-19T10:17:06Z</time>
      </trkpt>
      <trkpt lat="42.62032" lon="1.73023">
        <ele>2336.6215820312</ele>
        <time>2011-06-19T10:17:11Z</time>
      </trkpt>
      <trkpt lat="42.62036" lon="1.73022">
        <ele>2336.6215820312</ele>
        <time>2011-06-19T10:17:17Z</time>
      </trkpt>
      <trkpt lat="42.62042" lon="1.73022">
        <ele>2338.0637207031</ele>
        <time>2011-06-19T10:17:23Z</time>
      </trkpt>
      <trkpt lat="42.62045" lon="1.73024">
        <ele>2339.0249023438</ele>
        <time>2011-06-19T10:17:29Z</time>
      </trkpt>
      <trkpt lat="42.62044" lon="1.73029">
        <ele>2339.986328125</ele>
        <time>2011-06-19T10:17:35Z</time>
      </trkpt>
      <trkpt lat="42.62043" lon="1.73033">
        <ele>2340.466796875</ele>
        <time>2011-06-19T10:17:40Z</time>
      </trkpt>
      <trkpt lat="42.62045" lon="1.73036">
        <ele>2340.9475097656</ele>
        <time>2011-06-19T10:17:45Z</time>
      </trkpt>
      <trkpt lat="42.62047" lon="1.73038">
        <ele>2342.3896484375</ele>
        <time>2011-06-19T10:17:51Z</time>
      </trkpt>
      <trkpt lat="42.62052" lon="1.73039">
        <ele>2343.3508300781</ele>
        <time>2011-06-19T10:17:59Z</time>
      </trkpt>
      <trkpt lat="42.62055" lon="1.73039">
        <ele>2344.3120117188</ele>
        <time>2011-06-19T10:18:06Z</time>
      </trkpt>
      <trkpt lat="42.62058" lon="1.73036">
        <ele>2346.2348632812</ele>
        <time>2011-06-19T10:18:12Z</time>
      </trkpt>
      <trkpt lat="42.62062" lon="1.73038">
        <ele>2347.1960449219</ele>
        <time>2011-06-19T10:18:18Z</time>
      </trkpt>
      <trkpt lat="42.62067" lon="1.73041">
        <ele>2348.6381835938</ele>
        <time>2011-06-19T10:18:25Z</time>
      </trkpt>
      <trkpt lat="42.62074" lon="1.73043">
        <ele>2348.6381835938</ele>
        <time>2011-06-19T10:18:32Z</time>
      </trkpt>
      <trkpt lat="42.62078" lon="1.73044">
        <ele>2348.1574707031</ele>
        <time>2011-06-19T10:18:36Z</time>
      </trkpt>
      <trkpt lat="42.62083" lon="1.73043">
        <ele>2347.6767578125</ele>
        <time>2011-06-19T10:18:42Z</time>
      </trkpt>
      <trkpt lat="42.62086" lon="1.73042">
        <ele>2347.6767578125</ele>
        <time>2011-06-19T10:18:46Z</time>
      </trkpt>
      <trkpt lat="42.6209" lon="1.73039">
        <ele>2347.6767578125</ele>
        <time>2011-06-19T10:18:52Z</time>
      </trkpt>
      <trkpt lat="42.62093" lon="1.73037">
        <ele>2348.1574707031</ele>
        <time>2011-06-19T10:18:57Z</time>
      </trkpt>
      <trkpt lat="42.62093" lon="1.73037">
        <ele>2349.1188964844</ele>
        <time>2011-06-19T10:19:03Z</time>
      </trkpt>
      <trkpt lat="42.62096" lon="1.73037">
        <ele>2351.0415039062</ele>
        <time>2011-06-19T10:19:09Z</time>
      </trkpt>
      <trkpt lat="42.62096" lon="1.73039">
        <ele>2352.4833984375</ele>
        <time>2011-06-19T10:19:14Z</time>
      </trkpt>
      <trkpt lat="42.62097" lon="1.73039">
        <ele>2349.599609375</ele>
        <time>2011-06-19T10:19:31Z</time>
      </trkpt>
      <trkpt lat="42.621" lon="1.73041">
        <ele>2349.599609375</ele>
        <time>2011-06-19T10:19:37Z</time>
      </trkpt>
      <trkpt lat="42.62104" lon="1.73041">
        <ele>2350.0803222656</ele>
        <time>2011-06-19T10:19:44Z</time>
      </trkpt>
      <trkpt lat="42.62108" lon="1.73039">
        <ele>2349.599609375</ele>
        <time>2011-06-19T10:19:51Z</time>
      </trkpt>
      <trkpt lat="42.62111" lon="1.73038">
        <ele>2350.0803222656</ele>
        <time>2011-06-19T10:19:56Z</time>
      </trkpt>
      <trkpt lat="42.62112" lon="1.73037">
        <ele>2352.0026855469</ele>
        <time>2011-06-19T10:20:01Z</time>
      </trkpt>
      <trkpt lat="42.62115" lon="1.73033">
        <ele>2351.0415039062</ele>
        <time>2011-06-19T10:20:15Z</time>
      </trkpt>
      <trkpt lat="42.62117" lon="1.73032">
        <ele>2353.4448242188</ele>
        <time>2011-06-19T10:20:21Z</time>
      </trkpt>
      <trkpt lat="42.62119" lon="1.73025">
        <ele>2356.3286132812</ele>
        <time>2011-06-19T10:20:27Z</time>
      </trkpt>
      <trkpt lat="42.62121" lon="1.7302">
        <ele>2357.7707519531</ele>
        <time>2011-06-19T10:20:34Z</time>
      </trkpt>
      <trkpt lat="42.62123" lon="1.73017">
        <ele>2360.173828125</ele>
        <time>2011-06-19T10:20:42Z</time>
      </trkpt>
      <trkpt lat="42.62125" lon="1.73013">
        <ele>2360.173828125</ele>
        <time>2011-06-19T10:20:47Z</time>
      </trkpt>
      <trkpt lat="42.62127" lon="1.73009">
        <ele>2360.173828125</ele>
        <time>2011-06-19T10:20:52Z</time>
      </trkpt>
      <trkpt lat="42.62128" lon="1.73005">
        <ele>2359.6931152344</ele>
        <time>2011-06-19T10:20:57Z</time>
      </trkpt>
      <trkpt lat="42.62131" lon="1.73002">
        <ele>2358.7319335938</ele>
        <time>2011-06-19T10:21:05Z</time>
      </trkpt>
      <trkpt lat="42.62133" lon="1.72999">
        <ele>2359.6931152344</ele>
        <time>2011-06-19T10:21:09Z</time>
      </trkpt>
      <trkpt lat="42.62136" lon="1.72994">
        <ele>2360.173828125</ele>
        <time>2011-06-19T10:21:14Z</time>
      </trkpt>
      <trkpt lat="42.62137" lon="1.72988">
        <ele>2360.173828125</ele>
        <time>2011-06-19T10:21:18Z</time>
      </trkpt>
      <trkpt lat="42.62137" lon="1.72987">
        <ele>2360.173828125</ele>
        <time>2011-06-19T10:21:19Z</time>
      </trkpt>
      <trkpt lat="42.62137" lon="1.72977">
        <ele>2358.2512207031</ele>
        <time>2011-06-19T10:21:26Z</time>
      </trkpt>
      <trkpt lat="42.62137" lon="1.72974">
        <ele>2357.7707519531</ele>
        <time>2011-06-19T10:21:28Z</time>
      </trkpt>
      <trkpt lat="42.6214" lon="1.7297">
        <ele>2358.2512207031</ele>
        <time>2011-06-19T10:21:32Z</time>
      </trkpt>
      <trkpt lat="42.62142" lon="1.72961">
        <ele>2362.0964355469</ele>
        <time>2011-06-19T10:21:38Z</time>
      </trkpt>
      <trkpt lat="42.62145" lon="1.72956">
        <ele>2363.5383300781</ele>
        <time>2011-06-19T10:21:43Z</time>
      </trkpt>
      <trkpt lat="42.62146" lon="1.72948">
        <ele>2361.1352539062</ele>
        <time>2011-06-19T10:21:50Z</time>
      </trkpt>
      <trkpt lat="42.62149" lon="1.72943">
        <ele>2358.7319335938</ele>
        <time>2011-06-19T10:21:57Z</time>
      </trkpt>
      <trkpt lat="42.62152" lon="1.72936">
        <ele>2357.2900390625</ele>
        <time>2011-06-19T10:22:03Z</time>
      </trkpt>
      <trkpt lat="42.62154" lon="1.72929">
        <ele>2355.8479003906</ele>
        <time>2011-06-19T10:22:09Z</time>
      </trkpt>
      <trkpt lat="42.62157" lon="1.72922">
        <ele>2352.9641113281</ele>
        <time>2011-06-19T10:22:17Z</time>
      </trkpt>
      <trkpt lat="42.62158" lon="1.72917">
        <ele>2352.4833984375</ele>
        <time>2011-06-19T10:22:22Z</time>
      </trkpt>
      <trkpt lat="42.62159" lon="1.72912">
        <ele>2350.5607910156</ele>
        <time>2011-06-19T10:22:27Z</time>
      </trkpt>
      <trkpt lat="42.6216" lon="1.72908">
        <ele>2348.6381835938</ele>
        <time>2011-06-19T10:22:32Z</time>
      </trkpt>
      <trkpt lat="42.62162" lon="1.72904">
        <ele>2347.1960449219</ele>
        <time>2011-06-19T10:22:37Z</time>
      </trkpt>
      <trkpt lat="42.62164" lon="1.72898">
        <ele>2345.2734375</ele>
        <time>2011-06-19T10:22:43Z</time>
      </trkpt>
      <trkpt lat="42.62167" lon="1.7289">
        <ele>2342.8701171875</ele>
        <time>2011-06-19T10:22:49Z</time>
      </trkpt>
      <trkpt lat="42.62171" lon="1.72884">
        <ele>2342.8701171875</ele>
        <time>2011-06-19T10:22:55Z</time>
      </trkpt>
      <trkpt lat="42.62174" lon="1.72878">
        <ele>2344.7927246094</ele>
        <time>2011-06-19T10:23:01Z</time>
      </trkpt>
      <trkpt lat="42.62176" lon="1.72877">
        <ele>2347.1960449219</ele>
        <time>2011-06-19T10:23:07Z</time>
      </trkpt>
      <trkpt lat="42.62177" lon="1.72872">
        <ele>2350.0803222656</ele>
        <time>2011-06-19T10:23:15Z</time>
      </trkpt>
      <trkpt lat="42.62177" lon="1.72867">
        <ele>2350.0803222656</ele>
        <time>2011-06-19T10:23:19Z</time>
      </trkpt>
      <trkpt lat="42.62175" lon="1.7286">
        <ele>2350.0803222656</ele>
        <time>2011-06-19T10:23:25Z</time>
      </trkpt>
      <trkpt lat="42.62173" lon="1.72855">
        <ele>2348.1574707031</ele>
        <time>2011-06-19T10:23:32Z</time>
      </trkpt>
      <trkpt lat="42.62173" lon="1.72847">
        <ele>2346.2348632812</ele>
        <time>2011-06-19T10:23:38Z</time>
      </trkpt>
      <trkpt lat="42.62174" lon="1.7284">
        <ele>2345.2734375</ele>
        <time>2011-06-19T10:23:43Z</time>
      </trkpt>
      <trkpt lat="42.62177" lon="1.72831">
        <ele>2343.3508300781</ele>
        <time>2011-06-19T10:23:50Z</time>
      </trkpt>
      <trkpt lat="42.62181" lon="1.72824">
        <ele>2343.8315429688</ele>
        <time>2011-06-19T10:23:56Z</time>
      </trkpt>
      <trkpt lat="42.62184" lon="1.72823">
        <ele>2343.3508300781</ele>
        <time>2011-06-19T10:24:04Z</time>
      </trkpt>
      <trkpt lat="42.62189" lon="1.72821">
        <ele>2342.8701171875</ele>
        <time>2011-06-19T10:24:10Z</time>
      </trkpt>
      <trkpt lat="42.62191" lon="1.72824">
        <ele>2342.8701171875</ele>
        <time>2011-06-19T10:24:14Z</time>
      </trkpt>
      <trkpt lat="42.6219" lon="1.72824">
        <ele>2343.8315429688</ele>
        <time>2011-06-19T10:24:24Z</time>
      </trkpt>
      <trkpt lat="42.6219" lon="1.72823">
        <ele>2343.8315429688</ele>
        <time>2011-06-19T10:24:37Z</time>
      </trkpt>
      <trkpt lat="42.62191" lon="1.72819">
        <ele>2344.7927246094</ele>
        <time>2011-06-19T10:24:49Z</time>
      </trkpt>
      <trkpt lat="42.62195" lon="1.72815">
        <ele>2344.7927246094</ele>
        <time>2011-06-19T10:24:54Z</time>
      </trkpt>
      <trkpt lat="42.62197" lon="1.72812">
        <ele>2344.7927246094</ele>
        <time>2011-06-19T10:24:59Z</time>
      </trkpt>
      <trkpt lat="42.62195" lon="1.72807">
        <ele>2344.3120117188</ele>
        <time>2011-06-19T10:25:04Z</time>
      </trkpt>
      <trkpt lat="42.62192" lon="1.728">
        <ele>2344.7927246094</ele>
        <time>2011-06-19T10:25:11Z</time>
      </trkpt>
      <trkpt lat="42.6219" lon="1.72797">
        <ele>2344.7927246094</ele>
        <time>2011-06-19T10:25:13Z</time>
      </trkpt>
      <trkpt lat="42.62185" lon="1.72788">
        <ele>2346.2348632812</ele>
        <time>2011-06-19T10:25:20Z</time>
      </trkpt>
      <trkpt lat="42.62183" lon="1.72781">
        <ele>2345.7541503906</ele>
        <time>2011-06-19T10:25:25Z</time>
      </trkpt>
      <trkpt lat="42.62183" lon="1.72772">
        <ele>2345.2734375</ele>
        <time>2011-06-19T10:25:33Z</time>
      </trkpt>
      <trkpt lat="42.6218" lon="1.72769">
        <ele>2344.7927246094</ele>
        <time>2011-06-19T10:25:39Z</time>
      </trkpt>
      <trkpt lat="42.62176" lon="1.72768">
        <ele>2343.3508300781</ele>
        <time>2011-06-19T10:25:45Z</time>
      </trkpt>
      <trkpt lat="42.6217" lon="1.72768">
        <ele>2340.466796875</ele>
        <time>2011-06-19T10:25:51Z</time>
      </trkpt>
      <trkpt lat="42.62168" lon="1.72768">
        <ele>2339.5056152344</ele>
        <time>2011-06-19T10:25:52Z</time>
      </trkpt>
      <trkpt lat="42.62159" lon="1.72768">
        <ele>2338.5444335938</ele>
        <time>2011-06-19T10:26:00Z</time>
      </trkpt>
      <trkpt lat="42.62154" lon="1.72764">
        <ele>2336.6215820312</ele>
        <time>2011-06-19T10:26:07Z</time>
      </trkpt>
      <trkpt lat="42.62156" lon="1.7276">
        <ele>2336.1411132812</ele>
        <time>2011-06-19T10:26:13Z</time>
      </trkpt>
      <trkpt lat="42.62155" lon="1.72757">
        <ele>2335.1796875</ele>
        <time>2011-06-19T10:26:19Z</time>
      </trkpt>
      <trkpt lat="42.62154" lon="1.72754">
        <ele>2335.1796875</ele>
        <time>2011-06-19T10:26:32Z</time>
      </trkpt>
      <trkpt lat="42.62154" lon="1.72748">
        <ele>2335.1796875</ele>
        <time>2011-06-19T10:26:38Z</time>
      </trkpt>
      <trkpt lat="42.62154" lon="1.72741">
        <ele>2334.69921875</ele>
        <time>2011-06-19T10:26:44Z</time>
      </trkpt>
      <trkpt lat="42.62153" lon="1.72734">
        <ele>2335.1796875</ele>
        <time>2011-06-19T10:26:50Z</time>
      </trkpt>
      <trkpt lat="42.62152" lon="1.72726">
        <ele>2336.1411132812</ele>
        <time>2011-06-19T10:26:56Z</time>
      </trkpt>
      <trkpt lat="42.62151" lon="1.72723">
        <ele>2336.6215820312</ele>
        <time>2011-06-19T10:27:01Z</time>
      </trkpt>
      <trkpt lat="42.62152" lon="1.72718">
        <ele>2337.5830078125</ele>
        <time>2011-06-19T10:27:07Z</time>
      </trkpt>
      <trkpt lat="42.62149" lon="1.72712">
        <ele>2339.0249023438</ele>
        <time>2011-06-19T10:27:13Z</time>
      </trkpt>
      <trkpt lat="42.62147" lon="1.72705">
        <ele>2341.4282226562</ele>
        <time>2011-06-19T10:27:20Z</time>
      </trkpt>
      <trkpt lat="42.62144" lon="1.72699">
        <ele>2343.3508300781</ele>
        <time>2011-06-19T10:27:26Z</time>
      </trkpt>
      <trkpt lat="42.62141" lon="1.72699">
        <ele>2345.2734375</ele>
        <time>2011-06-19T10:27:32Z</time>
      </trkpt>
      <trkpt lat="42.62138" lon="1.72698">
        <ele>2346.7153320312</ele>
        <time>2011-06-19T10:27:36Z</time>
      </trkpt>
      <trkpt lat="42.62135" lon="1.72694">
        <ele>2347.6767578125</ele>
        <time>2011-06-19T10:27:42Z</time>
      </trkpt>
      <trkpt lat="42.62132" lon="1.72692">
        <ele>2348.1574707031</ele>
        <time>2011-06-19T10:27:47Z</time>
      </trkpt>
      <trkpt lat="42.62129" lon="1.72687">
        <ele>2348.6381835938</ele>
        <time>2011-06-19T10:27:54Z</time>
      </trkpt>
      <trkpt lat="42.62126" lon="1.72683">
        <ele>2348.6381835938</ele>
        <time>2011-06-19T10:28:02Z</time>
      </trkpt>
      <trkpt lat="42.6212" lon="1.72678">
        <ele>2346.2348632812</ele>
        <time>2011-06-19T10:28:08Z</time>
      </trkpt>
      <trkpt lat="42.62118" lon="1.72676">
        <ele>2345.7541503906</ele>
        <time>2011-06-19T10:28:10Z</time>
      </trkpt>
      <trkpt lat="42.62113" lon="1.72666">
        <ele>2344.3120117188</ele>
        <time>2011-06-19T10:28:16Z</time>
      </trkpt>
      <trkpt lat="42.62107" lon="1.72657">
        <ele>2343.8315429688</ele>
        <time>2011-06-19T10:28:22Z</time>
      </trkpt>
      <trkpt lat="42.62106" lon="1.72645">
        <ele>2341.9089355469</ele>
        <time>2011-06-19T10:28:29Z</time>
      </trkpt>
      <trkpt lat="42.62106" lon="1.72635">
        <ele>2340.9475097656</ele>
        <time>2011-06-19T10:28:34Z</time>
      </trkpt>
      <trkpt lat="42.62109" lon="1.7263">
        <ele>2342.3896484375</ele>
        <time>2011-06-19T10:28:38Z</time>
      </trkpt>
      <trkpt lat="42.62111" lon="1.72622">
        <ele>2342.3896484375</ele>
        <time>2011-06-19T10:28:44Z</time>
      </trkpt>
      <trkpt lat="42.62111" lon="1.72614">
        <ele>2341.9089355469</ele>
        <time>2011-06-19T10:28:51Z</time>
      </trkpt>
      <trkpt lat="42.62111" lon="1.72614">
        <ele>2341.9089355469</ele>
        <time>2011-06-19T10:28:54Z</time>
      </trkpt>
      <trkpt lat="42.62507" lon="1.7258">
        <ele>2131.8608398438</ele>
        <time>2011-06-19T10:47:10Z</time>
      </trkpt>
      <trkpt lat="42.62507" lon="1.7258">
        <ele>2131.3801269531</ele>
        <time>2011-06-19T10:47:11Z</time>
      </trkpt>
      <trkpt lat="42.62509" lon="1.72576">
        <ele>2129.9382324219</ele>
        <time>2011-06-19T10:47:19Z</time>
      </trkpt>
      <trkpt lat="42.62511" lon="1.72571">
        <ele>2130.4189453125</ele>
        <time>2011-06-19T10:47:23Z</time>
      </trkpt>
      <trkpt lat="42.62516" lon="1.72571">
        <ele>2129.9382324219</ele>
        <time>2011-06-19T10:47:29Z</time>
      </trkpt>
      <trkpt lat="42.62521" lon="1.72575">
        <ele>2130.4189453125</ele>
        <time>2011-06-19T10:47:35Z</time>
      </trkpt>
      <trkpt lat="42.62524" lon="1.72579">
        <ele>2130.4189453125</ele>
        <time>2011-06-19T10:47:41Z</time>
      </trkpt>
      <trkpt lat="42.62527" lon="1.72583">
        <ele>2130.4189453125</ele>
        <time>2011-06-19T10:47:47Z</time>
      </trkpt>
      <trkpt lat="42.6253" lon="1.72588">
        <ele>2129.9382324219</ele>
        <time>2011-06-19T10:47:51Z</time>
      </trkpt>
      <trkpt lat="42.62532" lon="1.7259">
        <ele>2129.9382324219</ele>
        <time>2011-06-19T10:47:53Z</time>
      </trkpt>
      <trkpt lat="42.62537" lon="1.72592">
        <ele>2131.3801269531</ele>
        <time>2011-06-19T10:48:00Z</time>
      </trkpt>
      <trkpt lat="42.62542" lon="1.72588">
        <ele>2131.8608398438</ele>
        <time>2011-06-19T10:48:07Z</time>
      </trkpt>
      <trkpt lat="42.62546" lon="1.72585">
        <ele>2132.3415527344</ele>
        <time>2011-06-19T10:48:12Z</time>
      </trkpt>
      <trkpt lat="42.62551" lon="1.72589">
        <ele>2132.3415527344</ele>
        <time>2011-06-19T10:48:19Z</time>
      </trkpt>
      <trkpt lat="42.62553" lon="1.72591">
        <ele>2131.8608398438</ele>
        <time>2011-06-19T10:48:24Z</time>
      </trkpt>
      <trkpt lat="42.62555" lon="1.72593">
        <ele>2130.4189453125</ele>
        <time>2011-06-19T10:48:29Z</time>
      </trkpt>
      <trkpt lat="42.62558" lon="1.72597">
        <ele>2130.8996582031</ele>
        <time>2011-06-19T10:48:34Z</time>
      </trkpt>
      <trkpt lat="42.62564" lon="1.726">
        <ele>2131.3801269531</ele>
        <time>2011-06-19T10:48:41Z</time>
      </trkpt>
      <trkpt lat="42.6257" lon="1.72603">
        <ele>2131.3801269531</ele>
        <time>2011-06-19T10:48:47Z</time>
      </trkpt>
      <trkpt lat="42.62572" lon="1.72605">
        <ele>2131.8608398438</ele>
        <time>2011-06-19T10:48:49Z</time>
      </trkpt>
      <trkpt lat="42.62574" lon="1.72607">
        <ele>2131.8608398438</ele>
        <time>2011-06-19T10:48:52Z</time>
      </trkpt>
      <trkpt lat="42.6258" lon="1.72612">
        <ele>2132.8220214844</ele>
        <time>2011-06-19T10:48:58Z</time>
      </trkpt>
      <trkpt lat="42.62587" lon="1.72616">
        <ele>2133.7834472656</ele>
        <time>2011-06-19T10:49:04Z</time>
      </trkpt>
      <trkpt lat="42.62596" lon="1.72619">
        <ele>2135.2253417969</ele>
        <time>2011-06-19T10:49:12Z</time>
      </trkpt>
      <trkpt lat="42.62601" lon="1.72622">
        <ele>2136.6672363281</ele>
        <time>2011-06-19T10:49:18Z</time>
      </trkpt>
      <trkpt lat="42.62609" lon="1.72625">
        <ele>2137.1479492188</ele>
        <time>2011-06-19T10:49:26Z</time>
      </trkpt>
      <trkpt lat="42.62616" lon="1.72628">
        <ele>2137.6286621094</ele>
        <time>2011-06-19T10:49:33Z</time>
      </trkpt>
      <trkpt lat="42.62621" lon="1.72626">
        <ele>2137.6286621094</ele>
        <time>2011-06-19T10:49:37Z</time>
      </trkpt>
      <trkpt lat="42.62627" lon="1.72626">
        <ele>2138.109375</ele>
        <time>2011-06-19T10:49:44Z</time>
      </trkpt>
      <trkpt lat="42.62632" lon="1.72625">
        <ele>2137.1479492188</ele>
        <time>2011-06-19T10:49:49Z</time>
      </trkpt>
      <trkpt lat="42.62638" lon="1.72626">
        <ele>2136.6672363281</ele>
        <time>2011-06-19T10:49:54Z</time>
      </trkpt>
      <trkpt lat="42.62643" lon="1.72625">
        <ele>2136.6672363281</ele>
        <time>2011-06-19T10:49:59Z</time>
      </trkpt>
      <trkpt lat="42.62653" lon="1.72627">
        <ele>2137.6286621094</ele>
        <time>2011-06-19T10:50:08Z</time>
      </trkpt>
      <trkpt lat="42.62659" lon="1.72633">
        <ele>2137.1479492188</ele>
        <time>2011-06-19T10:50:15Z</time>
      </trkpt>
      <trkpt lat="42.62661" lon="1.72635">
        <ele>2137.6286621094</ele>
        <time>2011-06-19T10:50:18Z</time>
      </trkpt>
      <trkpt lat="42.62667" lon="1.72638">
        <ele>2138.109375</ele>
        <time>2011-06-19T10:50:25Z</time>
      </trkpt>
      <trkpt lat="42.62672" lon="1.72639">
        <ele>2140.0322265625</ele>
        <time>2011-06-19T10:50:32Z</time>
      </trkpt>
      <trkpt lat="42.62679" lon="1.72644">
        <ele>2140.0322265625</ele>
        <time>2011-06-19T10:50:39Z</time>
      </trkpt>
      <trkpt lat="42.62681" lon="1.72644">
        <ele>2141.4741210938</ele>
        <time>2011-06-19T10:50:44Z</time>
      </trkpt>
      <trkpt lat="42.62683" lon="1.72645">
        <ele>2143.3967285156</ele>
        <time>2011-06-19T10:50:50Z</time>
      </trkpt>
      <trkpt lat="42.62685" lon="1.72646">
        <ele>2144.3579101562</ele>
        <time>2011-06-19T10:50:54Z</time>
      </trkpt>
      <trkpt lat="42.62688" lon="1.72646">
        <ele>2144.8386230469</ele>
        <time>2011-06-19T10:51:01Z</time>
      </trkpt>
      <trkpt lat="42.62693" lon="1.72647">
        <ele>2143.3967285156</ele>
        <time>2011-06-19T10:51:05Z</time>
      </trkpt>
      <trkpt lat="42.62702" lon="1.7265">
        <ele>2140.9934082031</ele>
        <time>2011-06-19T10:51:12Z</time>
      </trkpt>
      <trkpt lat="42.62707" lon="1.72651">
        <ele>2140.5126953125</ele>
        <time>2011-06-19T10:51:17Z</time>
      </trkpt>
      <trkpt lat="42.62709" lon="1.72653">
        <ele>2140.5126953125</ele>
        <time>2011-06-19T10:51:21Z</time>
      </trkpt>
      <trkpt lat="42.62712" lon="1.72659">
        <ele>2140.0322265625</ele>
        <time>2011-06-19T10:51:27Z</time>
      </trkpt>
      <trkpt lat="42.62717" lon="1.72663">
        <ele>2140.5126953125</ele>
        <time>2011-06-19T10:51:32Z</time>
      </trkpt>
      <trkpt lat="42.62724" lon="1.72671">
        <ele>2140.9934082031</ele>
        <time>2011-06-19T10:51:39Z</time>
      </trkpt>
      <trkpt lat="42.62731" lon="1.72678">
        <ele>2141.4741210938</ele>
        <time>2011-06-19T10:51:46Z</time>
      </trkpt>
      <trkpt lat="42.62734" lon="1.72683">
        <ele>2141.9548339844</ele>
        <time>2011-06-19T10:51:51Z</time>
      </trkpt>
      <trkpt lat="42.62738" lon="1.72686">
        <ele>2141.4741210938</ele>
        <time>2011-06-19T10:51:57Z</time>
      </trkpt>
      <trkpt lat="42.6274" lon="1.72687">
        <ele>2140.9934082031</ele>
        <time>2011-06-19T10:52:03Z</time>
      </trkpt>
      <trkpt lat="42.6274" lon="1.72687">
        <ele>2142.916015625</ele>
        <time>2011-06-19T10:52:11Z</time>
      </trkpt>
      <trkpt lat="42.62738" lon="1.72687">
        <ele>2143.3967285156</ele>
        <time>2011-06-19T10:52:28Z</time>
      </trkpt>
      <trkpt lat="42.62738" lon="1.72684">
        <ele>2146.2807617188</ele>
        <time>2011-06-19T10:52:33Z</time>
      </trkpt>
      <trkpt lat="42.62739" lon="1.72684">
        <ele>2146.7612304688</ele>
        <time>2011-06-19T10:52:39Z</time>
      </trkpt>
      <trkpt lat="42.62738" lon="1.72686">
        <ele>2146.7612304688</ele>
        <time>2011-06-19T10:52:55Z</time>
      </trkpt>
      <trkpt lat="42.62741" lon="1.72687">
        <ele>2143.8774414062</ele>
        <time>2011-06-19T10:53:06Z</time>
      </trkpt>
      <trkpt lat="42.62743" lon="1.7269">
        <ele>2143.3967285156</ele>
        <time>2011-06-19T10:53:13Z</time>
      </trkpt>
      <trkpt lat="42.62748" lon="1.72697">
        <ele>2142.435546875</ele>
        <time>2011-06-19T10:53:23Z</time>
      </trkpt>
      <trkpt lat="42.62748" lon="1.727">
        <ele>2141.9548339844</ele>
        <time>2011-06-19T10:53:30Z</time>
      </trkpt>
      <trkpt lat="42.62748" lon="1.72707">
        <ele>2139.5512695312</ele>
        <time>2011-06-19T10:53:38Z</time>
      </trkpt>
      <trkpt lat="42.62748" lon="1.72712">
        <ele>2139.0705566406</ele>
        <time>2011-06-19T10:53:43Z</time>
      </trkpt>
      <trkpt lat="42.62748" lon="1.72719">
        <ele>2137.6286621094</ele>
        <time>2011-06-19T10:53:50Z</time>
      </trkpt>
      <trkpt lat="42.62747" lon="1.72724">
        <ele>2136.6672363281</ele>
        <time>2011-06-19T10:53:55Z</time>
      </trkpt>
      <trkpt lat="42.62746" lon="1.72731">
        <ele>2135.7060546875</ele>
        <time>2011-06-19T10:54:01Z</time>
      </trkpt>
      <trkpt lat="42.62743" lon="1.72735">
        <ele>2134.2641601562</ele>
        <time>2011-06-19T10:54:07Z</time>
      </trkpt>
      <trkpt lat="42.62742" lon="1.72734">
        <ele>2134.7448730469</ele>
        <time>2011-06-19T10:54:11Z</time>
      </trkpt>
      <trkpt lat="42.62747" lon="1.72733">
        <ele>2128.4963378906</ele>
        <time>2011-06-19T11:21:16Z</time>
      </trkpt>
      <trkpt lat="42.62748" lon="1.72734">
        <ele>2128.9768066406</ele>
        <time>2011-06-19T11:21:21Z</time>
      </trkpt>
      <trkpt lat="42.62746" lon="1.72734">
        <ele>2128.4963378906</ele>
        <time>2011-06-19T11:21:28Z</time>
      </trkpt>
      <trkpt lat="42.62746" lon="1.72734">
        <ele>2128.4963378906</ele>
        <time>2011-06-19T11:21:35Z</time>
      </trkpt>
      <trkpt lat="42.62746" lon="1.72735">
        <ele>2128.4963378906</ele>
        <time>2011-06-19T11:21:43Z</time>
      </trkpt>
      <trkpt lat="42.62745" lon="1.72734">
        <ele>2129.4575195312</ele>
        <time>2011-06-19T11:21:53Z</time>
      </trkpt>
      <trkpt lat="42.62745" lon="1.7273">
        <ele>2129.4575195312</ele>
        <time>2011-06-19T11:21:57Z</time>
      </trkpt>
      <trkpt lat="42.62745" lon="1.72721">
        <ele>2129.4575195312</ele>
        <time>2011-06-19T11:22:04Z</time>
      </trkpt>
      <trkpt lat="42.62746" lon="1.72714">
        <ele>2129.4575195312</ele>
        <time>2011-06-19T11:22:11Z</time>
      </trkpt>
      <trkpt lat="42.62746" lon="1.72708">
        <ele>2129.4575195312</ele>
        <time>2011-06-19T11:22:18Z</time>
      </trkpt>
      <trkpt lat="42.62747" lon="1.72702">
        <ele>2128.9768066406</ele>
        <time>2011-06-19T11:22:23Z</time>
      </trkpt>
      <trkpt lat="42.62749" lon="1.72697">
        <ele>2128.4963378906</ele>
        <time>2011-06-19T11:22:29Z</time>
      </trkpt>
      <trkpt lat="42.62755" lon="1.72693">
        <ele>2128.4963378906</ele>
        <time>2011-06-19T11:22:35Z</time>
      </trkpt>
      <trkpt lat="42.62761" lon="1.72691">
        <ele>2128.4963378906</ele>
        <time>2011-06-19T11:22:41Z</time>
      </trkpt>
      <trkpt lat="42.6277" lon="1.72689">
        <ele>2127.5349121094</ele>
        <time>2011-06-19T11:22:50Z</time>
      </trkpt>
      <trkpt lat="42.62778" lon="1.72685">
        <ele>2126.0930175781</ele>
        <time>2011-06-19T11:22:57Z</time>
      </trkpt>
      <trkpt lat="42.62779" lon="1.72685">
        <ele>2125.6123046875</ele>
        <time>2011-06-19T11:22:58Z</time>
      </trkpt>
      <trkpt lat="42.62782" lon="1.72689">
        <ele>2124.1704101562</ele>
        <time>2011-06-19T11:23:05Z</time>
      </trkpt>
      <trkpt lat="42.62782" lon="1.72693">
        <ele>2123.208984375</ele>
        <time>2011-06-19T11:23:11Z</time>
      </trkpt>
      <trkpt lat="42.62783" lon="1.72695">
        <ele>2121.7668457031</ele>
        <time>2011-06-19T11:23:18Z</time>
      </trkpt>
      <trkpt lat="42.62786" lon="1.72697">
        <ele>2120.3249511719</ele>
        <time>2011-06-19T11:23:24Z</time>
      </trkpt>
      <trkpt lat="42.62789" lon="1.72699">
        <ele>2119.3637695312</ele>
        <time>2011-06-19T11:23:29Z</time>
      </trkpt>
      <trkpt lat="42.62793" lon="1.727">
        <ele>2119.3637695312</ele>
        <time>2011-06-19T11:23:34Z</time>
      </trkpt>
      <trkpt lat="42.628" lon="1.727">
        <ele>2119.3637695312</ele>
        <time>2011-06-19T11:23:41Z</time>
      </trkpt>
      <trkpt lat="42.62804" lon="1.72698">
        <ele>2118.8830566406</ele>
        <time>2011-06-19T11:23:48Z</time>
      </trkpt>
      <trkpt lat="42.62807" lon="1.72695">
        <ele>2117.4409179688</ele>
        <time>2011-06-19T11:23:54Z</time>
      </trkpt>
      <trkpt lat="42.6281" lon="1.7269">
        <ele>2116.4797363281</ele>
        <time>2011-06-19T11:23:59Z</time>
      </trkpt>
      <trkpt lat="42.62813" lon="1.72688">
        <ele>2115.9990234375</ele>
        <time>2011-06-19T11:24:04Z</time>
      </trkpt>
      <trkpt lat="42.62812" lon="1.72686">
        <ele>2118.40234375</ele>
        <time>2011-06-19T11:24:19Z</time>
      </trkpt>
      <trkpt lat="42.62815" lon="1.72683">
        <ele>2117.9216308594</ele>
        <time>2011-06-19T11:24:25Z</time>
      </trkpt>
      <trkpt lat="42.62817" lon="1.72677">
        <ele>2116.4797363281</ele>
        <time>2011-06-19T11:24:30Z</time>
      </trkpt>
      <trkpt lat="42.6282" lon="1.72673">
        <ele>2115.5185546875</ele>
        <time>2011-06-19T11:24:33Z</time>
      </trkpt>
      <trkpt lat="42.62825" lon="1.72665">
        <ele>2115.0378417969</ele>
        <time>2011-06-19T11:24:38Z</time>
      </trkpt>
      <trkpt lat="42.62828" lon="1.72661">
        <ele>2114.5571289062</ele>
        <time>2011-06-19T11:24:43Z</time>
      </trkpt>
      <trkpt lat="42.6283" lon="1.7266">
        <ele>2114.5571289062</ele>
        <time>2011-06-19T11:24:45Z</time>
      </trkpt>
      <trkpt lat="42.62837" lon="1.72654">
        <ele>2114.0764160156</ele>
        <time>2011-06-19T11:24:52Z</time>
      </trkpt>
      <trkpt lat="42.62839" lon="1.72651">
        <ele>2113.115234375</ele>
        <time>2011-06-19T11:24:54Z</time>
      </trkpt>
      <trkpt lat="42.62845" lon="1.72642">
        <ele>2111.6733398438</ele>
        <time>2011-06-19T11:25:00Z</time>
      </trkpt>
      <trkpt lat="42.62853" lon="1.72635">
        <ele>2111.6733398438</ele>
        <time>2011-06-19T11:25:04Z</time>
      </trkpt>
      <trkpt lat="42.62858" lon="1.72627">
        <ele>2110.2312011719</ele>
        <time>2011-06-19T11:25:09Z</time>
      </trkpt>
      <trkpt lat="42.6286" lon="1.72626">
        <ele>2109.7504882812</ele>
        <time>2011-06-19T11:25:10Z</time>
      </trkpt>
      <trkpt lat="42.62867" lon="1.72622">
        <ele>2108.7893066406</ele>
        <time>2011-06-19T11:25:14Z</time>
      </trkpt>
      <trkpt lat="42.62875" lon="1.72617">
        <ele>2108.7893066406</ele>
        <time>2011-06-19T11:25:18Z</time>
      </trkpt>
      <trkpt lat="42.62883" lon="1.72614">
        <ele>2109.2700195312</ele>
        <time>2011-06-19T11:25:22Z</time>
      </trkpt>
      <trkpt lat="42.62892" lon="1.72607">
        <ele>2111.1926269531</ele>
        <time>2011-06-19T11:25:27Z</time>
      </trkpt>
      <trkpt lat="42.62901" lon="1.72597">
        <ele>2111.1926269531</ele>
        <time>2011-06-19T11:25:32Z</time>
      </trkpt>
      <trkpt lat="42.62908" lon="1.72592">
        <ele>2109.7504882812</ele>
        <time>2011-06-19T11:25:37Z</time>
      </trkpt>
      <trkpt lat="42.62911" lon="1.72591">
        <ele>2110.2312011719</ele>
        <time>2011-06-19T11:25:40Z</time>
      </trkpt>
      <trkpt lat="42.62914" lon="1.72591">
        <ele>2109.7504882812</ele>
        <time>2011-06-19T11:25:43Z</time>
      </trkpt>
      <trkpt lat="42.62921" lon="1.72586">
        <ele>2109.2700195312</ele>
        <time>2011-06-19T11:25:49Z</time>
      </trkpt>
      <trkpt lat="42.62922" lon="1.72586">
        <ele>2109.2700195312</ele>
        <time>2011-06-19T11:25:50Z</time>
      </trkpt>
      <trkpt lat="42.6293" lon="1.72585">
        <ele>2108.7893066406</ele>
        <time>2011-06-19T11:25:57Z</time>
      </trkpt>
      <trkpt lat="42.62936" lon="1.72582">
        <ele>2108.30859375</ele>
        <time>2011-06-19T11:26:04Z</time>
      </trkpt>
      <trkpt lat="42.62944" lon="1.72578">
        <ele>2107.8278808594</ele>
        <time>2011-06-19T11:26:10Z</time>
      </trkpt>
      <trkpt lat="42.62949" lon="1.7258">
        <ele>2107.3471679688</ele>
        <time>2011-06-19T11:26:14Z</time>
      </trkpt>
      <trkpt lat="42.62957" lon="1.7258">
        <ele>2107.3471679688</ele>
        <time>2011-06-19T11:26:21Z</time>
      </trkpt>
      <trkpt lat="42.62959" lon="1.72584">
        <ele>2107.3471679688</ele>
        <time>2011-06-19T11:26:25Z</time>
      </trkpt>
      <trkpt lat="42.62963" lon="1.72588">
        <ele>2107.3471679688</ele>
        <time>2011-06-19T11:26:32Z</time>
      </trkpt>
      <trkpt lat="42.62968" lon="1.72588">
        <ele>2107.3471679688</ele>
        <time>2011-06-19T11:26:38Z</time>
      </trkpt>
      <trkpt lat="42.62973" lon="1.72589">
        <ele>2107.3471679688</ele>
        <time>2011-06-19T11:26:44Z</time>
      </trkpt>
      <trkpt lat="42.62978" lon="1.72584">
        <ele>2106.8664550781</ele>
        <time>2011-06-19T11:26:51Z</time>
      </trkpt>
      <trkpt lat="42.6298" lon="1.72586">
        <ele>2106.8664550781</ele>
        <time>2011-06-19T11:26:57Z</time>
      </trkpt>
      <trkpt lat="42.62981" lon="1.72587">
        <ele>2107.8278808594</ele>
        <time>2011-06-19T11:27:03Z</time>
      </trkpt>
      <trkpt lat="42.62985" lon="1.72589">
        <ele>2107.8278808594</ele>
        <time>2011-06-19T11:27:08Z</time>
      </trkpt>
      <trkpt lat="42.62989" lon="1.72595">
        <ele>2107.3471679688</ele>
        <time>2011-06-19T11:27:14Z</time>
      </trkpt>
      <trkpt lat="42.62992" lon="1.72597">
        <ele>2107.8278808594</ele>
        <time>2011-06-19T11:27:19Z</time>
      </trkpt>
      <trkpt lat="42.62993" lon="1.72598">
        <ele>2107.8278808594</ele>
        <time>2011-06-19T11:27:25Z</time>
      </trkpt>
      <trkpt lat="42.62995" lon="1.72601">
        <ele>2107.8278808594</ele>
        <time>2011-06-19T11:27:31Z</time>
      </trkpt>
      <trkpt lat="42.62997" lon="1.72604">
        <ele>2107.8278808594</ele>
        <time>2011-06-19T11:27:37Z</time>
      </trkpt>
      <trkpt lat="42.63001" lon="1.72607">
        <ele>2106.8664550781</ele>
        <time>2011-06-19T11:27:44Z</time>
      </trkpt>
      <trkpt lat="42.63006" lon="1.72607">
        <ele>2106.8664550781</ele>
        <time>2011-06-19T11:27:50Z</time>
      </trkpt>
      <trkpt lat="42.63008" lon="1.72608">
        <ele>2106.3857421875</ele>
        <time>2011-06-19T11:27:56Z</time>
      </trkpt>
      <trkpt lat="42.6301" lon="1.72608">
        <ele>2107.3471679688</ele>
        <time>2011-06-19T11:28:02Z</time>
      </trkpt>
      <trkpt lat="42.63012" lon="1.72605">
        <ele>2107.3471679688</ele>
        <time>2011-06-19T11:28:08Z</time>
      </trkpt>
      <trkpt lat="42.63015" lon="1.72601">
        <ele>2106.8664550781</ele>
        <time>2011-06-19T11:28:13Z</time>
      </trkpt>
      <trkpt lat="42.63019" lon="1.72596">
        <ele>2106.8664550781</ele>
        <time>2011-06-19T11:28:18Z</time>
      </trkpt>
      <trkpt lat="42.6302" lon="1.72595">
        <ele>2106.8664550781</ele>
        <time>2011-06-19T11:28:19Z</time>
      </trkpt>
      <trkpt lat="42.63024" lon="1.72594">
        <ele>2106.8664550781</ele>
        <time>2011-06-19T11:28:23Z</time>
      </trkpt>
      <trkpt lat="42.63026" lon="1.72593">
        <ele>2106.8664550781</ele>
        <time>2011-06-19T11:28:25Z</time>
      </trkpt>
      <trkpt lat="42.63031" lon="1.72591">
        <ele>2106.8664550781</ele>
        <time>2011-06-19T11:28:31Z</time>
      </trkpt>
      <trkpt lat="42.63034" lon="1.7259">
        <ele>2106.8664550781</ele>
        <time>2011-06-19T11:28:35Z</time>
      </trkpt>
      <trkpt lat="42.63038" lon="1.72594">
        <ele>2108.30859375</ele>
        <time>2011-06-19T11:28:43Z</time>
      </trkpt>
      <trkpt lat="42.63043" lon="1.72593">
        <ele>2109.7504882812</ele>
        <time>2011-06-19T11:28:49Z</time>
      </trkpt>
      <trkpt lat="42.63049" lon="1.7259">
        <ele>2110.2312011719</ele>
        <time>2011-06-19T11:28:55Z</time>
      </trkpt>
      <trkpt lat="42.63055" lon="1.72589">
        <ele>2109.7504882812</ele>
        <time>2011-06-19T11:29:02Z</time>
      </trkpt>
      <trkpt lat="42.6306" lon="1.72586">
        <ele>2109.7504882812</ele>
        <time>2011-06-19T11:29:08Z</time>
      </trkpt>
      <trkpt lat="42.63066" lon="1.72586">
        <ele>2108.7893066406</ele>
        <time>2011-06-19T11:29:14Z</time>
      </trkpt>
      <trkpt lat="42.63069" lon="1.7259">
        <ele>2107.8278808594</ele>
        <time>2011-06-19T11:29:21Z</time>
      </trkpt>
      <trkpt lat="42.63073" lon="1.7259">
        <ele>2106.3857421875</ele>
        <time>2011-06-19T11:29:27Z</time>
      </trkpt>
      <trkpt lat="42.63078" lon="1.72593">
        <ele>2105.4245605469</ele>
        <time>2011-06-19T11:29:33Z</time>
      </trkpt>
      <trkpt lat="42.63082" lon="1.72596">
        <ele>2104.4631347656</ele>
        <time>2011-06-19T11:29:39Z</time>
      </trkpt>
      <trkpt lat="42.63086" lon="1.72601">
        <ele>2102.5405273438</ele>
        <time>2011-06-19T11:29:45Z</time>
      </trkpt>
      <trkpt lat="42.6309" lon="1.72603">
        <ele>2102.0598144531</ele>
        <time>2011-06-19T11:29:51Z</time>
      </trkpt>
      <trkpt lat="42.63095" lon="1.72609">
        <ele>2101.5793457031</ele>
        <time>2011-06-19T11:29:57Z</time>
      </trkpt>
      <trkpt lat="42.631" lon="1.72614">
        <ele>2102.0598144531</ele>
        <time>2011-06-19T11:30:04Z</time>
      </trkpt>
      <trkpt lat="42.63103" lon="1.72618">
        <ele>2103.0212402344</ele>
        <time>2011-06-19T11:30:11Z</time>
      </trkpt>
      <trkpt lat="42.63105" lon="1.72619">
        <ele>2103.501953125</ele>
        <time>2011-06-19T11:30:16Z</time>
      </trkpt>
      <trkpt lat="42.6311" lon="1.72618">
        <ele>2104.4631347656</ele>
        <time>2011-06-19T11:30:21Z</time>
      </trkpt>
      <trkpt lat="42.63114" lon="1.72615">
        <ele>2106.8664550781</ele>
        <time>2011-06-19T11:30:27Z</time>
      </trkpt>
      <trkpt lat="42.6312" lon="1.7261">
        <ele>2109.7504882812</ele>
        <time>2011-06-19T11:30:35Z</time>
      </trkpt>
      <trkpt lat="42.63124" lon="1.72606">
        <ele>2111.1926269531</ele>
        <time>2011-06-19T11:30:43Z</time>
      </trkpt>
      <trkpt lat="42.63124" lon="1.72612">
        <ele>2112.6345214844</ele>
        <time>2011-06-19T11:30:50Z</time>
      </trkpt>
      <trkpt lat="42.63127" lon="1.72615">
        <ele>2114.0764160156</ele>
        <time>2011-06-19T11:30:58Z</time>
      </trkpt>
      <trkpt lat="42.63125" lon="1.7262">
        <ele>2115.5185546875</ele>
        <time>2011-06-19T11:31:04Z</time>
      </trkpt>
      <trkpt lat="42.63124" lon="1.72625">
        <ele>2116.4797363281</ele>
        <time>2011-06-19T11:31:11Z</time>
      </trkpt>
      <trkpt lat="42.63125" lon="1.72628">
        <ele>2118.40234375</ele>
        <time>2011-06-19T11:31:17Z</time>
      </trkpt>
      <trkpt lat="42.63123" lon="1.72633">
        <ele>2118.8830566406</ele>
        <time>2011-06-19T11:31:24Z</time>
      </trkpt>
      <trkpt lat="42.63121" lon="1.72638">
        <ele>2118.8830566406</ele>
        <time>2011-06-19T11:31:31Z</time>
      </trkpt>
      <trkpt lat="42.63118" lon="1.72641">
        <ele>2118.8830566406</ele>
        <time>2011-06-19T11:31:37Z</time>
      </trkpt>
      <trkpt lat="42.63117" lon="1.72645">
        <ele>2120.3249511719</ele>
        <time>2011-06-19T11:31:43Z</time>
      </trkpt>
      <trkpt lat="42.63116" lon="1.72649">
        <ele>2122.2475585938</ele>
        <time>2011-06-19T11:31:50Z</time>
      </trkpt>
      <trkpt lat="42.63118" lon="1.7265">
        <ele>2123.689453125</ele>
        <time>2011-06-19T11:31:56Z</time>
      </trkpt>
      <trkpt lat="42.6312" lon="1.72652">
        <ele>2125.6123046875</ele>
        <time>2011-06-19T11:32:03Z</time>
      </trkpt>
      <trkpt lat="42.63123" lon="1.72654">
        <ele>2126.5737304688</ele>
        <time>2011-06-19T11:32:09Z</time>
      </trkpt>
      <trkpt lat="42.63126" lon="1.72657">
        <ele>2127.5349121094</ele>
        <time>2011-06-19T11:32:16Z</time>
      </trkpt>
      <trkpt lat="42.63128" lon="1.72665">
        <ele>2128.4963378906</ele>
        <time>2011-06-19T11:32:24Z</time>
      </trkpt>
      <trkpt lat="42.63131" lon="1.7267">
        <ele>2128.015625</ele>
        <time>2011-06-19T11:32:30Z</time>
      </trkpt>
      <trkpt lat="42.63133" lon="1.72672">
        <ele>2127.0544433594</ele>
        <time>2011-06-19T11:32:35Z</time>
      </trkpt>
      <trkpt lat="42.63136" lon="1.72677">
        <ele>2126.0930175781</ele>
        <time>2011-06-19T11:32:42Z</time>
      </trkpt>
      <trkpt lat="42.63141" lon="1.72679">
        <ele>2125.1315917969</ele>
        <time>2011-06-19T11:32:50Z</time>
      </trkpt>
      <trkpt lat="42.63146" lon="1.72679">
        <ele>2125.6123046875</ele>
        <time>2011-06-19T11:32:56Z</time>
      </trkpt>
      <trkpt lat="42.6315" lon="1.7268">
        <ele>2126.5737304688</ele>
        <time>2011-06-19T11:33:02Z</time>
      </trkpt>
      <trkpt lat="42.63154" lon="1.72679">
        <ele>2126.5737304688</ele>
        <time>2011-06-19T11:33:09Z</time>
      </trkpt>
      <trkpt lat="42.63158" lon="1.72679">
        <ele>2126.5737304688</ele>
        <time>2011-06-19T11:33:15Z</time>
      </trkpt>
      <trkpt lat="42.63162" lon="1.72681">
        <ele>2127.5349121094</ele>
        <time>2011-06-19T11:33:21Z</time>
      </trkpt>
      <trkpt lat="42.63168" lon="1.7268">
        <ele>2128.4963378906</ele>
        <time>2011-06-19T11:33:29Z</time>
      </trkpt>
      <trkpt lat="42.63175" lon="1.72679">
        <ele>2129.4575195312</ele>
        <time>2011-06-19T11:33:37Z</time>
      </trkpt>
      <trkpt lat="42.63181" lon="1.7268">
        <ele>2131.3801269531</ele>
        <time>2011-06-19T11:33:45Z</time>
      </trkpt>
      <trkpt lat="42.63186" lon="1.72679">
        <ele>2132.3415527344</ele>
        <time>2011-06-19T11:33:52Z</time>
      </trkpt>
      <trkpt lat="42.63193" lon="1.72676">
        <ele>2131.8608398438</ele>
        <time>2011-06-19T11:34:00Z</time>
      </trkpt>
      <trkpt lat="42.63198" lon="1.72677">
        <ele>2132.3415527344</ele>
        <time>2011-06-19T11:34:05Z</time>
      </trkpt>
      <trkpt lat="42.63204" lon="1.72676">
        <ele>2133.302734375</ele>
        <time>2011-06-19T11:34:11Z</time>
      </trkpt>
      <trkpt lat="42.63205" lon="1.72675">
        <ele>2133.302734375</ele>
        <time>2011-06-19T11:34:12Z</time>
      </trkpt>
      <trkpt lat="42.63211" lon="1.72676">
        <ele>2134.2641601562</ele>
        <time>2011-06-19T11:34:19Z</time>
      </trkpt>
      <trkpt lat="42.63218" lon="1.72674">
        <ele>2135.2253417969</ele>
        <time>2011-06-19T11:34:26Z</time>
      </trkpt>
      <trkpt lat="42.63224" lon="1.72672">
        <ele>2136.1867675781</ele>
        <time>2011-06-19T11:34:33Z</time>
      </trkpt>
      <trkpt lat="42.6323" lon="1.72667">
        <ele>2135.2253417969</ele>
        <time>2011-06-19T11:34:40Z</time>
      </trkpt>
      <trkpt lat="42.63234" lon="1.72666">
        <ele>2135.2253417969</ele>
        <time>2011-06-19T11:34:46Z</time>
      </trkpt>
      <trkpt lat="42.63239" lon="1.72666">
        <ele>2136.1867675781</ele>
        <time>2011-06-19T11:34:52Z</time>
      </trkpt>
      <trkpt lat="42.63245" lon="1.72666">
        <ele>2136.1867675781</ele>
        <time>2011-06-19T11:34:58Z</time>
      </trkpt>
      <trkpt lat="42.6325" lon="1.72665">
        <ele>2137.1479492188</ele>
        <time>2011-06-19T11:35:03Z</time>
      </trkpt>
      <trkpt lat="42.63257" lon="1.72666">
        <ele>2137.1479492188</ele>
        <time>2011-06-19T11:35:11Z</time>
      </trkpt>
      <trkpt lat="42.63261" lon="1.72665">
        <ele>2136.6672363281</ele>
        <time>2011-06-19T11:35:17Z</time>
      </trkpt>
      <trkpt lat="42.63265" lon="1.72665">
        <ele>2137.1479492188</ele>
        <time>2011-06-19T11:35:22Z</time>
      </trkpt>
      <trkpt lat="42.63266" lon="1.72667">
        <ele>2138.109375</ele>
        <time>2011-06-19T11:35:26Z</time>
      </trkpt>
      <trkpt lat="42.6327" lon="1.72665">
        <ele>2139.0705566406</ele>
        <time>2011-06-19T11:35:32Z</time>
      </trkpt>
      <trkpt lat="42.63274" lon="1.72665">
        <ele>2140.9934082031</ele>
        <time>2011-06-19T11:35:39Z</time>
      </trkpt>
      <trkpt lat="42.63274" lon="1.72664">
        <ele>2141.4741210938</ele>
        <time>2011-06-19T11:35:47Z</time>
      </trkpt>
      <trkpt lat="42.63276" lon="1.72663">
        <ele>2141.4741210938</ele>
        <time>2011-06-19T11:35:59Z</time>
      </trkpt>
      <trkpt lat="42.63278" lon="1.72663">
        <ele>2141.9548339844</ele>
        <time>2011-06-19T11:36:06Z</time>
      </trkpt>
      <trkpt lat="42.6328" lon="1.72663">
        <ele>2141.9548339844</ele>
        <time>2011-06-19T11:36:13Z</time>
      </trkpt>
      <trkpt lat="42.6328" lon="1.72663">
        <ele>2140.9934082031</ele>
        <time>2011-06-19T11:36:22Z</time>
      </trkpt>
      <trkpt lat="42.6328" lon="1.72663">
        <ele>2139.5512695312</ele>
        <time>2011-06-19T11:36:33Z</time>
      </trkpt>
      <trkpt lat="42.63283" lon="1.7266">
        <ele>2139.0705566406</ele>
        <time>2011-06-19T11:36:45Z</time>
      </trkpt>
      <trkpt lat="42.63288" lon="1.72658">
        <ele>2138.109375</ele>
        <time>2011-06-19T11:36:52Z</time>
      </trkpt>
      <trkpt lat="42.63293" lon="1.72654">
        <ele>2136.6672363281</ele>
        <time>2011-06-19T11:36:59Z</time>
      </trkpt>
      <trkpt lat="42.63299" lon="1.72652">
        <ele>2135.7060546875</ele>
        <time>2011-06-19T11:37:05Z</time>
      </trkpt>
      <trkpt lat="42.63305" lon="1.72651">
        <ele>2135.2253417969</ele>
        <time>2011-06-19T11:37:11Z</time>
      </trkpt>
      <trkpt lat="42.63312" lon="1.72648">
        <ele>2133.7834472656</ele>
        <time>2011-06-19T11:37:17Z</time>
      </trkpt>
      <trkpt lat="42.63318" lon="1.72646">
        <ele>2132.3415527344</ele>
        <time>2011-06-19T11:37:23Z</time>
      </trkpt>
      <trkpt lat="42.63322" lon="1.72646">
        <ele>2131.3801269531</ele>
        <time>2011-06-19T11:37:27Z</time>
      </trkpt>
      <trkpt lat="42.63326" lon="1.72647">
        <ele>2131.3801269531</ele>
        <time>2011-06-19T11:37:30Z</time>
      </trkpt>
      <trkpt lat="42.63331" lon="1.72644">
        <ele>2130.4189453125</ele>
        <time>2011-06-19T11:37:36Z</time>
      </trkpt>
      <trkpt lat="42.63337" lon="1.72644">
        <ele>2129.4575195312</ele>
        <time>2011-06-19T11:37:42Z</time>
      </trkpt>
      <trkpt lat="42.63338" lon="1.72644">
        <ele>2128.9768066406</ele>
        <time>2011-06-19T11:37:43Z</time>
      </trkpt>
      <trkpt lat="42.63345" lon="1.72643">
        <ele>2128.4963378906</ele>
        <time>2011-06-19T11:37:50Z</time>
      </trkpt>
      <trkpt lat="42.63348" lon="1.72643">
        <ele>2128.015625</ele>
        <time>2011-06-19T11:37:53Z</time>
      </trkpt>
      <trkpt lat="42.63353" lon="1.72639">
        <ele>2126.5737304688</ele>
        <time>2011-06-19T11:37:59Z</time>
      </trkpt>
      <trkpt lat="42.63358" lon="1.72638">
        <ele>2125.6123046875</ele>
        <time>2011-06-19T11:38:03Z</time>
      </trkpt>
      <trkpt lat="42.63361" lon="1.72638">
        <ele>2125.6123046875</ele>
        <time>2011-06-19T11:38:05Z</time>
      </trkpt>
      <trkpt lat="42.63368" lon="1.72637">
        <ele>2125.6123046875</ele>
        <time>2011-06-19T11:38:11Z</time>
      </trkpt>
      <trkpt lat="42.63377" lon="1.7264">
        <ele>2126.5737304688</ele>
        <time>2011-06-19T11:38:18Z</time>
      </trkpt>
      <trkpt lat="42.63387" lon="1.72641">
        <ele>2127.0544433594</ele>
        <time>2011-06-19T11:38:27Z</time>
      </trkpt>
      <trkpt lat="42.63393" lon="1.72641">
        <ele>2126.0930175781</ele>
        <time>2011-06-19T11:38:34Z</time>
      </trkpt>
      <trkpt lat="42.63399" lon="1.72638">
        <ele>2125.1315917969</ele>
        <time>2011-06-19T11:38:40Z</time>
      </trkpt>
      <trkpt lat="42.63401" lon="1.72636">
        <ele>2125.1315917969</ele>
        <time>2011-06-19T11:38:42Z</time>
      </trkpt>
      <trkpt lat="42.6341" lon="1.72628">
        <ele>2123.208984375</ele>
        <time>2011-06-19T11:38:51Z</time>
      </trkpt>
      <trkpt lat="42.63419" lon="1.72625">
        <ele>2122.2475585938</ele>
        <time>2011-06-19T11:38:57Z</time>
      </trkpt>
      <trkpt lat="42.63427" lon="1.72625">
        <ele>2123.208984375</ele>
        <time>2011-06-19T11:39:04Z</time>
      </trkpt>
      <trkpt lat="42.63433" lon="1.72622">
        <ele>2124.1704101562</ele>
        <time>2011-06-19T11:39:10Z</time>
      </trkpt>
      <trkpt lat="42.63438" lon="1.72622">
        <ele>2124.6511230469</ele>
        <time>2011-06-19T11:39:17Z</time>
      </trkpt>
      <trkpt lat="42.63442" lon="1.72624">
        <ele>2125.6123046875</ele>
        <time>2011-06-19T11:39:24Z</time>
      </trkpt>
      <trkpt lat="42.6344" lon="1.72627">
        <ele>2127.0544433594</ele>
        <time>2011-06-19T11:39:28Z</time>
      </trkpt>
      <trkpt lat="42.63438" lon="1.72631">
        <ele>2127.5349121094</ele>
        <time>2011-06-19T11:39:35Z</time>
      </trkpt>
      <trkpt lat="42.63438" lon="1.72633">
        <ele>2129.4575195312</ele>
        <time>2011-06-19T11:39:43Z</time>
      </trkpt>
      <trkpt lat="42.63441" lon="1.72633">
        <ele>2130.8996582031</ele>
        <time>2011-06-19T11:39:50Z</time>
      </trkpt>
      <trkpt lat="42.63445" lon="1.72633">
        <ele>2132.8220214844</ele>
        <time>2011-06-19T11:39:57Z</time>
      </trkpt>
      <trkpt lat="42.63448" lon="1.72632">
        <ele>2134.2641601562</ele>
        <time>2011-06-19T11:40:03Z</time>
      </trkpt>
      <trkpt lat="42.63451" lon="1.72633">
        <ele>2134.7448730469</ele>
        <time>2011-06-19T11:40:11Z</time>
      </trkpt>
      <trkpt lat="42.63453" lon="1.72634">
        <ele>2135.7060546875</ele>
        <time>2011-06-19T11:40:18Z</time>
      </trkpt>
      <trkpt lat="42.63453" lon="1.72636">
        <ele>2136.1867675781</ele>
        <time>2011-06-19T11:40:23Z</time>
      </trkpt>
      <trkpt lat="42.6345" lon="1.72639">
        <ele>2137.1479492188</ele>
        <time>2011-06-19T11:40:29Z</time>
      </trkpt>
      <trkpt lat="42.63447" lon="1.72641">
        <ele>2138.5900878906</ele>
        <time>2011-06-19T11:40:36Z</time>
      </trkpt>
      <trkpt lat="42.63445" lon="1.72643">
        <ele>2140.0322265625</ele>
        <time>2011-06-19T11:40:41Z</time>
      </trkpt>
      <trkpt lat="42.63443" lon="1.72646">
        <ele>2140.9934082031</ele>
        <time>2011-06-19T11:40:48Z</time>
      </trkpt>
      <trkpt lat="42.63443" lon="1.72649">
        <ele>2141.9548339844</ele>
        <time>2011-06-19T11:40:55Z</time>
      </trkpt>
      <trkpt lat="42.63445" lon="1.7265">
        <ele>2142.435546875</ele>
        <time>2011-06-19T11:41:00Z</time>
      </trkpt>
      <trkpt lat="42.63448" lon="1.7265">
        <ele>2143.8774414062</ele>
        <time>2011-06-19T11:41:07Z</time>
      </trkpt>
      <trkpt lat="42.63452" lon="1.7265">
        <ele>2145.3193359375</ele>
        <time>2011-06-19T11:41:14Z</time>
      </trkpt>
      <trkpt lat="42.63457" lon="1.7265">
        <ele>2146.7612304688</ele>
        <time>2011-06-19T11:41:21Z</time>
      </trkpt>
      <trkpt lat="42.63461" lon="1.72652">
        <ele>2148.203125</ele>
        <time>2011-06-19T11:41:28Z</time>
      </trkpt>
      <trkpt lat="42.63467" lon="1.72654">
        <ele>2150.6064453125</ele>
        <time>2011-06-19T11:41:36Z</time>
      </trkpt>
      <trkpt lat="42.63468" lon="1.72656">
        <ele>2151.5678710938</ele>
        <time>2011-06-19T11:41:43Z</time>
      </trkpt>
      <trkpt lat="42.63472" lon="1.72657">
        <ele>2153.009765625</ele>
        <time>2011-06-19T11:41:50Z</time>
      </trkpt>
      <trkpt lat="42.63475" lon="1.72657">
        <ele>2153.9711914062</ele>
        <time>2011-06-19T11:41:56Z</time>
      </trkpt>
      <trkpt lat="42.63481" lon="1.72656">
        <ele>2154.9323730469</ele>
        <time>2011-06-19T11:42:03Z</time>
      </trkpt>
      <trkpt lat="42.63482" lon="1.72658">
        <ele>2155.8935546875</ele>
        <time>2011-06-19T11:42:09Z</time>
      </trkpt>
      <trkpt lat="42.63485" lon="1.72658">
        <ele>2155.8935546875</ele>
        <time>2011-06-19T11:42:19Z</time>
      </trkpt>
      <trkpt lat="42.63488" lon="1.72659">
        <ele>2156.8552246094</ele>
        <time>2011-06-19T11:42:25Z</time>
      </trkpt>
      <trkpt lat="42.63495" lon="1.72658">
        <ele>2158.2971191406</ele>
        <time>2011-06-19T11:42:33Z</time>
      </trkpt>
      <trkpt lat="42.63497" lon="1.72656">
        <ele>2159.7390136719</ele>
        <time>2011-06-19T11:42:40Z</time>
      </trkpt>
      <trkpt lat="42.635" lon="1.72656">
        <ele>2160.7004394531</ele>
        <time>2011-06-19T11:42:45Z</time>
      </trkpt>
      <trkpt lat="42.63507" lon="1.72656">
        <ele>2162.623046875</ele>
        <time>2011-06-19T11:42:53Z</time>
      </trkpt>
      <trkpt lat="42.63512" lon="1.72659">
        <ele>2164.5456542969</ele>
        <time>2011-06-19T11:43:01Z</time>
      </trkpt>
      <trkpt lat="42.63517" lon="1.72658">
        <ele>2165.0263671875</ele>
        <time>2011-06-19T11:43:07Z</time>
      </trkpt>
      <trkpt lat="42.6352" lon="1.7266">
        <ele>2165.9875488281</ele>
        <time>2011-06-19T11:43:13Z</time>
      </trkpt>
      <trkpt lat="42.63523" lon="1.72662">
        <ele>2166.4682617188</ele>
        <time>2011-06-19T11:43:20Z</time>
      </trkpt>
      <trkpt lat="42.63527" lon="1.72663">
        <ele>2166.4682617188</ele>
        <time>2011-06-19T11:43:27Z</time>
      </trkpt>
      <trkpt lat="42.63529" lon="1.72664">
        <ele>2166.4682617188</ele>
        <time>2011-06-19T11:43:32Z</time>
      </trkpt>
      <trkpt lat="42.6353" lon="1.72665">
        <ele>2166.4682617188</ele>
        <time>2011-06-19T11:43:40Z</time>
      </trkpt>
      <trkpt lat="42.63534" lon="1.72666">
        <ele>2165.5070800781</ele>
        <time>2011-06-19T11:43:46Z</time>
      </trkpt>
      <trkpt lat="42.63537" lon="1.72665">
        <ele>2165.0263671875</ele>
        <time>2011-06-19T11:43:52Z</time>
      </trkpt>
      <trkpt lat="42.63541" lon="1.72662">
        <ele>2165.0263671875</ele>
        <time>2011-06-19T11:43:58Z</time>
      </trkpt>
      <trkpt lat="42.63544" lon="1.72662">
        <ele>2164.5456542969</ele>
        <time>2011-06-19T11:44:04Z</time>
      </trkpt>
      <trkpt lat="42.63546" lon="1.72659">
        <ele>2165.0263671875</ele>
        <time>2011-06-19T11:44:10Z</time>
      </trkpt>
      <trkpt lat="42.63548" lon="1.72652">
        <ele>2166.4682617188</ele>
        <time>2011-06-19T11:44:16Z</time>
      </trkpt>
      <trkpt lat="42.63553" lon="1.72652">
        <ele>2167.91015625</ele>
        <time>2011-06-19T11:44:22Z</time>
      </trkpt>
      <trkpt lat="42.63556" lon="1.72654">
        <ele>2169.3522949219</ele>
        <time>2011-06-19T11:44:27Z</time>
      </trkpt>
      <trkpt lat="42.63558" lon="1.72657">
        <ele>2170.7941894531</ele>
        <time>2011-06-19T11:44:33Z</time>
      </trkpt>
      <trkpt lat="42.6356" lon="1.72661">
        <ele>2171.7553710938</ele>
        <time>2011-06-19T11:44:38Z</time>
      </trkpt>
      <trkpt lat="42.63562" lon="1.72664">
        <ele>2172.7170410156</ele>
        <time>2011-06-19T11:44:44Z</time>
      </trkpt>
      <trkpt lat="42.63565" lon="1.72664">
        <ele>2174.6396484375</ele>
        <time>2011-06-19T11:44:50Z</time>
      </trkpt>
      <trkpt lat="42.63568" lon="1.72664">
        <ele>2175.6008300781</ele>
        <time>2011-06-19T11:44:56Z</time>
      </trkpt>
      <trkpt lat="42.63573" lon="1.72667">
        <ele>2176.5622558594</ele>
        <time>2011-06-19T11:45:03Z</time>
      </trkpt>
      <trkpt lat="42.63577" lon="1.72663">
        <ele>2177.5234375</ele>
        <time>2011-06-19T11:45:09Z</time>
      </trkpt>
      <trkpt lat="42.63582" lon="1.72657">
        <ele>2178.9653320312</ele>
        <time>2011-06-19T11:45:16Z</time>
      </trkpt>
      <trkpt lat="42.63589" lon="1.72651">
        <ele>2179.9267578125</ele>
        <time>2011-06-19T11:45:24Z</time>
      </trkpt>
      <trkpt lat="42.63594" lon="1.72644">
        <ele>2180.4074707031</ele>
        <time>2011-06-19T11:45:30Z</time>
      </trkpt>
      <trkpt lat="42.63599" lon="1.72636">
        <ele>2180.8881835938</ele>
        <time>2011-06-19T11:45:37Z</time>
      </trkpt>
      <trkpt lat="42.63604" lon="1.72627">
        <ele>2181.3686523438</ele>
        <time>2011-06-19T11:45:44Z</time>
      </trkpt>
      <trkpt lat="42.63607" lon="1.7262">
        <ele>2181.8493652344</ele>
        <time>2011-06-19T11:45:50Z</time>
      </trkpt>
      <trkpt lat="42.6361" lon="1.72617">
        <ele>2183.2912597656</ele>
        <time>2011-06-19T11:45:56Z</time>
      </trkpt>
      <trkpt lat="42.63615" lon="1.72611">
        <ele>2184.2526855469</ele>
        <time>2011-06-19T11:46:02Z</time>
      </trkpt>
      <trkpt lat="42.63623" lon="1.72607">
        <ele>2184.2526855469</ele>
        <time>2011-06-19T11:46:09Z</time>
      </trkpt>
      <trkpt lat="42.63632" lon="1.72604">
        <ele>2183.2912597656</ele>
        <time>2011-06-19T11:46:17Z</time>
      </trkpt>
      <trkpt lat="42.63643" lon="1.726">
        <ele>2183.7719726562</ele>
        <time>2011-06-19T11:46:25Z</time>
      </trkpt>
      <trkpt lat="42.6365" lon="1.72598">
        <ele>2185.2138671875</ele>
        <time>2011-06-19T11:46:32Z</time>
      </trkpt>
      <trkpt lat="42.63651" lon="1.72598">
        <ele>2185.2138671875</ele>
        <time>2011-06-19T11:46:33Z</time>
      </trkpt>
      <trkpt lat="42.63661" lon="1.72591">
        <ele>2184.2526855469</ele>
        <time>2011-06-19T11:46:41Z</time>
      </trkpt>
      <trkpt lat="42.63665" lon="1.7259">
        <ele>2184.2526855469</ele>
        <time>2011-06-19T11:46:44Z</time>
      </trkpt>
      <trkpt lat="42.63677" lon="1.72584">
        <ele>2183.7719726562</ele>
        <time>2011-06-19T11:46:53Z</time>
      </trkpt>
      <trkpt lat="42.63685" lon="1.72584">
        <ele>2183.2912597656</ele>
        <time>2011-06-19T11:46:59Z</time>
      </trkpt>
      <trkpt lat="42.63692" lon="1.72583">
        <ele>2183.7719726562</ele>
        <time>2011-06-19T11:47:05Z</time>
      </trkpt>
      <trkpt lat="42.63702" lon="1.72584">
        <ele>2184.7333984375</ele>
        <time>2011-06-19T11:47:12Z</time>
      </trkpt>
      <trkpt lat="42.63706" lon="1.72584">
        <ele>2185.6945800781</ele>
        <time>2011-06-19T11:47:16Z</time>
      </trkpt>
      <trkpt lat="42.63707" lon="1.72585">
        <ele>2185.6945800781</ele>
        <time>2011-06-19T11:47:24Z</time>
      </trkpt>
      <trkpt lat="42.63708" lon="1.72585">
        <ele>2185.6945800781</ele>
        <time>2011-06-19T11:47:34Z</time>
      </trkpt>
      <trkpt lat="42.63713" lon="1.72585">
        <ele>2187.1364746094</ele>
        <time>2011-06-19T11:47:40Z</time>
      </trkpt>
      <trkpt lat="42.63722" lon="1.72582">
        <ele>2189.0593261719</ele>
        <time>2011-06-19T11:47:49Z</time>
      </trkpt>
      <trkpt lat="42.63723" lon="1.72582">
        <ele>2189.0593261719</ele>
        <time>2011-06-19T11:47:50Z</time>
      </trkpt>
      <trkpt lat="42.63729" lon="1.7258">
        <ele>2190.5012207031</ele>
        <time>2011-06-19T11:47:57Z</time>
      </trkpt>
      <trkpt lat="42.63737" lon="1.72579">
        <ele>2190.9819335938</ele>
        <time>2011-06-19T11:48:03Z</time>
      </trkpt>
      <trkpt lat="42.63743" lon="1.72582">
        <ele>2192.4240722656</ele>
        <time>2011-06-19T11:48:10Z</time>
      </trkpt>
      <trkpt lat="42.6375" lon="1.72582">
        <ele>2194.3464355469</ele>
        <time>2011-06-19T11:48:20Z</time>
      </trkpt>
      <trkpt lat="42.63758" lon="1.7258">
        <ele>2194.8271484375</ele>
        <time>2011-06-19T11:48:27Z</time>
      </trkpt>
      <trkpt lat="42.63768" lon="1.72581">
        <ele>2195.7885742188</ele>
        <time>2011-06-19T11:48:36Z</time>
      </trkpt>
      <trkpt lat="42.63774" lon="1.7258">
        <ele>2197.23046875</ele>
        <time>2011-06-19T11:48:42Z</time>
      </trkpt>
      <trkpt lat="42.63783" lon="1.72581">
        <ele>2197.23046875</ele>
        <time>2011-06-19T11:48:50Z</time>
      </trkpt>
      <trkpt lat="42.63792" lon="1.72586">
        <ele>2198.1916503906</ele>
        <time>2011-06-19T11:48:59Z</time>
      </trkpt>
      <trkpt lat="42.63793" lon="1.72587">
        <ele>2198.6723632812</ele>
        <time>2011-06-19T11:49:00Z</time>
      </trkpt>
      <trkpt lat="42.63794" lon="1.72594">
        <ele>2200.1145019531</ele>
        <time>2011-06-19T11:49:08Z</time>
      </trkpt>
      <trkpt lat="42.63796" lon="1.72595">
        <ele>2200.1145019531</ele>
        <time>2011-06-19T11:49:16Z</time>
      </trkpt>
      <trkpt lat="42.63796" lon="1.72595">
        <ele>2200.5949707031</ele>
        <time>2011-06-19T11:49:21Z</time>
      </trkpt>
      <trkpt lat="42.638" lon="1.72599">
        <ele>2201.0756835938</ele>
        <time>2011-06-19T11:49:27Z</time>
      </trkpt>
      <trkpt lat="42.63802" lon="1.72601">
        <ele>2201.5563964844</ele>
        <time>2011-06-19T11:49:32Z</time>
      </trkpt>
      <trkpt lat="42.638" lon="1.72596">
        <ele>2200.5949707031</ele>
        <time>2011-06-19T11:49:41Z</time>
      </trkpt>
      <trkpt lat="42.63797" lon="1.72593">
        <ele>2200.1145019531</ele>
        <time>2011-06-19T11:49:48Z</time>
      </trkpt>
      <trkpt lat="42.63797" lon="1.72594">
        <ele>2200.5949707031</ele>
        <time>2011-06-19T11:50:00Z</time>
      </trkpt>
      <trkpt lat="42.63799" lon="1.726">
        <ele>2201.0756835938</ele>
        <time>2011-06-19T11:50:07Z</time>
      </trkpt>
      <trkpt lat="42.63801" lon="1.72604">
        <ele>2200.1145019531</ele>
        <time>2011-06-19T11:50:13Z</time>
      </trkpt>
      <trkpt lat="42.63803" lon="1.72606">
        <ele>2197.7111816406</ele>
        <time>2011-06-19T11:50:21Z</time>
      </trkpt>
      <trkpt lat="42.638" lon="1.72601">
        <ele>2197.7111816406</ele>
        <time>2011-06-19T11:50:32Z</time>
      </trkpt>
      <trkpt lat="42.63798" lon="1.72593">
        <ele>2198.6723632812</ele>
        <time>2011-06-19T11:50:38Z</time>
      </trkpt>
      <trkpt lat="42.63798" lon="1.7259">
        <ele>2198.6723632812</ele>
        <time>2011-06-19T11:50:42Z</time>
      </trkpt>
      <trkpt lat="42.63798" lon="1.72588">
        <ele>2198.6723632812</ele>
        <time>2011-06-19T11:50:43Z</time>
      </trkpt>
      <trkpt lat="42.638" lon="1.72581">
        <ele>2200.1145019531</ele>
        <time>2011-06-19T11:50:48Z</time>
      </trkpt>
      <trkpt lat="42.63802" lon="1.72579">
        <ele>2199.6337890625</ele>
        <time>2011-06-19T11:50:54Z</time>
      </trkpt>
      <trkpt lat="42.63799" lon="1.7258">
        <ele>2200.5949707031</ele>
        <time>2011-06-19T11:51:07Z</time>
      </trkpt>
      <trkpt lat="42.63797" lon="1.72578">
        <ele>2198.1916503906</ele>
        <time>2011-06-19T11:51:15Z</time>
      </trkpt>
      <trkpt lat="42.63795" lon="1.72588">
        <ele>2198.6723632812</ele>
        <time>2011-06-19T11:51:22Z</time>
      </trkpt>
      <trkpt lat="42.63799" lon="1.72591">
        <ele>2195.3078613281</ele>
        <time>2011-06-19T11:51:28Z</time>
      </trkpt>
      <trkpt lat="42.63801" lon="1.72592">
        <ele>2193.3852539062</ele>
        <time>2011-06-19T11:51:35Z</time>
      </trkpt>
      <trkpt lat="42.63804" lon="1.72596">
        <ele>2193.8659667969</ele>
        <time>2011-06-19T11:51:40Z</time>
      </trkpt>
      <trkpt lat="42.63807" lon="1.72601">
        <ele>2196.2692871094</ele>
        <time>2011-06-19T11:51:47Z</time>
      </trkpt>
      <trkpt lat="42.63808" lon="1.72602">
        <ele>2198.1916503906</ele>
        <time>2011-06-19T11:51:54Z</time>
      </trkpt>
      <trkpt lat="42.63807" lon="1.72602">
        <ele>2197.7111816406</ele>
        <time>2011-06-19T11:52:00Z</time>
      </trkpt>
      <trkpt lat="42.63805" lon="1.72602">
        <ele>2197.23046875</ele>
        <time>2011-06-19T11:52:11Z</time>
      </trkpt>
      <trkpt lat="42.63806" lon="1.72602">
        <ele>2195.7885742188</ele>
        <time>2011-06-19T11:52:27Z</time>
      </trkpt>
      <trkpt lat="42.63806" lon="1.72603">
        <ele>2195.7885742188</ele>
        <time>2011-06-19T11:52:36Z</time>
      </trkpt>
      <trkpt lat="42.63807" lon="1.726">
        <ele>2196.7497558594</ele>
        <time>2011-06-19T11:53:00Z</time>
      </trkpt>
      <trkpt lat="42.63806" lon="1.72603">
        <ele>2196.7497558594</ele>
        <time>2011-06-19T11:53:29Z</time>
      </trkpt>
      <trkpt lat="42.63806" lon="1.72603">
        <ele>2197.7111816406</ele>
        <time>2011-06-19T11:53:38Z</time>
      </trkpt>
      <trkpt lat="42.63805" lon="1.72603">
        <ele>2198.1916503906</ele>
        <time>2011-06-19T11:53:44Z</time>
      </trkpt>
      <trkpt lat="42.63805" lon="1.72603">
        <ele>2198.6723632812</ele>
        <time>2011-06-19T11:53:49Z</time>
      </trkpt>
      <trkpt lat="42.63805" lon="1.72603">
        <ele>2199.1530761719</ele>
        <time>2011-06-19T11:54:02Z</time>
      </trkpt>
      <trkpt lat="42.63802" lon="1.726">
        <ele>2199.6337890625</ele>
        <time>2011-06-19T11:54:08Z</time>
      </trkpt>
      <trkpt lat="42.638" lon="1.72598">
        <ele>2199.6337890625</ele>
        <time>2011-06-19T11:54:10Z</time>
      </trkpt>
      <trkpt lat="42.63796" lon="1.72594">
        <ele>2201.0756835938</ele>
        <time>2011-06-19T11:54:17Z</time>
      </trkpt>
      <trkpt lat="42.63796" lon="1.72595">
        <ele>2201.0756835938</ele>
        <time>2011-06-19T11:54:27Z</time>
      </trkpt>
      <trkpt lat="42.63797" lon="1.72595">
        <ele>2199.6337890625</ele>
        <time>2011-06-19T11:54:41Z</time>
      </trkpt>
      <trkpt lat="42.63797" lon="1.72592">
        <ele>2198.6723632812</ele>
        <time>2011-06-19T11:54:49Z</time>
      </trkpt>
      <trkpt lat="42.63797" lon="1.7259">
        <ele>2198.6723632812</ele>
        <time>2011-06-19T11:54:50Z</time>
      </trkpt>
      <trkpt lat="42.63801" lon="1.72581">
        <ele>2198.1916503906</ele>
        <time>2011-06-19T11:54:59Z</time>
      </trkpt>
      <trkpt lat="42.63801" lon="1.72582">
        <ele>2198.1916503906</ele>
        <time>2011-06-19T11:55:04Z</time>
      </trkpt>
      <trkpt lat="42.638" lon="1.72584">
        <ele>2198.1916503906</ele>
        <time>2011-06-19T11:55:06Z</time>
      </trkpt>
      <trkpt lat="42.63798" lon="1.72592">
        <ele>2198.1916503906</ele>
        <time>2011-06-19T11:55:12Z</time>
      </trkpt>
      <trkpt lat="42.638" lon="1.72593">
        <ele>2197.23046875</ele>
        <time>2011-06-19T11:55:35Z</time>
      </trkpt>
      <trkpt lat="42.63803" lon="1.72596">
        <ele>2198.1916503906</ele>
        <time>2011-06-19T11:55:38Z</time>
      </trkpt>
      <trkpt lat="42.63807" lon="1.726">
        <ele>2198.6723632812</ele>
        <time>2011-06-19T11:55:42Z</time>
      </trkpt>
      <trkpt lat="42.63814" lon="1.72609">
        <ele>2198.1916503906</ele>
        <time>2011-06-19T11:55:50Z</time>
      </trkpt>
      <trkpt lat="42.63821" lon="1.72609">
        <ele>2198.1916503906</ele>
        <time>2011-06-19T11:55:56Z</time>
      </trkpt>
      <trkpt lat="42.63829" lon="1.72616">
        <ele>2198.1916503906</ele>
        <time>2011-06-19T11:56:04Z</time>
      </trkpt>
      <trkpt lat="42.63837" lon="1.72627">
        <ele>2198.6723632812</ele>
        <time>2011-06-19T11:56:12Z</time>
      </trkpt>
      <trkpt lat="42.63846" lon="1.72641">
        <ele>2198.6723632812</ele>
        <time>2011-06-19T11:56:22Z</time>
      </trkpt>
      <trkpt lat="42.63848" lon="1.72646">
        <ele>2198.6723632812</ele>
        <time>2011-06-19T11:56:25Z</time>
      </trkpt>
      <trkpt lat="42.63855" lon="1.72657">
        <ele>2199.1530761719</ele>
        <time>2011-06-19T11:56:33Z</time>
      </trkpt>
      <trkpt lat="42.63862" lon="1.72666">
        <ele>2199.1530761719</ele>
        <time>2011-06-19T11:56:40Z</time>
      </trkpt>
      <trkpt lat="42.63867" lon="1.72675">
        <ele>2199.6337890625</ele>
        <time>2011-06-19T11:56:47Z</time>
      </trkpt>
      <trkpt lat="42.63872" lon="1.72682">
        <ele>2200.5949707031</ele>
        <time>2011-06-19T11:56:53Z</time>
      </trkpt>
      <trkpt lat="42.63875" lon="1.72685">
        <ele>2201.0756835938</ele>
        <time>2011-06-19T11:56:58Z</time>
      </trkpt>
      <trkpt lat="42.63883" lon="1.72692">
        <ele>2201.5563964844</ele>
        <time>2011-06-19T11:57:06Z</time>
      </trkpt>
      <trkpt lat="42.63886" lon="1.72694">
        <ele>2201.5563964844</ele>
        <time>2011-06-19T11:57:09Z</time>
      </trkpt>
      <trkpt lat="42.6389" lon="1.72701">
        <ele>2202.9982910156</ele>
        <time>2011-06-19T11:57:16Z</time>
      </trkpt>
      <trkpt lat="42.63893" lon="1.72704">
        <ele>2203.9597167969</ele>
        <time>2011-06-19T11:57:22Z</time>
      </trkpt>
      <trkpt lat="42.63897" lon="1.72708">
        <ele>2205.8823242188</ele>
        <time>2011-06-19T11:57:29Z</time>
      </trkpt>
      <trkpt lat="42.63901" lon="1.72712">
        <ele>2207.3244628906</ele>
        <time>2011-06-19T11:57:36Z</time>
      </trkpt>
      <trkpt lat="42.63906" lon="1.72718">
        <ele>2209.2470703125</ele>
        <time>2011-06-19T11:57:45Z</time>
      </trkpt>
      <trkpt lat="42.63911" lon="1.72723">
        <ele>2211.1696777344</ele>
        <time>2011-06-19T11:57:54Z</time>
      </trkpt>
      <trkpt lat="42.63914" lon="1.72727">
        <ele>2212.6115722656</ele>
        <time>2011-06-19T11:58:02Z</time>
      </trkpt>
      <trkpt lat="42.63917" lon="1.72733">
        <ele>2214.5341796875</ele>
        <time>2011-06-19T11:58:08Z</time>
      </trkpt>
      <trkpt lat="42.63922" lon="1.72743">
        <ele>2216.4567871094</ele>
        <time>2011-06-19T11:58:17Z</time>
      </trkpt>
      <trkpt lat="42.63927" lon="1.72747">
        <ele>2217.8986816406</ele>
        <time>2011-06-19T11:58:26Z</time>
      </trkpt>
      <trkpt lat="42.6393" lon="1.7275">
        <ele>2218.8601074219</ele>
        <time>2011-06-19T11:58:31Z</time>
      </trkpt>
      <trkpt lat="42.63934" lon="1.72758">
        <ele>2220.7829589844</ele>
        <time>2011-06-19T11:58:39Z</time>
      </trkpt>
      <trkpt lat="42.63938" lon="1.72764">
        <ele>2221.744140625</ele>
        <time>2011-06-19T11:58:46Z</time>
      </trkpt>
      <trkpt lat="42.63939" lon="1.7277">
        <ele>2223.1862792969</ele>
        <time>2011-06-19T11:58:52Z</time>
      </trkpt>
      <trkpt lat="42.63941" lon="1.72783">
        <ele>2224.1474609375</ele>
        <time>2011-06-19T11:59:02Z</time>
      </trkpt>
      <trkpt lat="42.63942" lon="1.72794">
        <ele>2225.5893554688</ele>
        <time>2011-06-19T11:59:10Z</time>
      </trkpt>
      <trkpt lat="42.63942" lon="1.72805">
        <ele>2227.0314941406</ele>
        <time>2011-06-19T11:59:18Z</time>
      </trkpt>
      <trkpt lat="42.63942" lon="1.72815">
        <ele>2227.5119628906</ele>
        <time>2011-06-19T11:59:26Z</time>
      </trkpt>
      <trkpt lat="42.63939" lon="1.72829">
        <ele>2228.4733886719</ele>
        <time>2011-06-19T11:59:36Z</time>
      </trkpt>
      <trkpt lat="42.6394" lon="1.72846">
        <ele>2229.4345703125</ele>
        <time>2011-06-19T11:59:46Z</time>
      </trkpt>
      <trkpt lat="42.63944" lon="1.72861">
        <ele>2230.3959960938</ele>
        <time>2011-06-19T11:59:55Z</time>
      </trkpt>
      <trkpt lat="42.63945" lon="1.72866">
        <ele>2230.3959960938</ele>
        <time>2011-06-19T11:59:58Z</time>
      </trkpt>
      <trkpt lat="42.63951" lon="1.72866">
        <ele>2230.3959960938</ele>
        <time>2011-06-19T12:00:03Z</time>
      </trkpt>
      <trkpt lat="42.63959" lon="1.72867">
        <ele>2231.3571777344</ele>
        <time>2011-06-19T12:00:11Z</time>
      </trkpt>
      <trkpt lat="42.63969" lon="1.7287">
        <ele>2232.7990722656</ele>
        <time>2011-06-19T12:00:20Z</time>
      </trkpt>
      <trkpt lat="42.63971" lon="1.72871">
        <ele>2233.2797851562</ele>
        <time>2011-06-19T12:00:23Z</time>
      </trkpt>
      <trkpt lat="42.63976" lon="1.72873">
        <ele>2234.2412109375</ele>
        <time>2011-06-19T12:00:30Z</time>
      </trkpt>
      <trkpt lat="42.63983" lon="1.72873">
        <ele>2234.7219238281</ele>
        <time>2011-06-19T12:00:36Z</time>
      </trkpt>
      <trkpt lat="42.6399" lon="1.72875">
        <ele>2235.6831054688</ele>
        <time>2011-06-19T12:00:43Z</time>
      </trkpt>
      <trkpt lat="42.63999" lon="1.72876">
        <ele>2236.64453125</ele>
        <time>2011-06-19T12:00:52Z</time>
      </trkpt>
      <trkpt lat="42.64011" lon="1.72875">
        <ele>2237.1252441406</ele>
        <time>2011-06-19T12:01:02Z</time>
      </trkpt>
      <trkpt lat="42.6402" lon="1.72876">
        <ele>2236.64453125</ele>
        <time>2011-06-19T12:01:09Z</time>
      </trkpt>
      <trkpt lat="42.64025" lon="1.72873">
        <ele>2236.64453125</ele>
        <time>2011-06-19T12:01:14Z</time>
      </trkpt>
      <trkpt lat="42.6403" lon="1.72873">
        <ele>2237.6059570312</ele>
        <time>2011-06-19T12:01:19Z</time>
      </trkpt>
      <trkpt lat="42.64039" lon="1.72869">
        <ele>2238.0866699219</ele>
        <time>2011-06-19T12:01:27Z</time>
      </trkpt>
      <trkpt lat="42.64046" lon="1.72856">
        <ele>2238.5673828125</ele>
        <time>2011-06-19T12:01:37Z</time>
      </trkpt>
      <trkpt lat="42.6405" lon="1.72847">
        <ele>2239.0478515625</ele>
        <time>2011-06-19T12:01:44Z</time>
      </trkpt>
      <trkpt lat="42.64053" lon="1.72841">
        <ele>2240.0092773438</ele>
        <time>2011-06-19T12:01:50Z</time>
      </trkpt>
      <trkpt lat="42.64058" lon="1.72838">
        <ele>2241.9318847656</ele>
        <time>2011-06-19T12:01:57Z</time>
      </trkpt>
      <trkpt lat="42.64061" lon="1.72846">
        <ele>2243.3737792969</ele>
        <time>2011-06-19T12:02:03Z</time>
      </trkpt>
      <trkpt lat="42.64066" lon="1.72858">
        <ele>2244.8156738281</ele>
        <time>2011-06-19T12:02:13Z</time>
      </trkpt>
      <trkpt lat="42.64068" lon="1.72868">
        <ele>2245.7770996094</ele>
        <time>2011-06-19T12:02:21Z</time>
      </trkpt>
      <trkpt lat="42.64071" lon="1.72875">
        <ele>2247.2189941406</ele>
        <time>2011-06-19T12:02:28Z</time>
      </trkpt>
      <trkpt lat="42.64074" lon="1.72883">
        <ele>2249.1416015625</ele>
        <time>2011-06-19T12:02:36Z</time>
      </trkpt>
      <trkpt lat="42.64075" lon="1.72891">
        <ele>2250.1030273438</ele>
        <time>2011-06-19T12:02:43Z</time>
      </trkpt>
      <trkpt lat="42.64076" lon="1.72898">
        <ele>2252.0256347656</ele>
        <time>2011-06-19T12:02:50Z</time>
      </trkpt>
      <trkpt lat="42.64078" lon="1.72905">
        <ele>2252.5063476562</ele>
        <time>2011-06-19T12:02:56Z</time>
      </trkpt>
      <trkpt lat="42.64079" lon="1.72912">
        <ele>2252.5063476562</ele>
        <time>2011-06-19T12:03:01Z</time>
      </trkpt>
      <trkpt lat="42.64081" lon="1.72918">
        <ele>2252.9870605469</ele>
        <time>2011-06-19T12:03:07Z</time>
      </trkpt>
      <trkpt lat="42.64084" lon="1.72928">
        <ele>2254.9096679688</ele>
        <time>2011-06-19T12:03:16Z</time>
      </trkpt>
      <trkpt lat="42.64085" lon="1.72933">
        <ele>2255.8708496094</ele>
        <time>2011-06-19T12:03:23Z</time>
      </trkpt>
      <trkpt lat="42.64087" lon="1.72938">
        <ele>2256.3515625</ele>
        <time>2011-06-19T12:03:28Z</time>
      </trkpt>
      <trkpt lat="42.64088" lon="1.72945">
        <ele>2257.7937011719</ele>
        <time>2011-06-19T12:03:34Z</time>
      </trkpt>
      <trkpt lat="42.6409" lon="1.72954">
        <ele>2259.7160644531</ele>
        <time>2011-06-19T12:03:42Z</time>
      </trkpt>
      <trkpt lat="42.64092" lon="1.72958">
        <ele>2260.6774902344</ele>
        <time>2011-06-19T12:03:47Z</time>
      </trkpt>
      <trkpt lat="42.64095" lon="1.72963">
        <ele>2261.6389160156</ele>
        <time>2011-06-19T12:03:54Z</time>
      </trkpt>
      <trkpt lat="42.64097" lon="1.72971">
        <ele>2263.0808105469</ele>
        <time>2011-06-19T12:04:01Z</time>
      </trkpt>
      <trkpt lat="42.64099" lon="1.7298">
        <ele>2265.0034179688</ele>
        <time>2011-06-19T12:04:09Z</time>
      </trkpt>
      <trkpt lat="42.64101" lon="1.72992">
        <ele>2267.4064941406</ele>
        <time>2011-06-19T12:04:19Z</time>
      </trkpt>
      <trkpt lat="42.64105" lon="1.73003">
        <ele>2269.8100585938</ele>
        <time>2011-06-19T12:04:28Z</time>
      </trkpt>
      <trkpt lat="42.6411" lon="1.73013">
        <ele>2272.2133789062</ele>
        <time>2011-06-19T12:04:38Z</time>
      </trkpt>
      <trkpt lat="42.64115" lon="1.73022">
        <ele>2273.6552734375</ele>
        <time>2011-06-19T12:04:47Z</time>
      </trkpt>
      <trkpt lat="42.64119" lon="1.73028">
        <ele>2275.0971679688</ele>
        <time>2011-06-19T12:04:54Z</time>
      </trkpt>
      <trkpt lat="42.64124" lon="1.73034">
        <ele>2276.05859375</ele>
        <time>2011-06-19T12:05:02Z</time>
      </trkpt>
      <trkpt lat="42.64127" lon="1.73042">
        <ele>2277.5004882812</ele>
        <time>2011-06-19T12:05:09Z</time>
      </trkpt>
      <trkpt lat="42.64128" lon="1.73056">
        <ele>2278.9423828125</ele>
        <time>2011-06-19T12:05:19Z</time>
      </trkpt>
      <trkpt lat="42.6413" lon="1.73073">
        <ele>2279.4230957031</ele>
        <time>2011-06-19T12:05:30Z</time>
      </trkpt>
      <trkpt lat="42.64132" lon="1.73083">
        <ele>2280.865234375</ele>
        <time>2011-06-19T12:05:38Z</time>
      </trkpt>
      <trkpt lat="42.64132" lon="1.73091">
        <ele>2282.3071289062</ele>
        <time>2011-06-19T12:05:44Z</time>
      </trkpt>
      <trkpt lat="42.64135" lon="1.731">
        <ele>2283.7490234375</ele>
        <time>2011-06-19T12:05:52Z</time>
      </trkpt>
      <trkpt lat="42.64137" lon="1.7311">
        <ele>2285.671875</ele>
        <time>2011-06-19T12:06:01Z</time>
      </trkpt>
      <trkpt lat="42.64138" lon="1.7312">
        <ele>2287.1137695312</ele>
        <time>2011-06-19T12:06:09Z</time>
      </trkpt>
      <trkpt lat="42.6414" lon="1.73129">
        <ele>2288.5559082031</ele>
        <time>2011-06-19T12:06:17Z</time>
      </trkpt>
      <trkpt lat="42.64142" lon="1.73136">
        <ele>2289.0363769531</ele>
        <time>2011-06-19T12:06:25Z</time>
      </trkpt>
      <trkpt lat="42.64143" lon="1.73143">
        <ele>2289.5170898438</ele>
        <time>2011-06-19T12:06:32Z</time>
      </trkpt>
      <trkpt lat="42.64144" lon="1.73151">
        <ele>2289.9978027344</ele>
        <time>2011-06-19T12:06:39Z</time>
      </trkpt>
      <trkpt lat="42.64145" lon="1.73157">
        <ele>2290.4782714844</ele>
        <time>2011-06-19T12:06:45Z</time>
      </trkpt>
      <trkpt lat="42.64145" lon="1.73162">
        <ele>2290.958984375</ele>
        <time>2011-06-19T12:06:51Z</time>
      </trkpt>
      <trkpt lat="42.64148" lon="1.73169">
        <ele>2292.4011230469</ele>
        <time>2011-06-19T12:06:58Z</time>
      </trkpt>
      <trkpt lat="42.6415" lon="1.73174">
        <ele>2293.8430175781</ele>
        <time>2011-06-19T12:07:06Z</time>
      </trkpt>
      <trkpt lat="42.64151" lon="1.73183">
        <ele>2294.8041992188</ele>
        <time>2011-06-19T12:07:14Z</time>
      </trkpt>
      <trkpt lat="42.64153" lon="1.73192">
        <ele>2295.765625</ele>
        <time>2011-06-19T12:07:21Z</time>
      </trkpt>
      <trkpt lat="42.64153" lon="1.73194">
        <ele>2296.7268066406</ele>
        <time>2011-06-19T12:07:27Z</time>
      </trkpt>
      <trkpt lat="42.64153" lon="1.73194">
        <ele>2297.2075195312</ele>
        <time>2011-06-19T12:07:34Z</time>
      </trkpt>
      <trkpt lat="42.64155" lon="1.73197">
        <ele>2296.7268066406</ele>
        <time>2011-06-19T12:07:46Z</time>
      </trkpt>
      <trkpt lat="42.64158" lon="1.73206">
        <ele>2298.6494140625</ele>
        <time>2011-06-19T12:07:54Z</time>
      </trkpt>
      <trkpt lat="42.6416" lon="1.73211">
        <ele>2299.6108398438</ele>
        <time>2011-06-19T12:07:58Z</time>
      </trkpt>
      <trkpt lat="42.64164" lon="1.73223">
        <ele>2301.5336914062</ele>
        <time>2011-06-19T12:08:06Z</time>
      </trkpt>
      <trkpt lat="42.64166" lon="1.73231">
        <ele>2302.4948730469</ele>
        <time>2011-06-19T12:08:12Z</time>
      </trkpt>
      <trkpt lat="42.64169" lon="1.73238">
        <ele>2303.4562988281</ele>
        <time>2011-06-19T12:08:17Z</time>
      </trkpt>
      <trkpt lat="42.64171" lon="1.73249">
        <ele>2304.8981933594</ele>
        <time>2011-06-19T12:08:26Z</time>
      </trkpt>
      <trkpt lat="42.64173" lon="1.73256">
        <ele>2305.859375</ele>
        <time>2011-06-19T12:08:32Z</time>
      </trkpt>
      <trkpt lat="42.64176" lon="1.73263">
        <ele>2307.3015136719</ele>
        <time>2011-06-19T12:08:38Z</time>
      </trkpt>
      <trkpt lat="42.64179" lon="1.73271">
        <ele>2308.7434082031</ele>
        <time>2011-06-19T12:08:47Z</time>
      </trkpt>
      <trkpt lat="42.64179" lon="1.73271">
        <ele>2308.7434082031</ele>
        <time>2011-06-19T12:08:55Z</time>
      </trkpt>
      <trkpt lat="42.64179" lon="1.73274">
        <ele>2309.2241210938</ele>
        <time>2011-06-19T12:09:01Z</time>
      </trkpt>
      <trkpt lat="42.64181" lon="1.73276">
        <ele>2309.2241210938</ele>
        <time>2011-06-19T12:09:08Z</time>
      </trkpt>
      <trkpt lat="42.64181" lon="1.73277">
        <ele>2308.7434082031</ele>
        <time>2011-06-19T12:09:19Z</time>
      </trkpt>
      <trkpt lat="42.64182" lon="1.73279">
        <ele>2308.2626953125</ele>
        <time>2011-06-19T12:09:28Z</time>
      </trkpt>
      <trkpt lat="42.64185" lon="1.73282">
        <ele>2307.7822265625</ele>
        <time>2011-06-19T12:09:45Z</time>
      </trkpt>
      <trkpt lat="42.64182" lon="1.73282">
        <ele>2307.3015136719</ele>
        <time>2011-06-19T12:09:50Z</time>
      </trkpt>
      <trkpt lat="42.64181" lon="1.73278">
        <ele>2308.2626953125</ele>
        <time>2011-06-19T12:09:56Z</time>
      </trkpt>
      <trkpt lat="42.64181" lon="1.73278">
        <ele>2308.2626953125</ele>
        <time>2011-06-19T12:10:03Z</time>
      </trkpt>
      <trkpt lat="42.64184" lon="1.73282">
        <ele>2307.7822265625</ele>
        <time>2011-06-19T12:10:11Z</time>
      </trkpt>
      <trkpt lat="42.64188" lon="1.73286">
        <ele>2306.3400878906</ele>
        <time>2011-06-19T12:10:17Z</time>
      </trkpt>
      <trkpt lat="42.64196" lon="1.73292">
        <ele>2304.4174804688</ele>
        <time>2011-06-19T12:10:26Z</time>
      </trkpt>
      <trkpt lat="42.64197" lon="1.73298">
        <ele>2303.4562988281</ele>
        <time>2011-06-19T12:10:32Z</time>
      </trkpt>
      <trkpt lat="42.64199" lon="1.73307">
        <ele>2302.0141601562</ele>
        <time>2011-06-19T12:10:39Z</time>
      </trkpt>
      <trkpt lat="42.64202" lon="1.7332">
        <ele>2300.091796875</ele>
        <time>2011-06-19T12:10:49Z</time>
      </trkpt>
      <trkpt lat="42.64206" lon="1.73331">
        <ele>2298.1687011719</ele>
        <time>2011-06-19T12:10:55Z</time>
      </trkpt>
      <trkpt lat="42.64211" lon="1.73342">
        <ele>2296.7268066406</ele>
        <time>2011-06-19T12:11:01Z</time>
      </trkpt>
      <trkpt lat="42.64216" lon="1.73354">
        <ele>2295.765625</ele>
        <time>2011-06-19T12:11:08Z</time>
      </trkpt>
      <trkpt lat="42.6422" lon="1.73363">
        <ele>2294.3234863281</ele>
        <time>2011-06-19T12:11:14Z</time>
      </trkpt>
      <trkpt lat="42.64225" lon="1.73371">
        <ele>2292.4011230469</ele>
        <time>2011-06-19T12:11:21Z</time>
      </trkpt>
      <trkpt lat="42.64231" lon="1.7338">
        <ele>2290.4782714844</ele>
        <time>2011-06-19T12:11:28Z</time>
      </trkpt>
      <trkpt lat="42.64234" lon="1.73387">
        <ele>2289.5170898438</ele>
        <time>2011-06-19T12:11:33Z</time>
      </trkpt>
      <trkpt lat="42.64236" lon="1.73391">
        <ele>2289.5170898438</ele>
        <time>2011-06-19T12:11:37Z</time>
      </trkpt>
      <trkpt lat="42.6424" lon="1.73397">
        <ele>2289.5170898438</ele>
        <time>2011-06-19T12:11:44Z</time>
      </trkpt>
      <trkpt lat="42.64243" lon="1.73403">
        <ele>2289.5170898438</ele>
        <time>2011-06-19T12:11:50Z</time>
      </trkpt>
      <trkpt lat="42.64249" lon="1.73416">
        <ele>2289.0363769531</ele>
        <time>2011-06-19T12:11:59Z</time>
      </trkpt>
      <trkpt lat="42.64254" lon="1.73428">
        <ele>2287.5944824219</ele>
        <time>2011-06-19T12:12:08Z</time>
      </trkpt>
      <trkpt lat="42.64257" lon="1.73433">
        <ele>2285.671875</ele>
        <time>2011-06-19T12:12:14Z</time>
      </trkpt>
      <trkpt lat="42.64256" lon="1.73433">
        <ele>2285.671875</ele>
        <time>2011-06-19T12:12:20Z</time>
      </trkpt>
      <trkpt lat="42.64258" lon="1.73435">
        <ele>2284.7106933594</ele>
        <time>2011-06-19T12:12:32Z</time>
      </trkpt>
      <trkpt lat="42.64262" lon="1.73446">
        <ele>2282.3071289062</ele>
        <time>2011-06-19T12:12:41Z</time>
      </trkpt>
      <trkpt lat="42.64265" lon="1.73455">
        <ele>2281.345703125</ele>
        <time>2011-06-19T12:12:48Z</time>
      </trkpt>
      <trkpt lat="42.64268" lon="1.73465">
        <ele>2280.3845214844</ele>
        <time>2011-06-19T12:12:55Z</time>
      </trkpt>
      <trkpt lat="42.6427" lon="1.73472">
        <ele>2279.4230957031</ele>
        <time>2011-06-19T12:13:01Z</time>
      </trkpt>
      <trkpt lat="42.64273" lon="1.73479">
        <ele>2278.4619140625</ele>
        <time>2011-06-19T12:13:07Z</time>
      </trkpt>
      <trkpt lat="42.64277" lon="1.73487">
        <ele>2277.5004882812</ele>
        <time>2011-06-19T12:13:15Z</time>
      </trkpt>
      <trkpt lat="42.64279" lon="1.73492">
        <ele>2277.9812011719</ele>
        <time>2011-06-19T12:13:20Z</time>
      </trkpt>
      <trkpt lat="42.64283" lon="1.735">
        <ele>2277.5004882812</ele>
        <time>2011-06-19T12:13:28Z</time>
      </trkpt>
      <trkpt lat="42.64287" lon="1.73506">
        <ele>2276.05859375</ele>
        <time>2011-06-19T12:13:34Z</time>
      </trkpt>
      <trkpt lat="42.6429" lon="1.73509">
        <ele>2275.0971679688</ele>
        <time>2011-06-19T12:13:39Z</time>
      </trkpt>
      <trkpt lat="42.64295" lon="1.73513">
        <ele>2274.6166992188</ele>
        <time>2011-06-19T12:13:45Z</time>
      </trkpt>
      <trkpt lat="42.64298" lon="1.7352">
        <ele>2274.1359863281</ele>
        <time>2011-06-19T12:13:52Z</time>
      </trkpt>
      <trkpt lat="42.64302" lon="1.73525">
        <ele>2273.1748046875</ele>
        <time>2011-06-19T12:13:59Z</time>
      </trkpt>
      <trkpt lat="42.64304" lon="1.73531">
        <ele>2272.2133789062</ele>
        <time>2011-06-19T12:14:06Z</time>
      </trkpt>
      <trkpt lat="42.64308" lon="1.73536">
        <ele>2271.7326660156</ele>
        <time>2011-06-19T12:14:12Z</time>
      </trkpt>
      <trkpt lat="42.64313" lon="1.73539">
        <ele>2271.7326660156</ele>
        <time>2011-06-19T12:14:18Z</time>
      </trkpt>
      <trkpt lat="42.64321" lon="1.73542">
        <ele>2271.251953125</ele>
        <time>2011-06-19T12:14:26Z</time>
      </trkpt>
      <trkpt lat="42.64322" lon="1.73542">
        <ele>2270.771484375</ele>
        <time>2011-06-19T12:14:27Z</time>
      </trkpt>
      <trkpt lat="42.64325" lon="1.73546">
        <ele>2270.2907714844</ele>
        <time>2011-06-19T12:14:32Z</time>
      </trkpt>
      <trkpt lat="42.6433" lon="1.73551">
        <ele>2267.4064941406</ele>
        <time>2011-06-19T12:14:38Z</time>
      </trkpt>
      <trkpt lat="42.64333" lon="1.73556">
        <ele>2266.9260253906</ele>
        <time>2011-06-19T12:14:42Z</time>
      </trkpt>
      <trkpt lat="42.64339" lon="1.73561">
        <ele>2265.4841308594</ele>
        <time>2011-06-19T12:14:48Z</time>
      </trkpt>
      <trkpt lat="42.64345" lon="1.73566">
        <ele>2264.5227050781</ele>
        <time>2011-06-19T12:14:55Z</time>
      </trkpt>
      <trkpt lat="42.64351" lon="1.73569">
        <ele>2263.5612792969</ele>
        <time>2011-06-19T12:15:01Z</time>
      </trkpt>
      <trkpt lat="42.64358" lon="1.7357">
        <ele>2262.6000976562</ele>
        <time>2011-06-19T12:15:07Z</time>
      </trkpt>
      <trkpt lat="42.64363" lon="1.73573">
        <ele>2261.6389160156</ele>
        <time>2011-06-19T12:15:11Z</time>
      </trkpt>
      <trkpt lat="42.6437" lon="1.73579">
        <ele>2260.6774902344</ele>
        <time>2011-06-19T12:15:18Z</time>
      </trkpt>
      <trkpt lat="42.64379" lon="1.73586">
        <ele>2260.1967773438</ele>
        <time>2011-06-19T12:15:25Z</time>
      </trkpt>
      <trkpt lat="42.64391" lon="1.73594">
        <ele>2260.6774902344</ele>
        <time>2011-06-19T12:15:35Z</time>
      </trkpt>
      <trkpt lat="42.64401" lon="1.73598">
        <ele>2261.6389160156</ele>
        <time>2011-06-19T12:15:43Z</time>
      </trkpt>
      <trkpt lat="42.64413" lon="1.73601">
        <ele>2261.158203125</ele>
        <time>2011-06-19T12:15:50Z</time>
      </trkpt>
      <trkpt lat="42.64428" lon="1.73602">
        <ele>2260.1967773438</ele>
        <time>2011-06-19T12:15:56Z</time>
      </trkpt>
      <trkpt lat="42.64437" lon="1.73607">
        <ele>2258.7548828125</ele>
        <time>2011-06-19T12:16:02Z</time>
      </trkpt>
      <trkpt lat="42.64445" lon="1.73608">
        <ele>2256.3515625</ele>
        <time>2011-06-19T12:16:08Z</time>
      </trkpt>
      <trkpt lat="42.64455" lon="1.7361">
        <ele>2254.4289550781</ele>
        <time>2011-06-19T12:16:15Z</time>
      </trkpt>
      <trkpt lat="42.64464" lon="1.73614">
        <ele>2253.4677734375</ele>
        <time>2011-06-19T12:16:22Z</time>
      </trkpt>
      <trkpt lat="42.6447" lon="1.73618">
        <ele>2252.5063476562</ele>
        <time>2011-06-19T12:16:27Z</time>
      </trkpt>
      <trkpt lat="42.64477" lon="1.73619">
        <ele>2251.544921875</ele>
        <time>2011-06-19T12:16:32Z</time>
      </trkpt>
      <trkpt lat="42.64479" lon="1.73621">
        <ele>2251.544921875</ele>
        <time>2011-06-19T12:16:34Z</time>
      </trkpt>
      <trkpt lat="42.64489" lon="1.73628">
        <ele>2251.544921875</ele>
        <time>2011-06-19T12:16:43Z</time>
      </trkpt>
      <trkpt lat="42.64499" lon="1.73631">
        <ele>2251.0642089844</ele>
        <time>2011-06-19T12:16:51Z</time>
      </trkpt>
      <trkpt lat="42.64506" lon="1.73633">
        <ele>2251.0642089844</ele>
        <time>2011-06-19T12:16:56Z</time>
      </trkpt>
      <trkpt lat="42.64518" lon="1.73634">
        <ele>2252.5063476562</ele>
        <time>2011-06-19T12:17:05Z</time>
      </trkpt>
      <trkpt lat="42.64529" lon="1.73635">
        <ele>2253.9484863281</ele>
        <time>2011-06-19T12:17:15Z</time>
      </trkpt>
      <trkpt lat="42.64535" lon="1.73635">
        <ele>2254.4289550781</ele>
        <time>2011-06-19T12:17:22Z</time>
      </trkpt>
      <trkpt lat="42.64535" lon="1.73635">
        <ele>2254.4289550781</ele>
        <time>2011-06-19T12:17:32Z</time>
      </trkpt>
      <trkpt lat="42.6454" lon="1.73637">
        <ele>2254.4289550781</ele>
        <time>2011-06-19T12:17:37Z</time>
      </trkpt>
      <trkpt lat="42.64547" lon="1.73637">
        <ele>2255.3903808594</ele>
        <time>2011-06-19T12:17:43Z</time>
      </trkpt>
      <trkpt lat="42.64554" lon="1.73638">
        <ele>2256.8322753906</ele>
        <time>2011-06-19T12:17:50Z</time>
      </trkpt>
      <trkpt lat="42.64558" lon="1.73637">
        <ele>2259.7160644531</ele>
        <time>2011-06-19T12:17:57Z</time>
      </trkpt>
      <trkpt lat="42.64565" lon="1.73633">
        <ele>2260.6774902344</ele>
        <time>2011-06-19T12:18:04Z</time>
      </trkpt>
      <trkpt lat="42.64573" lon="1.73632">
        <ele>2262.6000976562</ele>
        <time>2011-06-19T12:18:12Z</time>
      </trkpt>
      <trkpt lat="42.64578" lon="1.73632">
        <ele>2263.5612792969</ele>
        <time>2011-06-19T12:18:18Z</time>
      </trkpt>
      <trkpt lat="42.64583" lon="1.73631">
        <ele>2265.0034179688</ele>
        <time>2011-06-19T12:18:24Z</time>
      </trkpt>
      <trkpt lat="42.64588" lon="1.7363">
        <ele>2265.4841308594</ele>
        <time>2011-06-19T12:18:30Z</time>
      </trkpt>
      <trkpt lat="42.64592" lon="1.73629">
        <ele>2266.9260253906</ele>
        <time>2011-06-19T12:18:35Z</time>
      </trkpt>
      <trkpt lat="42.64595" lon="1.7363">
        <ele>2267.8872070312</ele>
        <time>2011-06-19T12:18:40Z</time>
      </trkpt>
      <trkpt lat="42.64598" lon="1.73629">
        <ele>2269.3295898438</ele>
        <time>2011-06-19T12:18:46Z</time>
      </trkpt>
      <trkpt lat="42.646" lon="1.73626">
        <ele>2270.2907714844</ele>
        <time>2011-06-19T12:18:53Z</time>
      </trkpt>
      <trkpt lat="42.64603" lon="1.73625">
        <ele>2271.7326660156</ele>
        <time>2011-06-19T12:18:59Z</time>
      </trkpt>
      <trkpt lat="42.64605" lon="1.73625">
        <ele>2272.6940917969</ele>
        <time>2011-06-19T12:19:03Z</time>
      </trkpt>
      <trkpt lat="42.64609" lon="1.73625">
        <ele>2274.1359863281</ele>
        <time>2011-06-19T12:19:09Z</time>
      </trkpt>
      <trkpt lat="42.64614" lon="1.73628">
        <ele>2274.6166992188</ele>
        <time>2011-06-19T12:19:16Z</time>
      </trkpt>
      <trkpt lat="42.64619" lon="1.73634">
        <ele>2275.5778808594</ele>
        <time>2011-06-19T12:19:22Z</time>
      </trkpt>
      <trkpt lat="42.64627" lon="1.73637">
        <ele>2276.5393066406</ele>
        <time>2011-06-19T12:19:30Z</time>
      </trkpt>
      <trkpt lat="42.64632" lon="1.73645">
        <ele>2276.05859375</ele>
        <time>2011-06-19T12:19:37Z</time>
      </trkpt>
      <trkpt lat="42.64635" lon="1.73648">
        <ele>2275.5778808594</ele>
        <time>2011-06-19T12:19:41Z</time>
      </trkpt>
      <trkpt lat="42.64644" lon="1.73657">
        <ele>2275.5778808594</ele>
        <time>2011-06-19T12:19:50Z</time>
      </trkpt>
      <trkpt lat="42.64654" lon="1.73664">
        <ele>2277.5004882812</ele>
        <time>2011-06-19T12:19:59Z</time>
      </trkpt>
      <trkpt lat="42.64658" lon="1.73671">
        <ele>2278.4619140625</ele>
        <time>2011-06-19T12:20:05Z</time>
      </trkpt>
      <trkpt lat="42.6466" lon="1.73672">
        <ele>2279.4230957031</ele>
        <time>2011-06-19T12:20:10Z</time>
      </trkpt>
      <trkpt lat="42.64662" lon="1.73676">
        <ele>2279.4230957031</ele>
        <time>2011-06-19T12:20:20Z</time>
      </trkpt>
      <trkpt lat="42.6467" lon="1.73683">
        <ele>2279.4230957031</ele>
        <time>2011-06-19T12:20:28Z</time>
      </trkpt>
      <trkpt lat="42.64677" lon="1.73688">
        <ele>2280.3845214844</ele>
        <time>2011-06-19T12:20:35Z</time>
      </trkpt>
      <trkpt lat="42.6468" lon="1.7369">
        <ele>2280.3845214844</ele>
        <time>2011-06-19T12:20:42Z</time>
      </trkpt>
      <trkpt lat="42.64681" lon="1.7369">
        <ele>2280.3845214844</ele>
        <time>2011-06-19T12:20:43Z</time>
      </trkpt>
      <trkpt lat="42.64688" lon="1.73697">
        <ele>2280.865234375</ele>
        <time>2011-06-19T12:20:51Z</time>
      </trkpt>
      <trkpt lat="42.6469" lon="1.73698">
        <ele>2280.865234375</ele>
        <time>2011-06-19T12:20:53Z</time>
      </trkpt>
      <trkpt lat="42.64694" lon="1.73705">
        <ele>2280.3845214844</ele>
        <time>2011-06-19T12:21:00Z</time>
      </trkpt>
      <trkpt lat="42.64698" lon="1.73712">
        <ele>2278.9423828125</ele>
        <time>2011-06-19T12:21:06Z</time>
      </trkpt>
      <trkpt lat="42.64701" lon="1.73719">
        <ele>2277.9812011719</ele>
        <time>2011-06-19T12:21:11Z</time>
      </trkpt>
      <trkpt lat="42.64703" lon="1.73722">
        <ele>2277.9812011719</ele>
        <time>2011-06-19T12:21:13Z</time>
      </trkpt>
      <trkpt lat="42.64707" lon="1.73725">
        <ele>2279.4230957031</ele>
        <time>2011-06-19T12:21:19Z</time>
      </trkpt>
      <trkpt lat="42.64709" lon="1.73728">
        <ele>2278.9423828125</ele>
        <time>2011-06-19T12:21:26Z</time>
      </trkpt>
      <trkpt lat="42.6471" lon="1.73729">
        <ele>2278.4619140625</ele>
        <time>2011-06-19T12:21:36Z</time>
      </trkpt>
      <trkpt lat="42.64713" lon="1.73734">
        <ele>2277.0200195312</ele>
        <time>2011-06-19T12:21:42Z</time>
      </trkpt>
      <trkpt lat="42.64714" lon="1.73735">
        <ele>2277.0200195312</ele>
        <time>2011-06-19T12:21:43Z</time>
      </trkpt>
      <trkpt lat="42.64716" lon="1.7374">
        <ele>2277.5004882812</ele>
        <time>2011-06-19T12:21:48Z</time>
      </trkpt>
      <trkpt lat="42.64722" lon="1.73746">
        <ele>2278.4619140625</ele>
        <time>2011-06-19T12:21:55Z</time>
      </trkpt>
      <trkpt lat="42.64727" lon="1.73749">
        <ele>2279.4230957031</ele>
        <time>2011-06-19T12:22:00Z</time>
      </trkpt>
      <trkpt lat="42.64731" lon="1.73754">
        <ele>2279.9038085938</ele>
        <time>2011-06-19T12:22:06Z</time>
      </trkpt>
      <trkpt lat="42.64737" lon="1.7376">
        <ele>2281.345703125</ele>
        <time>2011-06-19T12:22:13Z</time>
      </trkpt>
      <trkpt lat="42.6474" lon="1.73767">
        <ele>2282.7875976562</ele>
        <time>2011-06-19T12:22:20Z</time>
      </trkpt>
      <trkpt lat="42.64745" lon="1.73771">
        <ele>2284.7106933594</ele>
        <time>2011-06-19T12:22:27Z</time>
      </trkpt>
      <trkpt lat="42.64748" lon="1.73774">
        <ele>2285.671875</ele>
        <time>2011-06-19T12:22:33Z</time>
      </trkpt>
      <trkpt lat="42.64752" lon="1.73779">
        <ele>2286.1525878906</ele>
        <time>2011-06-19T12:22:39Z</time>
      </trkpt>
      <trkpt lat="42.64755" lon="1.73784">
        <ele>2287.1137695312</ele>
        <time>2011-06-19T12:22:45Z</time>
      </trkpt>
      <trkpt lat="42.64761" lon="1.73791">
        <ele>2288.5559082031</ele>
        <time>2011-06-19T12:22:53Z</time>
      </trkpt>
      <trkpt lat="42.64765" lon="1.73796">
        <ele>2290.958984375</ele>
        <time>2011-06-19T12:23:00Z</time>
      </trkpt>
      <trkpt lat="42.64769" lon="1.73799">
        <ele>2292.4011230469</ele>
        <time>2011-06-19T12:23:06Z</time>
      </trkpt>
      <trkpt lat="42.64776" lon="1.73805">
        <ele>2294.3234863281</ele>
        <time>2011-06-19T12:23:14Z</time>
      </trkpt>
      <trkpt lat="42.64777" lon="1.73805">
        <ele>2294.3234863281</ele>
        <time>2011-06-19T12:23:15Z</time>
      </trkpt>
      <trkpt lat="42.64784" lon="1.73811">
        <ele>2294.8041992188</ele>
        <time>2011-06-19T12:23:22Z</time>
      </trkpt>
      <trkpt lat="42.64785" lon="1.73814">
        <ele>2295.2849121094</ele>
        <time>2011-06-19T12:23:25Z</time>
      </trkpt>
      <trkpt lat="42.6479" lon="1.73821">
        <ele>2296.7268066406</ele>
        <time>2011-06-19T12:23:34Z</time>
      </trkpt>
      <trkpt lat="42.64793" lon="1.73824">
        <ele>2297.6882324219</ele>
        <time>2011-06-19T12:23:41Z</time>
      </trkpt>
      <trkpt lat="42.64795" lon="1.73825">
        <ele>2298.1687011719</ele>
        <time>2011-06-19T12:23:50Z</time>
      </trkpt>
      <trkpt lat="42.64799" lon="1.73828">
        <ele>2299.1301269531</ele>
        <time>2011-06-19T12:23:56Z</time>
      </trkpt>
      <trkpt lat="42.64804" lon="1.73831">
        <ele>2300.091796875</ele>
        <time>2011-06-19T12:24:02Z</time>
      </trkpt>
      <trkpt lat="42.64809" lon="1.73833">
        <ele>2302.0141601562</ele>
        <time>2011-06-19T12:24:09Z</time>
      </trkpt>
      <trkpt lat="42.64815" lon="1.73837">
        <ele>2303.9370117188</ele>
        <time>2011-06-19T12:24:17Z</time>
      </trkpt>
      <trkpt lat="42.64821" lon="1.7384">
        <ele>2304.8981933594</ele>
        <time>2011-06-19T12:24:25Z</time>
      </trkpt>
      <trkpt lat="42.64825" lon="1.73843">
        <ele>2305.859375</ele>
        <time>2011-06-19T12:24:30Z</time>
      </trkpt>
      <trkpt lat="42.64829" lon="1.73844">
        <ele>2306.8208007812</ele>
        <time>2011-06-19T12:24:36Z</time>
      </trkpt>
      <trkpt lat="42.64832" lon="1.73847">
        <ele>2307.7822265625</ele>
        <time>2011-06-19T12:24:42Z</time>
      </trkpt>
      <trkpt lat="42.6484" lon="1.73847">
        <ele>2309.2241210938</ele>
        <time>2011-06-19T12:24:50Z</time>
      </trkpt>
      <trkpt lat="42.64843" lon="1.73849">
        <ele>2310.666015625</ele>
        <time>2011-06-19T12:24:56Z</time>
      </trkpt>
      <trkpt lat="42.64849" lon="1.7385">
        <ele>2310.666015625</ele>
        <time>2011-06-19T12:25:02Z</time>
      </trkpt>
      <trkpt lat="42.64856" lon="1.73852">
        <ele>2312.1079101562</ele>
        <time>2011-06-19T12:25:09Z</time>
      </trkpt>
      <trkpt lat="42.64861" lon="1.73853">
        <ele>2313.5498046875</ele>
        <time>2011-06-19T12:25:16Z</time>
      </trkpt>
      <trkpt lat="42.64864" lon="1.73855">
        <ele>2314.5112304688</ele>
        <time>2011-06-19T12:25:23Z</time>
      </trkpt>
      <trkpt lat="42.64866" lon="1.73855">
        <ele>2314.9919433594</ele>
        <time>2011-06-19T12:25:38Z</time>
      </trkpt>
      <trkpt lat="42.64868" lon="1.73856">
        <ele>2314.9919433594</ele>
        <time>2011-06-19T12:25:45Z</time>
      </trkpt>
      <trkpt lat="42.64873" lon="1.73858">
        <ele>2315.47265625</ele>
        <time>2011-06-19T12:25:50Z</time>
      </trkpt>
      <trkpt lat="42.64883" lon="1.73864">
        <ele>2316.9147949219</ele>
        <time>2011-06-19T12:26:01Z</time>
      </trkpt>
      <trkpt lat="42.64887" lon="1.73867">
        <ele>2317.3952636719</ele>
        <time>2011-06-19T12:26:08Z</time>
      </trkpt>
      <trkpt lat="42.64893" lon="1.73869">
        <ele>2318.3566894531</ele>
        <time>2011-06-19T12:26:14Z</time>
      </trkpt>
      <trkpt lat="42.64897" lon="1.73873">
        <ele>2320.279296875</ele>
        <time>2011-06-19T12:26:22Z</time>
      </trkpt>
      <trkpt lat="42.64901" lon="1.73876">
        <ele>2322.2019042969</ele>
        <time>2011-06-19T12:26:28Z</time>
      </trkpt>
      <trkpt lat="42.64903" lon="1.73879">
        <ele>2323.6437988281</ele>
        <time>2011-06-19T12:26:34Z</time>
      </trkpt>
      <trkpt lat="42.64906" lon="1.73881">
        <ele>2324.6052246094</ele>
        <time>2011-06-19T12:26:40Z</time>
      </trkpt>
      <trkpt lat="42.64909" lon="1.73883">
        <ele>2325.56640625</ele>
        <time>2011-06-19T12:26:46Z</time>
      </trkpt>
      <trkpt lat="42.64911" lon="1.73885">
        <ele>2326.0471191406</ele>
        <time>2011-06-19T12:26:51Z</time>
      </trkpt>
      <trkpt lat="42.64913" lon="1.73887">
        <ele>2327.0085449219</ele>
        <time>2011-06-19T12:27:02Z</time>
      </trkpt>
      <trkpt lat="42.6492" lon="1.7389">
        <ele>2327.4890136719</ele>
        <time>2011-06-19T12:27:10Z</time>
      </trkpt>
      <trkpt lat="42.64926" lon="1.73894">
        <ele>2329.8923339844</ele>
        <time>2011-06-19T12:27:18Z</time>
      </trkpt>
      <trkpt lat="42.64929" lon="1.73897">
        <ele>2331.3342285156</ele>
        <time>2011-06-19T12:27:24Z</time>
      </trkpt>
      <trkpt lat="42.6493" lon="1.73898">
        <ele>2331.8149414062</ele>
        <time>2011-06-19T12:27:31Z</time>
      </trkpt>
      <trkpt lat="42.6493" lon="1.73901">
        <ele>2331.8149414062</ele>
        <time>2011-06-19T12:27:37Z</time>
      </trkpt>
      <trkpt lat="42.64931" lon="1.73902">
        <ele>2333.2570800781</ele>
        <time>2011-06-19T12:27:42Z</time>
      </trkpt>
      <trkpt lat="42.64935" lon="1.73904">
        <ele>2333.7377929688</ele>
        <time>2011-06-19T12:27:47Z</time>
      </trkpt>
      <trkpt lat="42.64938" lon="1.73909">
        <ele>2335.1796875</ele>
        <time>2011-06-19T12:27:55Z</time>
      </trkpt>
      <trkpt lat="42.64941" lon="1.7391">
        <ele>2335.6604003906</ele>
        <time>2011-06-19T12:28:02Z</time>
      </trkpt>
      <trkpt lat="42.64943" lon="1.7391">
        <ele>2335.6604003906</ele>
        <time>2011-06-19T12:28:03Z</time>
      </trkpt>
      <trkpt lat="42.64949" lon="1.73914">
        <ele>2336.1411132812</ele>
        <time>2011-06-19T12:28:10Z</time>
      </trkpt>
      <trkpt lat="42.64954" lon="1.73915">
        <ele>2336.6215820312</ele>
        <time>2011-06-19T12:28:15Z</time>
      </trkpt>
      <trkpt lat="42.6496" lon="1.73918">
        <ele>2337.1022949219</ele>
        <time>2011-06-19T12:28:21Z</time>
      </trkpt>
      <trkpt lat="42.64962" lon="1.7392">
        <ele>2338.0637207031</ele>
        <time>2011-06-19T12:28:28Z</time>
      </trkpt>
      <trkpt lat="42.64968" lon="1.73925">
        <ele>2339.986328125</ele>
        <time>2011-06-19T12:28:36Z</time>
      </trkpt>
      <trkpt lat="42.64975" lon="1.73928">
        <ele>2340.9475097656</ele>
        <time>2011-06-19T12:28:43Z</time>
      </trkpt>
      <trkpt lat="42.64977" lon="1.73928">
        <ele>2341.4282226562</ele>
        <time>2011-06-19T12:28:45Z</time>
      </trkpt>
      <trkpt lat="42.64983" lon="1.73931">
        <ele>2343.3508300781</ele>
        <time>2011-06-19T12:28:53Z</time>
      </trkpt>
      <trkpt lat="42.64986" lon="1.73933">
        <ele>2344.3120117188</ele>
        <time>2011-06-19T12:28:58Z</time>
      </trkpt>
      <trkpt lat="42.64993" lon="1.73936">
        <ele>2346.2348632812</ele>
        <time>2011-06-19T12:29:07Z</time>
      </trkpt>
      <trkpt lat="42.64996" lon="1.73937">
        <ele>2347.6767578125</ele>
        <time>2011-06-19T12:29:13Z</time>
      </trkpt>
      <trkpt lat="42.65002" lon="1.73938">
        <ele>2348.6381835938</ele>
        <time>2011-06-19T12:29:21Z</time>
      </trkpt>
      <trkpt lat="42.65005" lon="1.73939">
        <ele>2350.0803222656</ele>
        <time>2011-06-19T12:29:27Z</time>
      </trkpt>
      <trkpt lat="42.65008" lon="1.7394">
        <ele>2350.5607910156</ele>
        <time>2011-06-19T12:29:33Z</time>
      </trkpt>
      <trkpt lat="42.65008" lon="1.7394">
        <ele>2351.0415039062</ele>
        <time>2011-06-19T12:29:43Z</time>
      </trkpt>
      <trkpt lat="42.65008" lon="1.7394">
        <ele>2350.0803222656</ele>
        <time>2011-06-19T12:29:59Z</time>
      </trkpt>
      <trkpt lat="42.65008" lon="1.73942">
        <ele>2349.599609375</ele>
        <time>2011-06-19T12:30:04Z</time>
      </trkpt>
      <trkpt lat="42.65011" lon="1.73944">
        <ele>2349.599609375</ele>
        <time>2011-06-19T12:30:10Z</time>
      </trkpt>
      <trkpt lat="42.65015" lon="1.73947">
        <ele>2351.0415039062</ele>
        <time>2011-06-19T12:30:17Z</time>
      </trkpt>
      <trkpt lat="42.65013" lon="1.7395">
        <ele>2352.0026855469</ele>
        <time>2011-06-19T12:30:22Z</time>
      </trkpt>
      <trkpt lat="42.65012" lon="1.73955">
        <ele>2354.4060058594</ele>
        <time>2011-06-19T12:30:29Z</time>
      </trkpt>
      <trkpt lat="42.65014" lon="1.73959">
        <ele>2355.3674316406</ele>
        <time>2011-06-19T12:30:35Z</time>
      </trkpt>
      <trkpt lat="42.65016" lon="1.73962">
        <ele>2355.8479003906</ele>
        <time>2011-06-19T12:30:42Z</time>
      </trkpt>
      <trkpt lat="42.65014" lon="1.73961">
        <ele>2355.8479003906</ele>
        <time>2011-06-19T12:30:50Z</time>
      </trkpt>
      <trkpt lat="42.65011" lon="1.73959">
        <ele>2355.8479003906</ele>
        <time>2011-06-19T12:30:58Z</time>
      </trkpt>
      <trkpt lat="42.65011" lon="1.73959">
        <ele>2356.3286132812</ele>
        <time>2011-06-19T12:31:10Z</time>
      </trkpt>
      <trkpt lat="42.65013" lon="1.73961">
        <ele>2357.7707519531</ele>
        <time>2011-06-19T12:31:33Z</time>
      </trkpt>
      <trkpt lat="42.6502" lon="1.73964">
        <ele>2358.2512207031</ele>
        <time>2011-06-19T12:31:40Z</time>
      </trkpt>
      <trkpt lat="42.65021" lon="1.73966">
        <ele>2358.7319335938</ele>
        <time>2011-06-19T12:31:46Z</time>
      </trkpt>
      <trkpt lat="42.65017" lon="1.73965">
        <ele>2359.6931152344</ele>
        <time>2011-06-19T12:31:54Z</time>
      </trkpt>
      <trkpt lat="42.65017" lon="1.73965">
        <ele>2359.6931152344</ele>
        <time>2011-06-19T12:32:00Z</time>
      </trkpt>
      <trkpt lat="42.65017" lon="1.73965">
        <ele>2359.6931152344</ele>
        <time>2011-06-19T12:32:21Z</time>
      </trkpt>
      <trkpt lat="42.65019" lon="1.73965">
        <ele>2360.173828125</ele>
        <time>2011-06-19T12:32:58Z</time>
      </trkpt>
      <trkpt lat="42.65027" lon="1.73966">
        <ele>2359.6931152344</ele>
        <time>2011-06-19T12:33:06Z</time>
      </trkpt>
      <trkpt lat="42.65034" lon="1.73968">
        <ele>2359.6931152344</ele>
        <time>2011-06-19T12:33:13Z</time>
      </trkpt>
      <trkpt lat="42.6504" lon="1.7397">
        <ele>2359.6931152344</ele>
        <time>2011-06-19T12:33:20Z</time>
      </trkpt>
      <trkpt lat="42.65042" lon="1.7397">
        <ele>2359.2126464844</ele>
        <time>2011-06-19T12:33:30Z</time>
      </trkpt>
      <trkpt lat="42.65046" lon="1.73972">
        <ele>2358.7319335938</ele>
        <time>2011-06-19T12:33:37Z</time>
      </trkpt>
      <trkpt lat="42.65052" lon="1.73974">
        <ele>2358.2512207031</ele>
        <time>2011-06-19T12:33:43Z</time>
      </trkpt>
      <trkpt lat="42.65055" lon="1.73981">
        <ele>2358.2512207031</ele>
        <time>2011-06-19T12:33:50Z</time>
      </trkpt>
      <trkpt lat="42.65059" lon="1.73986">
        <ele>2357.7707519531</ele>
        <time>2011-06-19T12:33:56Z</time>
      </trkpt>
      <trkpt lat="42.65063" lon="1.73995">
        <ele>2356.8093261719</ele>
        <time>2011-06-19T12:34:03Z</time>
      </trkpt>
      <trkpt lat="42.65069" lon="1.74007">
        <ele>2355.3674316406</ele>
        <time>2011-06-19T12:34:11Z</time>
      </trkpt>
      <trkpt lat="42.65071" lon="1.74015">
        <ele>2354.4060058594</ele>
        <time>2011-06-19T12:34:16Z</time>
      </trkpt>
      <trkpt lat="42.65072" lon="1.74016">
        <ele>2354.4060058594</ele>
        <time>2011-06-19T12:34:23Z</time>
      </trkpt>
      <trkpt lat="42.65075" lon="1.7402">
        <ele>2352.9641113281</ele>
        <time>2011-06-19T12:34:31Z</time>
      </trkpt>
      <trkpt lat="42.65078" lon="1.74027">
        <ele>2351.0415039062</ele>
        <time>2011-06-19T12:34:36Z</time>
      </trkpt>
      <trkpt lat="42.65084" lon="1.74037">
        <ele>2349.599609375</ele>
        <time>2011-06-19T12:34:43Z</time>
      </trkpt>
      <trkpt lat="42.65087" lon="1.74043">
        <ele>2349.1188964844</ele>
        <time>2011-06-19T12:34:48Z</time>
      </trkpt>
      <trkpt lat="42.65087" lon="1.74045">
        <ele>2349.1188964844</ele>
        <time>2011-06-19T12:34:49Z</time>
      </trkpt>
      <trkpt lat="42.6509" lon="1.74053">
        <ele>2348.6381835938</ele>
        <time>2011-06-19T12:34:55Z</time>
      </trkpt>
      <trkpt lat="42.65091" lon="1.74057">
        <ele>2348.1574707031</ele>
        <time>2011-06-19T12:35:01Z</time>
      </trkpt>
      <trkpt lat="42.65091" lon="1.74058">
        <ele>2348.1574707031</ele>
        <time>2011-06-19T12:35:02Z</time>
      </trkpt>
      <trkpt lat="42.65099" lon="1.74073">
        <ele>2347.1960449219</ele>
        <time>2011-06-19T12:35:11Z</time>
      </trkpt>
      <trkpt lat="42.65101" lon="1.7408">
        <ele>2346.7153320312</ele>
        <time>2011-06-19T12:35:18Z</time>
      </trkpt>
      <trkpt lat="42.65103" lon="1.74085">
        <ele>2346.7153320312</ele>
        <time>2011-06-19T12:35:24Z</time>
      </trkpt>
      <trkpt lat="42.65109" lon="1.74101">
        <ele>2346.7153320312</ele>
        <time>2011-06-19T12:35:34Z</time>
      </trkpt>
      <trkpt lat="42.65116" lon="1.74111">
        <ele>2347.1960449219</ele>
        <time>2011-06-19T12:35:41Z</time>
      </trkpt>
      <trkpt lat="42.65123" lon="1.74124">
        <ele>2347.6767578125</ele>
        <time>2011-06-19T12:35:50Z</time>
      </trkpt>
      <trkpt lat="42.65124" lon="1.74125">
        <ele>2347.6767578125</ele>
        <time>2011-06-19T12:35:51Z</time>
      </trkpt>
      <trkpt lat="42.65126" lon="1.74131">
        <ele>2347.6767578125</ele>
        <time>2011-06-19T12:35:55Z</time>
      </trkpt>
      <trkpt lat="42.65131" lon="1.74145">
        <ele>2346.7153320312</ele>
        <time>2011-06-19T12:36:04Z</time>
      </trkpt>
      <trkpt lat="42.65136" lon="1.74157">
        <ele>2347.1960449219</ele>
        <time>2011-06-19T12:36:13Z</time>
      </trkpt>
      <trkpt lat="42.65139" lon="1.74168">
        <ele>2346.7153320312</ele>
        <time>2011-06-19T12:36:20Z</time>
      </trkpt>
      <trkpt lat="42.65141" lon="1.74179">
        <ele>2346.2348632812</ele>
        <time>2011-06-19T12:36:27Z</time>
      </trkpt>
      <trkpt lat="42.65143" lon="1.7419">
        <ele>2345.7541503906</ele>
        <time>2011-06-19T12:36:34Z</time>
      </trkpt>
      <trkpt lat="42.65144" lon="1.74194">
        <ele>2345.2734375</ele>
        <time>2011-06-19T12:36:44Z</time>
      </trkpt>
      <trkpt lat="42.65144" lon="1.74208">
        <ele>2344.3120117188</ele>
        <time>2011-06-19T12:36:52Z</time>
      </trkpt>
      <trkpt lat="42.65147" lon="1.7422">
        <ele>2344.7927246094</ele>
        <time>2011-06-19T12:37:00Z</time>
      </trkpt>
      <trkpt lat="42.65149" lon="1.74226">
        <ele>2345.2734375</ele>
        <time>2011-06-19T12:37:05Z</time>
      </trkpt>
      <trkpt lat="42.65153" lon="1.74235">
        <ele>2345.7541503906</ele>
        <time>2011-06-19T12:37:13Z</time>
      </trkpt>
      <trkpt lat="42.65159" lon="1.74249">
        <ele>2346.7153320312</ele>
        <time>2011-06-19T12:37:23Z</time>
      </trkpt>
      <trkpt lat="42.65166" lon="1.74256">
        <ele>2348.6381835938</ele>
        <time>2011-06-19T12:37:31Z</time>
      </trkpt>
      <trkpt lat="42.6517" lon="1.74261">
        <ele>2349.1188964844</ele>
        <time>2011-06-19T12:37:38Z</time>
      </trkpt>
      <trkpt lat="42.65174" lon="1.74266">
        <ele>2350.5607910156</ele>
        <time>2011-06-19T12:37:45Z</time>
      </trkpt>
      <trkpt lat="42.6518" lon="1.74272">
        <ele>2351.5222167969</ele>
        <time>2011-06-19T12:37:52Z</time>
      </trkpt>
      <trkpt lat="42.65182" lon="1.74275">
        <ele>2353.4448242188</ele>
        <time>2011-06-19T12:37:57Z</time>
      </trkpt>
      <trkpt lat="42.65185" lon="1.74278">
        <ele>2354.88671875</ele>
        <time>2011-06-19T12:38:03Z</time>
      </trkpt>
      <trkpt lat="42.6519" lon="1.74278">
        <ele>2356.8093261719</ele>
        <time>2011-06-19T12:38:11Z</time>
      </trkpt>
      <trkpt lat="42.65193" lon="1.74278">
        <ele>2357.7707519531</ele>
        <time>2011-06-19T12:38:16Z</time>
      </trkpt>
      <trkpt lat="42.65195" lon="1.7428">
        <ele>2359.6931152344</ele>
        <time>2011-06-19T12:38:22Z</time>
      </trkpt>
      <trkpt lat="42.65195" lon="1.74281">
        <ele>2360.6545410156</ele>
        <time>2011-06-19T12:38:27Z</time>
      </trkpt>
      <trkpt lat="42.65197" lon="1.74284">
        <ele>2362.0964355469</ele>
        <time>2011-06-19T12:38:33Z</time>
      </trkpt>
      <trkpt lat="42.65199" lon="1.74287">
        <ele>2363.0578613281</ele>
        <time>2011-06-19T12:38:39Z</time>
      </trkpt>
      <trkpt lat="42.65203" lon="1.7429">
        <ele>2364.0192871094</ele>
        <time>2011-06-19T12:38:46Z</time>
      </trkpt>
      <trkpt lat="42.65206" lon="1.74294">
        <ele>2364.5</ele>
        <time>2011-06-19T12:38:52Z</time>
      </trkpt>
      <trkpt lat="42.6521" lon="1.74298">
        <ele>2366.9033203125</ele>
        <time>2011-06-19T12:39:00Z</time>
      </trkpt>
      <trkpt lat="42.65211" lon="1.743">
        <ele>2367.8645019531</ele>
        <time>2011-06-19T12:39:07Z</time>
      </trkpt>
      <trkpt lat="42.65215" lon="1.74303">
        <ele>2368.8259277344</ele>
        <time>2011-06-19T12:39:14Z</time>
      </trkpt>
      <trkpt lat="42.65219" lon="1.74305">
        <ele>2370.2678222656</ele>
        <time>2011-06-19T12:39:20Z</time>
      </trkpt>
      <trkpt lat="42.65221" lon="1.74307">
        <ele>2370.7485351562</ele>
        <time>2011-06-19T12:39:26Z</time>
      </trkpt>
      <trkpt lat="42.65227" lon="1.7431">
        <ele>2370.7485351562</ele>
        <time>2011-06-19T12:39:33Z</time>
      </trkpt>
      <trkpt lat="42.65235" lon="1.74317">
        <ele>2371.7097167969</ele>
        <time>2011-06-19T12:39:42Z</time>
      </trkpt>
      <trkpt lat="42.6524" lon="1.74322">
        <ele>2372.6711425781</ele>
        <time>2011-06-19T12:39:48Z</time>
      </trkpt>
      <trkpt lat="42.65245" lon="1.74328">
        <ele>2373.6323242188</ele>
        <time>2011-06-19T12:39:55Z</time>
      </trkpt>
      <trkpt lat="42.65248" lon="1.74332">
        <ele>2374.1130371094</ele>
        <time>2011-06-19T12:40:00Z</time>
      </trkpt>
      <trkpt lat="42.65251" lon="1.74338">
        <ele>2373.6323242188</ele>
        <time>2011-06-19T12:40:05Z</time>
      </trkpt>
      <trkpt lat="42.65252" lon="1.74339">
        <ele>2373.6323242188</ele>
        <time>2011-06-19T12:40:06Z</time>
      </trkpt>
      <trkpt lat="42.65257" lon="1.74351">
        <ele>2372.1904296875</ele>
        <time>2011-06-19T12:40:14Z</time>
      </trkpt>
      <trkpt lat="42.65258" lon="1.74352">
        <ele>2372.1904296875</ele>
        <time>2011-06-19T12:40:15Z</time>
      </trkpt>
      <trkpt lat="42.65258" lon="1.74364">
        <ele>2370.2678222656</ele>
        <time>2011-06-19T12:40:22Z</time>
      </trkpt>
      <trkpt lat="42.65257" lon="1.74366">
        <ele>2369.787109375</ele>
        <time>2011-06-19T12:40:23Z</time>
      </trkpt>
      <trkpt lat="42.65259" lon="1.74379">
        <ele>2369.787109375</ele>
        <time>2011-06-19T12:40:31Z</time>
      </trkpt>
      <trkpt lat="42.65263" lon="1.74387">
        <ele>2368.8259277344</ele>
        <time>2011-06-19T12:40:37Z</time>
      </trkpt>
      <trkpt lat="42.65263" lon="1.74389">
        <ele>2368.8259277344</ele>
        <time>2011-06-19T12:40:38Z</time>
      </trkpt>
      <trkpt lat="42.65266" lon="1.74401">
        <ele>2367.8645019531</ele>
        <time>2011-06-19T12:40:45Z</time>
      </trkpt>
      <trkpt lat="42.65266" lon="1.74402">
        <ele>2367.8645019531</ele>
        <time>2011-06-19T12:40:46Z</time>
      </trkpt>
      <trkpt lat="42.65272" lon="1.7441">
        <ele>2367.3837890625</ele>
        <time>2011-06-19T12:40:52Z</time>
      </trkpt>
      <trkpt lat="42.65279" lon="1.74415">
        <ele>2365.9418945312</ele>
        <time>2011-06-19T12:40:57Z</time>
      </trkpt>
      <trkpt lat="42.65285" lon="1.74416">
        <ele>2365.4614257812</ele>
        <time>2011-06-19T12:41:01Z</time>
      </trkpt>
      <trkpt lat="42.65286" lon="1.74416">
        <ele>2365.9418945312</ele>
        <time>2011-06-19T12:41:10Z</time>
      </trkpt>
      <trkpt lat="42.65289" lon="1.74416">
        <ele>2366.4226074219</ele>
        <time>2011-06-19T12:41:19Z</time>
      </trkpt>
      <trkpt lat="42.65294" lon="1.74418">
        <ele>2365.9418945312</ele>
        <time>2011-06-19T12:41:25Z</time>
      </trkpt>
      <trkpt lat="42.65297" lon="1.74421">
        <ele>2365.4614257812</ele>
        <time>2011-06-19T12:41:27Z</time>
      </trkpt>
      <trkpt lat="42.65301" lon="1.74428">
        <ele>2365.4614257812</ele>
        <time>2011-06-19T12:41:33Z</time>
      </trkpt>
      <trkpt lat="42.65306" lon="1.74431">
        <ele>2365.4614257812</ele>
        <time>2011-06-19T12:41:41Z</time>
      </trkpt>
      <trkpt lat="42.65307" lon="1.74436">
        <ele>2364.9807128906</ele>
        <time>2011-06-19T12:41:46Z</time>
      </trkpt>
      <trkpt lat="42.65309" lon="1.74439">
        <ele>2362.5771484375</ele>
        <time>2011-06-19T12:41:53Z</time>
      </trkpt>
      <trkpt lat="42.65312" lon="1.74441">
        <ele>2361.1352539062</ele>
        <time>2011-06-19T12:41:58Z</time>
      </trkpt>
      <trkpt lat="42.65314" lon="1.74444">
        <ele>2359.2126464844</ele>
        <time>2011-06-19T12:42:04Z</time>
      </trkpt>
      <trkpt lat="42.65317" lon="1.74447">
        <ele>2357.7707519531</ele>
        <time>2011-06-19T12:42:07Z</time>
      </trkpt>
      <trkpt lat="42.65322" lon="1.74449">
        <ele>2356.8093261719</ele>
        <time>2011-06-19T12:42:14Z</time>
      </trkpt>
      <trkpt lat="42.65324" lon="1.74452">
        <ele>2355.8479003906</ele>
        <time>2011-06-19T12:42:20Z</time>
      </trkpt>
      <trkpt lat="42.65327" lon="1.74456">
        <ele>2354.4060058594</ele>
        <time>2011-06-19T12:42:26Z</time>
      </trkpt>
      <trkpt lat="42.65331" lon="1.74459">
        <ele>2353.4448242188</ele>
        <time>2011-06-19T12:42:31Z</time>
      </trkpt>
      <trkpt lat="42.65333" lon="1.7446">
        <ele>2352.0026855469</ele>
        <time>2011-06-19T12:42:37Z</time>
      </trkpt>
      <trkpt lat="42.65335" lon="1.74461">
        <ele>2351.0415039062</ele>
        <time>2011-06-19T12:42:44Z</time>
      </trkpt>
      <trkpt lat="42.65338" lon="1.74464">
        <ele>2349.1188964844</ele>
        <time>2011-06-19T12:42:50Z</time>
      </trkpt>
      <trkpt lat="42.6534" lon="1.74469">
        <ele>2347.6767578125</ele>
        <time>2011-06-19T12:42:55Z</time>
      </trkpt>
      <trkpt lat="42.65344" lon="1.7447">
        <ele>2345.7541503906</ele>
        <time>2011-06-19T12:43:01Z</time>
      </trkpt>
      <trkpt lat="42.65347" lon="1.74476">
        <ele>2344.3120117188</ele>
        <time>2011-06-19T12:43:06Z</time>
      </trkpt>
      <trkpt lat="42.65349" lon="1.74482">
        <ele>2343.3508300781</ele>
        <time>2011-06-19T12:43:12Z</time>
      </trkpt>
      <trkpt lat="42.65353" lon="1.74483">
        <ele>2341.9089355469</ele>
        <time>2011-06-19T12:43:17Z</time>
      </trkpt>
      <trkpt lat="42.65358" lon="1.74488">
        <ele>2340.466796875</ele>
        <time>2011-06-19T12:43:22Z</time>
      </trkpt>
      <trkpt lat="42.65366" lon="1.74493">
        <ele>2338.5444335938</ele>
        <time>2011-06-19T12:43:28Z</time>
      </trkpt>
      <trkpt lat="42.65369" lon="1.74494">
        <ele>2338.0637207031</ele>
        <time>2011-06-19T12:43:32Z</time>
      </trkpt>
      <trkpt lat="42.65377" lon="1.74504">
        <ele>2337.5830078125</ele>
        <time>2011-06-19T12:43:41Z</time>
      </trkpt>
      <trkpt lat="42.65382" lon="1.74511">
        <ele>2337.1022949219</ele>
        <time>2011-06-19T12:43:48Z</time>
      </trkpt>
      <trkpt lat="42.65388" lon="1.74518">
        <ele>2336.6215820312</ele>
        <time>2011-06-19T12:43:56Z</time>
      </trkpt>
      <trkpt lat="42.6539" lon="1.74523">
        <ele>2337.1022949219</ele>
        <time>2011-06-19T12:44:02Z</time>
      </trkpt>
      <trkpt lat="42.65392" lon="1.74527">
        <ele>2338.0637207031</ele>
        <time>2011-06-19T12:44:07Z</time>
      </trkpt>
      <trkpt lat="42.65399" lon="1.74529">
        <ele>2339.0249023438</ele>
        <time>2011-06-19T12:44:13Z</time>
      </trkpt>
      <trkpt lat="42.65401" lon="1.74532">
        <ele>2339.5056152344</ele>
        <time>2011-06-19T12:44:16Z</time>
      </trkpt>
      <trkpt lat="42.65408" lon="1.74536">
        <ele>2340.9475097656</ele>
        <time>2011-06-19T12:44:24Z</time>
      </trkpt>
      <trkpt lat="42.65413" lon="1.74539">
        <ele>2342.3896484375</ele>
        <time>2011-06-19T12:44:30Z</time>
      </trkpt>
      <trkpt lat="42.65416" lon="1.74541">
        <ele>2343.8315429688</ele>
        <time>2011-06-19T12:44:35Z</time>
      </trkpt>
      <trkpt lat="42.65417" lon="1.74545">
        <ele>2344.7927246094</ele>
        <time>2011-06-19T12:44:41Z</time>
      </trkpt>
      <trkpt lat="42.65419" lon="1.74549">
        <ele>2345.7541503906</ele>
        <time>2011-06-19T12:44:47Z</time>
      </trkpt>
      <trkpt lat="42.65421" lon="1.74555">
        <ele>2347.1960449219</ele>
        <time>2011-06-19T12:44:55Z</time>
      </trkpt>
      <trkpt lat="42.65425" lon="1.7456">
        <ele>2348.6381835938</ele>
        <time>2011-06-19T12:45:02Z</time>
      </trkpt>
      <trkpt lat="42.6543" lon="1.74564">
        <ele>2350.0803222656</ele>
        <time>2011-06-19T12:45:10Z</time>
      </trkpt>
      <trkpt lat="42.65435" lon="1.74567">
        <ele>2352.0026855469</ele>
        <time>2011-06-19T12:45:17Z</time>
      </trkpt>
      <trkpt lat="42.6544" lon="1.74567">
        <ele>2352.9641113281</ele>
        <time>2011-06-19T12:45:23Z</time>
      </trkpt>
      <trkpt lat="42.65445" lon="1.74567">
        <ele>2353.4448242188</ele>
        <time>2011-06-19T12:45:29Z</time>
      </trkpt>
      <trkpt lat="42.65451" lon="1.74567">
        <ele>2353.9255371094</ele>
        <time>2011-06-19T12:45:35Z</time>
      </trkpt>
      <trkpt lat="42.65456" lon="1.74566">
        <ele>2354.4060058594</ele>
        <time>2011-06-19T12:45:41Z</time>
      </trkpt>
      <trkpt lat="42.65461" lon="1.74564">
        <ele>2354.4060058594</ele>
        <time>2011-06-19T12:45:47Z</time>
      </trkpt>
      <trkpt lat="42.65464" lon="1.74563">
        <ele>2354.88671875</ele>
        <time>2011-06-19T12:45:53Z</time>
      </trkpt>
      <trkpt lat="42.65468" lon="1.74562">
        <ele>2354.4060058594</ele>
        <time>2011-06-19T12:45:59Z</time>
      </trkpt>
      <trkpt lat="42.6547" lon="1.74561">
        <ele>2353.9255371094</ele>
        <time>2011-06-19T12:46:04Z</time>
      </trkpt>
      <trkpt lat="42.65471" lon="1.74559">
        <ele>2352.4833984375</ele>
        <time>2011-06-19T12:46:09Z</time>
      </trkpt>
      <trkpt lat="42.65475" lon="1.74556">
        <ele>2351.0415039062</ele>
        <time>2011-06-19T12:46:15Z</time>
      </trkpt>
      <trkpt lat="42.65479" lon="1.74553">
        <ele>2350.0803222656</ele>
        <time>2011-06-19T12:46:22Z</time>
      </trkpt>
      <trkpt lat="42.6548" lon="1.74552">
        <ele>2349.599609375</ele>
        <time>2011-06-19T12:46:24Z</time>
      </trkpt>
      <trkpt lat="42.65483" lon="1.74547">
        <ele>2348.6381835938</ele>
        <time>2011-06-19T12:46:31Z</time>
      </trkpt>
      <trkpt lat="42.65485" lon="1.74547">
        <ele>2348.1574707031</ele>
        <time>2011-06-19T12:46:37Z</time>
      </trkpt>
      <trkpt lat="42.65491" lon="1.74545">
        <ele>2347.1960449219</ele>
        <time>2011-06-19T12:46:43Z</time>
      </trkpt>
      <trkpt lat="42.65495" lon="1.74541">
        <ele>2346.7153320312</ele>
        <time>2011-06-19T12:46:49Z</time>
      </trkpt>
      <trkpt lat="42.65496" lon="1.7454">
        <ele>2347.1960449219</ele>
        <time>2011-06-19T12:46:50Z</time>
      </trkpt>
      <trkpt lat="42.65501" lon="1.74538">
        <ele>2346.2348632812</ele>
        <time>2011-06-19T12:46:56Z</time>
      </trkpt>
      <trkpt lat="42.65505" lon="1.74536">
        <ele>2344.7927246094</ele>
        <time>2011-06-19T12:47:01Z</time>
      </trkpt>
      <trkpt lat="42.65509" lon="1.74532">
        <ele>2344.3120117188</ele>
        <time>2011-06-19T12:47:08Z</time>
      </trkpt>
      <trkpt lat="42.65512" lon="1.74529">
        <ele>2343.3508300781</ele>
        <time>2011-06-19T12:47:13Z</time>
      </trkpt>
      <trkpt lat="42.65516" lon="1.74526">
        <ele>2342.3896484375</ele>
        <time>2011-06-19T12:47:18Z</time>
      </trkpt>
      <trkpt lat="42.65518" lon="1.74525">
        <ele>2341.9089355469</ele>
        <time>2011-06-19T12:47:21Z</time>
      </trkpt>
      <trkpt lat="42.65519" lon="1.74526">
        <ele>2341.9089355469</ele>
        <time>2011-06-19T12:47:28Z</time>
      </trkpt>
      <trkpt lat="42.6552" lon="1.74526">
        <ele>2340.466796875</ele>
        <time>2011-06-19T12:47:47Z</time>
      </trkpt>
      <trkpt lat="42.65525" lon="1.74526">
        <ele>2340.466796875</ele>
        <time>2011-06-19T12:47:54Z</time>
      </trkpt>
      <trkpt lat="42.65531" lon="1.74526">
        <ele>2340.466796875</ele>
        <time>2011-06-19T12:48:01Z</time>
      </trkpt>
      <trkpt lat="42.65535" lon="1.74525">
        <ele>2340.9475097656</ele>
        <time>2011-06-19T12:48:07Z</time>
      </trkpt>
      <trkpt lat="42.65537" lon="1.74524">
        <ele>2340.9475097656</ele>
        <time>2011-06-19T12:48:12Z</time>
      </trkpt>
      <trkpt lat="42.65541" lon="1.74524">
        <ele>2340.466796875</ele>
        <time>2011-06-19T12:48:18Z</time>
      </trkpt>
      <trkpt lat="42.65546" lon="1.74523">
        <ele>2339.5056152344</ele>
        <time>2011-06-19T12:48:24Z</time>
      </trkpt>
      <trkpt lat="42.65551" lon="1.74522">
        <ele>2339.0249023438</ele>
        <time>2011-06-19T12:48:30Z</time>
      </trkpt>
      <trkpt lat="42.65556" lon="1.7452">
        <ele>2337.5830078125</ele>
        <time>2011-06-19T12:48:36Z</time>
      </trkpt>
      <trkpt lat="42.65559" lon="1.74515">
        <ele>2337.1022949219</ele>
        <time>2011-06-19T12:48:40Z</time>
      </trkpt>
      <trkpt lat="42.65565" lon="1.74512">
        <ele>2336.6215820312</ele>
        <time>2011-06-19T12:48:45Z</time>
      </trkpt>
      <trkpt lat="42.65574" lon="1.74507">
        <ele>2336.1411132812</ele>
        <time>2011-06-19T12:48:54Z</time>
      </trkpt>
      <trkpt lat="42.6558" lon="1.74499">
        <ele>2337.5830078125</ele>
        <time>2011-06-19T12:49:01Z</time>
      </trkpt>
      <trkpt lat="42.65586" lon="1.74492">
        <ele>2338.5444335938</ele>
        <time>2011-06-19T12:49:08Z</time>
      </trkpt>
      <trkpt lat="42.65591" lon="1.74486">
        <ele>2338.5444335938</ele>
        <time>2011-06-19T12:49:15Z</time>
      </trkpt>
      <trkpt lat="42.65596" lon="1.74481">
        <ele>2338.5444335938</ele>
        <time>2011-06-19T12:49:22Z</time>
      </trkpt>
      <trkpt lat="42.65601" lon="1.74477">
        <ele>2339.5056152344</ele>
        <time>2011-06-19T12:49:27Z</time>
      </trkpt>
      <trkpt lat="42.65606" lon="1.74477">
        <ele>2339.986328125</ele>
        <time>2011-06-19T12:49:32Z</time>
      </trkpt>
      <trkpt lat="42.65608" lon="1.74473">
        <ele>2341.4282226562</ele>
        <time>2011-06-19T12:49:36Z</time>
      </trkpt>
      <trkpt lat="42.65612" lon="1.7447">
        <ele>2341.9089355469</ele>
        <time>2011-06-19T12:49:43Z</time>
      </trkpt>
      <trkpt lat="42.65617" lon="1.74465">
        <ele>2342.3896484375</ele>
        <time>2011-06-19T12:49:48Z</time>
      </trkpt>
      <trkpt lat="42.65621" lon="1.74465">
        <ele>2344.3120117188</ele>
        <time>2011-06-19T12:49:56Z</time>
      </trkpt>
      <trkpt lat="42.65619" lon="1.74466">
        <ele>2344.7927246094</ele>
        <time>2011-06-19T12:50:10Z</time>
      </trkpt>
      <trkpt lat="42.6562" lon="1.74465">
        <ele>2344.3120117188</ele>
        <time>2011-06-19T12:50:29Z</time>
      </trkpt>
      <trkpt lat="42.65621" lon="1.74465">
        <ele>2344.3120117188</ele>
        <time>2011-06-19T12:50:35Z</time>
      </trkpt>
      <trkpt lat="42.65627" lon="1.74465">
        <ele>2342.8701171875</ele>
        <time>2011-06-19T12:50:42Z</time>
      </trkpt>
      <trkpt lat="42.65629" lon="1.74465">
        <ele>2343.8315429688</ele>
        <time>2011-06-19T12:50:47Z</time>
      </trkpt>
      <trkpt lat="42.65634" lon="1.74464">
        <ele>2344.3120117188</ele>
        <time>2011-06-19T12:50:54Z</time>
      </trkpt>
      <trkpt lat="42.65633" lon="1.74464">
        <ele>2345.2734375</ele>
        <time>2011-06-19T12:51:00Z</time>
      </trkpt>
      <trkpt lat="42.65633" lon="1.74465">
        <ele>2347.1960449219</ele>
        <time>2011-06-19T12:51:11Z</time>
      </trkpt>
      <trkpt lat="42.65635" lon="1.74464">
        <ele>2346.2348632812</ele>
        <time>2011-06-19T12:51:26Z</time>
      </trkpt>
      <trkpt lat="42.65638" lon="1.74463">
        <ele>2346.2348632812</ele>
        <time>2011-06-19T12:51:38Z</time>
      </trkpt>
      <trkpt lat="42.6564" lon="1.74464">
        <ele>2346.2348632812</ele>
        <time>2011-06-19T12:51:45Z</time>
      </trkpt>
      <trkpt lat="42.65642" lon="1.74465">
        <ele>2345.7541503906</ele>
        <time>2011-06-19T12:51:51Z</time>
      </trkpt>
      <trkpt lat="42.65646" lon="1.74466">
        <ele>2344.3120117188</ele>
        <time>2011-06-19T12:51:57Z</time>
      </trkpt>
      <trkpt lat="42.6565" lon="1.74464">
        <ele>2341.9089355469</ele>
        <time>2011-06-19T12:52:04Z</time>
      </trkpt>
      <trkpt lat="42.65654" lon="1.74459">
        <ele>2339.986328125</ele>
        <time>2011-06-19T12:52:11Z</time>
      </trkpt>
      <trkpt lat="42.65656" lon="1.74457">
        <ele>2339.5056152344</ele>
        <time>2011-06-19T12:52:17Z</time>
      </trkpt>
      <trkpt lat="42.65657" lon="1.74454">
        <ele>2337.5830078125</ele>
        <time>2011-06-19T12:52:23Z</time>
      </trkpt>
      <trkpt lat="42.6566" lon="1.74455">
        <ele>2336.6215820312</ele>
        <time>2011-06-19T12:52:29Z</time>
      </trkpt>
      <trkpt lat="42.65662" lon="1.74454">
        <ele>2335.1796875</ele>
        <time>2011-06-19T12:52:37Z</time>
      </trkpt>
      <trkpt lat="42.65663" lon="1.74454">
        <ele>2333.7377929688</ele>
        <time>2011-06-19T12:52:47Z</time>
      </trkpt>
      <trkpt lat="42.65667" lon="1.7445">
        <ele>2332.7763671875</ele>
        <time>2011-06-19T12:53:03Z</time>
      </trkpt>
      <trkpt lat="42.65669" lon="1.7445">
        <ele>2332.7763671875</ele>
        <time>2011-06-19T12:53:04Z</time>
      </trkpt>
      <trkpt lat="42.65679" lon="1.74451">
        <ele>2332.2958984375</ele>
        <time>2011-06-19T12:53:12Z</time>
      </trkpt>
      <trkpt lat="42.65685" lon="1.7445">
        <ele>2333.2570800781</ele>
        <time>2011-06-19T12:53:18Z</time>
      </trkpt>
      <trkpt lat="42.65686" lon="1.74452">
        <ele>2333.2570800781</ele>
        <time>2011-06-19T12:53:23Z</time>
      </trkpt>
      <trkpt lat="42.65688" lon="1.74453">
        <ele>2335.6604003906</ele>
        <time>2011-06-19T12:53:32Z</time>
      </trkpt>
      <trkpt lat="42.65693" lon="1.74452">
        <ele>2336.1411132812</ele>
        <time>2011-06-19T12:53:38Z</time>
      </trkpt>
      <trkpt lat="42.65699" lon="1.74454">
        <ele>2336.1411132812</ele>
        <time>2011-06-19T12:53:44Z</time>
      </trkpt>
      <trkpt lat="42.65706" lon="1.74457">
        <ele>2336.6215820312</ele>
        <time>2011-06-19T12:53:51Z</time>
      </trkpt>
      <trkpt lat="42.65715" lon="1.74458">
        <ele>2336.6215820312</ele>
        <time>2011-06-19T12:53:59Z</time>
      </trkpt>
      <trkpt lat="42.65721" lon="1.74459">
        <ele>2336.1411132812</ele>
        <time>2011-06-19T12:54:05Z</time>
      </trkpt>
      <trkpt lat="42.65729" lon="1.74461">
        <ele>2335.1796875</ele>
        <time>2011-06-19T12:54:12Z</time>
      </trkpt>
      <trkpt lat="42.65736" lon="1.74461">
        <ele>2332.7763671875</ele>
        <time>2011-06-19T12:54:18Z</time>
      </trkpt>
      <trkpt lat="42.65741" lon="1.74461">
        <ele>2332.2958984375</ele>
        <time>2011-06-19T12:54:22Z</time>
      </trkpt>
      <trkpt lat="42.65747" lon="1.74461">
        <ele>2331.3342285156</ele>
        <time>2011-06-19T12:54:28Z</time>
      </trkpt>
      <trkpt lat="42.65749" lon="1.74462">
        <ele>2330.373046875</ele>
        <time>2011-06-19T12:54:31Z</time>
      </trkpt>
      <trkpt lat="42.65755" lon="1.7446">
        <ele>2328.4504394531</ele>
        <time>2011-06-19T12:54:38Z</time>
      </trkpt>
      <trkpt lat="42.65759" lon="1.7446">
        <ele>2327.9697265625</ele>
        <time>2011-06-19T12:54:44Z</time>
      </trkpt>
      <trkpt lat="42.65764" lon="1.7446">
        <ele>2327.0085449219</ele>
        <time>2011-06-19T12:54:49Z</time>
      </trkpt>
      <trkpt lat="42.65764" lon="1.7446">
        <ele>2326.5278320312</ele>
        <time>2011-06-19T12:54:55Z</time>
      </trkpt>
      <trkpt lat="42.65767" lon="1.74461">
        <ele>2326.0471191406</ele>
        <time>2011-06-19T12:55:07Z</time>
      </trkpt>
      <trkpt lat="42.65771" lon="1.74462">
        <ele>2324.1245117188</ele>
        <time>2011-06-19T12:55:14Z</time>
      </trkpt>
      <trkpt lat="42.65775" lon="1.74464">
        <ele>2322.6826171875</ele>
        <time>2011-06-19T12:55:20Z</time>
      </trkpt>
      <trkpt lat="42.65781" lon="1.74464">
        <ele>2321.2404785156</ele>
        <time>2011-06-19T12:55:27Z</time>
      </trkpt>
      <trkpt lat="42.65785" lon="1.74467">
        <ele>2319.7985839844</ele>
        <time>2011-06-19T12:55:33Z</time>
      </trkpt>
      <trkpt lat="42.65787" lon="1.74468">
        <ele>2319.3181152344</ele>
        <time>2011-06-19T12:55:38Z</time>
      </trkpt>
      <trkpt lat="42.65788" lon="1.74468">
        <ele>2318.3566894531</ele>
        <time>2011-06-19T12:55:43Z</time>
      </trkpt>
      <trkpt lat="42.65791" lon="1.74464">
        <ele>2316.9147949219</ele>
        <time>2011-06-19T12:55:53Z</time>
      </trkpt>
      <trkpt lat="42.65793" lon="1.7446">
        <ele>2313.5498046875</ele>
        <time>2011-06-19T12:55:58Z</time>
      </trkpt>
      <trkpt lat="42.65799" lon="1.74457">
        <ele>2310.666015625</ele>
        <time>2011-06-19T12:56:05Z</time>
      </trkpt>
      <trkpt lat="42.658" lon="1.74453">
        <ele>2309.2241210938</ele>
        <time>2011-06-19T12:56:10Z</time>
      </trkpt>
      <trkpt lat="42.65805" lon="1.74449">
        <ele>2307.7822265625</ele>
        <time>2011-06-19T12:56:16Z</time>
      </trkpt>
      <trkpt lat="42.6581" lon="1.74443">
        <ele>2307.3015136719</ele>
        <time>2011-06-19T12:56:21Z</time>
      </trkpt>
      <trkpt lat="42.65818" lon="1.74436">
        <ele>2306.3400878906</ele>
        <time>2011-06-19T12:56:29Z</time>
      </trkpt>
      <trkpt lat="42.65822" lon="1.74426">
        <ele>2305.859375</ele>
        <time>2011-06-19T12:56:36Z</time>
      </trkpt>
      <trkpt lat="42.65827" lon="1.74415">
        <ele>2306.3400878906</ele>
        <time>2011-06-19T12:56:44Z</time>
      </trkpt>
      <trkpt lat="42.65832" lon="1.74406">
        <ele>2306.8208007812</ele>
        <time>2011-06-19T12:56:51Z</time>
      </trkpt>
      <trkpt lat="42.65836" lon="1.74397">
        <ele>2307.3015136719</ele>
        <time>2011-06-19T12:56:58Z</time>
      </trkpt>
      <trkpt lat="42.65836" lon="1.74396">
        <ele>2307.3015136719</ele>
        <time>2011-06-19T12:56:59Z</time>
      </trkpt>
      <trkpt lat="42.6584" lon="1.74391">
        <ele>2309.2241210938</ele>
        <time>2011-06-19T12:57:06Z</time>
      </trkpt>
      <trkpt lat="42.65841" lon="1.74387">
        <ele>2310.666015625</ele>
        <time>2011-06-19T12:57:11Z</time>
      </trkpt>
      <trkpt lat="42.65844" lon="1.74383">
        <ele>2312.5886230469</ele>
        <time>2011-06-19T12:57:18Z</time>
      </trkpt>
      <trkpt lat="42.65845" lon="1.74381">
        <ele>2313.5498046875</ele>
        <time>2011-06-19T12:57:23Z</time>
      </trkpt>
      <trkpt lat="42.65846" lon="1.74379">
        <ele>2314.5112304688</ele>
        <time>2011-06-19T12:57:40Z</time>
      </trkpt>
      <trkpt lat="42.65847" lon="1.74375">
        <ele>2314.9919433594</ele>
        <time>2011-06-19T12:57:45Z</time>
      </trkpt>
      <trkpt lat="42.65848" lon="1.74371">
        <ele>2315.953125</ele>
        <time>2011-06-19T12:57:50Z</time>
      </trkpt>
      <trkpt lat="42.6585" lon="1.74367">
        <ele>2316.9147949219</ele>
        <time>2011-06-19T12:57:55Z</time>
      </trkpt>
      <trkpt lat="42.65852" lon="1.74362">
        <ele>2318.8374023438</ele>
        <time>2011-06-19T12:58:02Z</time>
      </trkpt>
      <trkpt lat="42.65853" lon="1.74362">
        <ele>2318.8374023438</ele>
        <time>2011-06-19T12:58:08Z</time>
      </trkpt>
      <trkpt lat="42.65852" lon="1.7436">
        <ele>2318.8374023438</ele>
        <time>2011-06-19T12:58:24Z</time>
      </trkpt>
      <trkpt lat="42.65854" lon="1.74356">
        <ele>2320.279296875</ele>
        <time>2011-06-19T12:58:29Z</time>
      </trkpt>
      <trkpt lat="42.65857" lon="1.74351">
        <ele>2322.2019042969</ele>
        <time>2011-06-19T12:58:36Z</time>
      </trkpt>
      <trkpt lat="42.6586" lon="1.74351">
        <ele>2323.6437988281</ele>
        <time>2011-06-19T12:58:42Z</time>
      </trkpt>
      <trkpt lat="42.65864" lon="1.74345">
        <ele>2325.0856933594</ele>
        <time>2011-06-19T12:58:49Z</time>
      </trkpt>
      <trkpt lat="42.6587" lon="1.74336">
        <ele>2326.5278320312</ele>
        <time>2011-06-19T12:58:58Z</time>
      </trkpt>
      <trkpt lat="42.65873" lon="1.74331">
        <ele>2327.9697265625</ele>
        <time>2011-06-19T12:59:04Z</time>
      </trkpt>
      <trkpt lat="42.65876" lon="1.74324">
        <ele>2328.9309082031</ele>
        <time>2011-06-19T12:59:12Z</time>
      </trkpt>
      <trkpt lat="42.65882" lon="1.74318">
        <ele>2327.9697265625</ele>
        <time>2011-06-19T12:59:19Z</time>
      </trkpt>
      <trkpt lat="42.65884" lon="1.74315">
        <ele>2327.4890136719</ele>
        <time>2011-06-19T12:59:22Z</time>
      </trkpt>
      <trkpt lat="42.6589" lon="1.74309">
        <ele>2327.9697265625</ele>
        <time>2011-06-19T12:59:30Z</time>
      </trkpt>
      <trkpt lat="42.65896" lon="1.74308">
        <ele>2327.4890136719</ele>
        <time>2011-06-19T12:59:36Z</time>
      </trkpt>
      <trkpt lat="42.65902" lon="1.74309">
        <ele>2327.4890136719</ele>
        <time>2011-06-19T12:59:42Z</time>
      </trkpt>
      <trkpt lat="42.65907" lon="1.74308">
        <ele>2327.4890136719</ele>
        <time>2011-06-19T12:59:48Z</time>
      </trkpt>
      <trkpt lat="42.65911" lon="1.74309">
        <ele>2327.9697265625</ele>
        <time>2011-06-19T12:59:53Z</time>
      </trkpt>
      <trkpt lat="42.65915" lon="1.7431">
        <ele>2328.9309082031</ele>
        <time>2011-06-19T12:59:59Z</time>
      </trkpt>
      <trkpt lat="42.65919" lon="1.7431">
        <ele>2329.4116210938</ele>
        <time>2011-06-19T13:00:05Z</time>
      </trkpt>
      <trkpt lat="42.65925" lon="1.7431">
        <ele>2329.8923339844</ele>
        <time>2011-06-19T13:00:11Z</time>
      </trkpt>
      <trkpt lat="42.65932" lon="1.74308">
        <ele>2330.8537597656</ele>
        <time>2011-06-19T13:00:17Z</time>
      </trkpt>
      <trkpt lat="42.65939" lon="1.74307">
        <ele>2332.2958984375</ele>
        <time>2011-06-19T13:00:24Z</time>
      </trkpt>
      <trkpt lat="42.65944" lon="1.74306">
        <ele>2333.2570800781</ele>
        <time>2011-06-19T13:00:30Z</time>
      </trkpt>
      <trkpt lat="42.65952" lon="1.74305">
        <ele>2335.1796875</ele>
        <time>2011-06-19T13:00:38Z</time>
      </trkpt>
      <trkpt lat="42.65958" lon="1.74301">
        <ele>2336.6215820312</ele>
        <time>2011-06-19T13:00:45Z</time>
      </trkpt>
      <trkpt lat="42.6596" lon="1.74301">
        <ele>2335.6604003906</ele>
        <time>2011-06-19T13:00:50Z</time>
      </trkpt>
      <trkpt lat="42.65965" lon="1.74299">
        <ele>2334.2185058594</ele>
        <time>2011-06-19T13:00:56Z</time>
      </trkpt>
      <trkpt lat="42.65968" lon="1.74297">
        <ele>2333.7377929688</ele>
        <time>2011-06-19T13:01:02Z</time>
      </trkpt>
      <trkpt lat="42.6597" lon="1.74296">
        <ele>2334.2185058594</ele>
        <time>2011-06-19T13:01:11Z</time>
      </trkpt>
      <trkpt lat="42.65974" lon="1.74294">
        <ele>2334.2185058594</ele>
        <time>2011-06-19T13:01:15Z</time>
      </trkpt>
      <trkpt lat="42.65982" lon="1.74289">
        <ele>2335.6604003906</ele>
        <time>2011-06-19T13:01:22Z</time>
      </trkpt>
      <trkpt lat="42.65987" lon="1.74285">
        <ele>2334.69921875</ele>
        <time>2011-06-19T13:01:29Z</time>
      </trkpt>
      <trkpt lat="42.65992" lon="1.74284">
        <ele>2332.7763671875</ele>
        <time>2011-06-19T13:01:35Z</time>
      </trkpt>
      <trkpt lat="42.65995" lon="1.74284">
        <ele>2331.3342285156</ele>
        <time>2011-06-19T13:01:41Z</time>
      </trkpt>
      <trkpt lat="42.65998" lon="1.74281">
        <ele>2329.8923339844</ele>
        <time>2011-06-19T13:01:46Z</time>
      </trkpt>
      <trkpt lat="42.66003" lon="1.74283">
        <ele>2326.5278320312</ele>
        <time>2011-06-19T13:01:53Z</time>
      </trkpt>
      <trkpt lat="42.66008" lon="1.7428">
        <ele>2324.1245117188</ele>
        <time>2011-06-19T13:01:59Z</time>
      </trkpt>
      <trkpt lat="42.66011" lon="1.74281">
        <ele>2322.6826171875</ele>
        <time>2011-06-19T13:02:05Z</time>
      </trkpt>
      <trkpt lat="42.66014" lon="1.74282">
        <ele>2320.279296875</ele>
        <time>2011-06-19T13:02:11Z</time>
      </trkpt>
      <trkpt lat="42.66021" lon="1.74281">
        <ele>2318.3566894531</ele>
        <time>2011-06-19T13:02:17Z</time>
      </trkpt>
      <trkpt lat="42.66027" lon="1.74277">
        <ele>2316.4340820312</ele>
        <time>2011-06-19T13:02:24Z</time>
      </trkpt>
      <trkpt lat="42.6603" lon="1.74275">
        <ele>2315.953125</ele>
        <time>2011-06-19T13:02:27Z</time>
      </trkpt>
      <trkpt lat="42.66034" lon="1.74277">
        <ele>2314.5112304688</ele>
        <time>2011-06-19T13:02:34Z</time>
      </trkpt>
      <trkpt lat="42.66037" lon="1.74276">
        <ele>2313.5498046875</ele>
        <time>2011-06-19T13:02:39Z</time>
      </trkpt>
      <trkpt lat="42.66043" lon="1.74273">
        <ele>2311.1467285156</ele>
        <time>2011-06-19T13:02:47Z</time>
      </trkpt>
      <trkpt lat="42.66045" lon="1.74271">
        <ele>2309.7045898438</ele>
        <time>2011-06-19T13:02:53Z</time>
      </trkpt>
      <trkpt lat="42.66049" lon="1.74268">
        <ele>2308.2626953125</ele>
        <time>2011-06-19T13:02:59Z</time>
      </trkpt>
      <trkpt lat="42.66055" lon="1.74264">
        <ele>2306.3400878906</ele>
        <time>2011-06-19T13:03:06Z</time>
      </trkpt>
      <trkpt lat="42.66058" lon="1.74262">
        <ele>2305.859375</ele>
        <time>2011-06-19T13:03:09Z</time>
      </trkpt>
      <trkpt lat="42.66063" lon="1.74258">
        <ele>2303.9370117188</ele>
        <time>2011-06-19T13:03:16Z</time>
      </trkpt>
      <trkpt lat="42.66066" lon="1.74254">
        <ele>2302.0141601562</ele>
        <time>2011-06-19T13:03:22Z</time>
      </trkpt>
      <trkpt lat="42.6607" lon="1.74251">
        <ele>2300.091796875</ele>
        <time>2011-06-19T13:03:30Z</time>
      </trkpt>
      <trkpt lat="42.66074" lon="1.74248">
        <ele>2298.6494140625</ele>
        <time>2011-06-19T13:03:36Z</time>
      </trkpt>
      <trkpt lat="42.66078" lon="1.74247">
        <ele>2297.2075195312</ele>
        <time>2011-06-19T13:03:42Z</time>
      </trkpt>
      <trkpt lat="42.66081" lon="1.74245">
        <ele>2296.2463378906</ele>
        <time>2011-06-19T13:03:48Z</time>
      </trkpt>
      <trkpt lat="42.66082" lon="1.74245">
        <ele>2296.2463378906</ele>
        <time>2011-06-19T13:03:55Z</time>
      </trkpt>
      <trkpt lat="42.66083" lon="1.74244">
        <ele>2296.2463378906</ele>
        <time>2011-06-19T13:04:02Z</time>
      </trkpt>
      <trkpt lat="42.66083" lon="1.74243">
        <ele>2296.2463378906</ele>
        <time>2011-06-19T13:04:12Z</time>
      </trkpt>
      <trkpt lat="42.66084" lon="1.74239">
        <ele>2294.8041992188</ele>
        <time>2011-06-19T13:04:18Z</time>
      </trkpt>
      <trkpt lat="42.66086" lon="1.74236">
        <ele>2294.3234863281</ele>
        <time>2011-06-19T13:04:23Z</time>
      </trkpt>
      <trkpt lat="42.66087" lon="1.74235">
        <ele>2293.8430175781</ele>
        <time>2011-06-19T13:04:28Z</time>
      </trkpt>
      <trkpt lat="42.66088" lon="1.74232">
        <ele>2292.8815917969</ele>
        <time>2011-06-19T13:04:33Z</time>
      </trkpt>
      <trkpt lat="42.66091" lon="1.74229">
        <ele>2291.4396972656</ele>
        <time>2011-06-19T13:04:39Z</time>
      </trkpt>
      <trkpt lat="42.66095" lon="1.74229">
        <ele>2290.4782714844</ele>
        <time>2011-06-19T13:04:43Z</time>
      </trkpt>
      <trkpt lat="42.66101" lon="1.7423">
        <ele>2289.5170898438</ele>
        <time>2011-06-19T13:04:50Z</time>
      </trkpt>
      <trkpt lat="42.66105" lon="1.7423">
        <ele>2289.0363769531</ele>
        <time>2011-06-19T13:04:55Z</time>
      </trkpt>
      <trkpt lat="42.6611" lon="1.74232">
        <ele>2286.6330566406</ele>
        <time>2011-06-19T13:05:01Z</time>
      </trkpt>
      <trkpt lat="42.66114" lon="1.74232">
        <ele>2286.1525878906</ele>
        <time>2011-06-19T13:05:08Z</time>
      </trkpt>
      <trkpt lat="42.66117" lon="1.7423">
        <ele>2285.1911621094</ele>
        <time>2011-06-19T13:05:15Z</time>
      </trkpt>
      <trkpt lat="42.66121" lon="1.7423">
        <ele>2284.7106933594</ele>
        <time>2011-06-19T13:05:21Z</time>
      </trkpt>
      <trkpt lat="42.66125" lon="1.74228">
        <ele>2283.7490234375</ele>
        <time>2011-06-19T13:05:26Z</time>
      </trkpt>
      <trkpt lat="42.66131" lon="1.74226">
        <ele>2283.2683105469</ele>
        <time>2011-06-19T13:05:33Z</time>
      </trkpt>
      <trkpt lat="42.66135" lon="1.74226">
        <ele>2283.7490234375</ele>
        <time>2011-06-19T13:05:38Z</time>
      </trkpt>
      <trkpt lat="42.66138" lon="1.74226">
        <ele>2283.2683105469</ele>
        <time>2011-06-19T13:05:44Z</time>
      </trkpt>
      <trkpt lat="42.66142" lon="1.74226">
        <ele>2279.9038085938</ele>
        <time>2011-06-19T13:05:50Z</time>
      </trkpt>
      <trkpt lat="42.66143" lon="1.74224">
        <ele>2278.4619140625</ele>
        <time>2011-06-19T13:05:56Z</time>
      </trkpt>
      <trkpt lat="42.66144" lon="1.74221">
        <ele>2276.05859375</ele>
        <time>2011-06-19T13:06:02Z</time>
      </trkpt>
      <trkpt lat="42.66151" lon="1.74216">
        <ele>2275.0971679688</ele>
        <time>2011-06-19T13:06:09Z</time>
      </trkpt>
      <trkpt lat="42.66159" lon="1.74216">
        <ele>2275.5778808594</ele>
        <time>2011-06-19T13:06:15Z</time>
      </trkpt>
      <trkpt lat="42.6616" lon="1.74216">
        <ele>2276.05859375</ele>
        <time>2011-06-19T13:06:16Z</time>
      </trkpt>
      <trkpt lat="42.66167" lon="1.74217">
        <ele>2278.4619140625</ele>
        <time>2011-06-19T13:06:24Z</time>
      </trkpt>
      <trkpt lat="42.66169" lon="1.74216">
        <ele>2279.9038085938</ele>
        <time>2011-06-19T13:06:29Z</time>
      </trkpt>
      <trkpt lat="42.66178" lon="1.74213">
        <ele>2280.865234375</ele>
        <time>2011-06-19T13:06:37Z</time>
      </trkpt>
      <trkpt lat="42.66185" lon="1.74209">
        <ele>2282.3071289062</ele>
        <time>2011-06-19T13:06:44Z</time>
      </trkpt>
      <trkpt lat="42.66186" lon="1.74208">
        <ele>2282.3071289062</ele>
        <time>2011-06-19T13:06:46Z</time>
      </trkpt>
      <trkpt lat="42.66191" lon="1.74205">
        <ele>2282.7875976562</ele>
        <time>2011-06-19T13:06:52Z</time>
      </trkpt>
      <trkpt lat="42.66196" lon="1.74204">
        <ele>2283.7490234375</ele>
        <time>2011-06-19T13:06:58Z</time>
      </trkpt>
      <trkpt lat="42.66203" lon="1.74206">
        <ele>2283.7490234375</ele>
        <time>2011-06-19T13:07:05Z</time>
      </trkpt>
      <trkpt lat="42.66209" lon="1.74206">
        <ele>2283.7490234375</ele>
        <time>2011-06-19T13:07:12Z</time>
      </trkpt>
      <trkpt lat="42.66213" lon="1.74206">
        <ele>2284.2299804688</ele>
        <time>2011-06-19T13:07:17Z</time>
      </trkpt>
      <trkpt lat="42.66221" lon="1.74209">
        <ele>2283.7490234375</ele>
        <time>2011-06-19T13:07:25Z</time>
      </trkpt>
      <trkpt lat="42.66228" lon="1.74206">
        <ele>2284.7106933594</ele>
        <time>2011-06-19T13:07:32Z</time>
      </trkpt>
      <trkpt lat="42.66233" lon="1.74204">
        <ele>2284.7106933594</ele>
        <time>2011-06-19T13:07:38Z</time>
      </trkpt>
      <trkpt lat="42.66239" lon="1.74204">
        <ele>2283.7490234375</ele>
        <time>2011-06-19T13:07:43Z</time>
      </trkpt>
      <trkpt lat="42.66244" lon="1.74206">
        <ele>2283.2683105469</ele>
        <time>2011-06-19T13:07:47Z</time>
      </trkpt>
      <trkpt lat="42.66251" lon="1.74205">
        <ele>2282.7875976562</ele>
        <time>2011-06-19T13:07:52Z</time>
      </trkpt>
      <trkpt lat="42.66261" lon="1.74209">
        <ele>2281.8264160156</ele>
        <time>2011-06-19T13:08:00Z</time>
      </trkpt>
      <trkpt lat="42.66265" lon="1.74211">
        <ele>2282.3071289062</ele>
        <time>2011-06-19T13:08:04Z</time>
      </trkpt>
      <trkpt lat="42.66269" lon="1.7421">
        <ele>2281.8264160156</ele>
        <time>2011-06-19T13:08:11Z</time>
      </trkpt>
      <trkpt lat="42.66271" lon="1.74208">
        <ele>2281.8264160156</ele>
        <time>2011-06-19T13:08:13Z</time>
      </trkpt>
      <trkpt lat="42.66277" lon="1.74207">
        <ele>2281.345703125</ele>
        <time>2011-06-19T13:08:20Z</time>
      </trkpt>
      <trkpt lat="42.66283" lon="1.74206">
        <ele>2280.865234375</ele>
        <time>2011-06-19T13:08:25Z</time>
      </trkpt>
      <trkpt lat="42.66291" lon="1.74204">
        <ele>2281.345703125</ele>
        <time>2011-06-19T13:08:33Z</time>
      </trkpt>
      <trkpt lat="42.66292" lon="1.74204">
        <ele>2281.345703125</ele>
        <time>2011-06-19T13:08:34Z</time>
      </trkpt>
      <trkpt lat="42.66298" lon="1.74203">
        <ele>2281.8264160156</ele>
        <time>2011-06-19T13:08:40Z</time>
      </trkpt>
      <trkpt lat="42.66304" lon="1.74203">
        <ele>2282.3071289062</ele>
        <time>2011-06-19T13:08:45Z</time>
      </trkpt>
      <trkpt lat="42.66305" lon="1.74203">
        <ele>2282.7875976562</ele>
        <time>2011-06-19T13:08:47Z</time>
      </trkpt>
      <trkpt lat="42.66309" lon="1.74202">
        <ele>2283.2683105469</ele>
        <time>2011-06-19T13:08:53Z</time>
      </trkpt>
      <trkpt lat="42.66317" lon="1.74198">
        <ele>2283.2683105469</ele>
        <time>2011-06-19T13:09:01Z</time>
      </trkpt>
      <trkpt lat="42.6632" lon="1.74197">
        <ele>2283.2683105469</ele>
        <time>2011-06-19T13:09:04Z</time>
      </trkpt>
      <trkpt lat="42.66328" lon="1.74194">
        <ele>2283.7490234375</ele>
        <time>2011-06-19T13:09:11Z</time>
      </trkpt>
      <trkpt lat="42.66336" lon="1.74192">
        <ele>2283.7490234375</ele>
        <time>2011-06-19T13:09:18Z</time>
      </trkpt>
      <trkpt lat="42.66344" lon="1.74191">
        <ele>2284.2299804688</ele>
        <time>2011-06-19T13:09:25Z</time>
      </trkpt>
      <trkpt lat="42.66344" lon="1.7419">
        <ele>2284.2299804688</ele>
        <time>2011-06-19T13:09:26Z</time>
      </trkpt>
      <trkpt lat="42.6635" lon="1.74188">
        <ele>2283.2683105469</ele>
        <time>2011-06-19T13:09:33Z</time>
      </trkpt>
      <trkpt lat="42.66354" lon="1.74188">
        <ele>2284.2299804688</ele>
        <time>2011-06-19T13:09:38Z</time>
      </trkpt>
      <trkpt lat="42.66359" lon="1.74186">
        <ele>2283.7490234375</ele>
        <time>2011-06-19T13:09:43Z</time>
      </trkpt>
      <trkpt lat="42.66364" lon="1.74184">
        <ele>2283.7490234375</ele>
        <time>2011-06-19T13:09:49Z</time>
      </trkpt>
      <trkpt lat="42.6637" lon="1.74183">
        <ele>2283.7490234375</ele>
        <time>2011-06-19T13:09:54Z</time>
      </trkpt>
      <trkpt lat="42.66377" lon="1.74183">
        <ele>2283.2683105469</ele>
        <time>2011-06-19T13:10:00Z</time>
      </trkpt>
      <trkpt lat="42.66387" lon="1.74183">
        <ele>2282.7875976562</ele>
        <time>2011-06-19T13:10:07Z</time>
      </trkpt>
      <trkpt lat="42.66394" lon="1.74184">
        <ele>2282.3071289062</ele>
        <time>2011-06-19T13:10:13Z</time>
      </trkpt>
      <trkpt lat="42.66395" lon="1.74183">
        <ele>2281.345703125</ele>
        <time>2011-06-19T13:10:20Z</time>
      </trkpt>
      <trkpt lat="42.66398" lon="1.74183">
        <ele>2281.345703125</ele>
        <time>2011-06-19T13:10:23Z</time>
      </trkpt>
      <trkpt lat="42.66407" lon="1.7418">
        <ele>2280.865234375</ele>
        <time>2011-06-19T13:10:30Z</time>
      </trkpt>
      <trkpt lat="42.66412" lon="1.74181">
        <ele>2280.3845214844</ele>
        <time>2011-06-19T13:10:35Z</time>
      </trkpt>
      <trkpt lat="42.66417" lon="1.74181">
        <ele>2280.3845214844</ele>
        <time>2011-06-19T13:10:39Z</time>
      </trkpt>
      <trkpt lat="42.66427" lon="1.74183">
        <ele>2280.865234375</ele>
        <time>2011-06-19T13:10:47Z</time>
      </trkpt>
      <trkpt lat="42.66434" lon="1.74183">
        <ele>2280.865234375</ele>
        <time>2011-06-19T13:10:53Z</time>
      </trkpt>
      <trkpt lat="42.66444" lon="1.74181">
        <ele>2280.3845214844</ele>
        <time>2011-06-19T13:11:01Z</time>
      </trkpt>
      <trkpt lat="42.66451" lon="1.74179">
        <ele>2280.865234375</ele>
        <time>2011-06-19T13:11:07Z</time>
      </trkpt>
      <trkpt lat="42.6646" lon="1.74181">
        <ele>2281.8264160156</ele>
        <time>2011-06-19T13:11:15Z</time>
      </trkpt>
      <trkpt lat="42.66467" lon="1.74182">
        <ele>2282.7875976562</ele>
        <time>2011-06-19T13:11:22Z</time>
      </trkpt>
      <trkpt lat="42.66476" lon="1.74184">
        <ele>2282.7875976562</ele>
        <time>2011-06-19T13:11:29Z</time>
      </trkpt>
      <trkpt lat="42.66484" lon="1.7419">
        <ele>2283.2683105469</ele>
        <time>2011-06-19T13:11:37Z</time>
      </trkpt>
      <trkpt lat="42.66487" lon="1.74192">
        <ele>2282.7875976562</ele>
        <time>2011-06-19T13:11:41Z</time>
      </trkpt>
      <trkpt lat="42.66497" lon="1.74193">
        <ele>2282.3071289062</ele>
        <time>2011-06-19T13:11:50Z</time>
      </trkpt>
      <trkpt lat="42.66505" lon="1.74192">
        <ele>2283.2683105469</ele>
        <time>2011-06-19T13:11:57Z</time>
      </trkpt>
      <trkpt lat="42.66509" lon="1.74189">
        <ele>2283.7490234375</ele>
        <time>2011-06-19T13:12:02Z</time>
      </trkpt>
      <trkpt lat="42.66516" lon="1.7419">
        <ele>2283.2683105469</ele>
        <time>2011-06-19T13:12:08Z</time>
      </trkpt>
      <trkpt lat="42.66525" lon="1.74196">
        <ele>2282.7875976562</ele>
        <time>2011-06-19T13:12:15Z</time>
      </trkpt>
      <trkpt lat="42.66534" lon="1.74199">
        <ele>2282.7875976562</ele>
        <time>2011-06-19T13:12:23Z</time>
      </trkpt>
      <trkpt lat="42.6654" lon="1.74199">
        <ele>2283.7490234375</ele>
        <time>2011-06-19T13:12:29Z</time>
      </trkpt>
      <trkpt lat="42.66548" lon="1.74198">
        <ele>2284.7106933594</ele>
        <time>2011-06-19T13:12:37Z</time>
      </trkpt>
      <trkpt lat="42.66553" lon="1.74197">
        <ele>2284.7106933594</ele>
        <time>2011-06-19T13:12:42Z</time>
      </trkpt>
      <trkpt lat="42.66559" lon="1.74198">
        <ele>2284.7106933594</ele>
        <time>2011-06-19T13:12:48Z</time>
      </trkpt>
      <trkpt lat="42.66568" lon="1.742">
        <ele>2284.2299804688</ele>
        <time>2011-06-19T13:12:55Z</time>
      </trkpt>
      <trkpt lat="42.66571" lon="1.74201">
        <ele>2283.7490234375</ele>
        <time>2011-06-19T13:12:58Z</time>
      </trkpt>
      <trkpt lat="42.66579" lon="1.74202">
        <ele>2282.7875976562</ele>
        <time>2011-06-19T13:13:05Z</time>
      </trkpt>
      <trkpt lat="42.66587" lon="1.74204">
        <ele>2281.8264160156</ele>
        <time>2011-06-19T13:13:12Z</time>
      </trkpt>
      <trkpt lat="42.66595" lon="1.74206">
        <ele>2282.3071289062</ele>
        <time>2011-06-19T13:13:19Z</time>
      </trkpt>
      <trkpt lat="42.66603" lon="1.7421">
        <ele>2283.2683105469</ele>
        <time>2011-06-19T13:13:26Z</time>
      </trkpt>
      <trkpt lat="42.66607" lon="1.74213">
        <ele>2283.7490234375</ele>
        <time>2011-06-19T13:13:32Z</time>
      </trkpt>
      <trkpt lat="42.66619" lon="1.7422">
        <ele>2283.2683105469</ele>
        <time>2011-06-19T13:13:43Z</time>
      </trkpt>
      <trkpt lat="42.66626" lon="1.74224">
        <ele>2283.7490234375</ele>
        <time>2011-06-19T13:13:49Z</time>
      </trkpt>
      <trkpt lat="42.66635" lon="1.7423">
        <ele>2283.7490234375</ele>
        <time>2011-06-19T13:13:57Z</time>
      </trkpt>
      <trkpt lat="42.66643" lon="1.74235">
        <ele>2284.2299804688</ele>
        <time>2011-06-19T13:14:04Z</time>
      </trkpt>
      <trkpt lat="42.66651" lon="1.74241">
        <ele>2284.2299804688</ele>
        <time>2011-06-19T13:14:12Z</time>
      </trkpt>
      <trkpt lat="42.66659" lon="1.7425">
        <ele>2284.2299804688</ele>
        <time>2011-06-19T13:14:20Z</time>
      </trkpt>
      <trkpt lat="42.66669" lon="1.74261">
        <ele>2284.7106933594</ele>
        <time>2011-06-19T13:14:30Z</time>
      </trkpt>
      <trkpt lat="42.66676" lon="1.74267">
        <ele>2284.7106933594</ele>
        <time>2011-06-19T13:14:37Z</time>
      </trkpt>
      <trkpt lat="42.66677" lon="1.74268">
        <ele>2284.7106933594</ele>
        <time>2011-06-19T13:14:38Z</time>
      </trkpt>
      <trkpt lat="42.66686" lon="1.74277">
        <ele>2284.7106933594</ele>
        <time>2011-06-19T13:14:47Z</time>
      </trkpt>
      <trkpt lat="42.66691" lon="1.74279">
        <ele>2284.7106933594</ele>
        <time>2011-06-19T13:14:51Z</time>
      </trkpt>
      <trkpt lat="42.66693" lon="1.74284">
        <ele>2284.2299804688</ele>
        <time>2011-06-19T13:14:55Z</time>
      </trkpt>
      <trkpt lat="42.66702" lon="1.74293">
        <ele>2284.2299804688</ele>
        <time>2011-06-19T13:15:03Z</time>
      </trkpt>
      <trkpt lat="42.66711" lon="1.74303">
        <ele>2283.7490234375</ele>
        <time>2011-06-19T13:15:13Z</time>
      </trkpt>
      <trkpt lat="42.66716" lon="1.74308">
        <ele>2284.2299804688</ele>
        <time>2011-06-19T13:15:19Z</time>
      </trkpt>
      <trkpt lat="42.66721" lon="1.74309">
        <ele>2284.7106933594</ele>
        <time>2011-06-19T13:15:26Z</time>
      </trkpt>
      <trkpt lat="42.66726" lon="1.74305">
        <ele>2284.2299804688</ele>
        <time>2011-06-19T13:15:33Z</time>
      </trkpt>
      <trkpt lat="42.66731" lon="1.743">
        <ele>2284.2299804688</ele>
        <time>2011-06-19T13:15:39Z</time>
      </trkpt>
      <trkpt lat="42.66735" lon="1.74301">
        <ele>2283.2683105469</ele>
        <time>2011-06-19T13:15:44Z</time>
      </trkpt>
      <trkpt lat="42.6674" lon="1.74302">
        <ele>2282.3071289062</ele>
        <time>2011-06-19T13:15:51Z</time>
      </trkpt>
      <trkpt lat="42.66747" lon="1.74304">
        <ele>2280.865234375</ele>
        <time>2011-06-19T13:15:57Z</time>
      </trkpt>
      <trkpt lat="42.66754" lon="1.74308">
        <ele>2279.9038085938</ele>
        <time>2011-06-19T13:16:04Z</time>
      </trkpt>
      <trkpt lat="42.66761" lon="1.74308">
        <ele>2278.9423828125</ele>
        <time>2011-06-19T13:16:11Z</time>
      </trkpt>
      <trkpt lat="42.66768" lon="1.7431">
        <ele>2277.9812011719</ele>
        <time>2011-06-19T13:16:17Z</time>
      </trkpt>
      <trkpt lat="42.66776" lon="1.74309">
        <ele>2276.5393066406</ele>
        <time>2011-06-19T13:16:23Z</time>
      </trkpt>
      <trkpt lat="42.66788" lon="1.74306">
        <ele>2274.6166992188</ele>
        <time>2011-06-19T13:16:30Z</time>
      </trkpt>
      <trkpt lat="42.66798" lon="1.74305">
        <ele>2273.6552734375</ele>
        <time>2011-06-19T13:16:35Z</time>
      </trkpt>
      <trkpt lat="42.6681" lon="1.74302">
        <ele>2271.7326660156</ele>
        <time>2011-06-19T13:16:41Z</time>
      </trkpt>
      <trkpt lat="42.66819" lon="1.74301">
        <ele>2270.2907714844</ele>
        <time>2011-06-19T13:16:46Z</time>
      </trkpt>
      <trkpt lat="42.6682" lon="1.74301">
        <ele>2270.771484375</ele>
        <time>2011-06-19T13:16:47Z</time>
      </trkpt>
      <trkpt lat="42.66826" lon="1.74292">
        <ele>2268.3681640625</ele>
        <time>2011-06-19T13:16:54Z</time>
      </trkpt>
      <trkpt lat="42.6683" lon="1.74283">
        <ele>2266.4453125</ele>
        <time>2011-06-19T13:16:59Z</time>
      </trkpt>
      <trkpt lat="42.66839" lon="1.74271">
        <ele>2263.5612792969</ele>
        <time>2011-06-19T13:17:07Z</time>
      </trkpt>
      <trkpt lat="42.66846" lon="1.74265">
        <ele>2261.6389160156</ele>
        <time>2011-06-19T13:17:13Z</time>
      </trkpt>
      <trkpt lat="42.66859" lon="1.74258">
        <ele>2259.2355957031</ele>
        <time>2011-06-19T13:17:20Z</time>
      </trkpt>
      <trkpt lat="42.66873" lon="1.74249">
        <ele>2257.3129882812</ele>
        <time>2011-06-19T13:17:28Z</time>
      </trkpt>
      <trkpt lat="42.66883" lon="1.7424">
        <ele>2256.3515625</ele>
        <time>2011-06-19T13:17:34Z</time>
      </trkpt>
      <trkpt lat="42.66893" lon="1.74231">
        <ele>2253.9484863281</ele>
        <time>2011-06-19T13:17:40Z</time>
      </trkpt>
      <trkpt lat="42.66905" lon="1.74221">
        <ele>2251.544921875</ele>
        <time>2011-06-19T13:17:47Z</time>
      </trkpt>
      <trkpt lat="42.66917" lon="1.7421">
        <ele>2249.6223144531</ele>
        <time>2011-06-19T13:17:54Z</time>
      </trkpt>
      <trkpt lat="42.66929" lon="1.74199">
        <ele>2246.73828125</ele>
        <time>2011-06-19T13:18:01Z</time>
      </trkpt>
      <trkpt lat="42.66938" lon="1.7419">
        <ele>2244.8156738281</ele>
        <time>2011-06-19T13:18:07Z</time>
      </trkpt>
      <trkpt lat="42.66945" lon="1.7418">
        <ele>2242.8930664062</ele>
        <time>2011-06-19T13:18:12Z</time>
      </trkpt>
      <trkpt lat="42.66953" lon="1.74165">
        <ele>2240.4897460938</ele>
        <time>2011-06-19T13:18:19Z</time>
      </trkpt>
      <trkpt lat="42.66959" lon="1.74149">
        <ele>2237.1252441406</ele>
        <time>2011-06-19T13:18:26Z</time>
      </trkpt>
      <trkpt lat="42.66965" lon="1.74135">
        <ele>2234.7219238281</ele>
        <time>2011-06-19T13:18:32Z</time>
      </trkpt>
      <trkpt lat="42.66969" lon="1.74124">
        <ele>2232.3186035156</ele>
        <time>2011-06-19T13:18:37Z</time>
      </trkpt>
      <trkpt lat="42.66976" lon="1.74108">
        <ele>2229.4345703125</ele>
        <time>2011-06-19T13:18:44Z</time>
      </trkpt>
      <trkpt lat="42.6698" lon="1.74095">
        <ele>2227.0314941406</ele>
        <time>2011-06-19T13:18:49Z</time>
      </trkpt>
      <trkpt lat="42.66981" lon="1.7408">
        <ele>2225.1086425781</ele>
        <time>2011-06-19T13:18:55Z</time>
      </trkpt>
      <trkpt lat="42.66977" lon="1.74063">
        <ele>2222.2248535156</ele>
        <time>2011-06-19T13:19:02Z</time>
      </trkpt>
      <trkpt lat="42.66975" lon="1.74049">
        <ele>2220.3022460938</ele>
        <time>2011-06-19T13:19:07Z</time>
      </trkpt>
      <trkpt lat="42.66975" lon="1.74032">
        <ele>2217.8986816406</ele>
        <time>2011-06-19T13:19:13Z</time>
      </trkpt>
      <trkpt lat="42.66975" lon="1.74019">
        <ele>2215.9760742188</ele>
        <time>2011-06-19T13:19:18Z</time>
      </trkpt>
      <trkpt lat="42.66979" lon="1.74002">
        <ele>2213.0922851562</ele>
        <time>2011-06-19T13:19:25Z</time>
      </trkpt>
      <trkpt lat="42.66983" lon="1.73983">
        <ele>2210.2082519531</ele>
        <time>2011-06-19T13:19:32Z</time>
      </trkpt>
      <trkpt lat="42.66985" lon="1.73969">
        <ele>2207.8051757812</ele>
        <time>2011-06-19T13:19:39Z</time>
      </trkpt>
      <trkpt lat="42.66988" lon="1.73955">
        <ele>2204.9211425781</ele>
        <time>2011-06-19T13:19:46Z</time>
      </trkpt>
      <trkpt lat="42.66991" lon="1.7394">
        <ele>2202.517578125</ele>
        <time>2011-06-19T13:19:53Z</time>
      </trkpt>
      <trkpt lat="42.66994" lon="1.73925">
        <ele>2199.6337890625</ele>
        <time>2011-06-19T13:20:00Z</time>
      </trkpt>
      <trkpt lat="42.66994" lon="1.73923">
        <ele>2199.1530761719</ele>
        <time>2011-06-19T13:20:05Z</time>
      </trkpt>
      <trkpt lat="42.66996" lon="1.73921">
        <ele>2198.1916503906</ele>
        <time>2011-06-19T13:20:15Z</time>
      </trkpt>
      <trkpt lat="42.66998" lon="1.73915">
        <ele>2196.7497558594</ele>
        <time>2011-06-19T13:20:19Z</time>
      </trkpt>
      <trkpt lat="42.67001" lon="1.73901">
        <ele>2193.8659667969</ele>
        <time>2011-06-19T13:20:26Z</time>
      </trkpt>
      <trkpt lat="42.67003" lon="1.73888">
        <ele>2191.4626464844</ele>
        <time>2011-06-19T13:20:32Z</time>
      </trkpt>
      <trkpt lat="42.67006" lon="1.73875">
        <ele>2188.5788574219</ele>
        <time>2011-06-19T13:20:38Z</time>
      </trkpt>
      <trkpt lat="42.6701" lon="1.73861">
        <ele>2185.6945800781</ele>
        <time>2011-06-19T13:20:44Z</time>
      </trkpt>
      <trkpt lat="42.67014" lon="1.73845">
        <ele>2183.2912597656</ele>
        <time>2011-06-19T13:20:51Z</time>
      </trkpt>
      <trkpt lat="42.67017" lon="1.73831">
        <ele>2181.3686523438</ele>
        <time>2011-06-19T13:20:57Z</time>
      </trkpt>
      <trkpt lat="42.6702" lon="1.73818">
        <ele>2178.4848632812</ele>
        <time>2011-06-19T13:21:03Z</time>
      </trkpt>
      <trkpt lat="42.67023" lon="1.73806">
        <ele>2176.5622558594</ele>
        <time>2011-06-19T13:21:09Z</time>
      </trkpt>
      <trkpt lat="42.67024" lon="1.73795">
        <ele>2173.6782226562</ele>
        <time>2011-06-19T13:21:15Z</time>
      </trkpt>
      <trkpt lat="42.67026" lon="1.73781">
        <ele>2170.7941894531</ele>
        <time>2011-06-19T13:21:22Z</time>
      </trkpt>
      <trkpt lat="42.6703" lon="1.73769">
        <ele>2168.3908691406</ele>
        <time>2011-06-19T13:21:29Z</time>
      </trkpt>
      <trkpt lat="42.67038" lon="1.73757">
        <ele>2165.9875488281</ele>
        <time>2011-06-19T13:21:36Z</time>
      </trkpt>
      <trkpt lat="42.67048" lon="1.73739">
        <ele>2162.623046875</ele>
        <time>2011-06-19T13:21:45Z</time>
      </trkpt>
      <trkpt lat="42.67055" lon="1.73725">
        <ele>2160.7004394531</ele>
        <time>2011-06-19T13:21:52Z</time>
      </trkpt>
      <trkpt lat="42.67056" lon="1.73724">
        <ele>2160.2197265625</ele>
        <time>2011-06-19T13:21:53Z</time>
      </trkpt>
      <trkpt lat="42.6706" lon="1.73715">
        <ele>2158.2971191406</ele>
        <time>2011-06-19T13:21:59Z</time>
      </trkpt>
      <trkpt lat="42.67061" lon="1.73714">
        <ele>2158.2971191406</ele>
        <time>2011-06-19T13:22:00Z</time>
      </trkpt>
      <trkpt lat="42.67065" lon="1.73707">
        <ele>2156.8552246094</ele>
        <time>2011-06-19T13:22:05Z</time>
      </trkpt>
      <trkpt lat="42.6707" lon="1.73697">
        <ele>2154.9323730469</ele>
        <time>2011-06-19T13:22:13Z</time>
      </trkpt>
      <trkpt lat="42.67076" lon="1.73692">
        <ele>2154.4516601562</ele>
        <time>2011-06-19T13:22:19Z</time>
      </trkpt>
      <trkpt lat="42.67085" lon="1.73682">
        <ele>2151.5678710938</ele>
        <time>2011-06-19T13:22:27Z</time>
      </trkpt>
      <trkpt lat="42.67092" lon="1.73673">
        <ele>2149.1645507812</ele>
        <time>2011-06-19T13:22:33Z</time>
      </trkpt>
      <trkpt lat="42.67099" lon="1.73665">
        <ele>2146.7612304688</ele>
        <time>2011-06-19T13:22:42Z</time>
      </trkpt>
      <trkpt lat="42.67105" lon="1.73657">
        <ele>2144.8386230469</ele>
        <time>2011-06-19T13:22:48Z</time>
      </trkpt>
      <trkpt lat="42.67111" lon="1.73646">
        <ele>2141.4741210938</ele>
        <time>2011-06-19T13:22:55Z</time>
      </trkpt>
      <trkpt lat="42.67113" lon="1.73642">
        <ele>2140.9934082031</ele>
        <time>2011-06-19T13:22:59Z</time>
      </trkpt>
      <trkpt lat="42.67116" lon="1.73639">
        <ele>2140.5126953125</ele>
        <time>2011-06-19T13:23:05Z</time>
      </trkpt>
      <trkpt lat="42.67122" lon="1.73632">
        <ele>2138.109375</ele>
        <time>2011-06-19T13:23:12Z</time>
      </trkpt>
      <trkpt lat="42.67123" lon="1.73631">
        <ele>2137.6286621094</ele>
        <time>2011-06-19T13:23:13Z</time>
      </trkpt>
      <trkpt lat="42.67126" lon="1.73627">
        <ele>2136.6672363281</ele>
        <time>2011-06-19T13:23:17Z</time>
      </trkpt>
      <trkpt lat="42.67127" lon="1.73623">
        <ele>2135.2253417969</ele>
        <time>2011-06-19T13:23:24Z</time>
      </trkpt>
      <trkpt lat="42.67128" lon="1.73622">
        <ele>2134.2641601562</ele>
        <time>2011-06-19T13:23:25Z</time>
      </trkpt>
      <trkpt lat="42.67135" lon="1.73613">
        <ele>2131.8608398438</ele>
        <time>2011-06-19T13:23:32Z</time>
      </trkpt>
      <trkpt lat="42.67141" lon="1.73606">
        <ele>2131.3801269531</ele>
        <time>2011-06-19T13:23:38Z</time>
      </trkpt>
      <trkpt lat="42.67144" lon="1.73602">
        <ele>2130.4189453125</ele>
        <time>2011-06-19T13:23:42Z</time>
      </trkpt>
      <trkpt lat="42.67149" lon="1.73594">
        <ele>2128.4963378906</ele>
        <time>2011-06-19T13:23:48Z</time>
      </trkpt>
      <trkpt lat="42.67155" lon="1.73587">
        <ele>2126.0930175781</ele>
        <time>2011-06-19T13:23:54Z</time>
      </trkpt>
      <trkpt lat="42.67157" lon="1.73586">
        <ele>2126.0930175781</ele>
        <time>2011-06-19T13:23:55Z</time>
      </trkpt>
      <trkpt lat="42.67162" lon="1.73581">
        <ele>2124.1704101562</ele>
        <time>2011-06-19T13:24:01Z</time>
      </trkpt>
      <trkpt lat="42.67168" lon="1.73576">
        <ele>2123.208984375</ele>
        <time>2011-06-19T13:24:06Z</time>
      </trkpt>
      <trkpt lat="42.67175" lon="1.73571">
        <ele>2121.7668457031</ele>
        <time>2011-06-19T13:24:11Z</time>
      </trkpt>
      <trkpt lat="42.67178" lon="1.73571">
        <ele>2120.8056640625</ele>
        <time>2011-06-19T13:24:14Z</time>
      </trkpt>
      <trkpt lat="42.67179" lon="1.73569">
        <ele>2119.8442382812</ele>
        <time>2011-06-19T13:24:16Z</time>
      </trkpt>
      <trkpt lat="42.67183" lon="1.73568">
        <ele>2118.8830566406</ele>
        <time>2011-06-19T13:24:20Z</time>
      </trkpt>
      <trkpt lat="42.67189" lon="1.73561">
        <ele>2116.4797363281</ele>
        <time>2011-06-19T13:24:28Z</time>
      </trkpt>
      <trkpt lat="42.67197" lon="1.73553">
        <ele>2114.5571289062</ele>
        <time>2011-06-19T13:24:36Z</time>
      </trkpt>
      <trkpt lat="42.67203" lon="1.73546">
        <ele>2112.6345214844</ele>
        <time>2011-06-19T13:24:42Z</time>
      </trkpt>
      <trkpt lat="42.67208" lon="1.73539">
        <ele>2111.1926269531</ele>
        <time>2011-06-19T13:24:48Z</time>
      </trkpt>
      <trkpt lat="42.67216" lon="1.7353">
        <ele>2108.7893066406</ele>
        <time>2011-06-19T13:24:55Z</time>
      </trkpt>
      <trkpt lat="42.67221" lon="1.73525">
        <ele>2107.8278808594</ele>
        <time>2011-06-19T13:25:00Z</time>
      </trkpt>
      <trkpt lat="42.67223" lon="1.73519">
        <ele>2106.3857421875</ele>
        <time>2011-06-19T13:25:04Z</time>
      </trkpt>
      <trkpt lat="42.67228" lon="1.73507">
        <ele>2103.9826660156</ele>
        <time>2011-06-19T13:25:12Z</time>
      </trkpt>
      <trkpt lat="42.67234" lon="1.73497">
        <ele>2102.5405273438</ele>
        <time>2011-06-19T13:25:19Z</time>
      </trkpt>
      <trkpt lat="42.67239" lon="1.73489">
        <ele>2102.0598144531</ele>
        <time>2011-06-19T13:25:25Z</time>
      </trkpt>
      <trkpt lat="42.67245" lon="1.73482">
        <ele>2100.6179199219</ele>
        <time>2011-06-19T13:25:31Z</time>
      </trkpt>
      <trkpt lat="42.67248" lon="1.73479">
        <ele>2100.1374511719</ele>
        <time>2011-06-19T13:25:35Z</time>
      </trkpt>
      <trkpt lat="42.67249" lon="1.73479">
        <ele>2099.6567382812</ele>
        <time>2011-06-19T13:25:41Z</time>
      </trkpt>
      <trkpt lat="42.67245" lon="1.73471">
        <ele>2098.6953125</ele>
        <time>2011-06-19T13:25:48Z</time>
      </trkpt>
      <trkpt lat="42.67244" lon="1.73468">
        <ele>2098.6953125</ele>
        <time>2011-06-19T13:25:54Z</time>
      </trkpt>
      <trkpt lat="42.67242" lon="1.73465">
        <ele>2095.3308105469</ele>
        <time>2011-06-19T13:26:25Z</time>
      </trkpt>
      <trkpt lat="42.67236" lon="1.73455">
        <ele>2094.8500976562</ele>
        <time>2011-06-19T13:26:33Z</time>
      </trkpt>
      <trkpt lat="42.67232" lon="1.73446">
        <ele>2094.8500976562</ele>
        <time>2011-06-19T13:26:39Z</time>
      </trkpt>
      <trkpt lat="42.67223" lon="1.7343">
        <ele>2092.9274902344</ele>
        <time>2011-06-19T13:26:46Z</time>
      </trkpt>
      <trkpt lat="42.67215" lon="1.73418">
        <ele>2090.5239257812</ele>
        <time>2011-06-19T13:26:51Z</time>
      </trkpt>
      <trkpt lat="42.67207" lon="1.73405">
        <ele>2087.1594238281</ele>
        <time>2011-06-19T13:26:56Z</time>
      </trkpt>
      <trkpt lat="42.67201" lon="1.73394">
        <ele>2084.2756347656</ele>
        <time>2011-06-19T13:27:02Z</time>
      </trkpt>
      <trkpt lat="42.672" lon="1.73392">
        <ele>2083.794921875</ele>
        <time>2011-06-19T13:27:03Z</time>
      </trkpt>
      <trkpt lat="42.67198" lon="1.73385">
        <ele>2082.3530273438</ele>
        <time>2011-06-19T13:27:08Z</time>
      </trkpt>
      <trkpt lat="42.67197" lon="1.73382">
        <ele>2081.8723144531</ele>
        <time>2011-06-19T13:27:10Z</time>
      </trkpt>
      <trkpt lat="42.67195" lon="1.73377">
        <ele>2080.4304199219</ele>
        <time>2011-06-19T13:27:16Z</time>
      </trkpt>
      <trkpt lat="42.67193" lon="1.73369">
        <ele>2078.0270996094</ele>
        <time>2011-06-19T13:27:21Z</time>
      </trkpt>
      <trkpt lat="42.6719" lon="1.73357">
        <ele>2074.6623535156</ele>
        <time>2011-06-19T13:27:29Z</time>
      </trkpt>
      <trkpt lat="42.67186" lon="1.73344">
        <ele>2070.3364257812</ele>
        <time>2011-06-19T13:27:38Z</time>
      </trkpt>
      <trkpt lat="42.67183" lon="1.73334">
        <ele>2066.9719238281</ele>
        <time>2011-06-19T13:27:46Z</time>
      </trkpt>
      <trkpt lat="42.67183" lon="1.73322">
        <ele>2064.087890625</ele>
        <time>2011-06-19T13:27:55Z</time>
      </trkpt>
      <trkpt lat="42.67183" lon="1.73314">
        <ele>2062.6459960938</ele>
        <time>2011-06-19T13:28:01Z</time>
      </trkpt>
      <trkpt lat="42.67182" lon="1.73314">
        <ele>2062.1652832031</ele>
        <time>2011-06-19T13:28:08Z</time>
      </trkpt>
      <trkpt lat="42.6718" lon="1.73314">
        <ele>2061.6848144531</ele>
        <time>2011-06-19T13:28:10Z</time>
      </trkpt>
      <trkpt lat="42.67175" lon="1.73314">
        <ele>2059.76171875</ele>
        <time>2011-06-19T13:28:14Z</time>
      </trkpt>
      <trkpt lat="42.67173" lon="1.73313">
        <ele>2059.28125</ele>
        <time>2011-06-19T13:28:16Z</time>
      </trkpt>
      <trkpt lat="42.67173" lon="1.73306">
        <ele>2057.8393554688</ele>
        <time>2011-06-19T13:28:23Z</time>
      </trkpt>
      <trkpt lat="42.67173" lon="1.73299">
        <ele>2056.3972167969</ele>
        <time>2011-06-19T13:28:30Z</time>
      </trkpt>
      <trkpt lat="42.67173" lon="1.73297">
        <ele>2055.4360351562</ele>
        <time>2011-06-19T13:28:37Z</time>
      </trkpt>
      <trkpt lat="42.67171" lon="1.73294">
        <ele>2053.5134277344</ele>
        <time>2011-06-19T13:28:43Z</time>
      </trkpt>
      <trkpt lat="42.6717" lon="1.73291">
        <ele>2052.5520019531</ele>
        <time>2011-06-19T13:28:48Z</time>
      </trkpt>
      <trkpt lat="42.67169" lon="1.73283">
        <ele>2050.6293945312</ele>
        <time>2011-06-19T13:28:54Z</time>
      </trkpt>
      <trkpt lat="42.6717" lon="1.73281">
        <ele>2050.1489257812</ele>
        <time>2011-06-19T13:28:56Z</time>
      </trkpt>
      <trkpt lat="42.67173" lon="1.73272">
        <ele>2048.2260742188</ele>
        <time>2011-06-19T13:29:02Z</time>
      </trkpt>
      <trkpt lat="42.67173" lon="1.73271">
        <ele>2047.7456054688</ele>
        <time>2011-06-19T13:29:03Z</time>
      </trkpt>
      <trkpt lat="42.67175" lon="1.73267">
        <ele>2046.7841796875</ele>
        <time>2011-06-19T13:29:06Z</time>
      </trkpt>
      <trkpt lat="42.6717" lon="1.73266">
        <ele>2045.3422851562</ele>
        <time>2011-06-19T13:29:11Z</time>
      </trkpt>
      <trkpt lat="42.67167" lon="1.73268">
        <ele>2044.8615722656</ele>
        <time>2011-06-19T13:29:13Z</time>
      </trkpt>
      <trkpt lat="42.6716" lon="1.73271">
        <ele>2042.4582519531</ele>
        <time>2011-06-19T13:29:20Z</time>
      </trkpt>
      <trkpt lat="42.67152" lon="1.73279">
        <ele>2040.5354003906</ele>
        <time>2011-06-19T13:29:26Z</time>
      </trkpt>
      <trkpt lat="42.67147" lon="1.73282">
        <ele>2039.0935058594</ele>
        <time>2011-06-19T13:29:30Z</time>
      </trkpt>
      <trkpt lat="42.67145" lon="1.73278">
        <ele>2037.6516113281</ele>
        <time>2011-06-19T13:29:34Z</time>
      </trkpt>
      <trkpt lat="42.67147" lon="1.73276">
        <ele>2036.6901855469</ele>
        <time>2011-06-19T13:29:36Z</time>
      </trkpt>
      <trkpt lat="42.67143" lon="1.73274">
        <ele>2034.7678222656</ele>
        <time>2011-06-19T13:29:42Z</time>
      </trkpt>
      <trkpt lat="42.67137" lon="1.73277">
        <ele>2033.3256835938</ele>
        <time>2011-06-19T13:29:48Z</time>
      </trkpt>
      <trkpt lat="42.67129" lon="1.73281">
        <ele>2031.8837890625</ele>
        <time>2011-06-19T13:29:55Z</time>
      </trkpt>
      <trkpt lat="42.67127" lon="1.73281">
        <ele>2031.4030761719</ele>
        <time>2011-06-19T13:29:57Z</time>
      </trkpt>
      <trkpt lat="42.67125" lon="1.73283">
        <ele>2030.9226074219</ele>
        <time>2011-06-19T13:29:59Z</time>
      </trkpt>
      <trkpt lat="42.67123" lon="1.73285">
        <ele>2030.4418945312</ele>
        <time>2011-06-19T13:30:06Z</time>
      </trkpt>
      <trkpt lat="42.67122" lon="1.73286">
        <ele>2029.48046875</ele>
        <time>2011-06-19T13:30:20Z</time>
      </trkpt>
      <trkpt lat="42.67116" lon="1.73288">
        <ele>2027.0771484375</ele>
        <time>2011-06-19T13:30:27Z</time>
      </trkpt>
      <trkpt lat="42.67117" lon="1.73281">
        <ele>2025.6350097656</ele>
        <time>2011-06-19T13:30:33Z</time>
      </trkpt>
      <trkpt lat="42.67117" lon="1.73272">
        <ele>2023.2319335938</ele>
        <time>2011-06-19T13:30:40Z</time>
      </trkpt>
      <trkpt lat="42.67114" lon="1.73274">
        <ele>2021.7897949219</ele>
        <time>2011-06-19T13:30:45Z</time>
      </trkpt>
      <trkpt lat="42.67109" lon="1.73278">
        <ele>2019.8671875</ele>
        <time>2011-06-19T13:30:51Z</time>
      </trkpt>
      <trkpt lat="42.67105" lon="1.73281">
        <ele>2019.38671875</ele>
        <time>2011-06-19T13:30:55Z</time>
      </trkpt>
      <trkpt lat="42.671" lon="1.73282">
        <ele>2018.4252929688</ele>
        <time>2011-06-19T13:31:02Z</time>
      </trkpt>
      <trkpt lat="42.67096" lon="1.73286">
        <ele>2016.5026855469</ele>
        <time>2011-06-19T13:31:10Z</time>
      </trkpt>
      <trkpt lat="42.6709" lon="1.7329">
        <ele>2014.580078125</ele>
        <time>2011-06-19T13:31:16Z</time>
      </trkpt>
      <trkpt lat="42.67086" lon="1.73291">
        <ele>2013.6186523438</ele>
        <time>2011-06-19T13:31:22Z</time>
      </trkpt>
      <trkpt lat="42.6708" lon="1.73293">
        <ele>2010.25390625</ele>
        <time>2011-06-19T13:31:29Z</time>
      </trkpt>
      <trkpt lat="42.67076" lon="1.733">
        <ele>2008.8120117188</ele>
        <time>2011-06-19T13:31:37Z</time>
      </trkpt>
      <trkpt lat="42.67075" lon="1.73302">
        <ele>2008.3312988281</ele>
        <time>2011-06-19T13:31:44Z</time>
      </trkpt>
      <trkpt lat="42.67072" lon="1.73304">
        <ele>2007.3701171875</ele>
        <time>2011-06-19T13:31:49Z</time>
      </trkpt>
      <trkpt lat="42.67065" lon="1.73307">
        <ele>2005.4475097656</ele>
        <time>2011-06-19T13:31:57Z</time>
      </trkpt>
      <trkpt lat="42.67059" lon="1.7331">
        <ele>2004.4860839844</ele>
        <time>2011-06-19T13:32:03Z</time>
      </trkpt>
      <trkpt lat="42.67055" lon="1.73311">
        <ele>2003.0441894531</ele>
        <time>2011-06-19T13:32:09Z</time>
      </trkpt>
      <trkpt lat="42.67048" lon="1.7331">
        <ele>2000.6408691406</ele>
        <time>2011-06-19T13:32:16Z</time>
      </trkpt>
      <trkpt lat="42.67042" lon="1.73311">
        <ele>1997.7570800781</ele>
        <time>2011-06-19T13:32:21Z</time>
      </trkpt>
      <trkpt lat="42.67038" lon="1.73311">
        <ele>1996.3151855469</ele>
        <time>2011-06-19T13:32:24Z</time>
      </trkpt>
      <trkpt lat="42.67033" lon="1.73304">
        <ele>1992.9501953125</ele>
        <time>2011-06-19T13:32:29Z</time>
      </trkpt>
      <trkpt lat="42.67029" lon="1.73295">
        <ele>1990.06640625</ele>
        <time>2011-06-19T13:32:34Z</time>
      </trkpt>
      <trkpt lat="42.67029" lon="1.7329">
        <ele>1989.1049804688</ele>
        <time>2011-06-19T13:32:37Z</time>
      </trkpt>
      <trkpt lat="42.67032" lon="1.73281">
        <ele>1986.7016601562</ele>
        <time>2011-06-19T13:32:45Z</time>
      </trkpt>
      <trkpt lat="42.67035" lon="1.73276">
        <ele>1985.7404785156</ele>
        <time>2011-06-19T13:32:50Z</time>
      </trkpt>
      <trkpt lat="42.67035" lon="1.73271">
        <ele>1983.3371582031</ele>
        <time>2011-06-19T13:32:57Z</time>
      </trkpt>
      <trkpt lat="42.67033" lon="1.7327">
        <ele>1982.3759765625</ele>
        <time>2011-06-19T13:33:03Z</time>
      </trkpt>
      <trkpt lat="42.67032" lon="1.73269">
        <ele>1982.3759765625</ele>
        <time>2011-06-19T13:33:10Z</time>
      </trkpt>
      <trkpt lat="42.67035" lon="1.73268">
        <ele>1982.3759765625</ele>
        <time>2011-06-19T13:33:16Z</time>
      </trkpt>
      <trkpt lat="42.67038" lon="1.73264">
        <ele>1981.4145507812</ele>
        <time>2011-06-19T13:33:22Z</time>
      </trkpt>
      <trkpt lat="42.67036" lon="1.73261">
        <ele>1979.9724121094</ele>
        <time>2011-06-19T13:33:27Z</time>
      </trkpt>
      <trkpt lat="42.67033" lon="1.73259">
        <ele>1978.0498046875</ele>
        <time>2011-06-19T13:33:33Z</time>
      </trkpt>
      <trkpt lat="42.67034" lon="1.73254">
        <ele>1976.6079101562</ele>
        <time>2011-06-19T13:33:38Z</time>
      </trkpt>
      <trkpt lat="42.67033" lon="1.73248">
        <ele>1975.1657714844</ele>
        <time>2011-06-19T13:33:44Z</time>
      </trkpt>
      <trkpt lat="42.67028" lon="1.73247">
        <ele>1973.7238769531</ele>
        <time>2011-06-19T13:33:50Z</time>
      </trkpt>
      <trkpt lat="42.67025" lon="1.73244">
        <ele>1971.8012695312</ele>
        <time>2011-06-19T13:33:56Z</time>
      </trkpt>
      <trkpt lat="42.67019" lon="1.73243">
        <ele>1970.359375</ele>
        <time>2011-06-19T13:34:02Z</time>
      </trkpt>
      <trkpt lat="42.67018" lon="1.7324">
        <ele>1968.9174804688</ele>
        <time>2011-06-19T13:34:07Z</time>
      </trkpt>
      <trkpt lat="42.6702" lon="1.73236">
        <ele>1967.4753417969</ele>
        <time>2011-06-19T13:34:14Z</time>
      </trkpt>
      <trkpt lat="42.67023" lon="1.7323">
        <ele>1966.5141601562</ele>
        <time>2011-06-19T13:34:20Z</time>
      </trkpt>
      <trkpt lat="42.67023" lon="1.73224">
        <ele>1965.072265625</ele>
        <time>2011-06-19T13:34:27Z</time>
      </trkpt>
      <trkpt lat="42.67025" lon="1.7322">
        <ele>1964.5915527344</ele>
        <time>2011-06-19T13:34:33Z</time>
      </trkpt>
      <trkpt lat="42.67023" lon="1.73217">
        <ele>1962.6687011719</ele>
        <time>2011-06-19T13:34:39Z</time>
      </trkpt>
      <trkpt lat="42.67022" lon="1.73214">
        <ele>1960.74609375</ele>
        <time>2011-06-19T13:34:44Z</time>
      </trkpt>
      <trkpt lat="42.67022" lon="1.73209">
        <ele>1959.3041992188</ele>
        <time>2011-06-19T13:34:49Z</time>
      </trkpt>
      <trkpt lat="42.67022" lon="1.73205">
        <ele>1957.8623046875</ele>
        <time>2011-06-19T13:34:55Z</time>
      </trkpt>
      <trkpt lat="42.67023" lon="1.73197">
        <ele>1955.458984375</ele>
        <time>2011-06-19T13:35:02Z</time>
      </trkpt>
      <trkpt lat="42.6702" lon="1.73193">
        <ele>1953.5363769531</ele>
        <time>2011-06-19T13:35:08Z</time>
      </trkpt>
      <trkpt lat="42.67018" lon="1.73191">
        <ele>1952.0942382812</ele>
        <time>2011-06-19T13:35:13Z</time>
      </trkpt>
      <trkpt lat="42.67018" lon="1.73184">
        <ele>1950.171875</ele>
        <time>2011-06-19T13:35:20Z</time>
      </trkpt>
      <trkpt lat="42.67015" lon="1.73178">
        <ele>1948.2490234375</ele>
        <time>2011-06-19T13:35:26Z</time>
      </trkpt>
      <trkpt lat="42.67013" lon="1.73173">
        <ele>1945.845703125</ele>
        <time>2011-06-19T13:35:33Z</time>
      </trkpt>
      <trkpt lat="42.67008" lon="1.73168">
        <ele>1942.9616699219</ele>
        <time>2011-06-19T13:35:41Z</time>
      </trkpt>
      <trkpt lat="42.67004" lon="1.73164">
        <ele>1941.0390625</ele>
        <time>2011-06-19T13:35:47Z</time>
      </trkpt>
      <trkpt lat="42.67" lon="1.73161">
        <ele>1938.6359863281</ele>
        <time>2011-06-19T13:35:53Z</time>
      </trkpt>
      <trkpt lat="42.66993" lon="1.73158">
        <ele>1935.2712402344</ele>
        <time>2011-06-19T13:36:01Z</time>
      </trkpt>
      <trkpt lat="42.66985" lon="1.73159">
        <ele>1933.3486328125</ele>
        <time>2011-06-19T13:36:10Z</time>
      </trkpt>
      <trkpt lat="42.66981" lon="1.73161">
        <ele>1931.42578125</ele>
        <time>2011-06-19T13:36:15Z</time>
      </trkpt>
      <trkpt lat="42.66978" lon="1.73161">
        <ele>1930.9453125</ele>
        <time>2011-06-19T13:36:21Z</time>
      </trkpt>
      <trkpt lat="42.66975" lon="1.73161">
        <ele>1929.0224609375</ele>
        <time>2011-06-19T13:36:27Z</time>
      </trkpt>
      <trkpt lat="42.66969" lon="1.73163">
        <ele>1926.138671875</ele>
        <time>2011-06-19T13:36:34Z</time>
      </trkpt>
      <trkpt lat="42.66964" lon="1.73163">
        <ele>1924.2160644531</ele>
        <time>2011-06-19T13:36:40Z</time>
      </trkpt>
      <trkpt lat="42.6696" lon="1.73163">
        <ele>1922.2934570312</ele>
        <time>2011-06-19T13:36:46Z</time>
      </trkpt>
      <trkpt lat="42.66953" lon="1.73162">
        <ele>1920.8515625</ele>
        <time>2011-06-19T13:36:52Z</time>
      </trkpt>
      <trkpt lat="42.66951" lon="1.73162">
        <ele>1920.3708496094</ele>
        <time>2011-06-19T13:36:54Z</time>
      </trkpt>
      <trkpt lat="42.66945" lon="1.7316">
        <ele>1918.9289550781</ele>
        <time>2011-06-19T13:37:00Z</time>
      </trkpt>
      <trkpt lat="42.66938" lon="1.7316">
        <ele>1917.4868164062</ele>
        <time>2011-06-19T13:37:09Z</time>
      </trkpt>
      <trkpt lat="42.66934" lon="1.73161">
        <ele>1916.044921875</ele>
        <time>2011-06-19T13:37:15Z</time>
      </trkpt>
      <trkpt lat="42.6693" lon="1.73163">
        <ele>1915.0834960938</ele>
        <time>2011-06-19T13:37:21Z</time>
      </trkpt>
      <trkpt lat="42.66927" lon="1.73157">
        <ele>1913.6413574219</ele>
        <time>2011-06-19T13:37:26Z</time>
      </trkpt>
      <trkpt lat="42.66926" lon="1.73156">
        <ele>1913.1608886719</ele>
        <time>2011-06-19T13:37:27Z</time>
      </trkpt>
      <trkpt lat="42.66922" lon="1.7315">
        <ele>1911.23828125</ele>
        <time>2011-06-19T13:37:31Z</time>
      </trkpt>
      <trkpt lat="42.66921" lon="1.73144">
        <ele>1909.7961425781</ele>
        <time>2011-06-19T13:37:34Z</time>
      </trkpt>
      <trkpt lat="42.66922" lon="1.73129">
        <ele>1906.431640625</ele>
        <time>2011-06-19T13:37:42Z</time>
      </trkpt>
      <trkpt lat="42.66922" lon="1.73118">
        <ele>1904.5090332031</ele>
        <time>2011-06-19T13:37:48Z</time>
      </trkpt>
      <trkpt lat="42.66923" lon="1.73109">
        <ele>1902.5864257812</ele>
        <time>2011-06-19T13:37:54Z</time>
      </trkpt>
      <trkpt lat="42.66923" lon="1.73102">
        <ele>1901.14453125</ele>
        <time>2011-06-19T13:37:59Z</time>
      </trkpt>
      <trkpt lat="42.66923" lon="1.73092">
        <ele>1899.2216796875</ele>
        <time>2011-06-19T13:38:05Z</time>
      </trkpt>
      <trkpt lat="42.66927" lon="1.73086">
        <ele>1896.818359375</ele>
        <time>2011-06-19T13:38:11Z</time>
      </trkpt>
      <trkpt lat="42.66931" lon="1.73081">
        <ele>1895.3764648438</ele>
        <time>2011-06-19T13:38:15Z</time>
      </trkpt>
      <trkpt lat="42.66935" lon="1.73074">
        <ele>1894.4150390625</ele>
        <time>2011-06-19T13:38:20Z</time>
      </trkpt>
      <trkpt lat="42.66937" lon="1.73074">
        <ele>1893.4538574219</ele>
        <time>2011-06-19T13:38:25Z</time>
      </trkpt>
      <trkpt lat="42.66941" lon="1.73073">
        <ele>1892.4926757812</ele>
        <time>2011-06-19T13:38:32Z</time>
      </trkpt>
      <trkpt lat="42.66942" lon="1.73073">
        <ele>1892.0119628906</ele>
        <time>2011-06-19T13:38:37Z</time>
      </trkpt>
      <trkpt lat="42.66945" lon="1.73071">
        <ele>1891.53125</ele>
        <time>2011-06-19T13:38:42Z</time>
      </trkpt>
      <trkpt lat="42.66946" lon="1.73068">
        <ele>1892.0119628906</ele>
        <time>2011-06-19T13:38:48Z</time>
      </trkpt>
      <trkpt lat="42.66948" lon="1.73064">
        <ele>1891.53125</ele>
        <time>2011-06-19T13:38:56Z</time>
      </trkpt>
      <trkpt lat="42.6695" lon="1.7306">
        <ele>1890.5698242188</ele>
        <time>2011-06-19T13:39:02Z</time>
      </trkpt>
      <trkpt lat="42.66952" lon="1.73057">
        <ele>1890.0893554688</ele>
        <time>2011-06-19T13:39:08Z</time>
      </trkpt>
      <trkpt lat="42.66953" lon="1.73052">
        <ele>1888.6474609375</ele>
        <time>2011-06-19T13:39:15Z</time>
      </trkpt>
      <trkpt lat="42.66955" lon="1.73047">
        <ele>1887.2053222656</ele>
        <time>2011-06-19T13:39:21Z</time>
      </trkpt>
      <trkpt lat="42.66954" lon="1.7304">
        <ele>1884.8022460938</ele>
        <time>2011-06-19T13:39:28Z</time>
      </trkpt>
      <trkpt lat="42.66953" lon="1.73039">
        <ele>1884.3215332031</ele>
        <time>2011-06-19T13:39:33Z</time>
      </trkpt>
      <trkpt lat="42.66953" lon="1.73035">
        <ele>1883.3598632812</ele>
        <time>2011-06-19T13:39:38Z</time>
      </trkpt>
      <trkpt lat="42.66953" lon="1.73027">
        <ele>1881.4372558594</ele>
        <time>2011-06-19T13:39:45Z</time>
      </trkpt>
      <trkpt lat="42.66953" lon="1.73024">
        <ele>1880.9567871094</ele>
        <time>2011-06-19T13:39:49Z</time>
      </trkpt>
      <trkpt lat="42.66952" lon="1.73022">
        <ele>1880.4760742188</ele>
        <time>2011-06-19T13:39:54Z</time>
      </trkpt>
      <trkpt lat="42.66951" lon="1.73018">
        <ele>1879.0339355469</ele>
        <time>2011-06-19T13:40:00Z</time>
      </trkpt>
      <trkpt lat="42.66953" lon="1.73013">
        <ele>1879.0339355469</ele>
        <time>2011-06-19T13:40:05Z</time>
      </trkpt>
      <trkpt lat="42.66955" lon="1.73009">
        <ele>1879.0339355469</ele>
        <time>2011-06-19T13:40:11Z</time>
      </trkpt>
      <trkpt lat="42.66957" lon="1.73007">
        <ele>1878.0727539062</ele>
        <time>2011-06-19T13:40:16Z</time>
      </trkpt>
      <trkpt lat="42.66955" lon="1.73003">
        <ele>1876.630859375</ele>
        <time>2011-06-19T13:40:22Z</time>
      </trkpt>
      <trkpt lat="42.66952" lon="1.73001">
        <ele>1876.1501464844</ele>
        <time>2011-06-19T13:40:27Z</time>
      </trkpt>
      <trkpt lat="42.66948" lon="1.72996">
        <ele>1874.7082519531</ele>
        <time>2011-06-19T13:40:34Z</time>
      </trkpt>
      <trkpt lat="42.66949" lon="1.72989">
        <ele>1872.3049316406</ele>
        <time>2011-06-19T13:40:41Z</time>
      </trkpt>
      <trkpt lat="42.66945" lon="1.72982">
        <ele>1869.4211425781</ele>
        <time>2011-06-19T13:40:49Z</time>
      </trkpt>
      <trkpt lat="42.66945" lon="1.72976">
        <ele>1867.017578125</ele>
        <time>2011-06-19T13:40:55Z</time>
      </trkpt>
      <trkpt lat="42.66945" lon="1.72968">
        <ele>1865.0949707031</ele>
        <time>2011-06-19T13:41:01Z</time>
      </trkpt>
      <trkpt lat="42.66943" lon="1.7296">
        <ele>1863.6528320312</ele>
        <time>2011-06-19T13:41:07Z</time>
      </trkpt>
      <trkpt lat="42.66941" lon="1.72954">
        <ele>1862.6916503906</ele>
        <time>2011-06-19T13:41:11Z</time>
      </trkpt>
      <trkpt lat="42.6694" lon="1.72943">
        <ele>1861.2497558594</ele>
        <time>2011-06-19T13:41:18Z</time>
      </trkpt>
      <trkpt lat="42.66939" lon="1.72936">
        <ele>1859.3271484375</ele>
        <time>2011-06-19T13:41:24Z</time>
      </trkpt>
      <trkpt lat="42.66938" lon="1.72928">
        <ele>1857.8852539062</ele>
        <time>2011-06-19T13:41:31Z</time>
      </trkpt>
      <trkpt lat="42.66937" lon="1.72919">
        <ele>1855.9624023438</ele>
        <time>2011-06-19T13:41:38Z</time>
      </trkpt>
      <trkpt lat="42.66933" lon="1.72906">
        <ele>1854.5205078125</ele>
        <time>2011-06-19T13:41:47Z</time>
      </trkpt>
      <trkpt lat="42.6693" lon="1.72896">
        <ele>1853.5593261719</ele>
        <time>2011-06-19T13:41:54Z</time>
      </trkpt>
      <trkpt lat="42.66928" lon="1.72886">
        <ele>1853.0786132812</ele>
        <time>2011-06-19T13:42:01Z</time>
      </trkpt>
      <trkpt lat="42.66922" lon="1.72877">
        <ele>1852.5979003906</ele>
        <time>2011-06-19T13:42:09Z</time>
      </trkpt>
      <trkpt lat="42.66918" lon="1.7287">
        <ele>1852.5979003906</ele>
        <time>2011-06-19T13:42:16Z</time>
      </trkpt>
      <trkpt lat="42.66915" lon="1.72863">
        <ele>1851.6364746094</ele>
        <time>2011-06-19T13:42:22Z</time>
      </trkpt>
      <trkpt lat="42.66909" lon="1.72854">
        <ele>1851.6364746094</ele>
        <time>2011-06-19T13:42:29Z</time>
      </trkpt>
      <trkpt lat="42.66909" lon="1.72853">
        <ele>1851.6364746094</ele>
        <time>2011-06-19T13:42:30Z</time>
      </trkpt>
      <trkpt lat="42.66907" lon="1.72849">
        <ele>1851.1557617188</ele>
        <time>2011-06-19T13:42:34Z</time>
      </trkpt>
      <trkpt lat="42.66904" lon="1.72839">
        <ele>1850.6750488281</ele>
        <time>2011-06-19T13:42:41Z</time>
      </trkpt>
      <trkpt lat="42.66903" lon="1.72836">
        <ele>1850.1945800781</ele>
        <time>2011-06-19T13:42:43Z</time>
      </trkpt>
      <trkpt lat="42.66904" lon="1.72832">
        <ele>1849.7138671875</ele>
        <time>2011-06-19T13:42:49Z</time>
      </trkpt>
      <trkpt lat="42.66908" lon="1.72831">
        <ele>1850.1945800781</ele>
        <time>2011-06-19T13:42:57Z</time>
      </trkpt>
      <trkpt lat="42.66911" lon="1.72826">
        <ele>1850.6750488281</ele>
        <time>2011-06-19T13:43:02Z</time>
      </trkpt>
      <trkpt lat="42.66917" lon="1.72821">
        <ele>1851.6364746094</ele>
        <time>2011-06-19T13:43:09Z</time>
      </trkpt>
      <trkpt lat="42.66921" lon="1.72818">
        <ele>1851.1557617188</ele>
        <time>2011-06-19T13:43:14Z</time>
      </trkpt>
      <trkpt lat="42.66928" lon="1.72813">
        <ele>1851.1557617188</ele>
        <time>2011-06-19T13:43:22Z</time>
      </trkpt>
      <trkpt lat="42.66928" lon="1.72812">
        <ele>1850.6750488281</ele>
        <time>2011-06-19T13:43:27Z</time>
      </trkpt>
      <trkpt lat="42.66929" lon="1.72811">
        <ele>1849.7138671875</ele>
        <time>2011-06-19T13:43:33Z</time>
      </trkpt>
      <trkpt lat="42.6693" lon="1.72806">
        <ele>1848.2717285156</ele>
        <time>2011-06-19T13:43:38Z</time>
      </trkpt>
      <trkpt lat="42.66933" lon="1.72798">
        <ele>1846.3493652344</ele>
        <time>2011-06-19T13:43:44Z</time>
      </trkpt>
      <trkpt lat="42.66941" lon="1.72789">
        <ele>1845.8686523438</ele>
        <time>2011-06-19T13:43:52Z</time>
      </trkpt>
      <trkpt lat="42.66945" lon="1.72781">
        <ele>1845.8686523438</ele>
        <time>2011-06-19T13:43:57Z</time>
      </trkpt>
      <trkpt lat="42.66946" lon="1.7278">
        <ele>1845.8686523438</ele>
        <time>2011-06-19T13:43:58Z</time>
      </trkpt>
      <trkpt lat="42.66951" lon="1.72776">
        <ele>1845.3879394531</ele>
        <time>2011-06-19T13:44:04Z</time>
      </trkpt>
      <trkpt lat="42.66954" lon="1.72772">
        <ele>1844.4265136719</ele>
        <time>2011-06-19T13:44:08Z</time>
      </trkpt>
      <trkpt lat="42.6696" lon="1.72762">
        <ele>1843.4653320312</ele>
        <time>2011-06-19T13:44:16Z</time>
      </trkpt>
      <trkpt lat="42.66964" lon="1.72761">
        <ele>1843.9460449219</ele>
        <time>2011-06-19T13:44:20Z</time>
      </trkpt>
      <trkpt lat="42.66967" lon="1.72755">
        <ele>1843.9460449219</ele>
        <time>2011-06-19T13:44:26Z</time>
      </trkpt>
      <trkpt lat="42.6697" lon="1.7275">
        <ele>1844.4265136719</ele>
        <time>2011-06-19T13:44:31Z</time>
      </trkpt>
      <trkpt lat="42.66975" lon="1.72747">
        <ele>1844.4265136719</ele>
        <time>2011-06-19T13:44:35Z</time>
      </trkpt>
      <trkpt lat="42.66977" lon="1.72744">
        <ele>1844.4265136719</ele>
        <time>2011-06-19T13:44:42Z</time>
      </trkpt>
      <trkpt lat="42.6698" lon="1.7274">
        <ele>1844.4265136719</ele>
        <time>2011-06-19T13:44:47Z</time>
      </trkpt>
      <trkpt lat="42.66982" lon="1.72737">
        <ele>1843.9460449219</ele>
        <time>2011-06-19T13:44:52Z</time>
      </trkpt>
      <trkpt lat="42.66983" lon="1.72734">
        <ele>1843.9460449219</ele>
        <time>2011-06-19T13:44:54Z</time>
      </trkpt>
      <trkpt lat="42.66989" lon="1.72729">
        <ele>1842.9846191406</ele>
        <time>2011-06-19T13:44:59Z</time>
      </trkpt>
      <trkpt lat="42.66991" lon="1.72728">
        <ele>1842.9846191406</ele>
        <time>2011-06-19T13:45:00Z</time>
      </trkpt>
      <trkpt lat="42.67" lon="1.72719">
        <ele>1840.1008300781</ele>
        <time>2011-06-19T13:45:07Z</time>
      </trkpt>
      <trkpt lat="42.67005" lon="1.72714">
        <ele>1840.1008300781</ele>
        <time>2011-06-19T13:45:12Z</time>
      </trkpt>
      <trkpt lat="42.67009" lon="1.72704">
        <ele>1839.1394042969</ele>
        <time>2011-06-19T13:45:20Z</time>
      </trkpt>
      <trkpt lat="42.67012" lon="1.72696">
        <ele>1837.6975097656</ele>
        <time>2011-06-19T13:45:26Z</time>
      </trkpt>
      <trkpt lat="42.67014" lon="1.72691">
        <ele>1837.6975097656</ele>
        <time>2011-06-19T13:45:30Z</time>
      </trkpt>
      <trkpt lat="42.67015" lon="1.72686">
        <ele>1836.7360839844</ele>
        <time>2011-06-19T13:45:35Z</time>
      </trkpt>
      <trkpt lat="42.67021" lon="1.72685">
        <ele>1835.7746582031</ele>
        <time>2011-06-19T13:45:42Z</time>
      </trkpt>
      <trkpt lat="42.67025" lon="1.72682">
        <ele>1834.8134765625</ele>
        <time>2011-06-19T13:45:48Z</time>
      </trkpt>
      <trkpt lat="42.67027" lon="1.72676">
        <ele>1833.8520507812</ele>
        <time>2011-06-19T13:45:54Z</time>
      </trkpt>
      <trkpt lat="42.67027" lon="1.72669">
        <ele>1832.890625</ele>
        <time>2011-06-19T13:45:57Z</time>
      </trkpt>
      <trkpt lat="42.67031" lon="1.72659">
        <ele>1831.4487304688</ele>
        <time>2011-06-19T13:46:04Z</time>
      </trkpt>
      <trkpt lat="42.67036" lon="1.72651">
        <ele>1831.4487304688</ele>
        <time>2011-06-19T13:46:10Z</time>
      </trkpt>
      <trkpt lat="42.67039" lon="1.72646">
        <ele>1831.4487304688</ele>
        <time>2011-06-19T13:46:14Z</time>
      </trkpt>
      <trkpt lat="42.67047" lon="1.7264">
        <ele>1831.4487304688</ele>
        <time>2011-06-19T13:46:21Z</time>
      </trkpt>
      <trkpt lat="42.6705" lon="1.72634">
        <ele>1830.9682617188</ele>
        <time>2011-06-19T13:46:25Z</time>
      </trkpt>
      <trkpt lat="42.67053" lon="1.72628">
        <ele>1830.4875488281</ele>
        <time>2011-06-19T13:46:29Z</time>
      </trkpt>
      <trkpt lat="42.67056" lon="1.72622">
        <ele>1830.4875488281</ele>
        <time>2011-06-19T13:46:34Z</time>
      </trkpt>
      <trkpt lat="42.67077" lon="1.72502">
        <ele>1830.4875488281</ele>
        <time>2011-06-19T13:46:34Z</time>
      </trkpt>
      <trkpt lat="42.67159" lon="1.72425">
        <ele>1830.4875488281</ele>
        <time>2011-06-19T13:46:34Z</time>
      </trkpt>
      <trkpt lat="42.67172" lon="1.72202">
        <ele>1830.4875488281</ele>
        <time>2011-06-19T13:46:34Z</time>
      </trkpt>
      <trkpt lat="42.67191" lon="1.72022">
        <ele>1830.4875488281</ele>
        <time>2011-06-19T13:46:34Z</time>
      </trkpt>
      <trkpt lat="42.67207" lon="1.71918">
        <ele>1830.4875488281</ele>
        <time>2011-06-19T13:46:34Z</time>
      </trkpt>
      <trkpt lat="42.67254" lon="1.71773">
        <ele>1830.4875488281</ele>
        <time>2011-06-19T13:46:34Z</time>
      </trkpt>
      <trkpt lat="42.67248" lon="1.71704">
        <ele>1830.4875488281</ele>
        <time>2011-06-19T13:46:34Z</time>
      </trkpt>
      <trkpt lat="42.67248" lon="1.71635">
        <ele>1830.4875488281</ele>
        <time>2011-06-19T13:46:34Z</time>
      </trkpt>
      <trkpt lat="42.67254" lon="1.71481">
        <ele>1830.4875488281</ele>
        <time>2011-06-19T13:46:34Z</time>
      </trkpt>
      <trkpt lat="42.6726" lon="1.71335">
        <ele>1830.4875488281</ele>
        <time>2011-06-19T13:46:34Z</time>
      </trkpt>
      <trkpt lat="42.67248" lon="1.71266">
        <ele>1830.4875488281</ele>
        <time>2011-06-19T13:46:34Z</time>
      </trkpt>
      <trkpt lat="42.67254" lon="1.70914">
        <ele>1830.4875488281</ele>
        <time>2011-06-19T13:46:34Z</time>
      </trkpt>
      <trkpt lat="42.67273" lon="1.71103">
        <ele>1830.4875488281</ele>
        <time>2011-06-19T13:46:34Z</time>
      </trkpt>
    </trkseg>
  </trk>
</gpx>